<?xml version='1.0' encoding='UTF-8'?><gpx version="1.1" creator="JPX - https://github.com/jenetics/jpx" xmlns="http://www.topografix.com/GPX/1/1"><trk><trkseg><trkpt lat="-36.740178" lon="174.4234147"><ele>81.0</ele><time>2026-04-18T20:57:04.889Z</time></trkpt><trkpt lat="-36.7401121" lon="174.423356"><ele>81.0</ele><time>2026-04-18T20:57:07.889Z</time></trkpt><trkpt lat="-36.7400215" lon="174.423331"><ele>81.0</ele><time>2026-04-18T20:57:10.89Z</time></trkpt><trkpt lat="-36.7399445" lon="174.4233126"><ele>81.0</ele><time>2026-04-18T20:57:12.889Z</time></trkpt><trkpt lat="-36.7398831" lon="174.4232427"><ele>81.0</ele><time>2026-04-18T20:57:14.889Z</time></trkpt><trkpt lat="-36.7398711" lon="174.423141"><ele>81.0</ele><time>2026-04-18T20:57:16.889Z</time></trkpt><trkpt lat="-36.7398768" lon="174.4230585"><ele>81.57142857142857</ele><time>2026-04-18T20:57:18.89Z</time></trkpt><trkpt lat="-36.7398935" lon="174.4229788"><ele>82.14285714285714</ele><time>2026-04-18T20:57:20.889Z</time></trkpt><trkpt lat="-36.7399111" lon="174.4228639"><ele>82.71428571428572</ele><time>2026-04-18T20:57:23.888Z</time></trkpt><trkpt lat="-36.7399269" lon="174.422778"><ele>83.28571428571428</ele><time>2026-04-18T20:57:25.888Z</time></trkpt><trkpt lat="-36.7399428" lon="174.4226946"><ele>83.85714285714285</ele><time>2026-04-18T20:57:27.888Z</time></trkpt><trkpt lat="-36.7399626" lon="174.4226182"><ele>84.42857142857143</ele><time>2026-04-18T20:57:29.888Z</time></trkpt><trkpt lat="-36.7399872" lon="174.422529"><ele>85.0</ele><time>2026-04-18T20:57:32.888Z</time></trkpt><trkpt lat="-36.7400359" lon="174.4224766"><ele>85.0</ele><time>2026-04-18T20:58:40.888Z</time></trkpt><trkpt lat="-36.7400415" lon="174.4223955"><ele>85.0</ele><time>2026-04-18T20:58:46.888Z</time></trkpt><trkpt lat="-36.7400675" lon="174.4223187"><ele>85.0</ele><time>2026-04-18T20:58:48.888Z</time></trkpt><trkpt lat="-36.7401009" lon="174.4222253"><ele>85.0</ele><time>2026-04-18T20:58:51.889Z</time></trkpt><trkpt lat="-36.7401535" lon="174.4221637"><ele>85.0</ele><time>2026-04-18T20:58:53.888Z</time></trkpt><trkpt lat="-36.7402029" lon="174.422113"><ele>85.0</ele><time>2026-04-18T20:58:55.888Z</time></trkpt><trkpt lat="-36.7402425" lon="174.4220383"><ele>85.0</ele><time>2026-04-18T20:58:58.889Z</time></trkpt><trkpt lat="-36.7403163" lon="174.4220487"><ele>86.28571428571429</ele><time>2026-04-18T20:59:02.889Z</time></trkpt><trkpt lat="-36.7403969" lon="174.4220668"><ele>87.57142857142857</ele><time>2026-04-18T20:59:06.888Z</time></trkpt><trkpt lat="-36.7404541" lon="174.4220232"><ele>88.85714285714286</ele><time>2026-04-18T20:59:10.889Z</time></trkpt><trkpt lat="-36.7404999" lon="174.4219493"><ele>90.14285714285714</ele><time>2026-04-18T20:59:14.889Z</time></trkpt><trkpt lat="-36.7405786" lon="174.4219301"><ele>91.42857142857142</ele><time>2026-04-18T20:59:18.889Z</time></trkpt><trkpt lat="-36.7406449" lon="174.4218937"><ele>92.71428571428571</ele><time>2026-04-18T20:59:21.889Z</time></trkpt><trkpt lat="-36.740704" lon="174.4219401"><ele>94.0</ele><time>2026-04-18T20:59:25.889Z</time></trkpt><trkpt lat="-36.7407521" lon="174.4218881"><ele>94.0</ele><time>2026-04-18T20:59:31.887Z</time></trkpt><trkpt lat="-36.7407417" lon="174.4217838"><ele>94.0</ele><time>2026-04-18T20:59:35.89Z</time></trkpt><trkpt lat="-36.7407251" lon="174.4217028"><ele>94.0</ele><time>2026-04-18T20:59:39.887Z</time></trkpt><trkpt lat="-36.7407134" lon="174.4216237"><ele>94.0</ele><time>2026-04-18T20:59:42.89Z</time></trkpt><trkpt lat="-36.740774" lon="174.4215785"><ele>94.0</ele><time>2026-04-18T20:59:45.888Z</time></trkpt><trkpt lat="-36.7408477" lon="174.4215588"><ele>94.0</ele><time>2026-04-18T20:59:48.887Z</time></trkpt><trkpt lat="-36.7409176" lon="174.4214963"><ele>94.0</ele><time>2026-04-18T20:59:51.889Z</time></trkpt><trkpt lat="-36.7409449" lon="174.4213849"><ele>94.80000000000001</ele><time>2026-04-18T20:59:53.889Z</time></trkpt><trkpt lat="-36.7409459" lon="174.4212645"><ele>95.60000000000001</ele><time>2026-04-18T20:59:55.888Z</time></trkpt><trkpt lat="-36.7409431" lon="174.4211454"><ele>96.4</ele><time>2026-04-18T20:59:57.888Z</time></trkpt><trkpt lat="-36.7409717" lon="174.4210377"><ele>97.2</ele><time>2026-04-18T20:59:59.887Z</time></trkpt><trkpt lat="-36.7410548" lon="174.4209426"><ele>98.0</ele><time>2026-04-18T21:00:01.888Z</time></trkpt><trkpt lat="-36.7411065" lon="174.42084"><ele>98.80000000000001</ele><time>2026-04-18T21:00:03.889Z</time></trkpt><trkpt lat="-36.7411446" lon="174.4207192"><ele>99.6</ele><time>2026-04-18T21:00:05.889Z</time></trkpt><trkpt lat="-36.7412365" lon="174.4206113"><ele>100.4</ele><time>2026-04-18T21:00:07.889Z</time></trkpt><trkpt lat="-36.7412749" lon="174.4205466"><ele>101.19999999999999</ele><time>2026-04-18T21:00:08.887Z</time></trkpt><trkpt lat="-36.7413393" lon="174.4204773"><ele>102.0</ele><time>2026-04-18T21:00:09.888Z</time></trkpt><trkpt lat="-36.7414006" lon="174.420428"><ele>102.0</ele><time>2026-04-18T21:00:10.887Z</time></trkpt><trkpt lat="-36.7414955" lon="174.420331"><ele>102.0</ele><time>2026-04-18T21:00:12.889Z</time></trkpt><trkpt lat="-36.7415517" lon="174.420227"><ele>102.0</ele><time>2026-04-18T21:00:14.888Z</time></trkpt><trkpt lat="-36.7415258" lon="174.4200923"><ele>102.0</ele><time>2026-04-18T21:00:16.888Z</time></trkpt><trkpt lat="-36.7415136" lon="174.4200119"><ele>102.0</ele><time>2026-04-18T21:00:17.888Z</time></trkpt><trkpt lat="-36.7415037" lon="174.419923"><ele>102.0</ele><time>2026-04-18T21:00:18.887Z</time></trkpt><trkpt lat="-36.7415258" lon="174.419757"><ele>102.0</ele><time>2026-04-18T21:00:20.889Z</time></trkpt><trkpt lat="-36.7415376" lon="174.4196099"><ele>102.0</ele><time>2026-04-18T21:00:22.887Z</time></trkpt><trkpt lat="-36.7414754" lon="174.4194805"><ele>102.0</ele><time>2026-04-18T21:00:24.888Z</time></trkpt><trkpt lat="-36.741396" lon="174.4193911"><ele>103.16666666666667</ele><time>2026-04-18T21:00:26.89Z</time></trkpt><trkpt lat="-36.7414047" lon="174.4192933"><ele>104.33333333333334</ele><time>2026-04-18T21:00:28.889Z</time></trkpt><trkpt lat="-36.7414696" lon="174.4192453"><ele>105.5</ele><time>2026-04-18T21:00:30.888Z</time></trkpt><trkpt lat="-36.7415383" lon="174.4191889"><ele>106.66666666666667</ele><time>2026-04-18T21:00:32.889Z</time></trkpt><trkpt lat="-36.7416079" lon="174.4191117"><ele>107.83333333333334</ele><time>2026-04-18T21:00:34.887Z</time></trkpt><trkpt lat="-36.7416966" lon="174.4190507"><ele>109.0</ele><time>2026-04-18T21:00:36.889Z</time></trkpt><trkpt lat="-36.7418027" lon="174.4190288"><ele>109.6</ele><time>2026-04-18T21:00:38.888Z</time></trkpt><trkpt lat="-36.7419147" lon="174.4189957"><ele>110.2</ele><time>2026-04-18T21:00:40.888Z</time></trkpt><trkpt lat="-36.7420189" lon="174.4189621"><ele>110.79999999999998</ele><time>2026-04-18T21:00:42.888Z</time></trkpt><trkpt lat="-36.7421195" lon="174.4189212"><ele>111.39999999999999</ele><time>2026-04-18T21:00:44.887Z</time></trkpt><trkpt lat="-36.7422204" lon="174.4188704"><ele>112.0</ele><time>2026-04-18T21:00:46.888Z</time></trkpt><trkpt lat="-36.7423234" lon="174.418807"><ele>112.6</ele><time>2026-04-18T21:00:48.889Z</time></trkpt><trkpt lat="-36.7424214" lon="174.418748"><ele>113.19999999999999</ele><time>2026-04-18T21:00:50.888Z</time></trkpt><trkpt lat="-36.7425118" lon="174.418695"><ele>113.8</ele><time>2026-04-18T21:00:52.888Z</time></trkpt><trkpt lat="-36.7426048" lon="174.4186571"><ele>114.4</ele><time>2026-04-18T21:00:54.888Z</time></trkpt><trkpt lat="-36.7427087" lon="174.4186457"><ele>115.0</ele><time>2026-04-18T21:00:56.888Z</time></trkpt><trkpt lat="-36.7428115" lon="174.4186739"><ele>115.00000000000001</ele><time>2026-04-18T21:00:58.889Z</time></trkpt><trkpt lat="-36.7428903" lon="174.4187359"><ele>115.0</ele><time>2026-04-18T21:01:00.888Z</time></trkpt><trkpt lat="-36.7429639" lon="174.4187279"><ele>115.0</ele><time>2026-04-18T21:01:02.887Z</time></trkpt><trkpt lat="-36.7430754" lon="174.4187138"><ele>115.0</ele><time>2026-04-18T21:01:04.889Z</time></trkpt><trkpt lat="-36.7431668" lon="174.4187269"><ele>115.00000000000001</ele><time>2026-04-18T21:01:06.888Z</time></trkpt><trkpt lat="-36.743237" lon="174.418742"><ele>115.0</ele><time>2026-04-18T21:01:07.887Z</time></trkpt><trkpt lat="-36.7433339" lon="174.4187204"><ele>115.00000000000001</ele><time>2026-04-18T21:01:09.889Z</time></trkpt><trkpt lat="-36.7434107" lon="174.4186954"><ele>115.0</ele><time>2026-04-18T21:01:11.887Z</time></trkpt><trkpt lat="-36.7435" lon="174.4186395"><ele>115.0</ele><time>2026-04-18T21:01:13.889Z</time></trkpt><trkpt lat="-36.7435689" lon="174.4186417"><ele>115.0</ele><time>2026-04-18T21:01:14.888Z</time></trkpt><trkpt lat="-36.743638" lon="174.4186536"><ele>115.00000000000001</ele><time>2026-04-18T21:01:15.887Z</time></trkpt><trkpt lat="-36.7437204" lon="174.4187078"><ele>115.0</ele><time>2026-04-18T21:01:17.888Z</time></trkpt><trkpt lat="-36.7438273" lon="174.4187281"><ele>115.66666666666667</ele><time>2026-04-18T21:01:19.888Z</time></trkpt><trkpt lat="-36.743907" lon="174.4187928"><ele>116.33333333333334</ele><time>2026-04-18T21:01:21.888Z</time></trkpt><trkpt lat="-36.7439745" lon="174.418825"><ele>117.0</ele><time>2026-04-18T21:01:23.887Z</time></trkpt><trkpt lat="-36.7440638" lon="174.4188413"><ele>117.66666666666666</ele><time>2026-04-18T21:01:25.888Z</time></trkpt><trkpt lat="-36.7441384" lon="174.4188431"><ele>118.33333333333333</ele><time>2026-04-18T21:01:27.888Z</time></trkpt><trkpt lat="-36.7442126" lon="174.418847"><ele>119.0</ele><time>2026-04-18T21:01:29.888Z</time></trkpt><trkpt lat="-36.7442869" lon="174.4188366"><ele>119.83333333333333</ele><time>2026-04-18T21:01:32.888Z</time></trkpt><trkpt lat="-36.7443594" lon="174.4188608"><ele>120.66666666666666</ele><time>2026-04-18T21:01:34.887Z</time></trkpt><trkpt lat="-36.744371" lon="174.4189716"><ele>121.5</ele><time>2026-04-18T21:01:38.888Z</time></trkpt><trkpt lat="-36.7443501" lon="174.4190754"><ele>122.33333333333334</ele><time>2026-04-18T21:01:40.888Z</time></trkpt><trkpt lat="-36.744313" lon="174.4191615"><ele>123.16666666666667</ele><time>2026-04-18T21:01:42.888Z</time></trkpt><trkpt lat="-36.7443718" lon="174.4192024"><ele>124.0</ele><time>2026-04-18T21:01:47.888Z</time></trkpt><trkpt lat="-36.7444479" lon="174.4191739"><ele>124.85714285714286</ele><time>2026-04-18T21:01:49.888Z</time></trkpt><trkpt lat="-36.7445272" lon="174.4191678"><ele>125.71428571428572</ele><time>2026-04-18T21:01:51.888Z</time></trkpt><trkpt lat="-36.7445765" lon="174.4190982"><ele>126.57142857142858</ele><time>2026-04-18T21:01:54.888Z</time></trkpt><trkpt lat="-36.7445957" lon="174.4190077"><ele>127.42857142857144</ele><time>2026-04-18T21:01:56.888Z</time></trkpt><trkpt lat="-36.7446454" lon="174.4189506"><ele>128.28571428571428</ele><time>2026-04-18T21:01:58.888Z</time></trkpt><trkpt lat="-36.7446858" lon="174.4188868"><ele>129.14285714285717</ele><time>2026-04-18T21:02:00.888Z</time></trkpt><trkpt lat="-36.744735" lon="174.4188331"><ele>130.0</ele><time>2026-04-18T21:02:03.888Z</time></trkpt><trkpt lat="-36.7447718" lon="174.4189011"><ele>130.0</ele><time>2026-04-18T21:02:07.887Z</time></trkpt><trkpt lat="-36.7447486" lon="174.4189815"><ele>130.0</ele><time>2026-04-18T21:02:09.889Z</time></trkpt><trkpt lat="-36.7448259" lon="174.4189761"><ele>130.0</ele><time>2026-04-18T21:02:16.887Z</time></trkpt><trkpt lat="-36.7448683" lon="174.4189068"><ele>130.0</ele><time>2026-04-18T21:02:18.888Z</time></trkpt><trkpt lat="-36.7449063" lon="174.4188236"><ele>130.0</ele><time>2026-04-18T21:02:21.888Z</time></trkpt><trkpt lat="-36.7449712" lon="174.4188615"><ele>130.0</ele><time>2026-04-18T21:02:25.888Z</time></trkpt><trkpt lat="-36.7449472" lon="174.4189701"><ele>130.0</ele><time>2026-04-18T21:02:28.887Z</time></trkpt><trkpt lat="-36.7449972" lon="174.4190418"><ele>130.0</ele><time>2026-04-18T21:02:31.889Z</time></trkpt><trkpt lat="-36.7450733" lon="174.4190816"><ele>130.0</ele><time>2026-04-18T21:02:34.889Z</time></trkpt><trkpt lat="-36.7451035" lon="174.4190013"><ele>130.0</ele><time>2026-04-18T21:02:39.889Z</time></trkpt><trkpt lat="-36.745161" lon="174.4190764"><ele>130.0</ele><time>2026-04-18T21:02:43.888Z</time></trkpt><trkpt lat="-36.7452168" lon="174.4191529"><ele>130.0</ele><time>2026-04-18T21:02:46.89Z</time></trkpt><trkpt lat="-36.745281" lon="174.4191919"><ele>130.66666666666669</ele><time>2026-04-18T21:02:48.889Z</time></trkpt><trkpt lat="-36.7453452" lon="174.4192069"><ele>131.33333333333334</ele><time>2026-04-18T21:02:50.889Z</time></trkpt><trkpt lat="-36.7454236" lon="174.4191962"><ele>132.0</ele><time>2026-04-18T21:02:52.888Z</time></trkpt><trkpt lat="-36.7454904" lon="174.419166"><ele>132.66666666666666</ele><time>2026-04-18T21:02:54.888Z</time></trkpt><trkpt lat="-36.7455595" lon="174.4191117"><ele>133.33333333333331</ele><time>2026-04-18T21:02:56.887Z</time></trkpt><trkpt lat="-36.7456198" lon="174.4190416"><ele>134.0</ele><time>2026-04-18T21:02:58.889Z</time></trkpt><trkpt lat="-36.7456576" lon="174.4189544"><ele>134.0</ele><time>2026-04-18T21:03:00.888Z</time></trkpt><trkpt lat="-36.7456925" lon="174.4188607"><ele>134.0</ele><time>2026-04-18T21:03:02.888Z</time></trkpt><trkpt lat="-36.7457386" lon="174.4187591"><ele>134.0</ele><time>2026-04-18T21:03:04.887Z</time></trkpt><trkpt lat="-36.7457728" lon="174.4186868"><ele>134.0</ele><time>2026-04-18T21:03:06.889Z</time></trkpt><trkpt lat="-36.7458323" lon="174.418604"><ele>134.0</ele><time>2026-04-18T21:03:09.889Z</time></trkpt><trkpt lat="-36.7458714" lon="174.4185357"><ele>134.0</ele><time>2026-04-18T21:03:11.889Z</time></trkpt><trkpt lat="-36.7459139" lon="174.4184644"><ele>134.0</ele><time>2026-04-18T21:03:13.887Z</time></trkpt><trkpt lat="-36.7459455" lon="174.418377"><ele>134.0</ele><time>2026-04-18T21:03:15.889Z</time></trkpt><trkpt lat="-36.7459647" lon="174.4182995"><ele>134.0</ele><time>2026-04-18T21:03:17.888Z</time></trkpt><trkpt lat="-36.7459949" lon="174.4182234"><ele>134.0</ele><time>2026-04-18T21:03:19.889Z</time></trkpt><trkpt lat="-36.7460334" lon="174.4181378"><ele>134.0</ele><time>2026-04-18T21:03:21.889Z</time></trkpt><trkpt lat="-36.7460679" lon="174.4180619"><ele>134.0</ele><time>2026-04-18T21:03:23.888Z</time></trkpt><trkpt lat="-36.7461031" lon="174.4179786"><ele>134.0</ele><time>2026-04-18T21:03:25.889Z</time></trkpt><trkpt lat="-36.7461441" lon="174.4178849"><ele>134.0</ele><time>2026-04-18T21:03:28.887Z</time></trkpt><trkpt lat="-36.746183" lon="174.4178087"><ele>134.0</ele><time>2026-04-18T21:03:31.887Z</time></trkpt><trkpt lat="-36.7462466" lon="174.417762"><ele>134.0</ele><time>2026-04-18T21:03:35.887Z</time></trkpt><trkpt lat="-36.7462793" lon="174.4178656"><ele>134.0</ele><time>2026-04-18T21:03:39.888Z</time></trkpt><trkpt lat="-36.7462684" lon="174.4179954"><ele>134.0</ele><time>2026-04-18T21:03:41.889Z</time></trkpt><trkpt lat="-36.7462134" lon="174.4180978"><ele>134.0</ele><time>2026-04-18T21:03:43.888Z</time></trkpt><trkpt lat="-36.7461724" lon="174.418202"><ele>134.0</ele><time>2026-04-18T21:03:45.888Z</time></trkpt><trkpt lat="-36.7461477" lon="174.4182769"><ele>134.0</ele><time>2026-04-18T21:03:46.888Z</time></trkpt><trkpt lat="-36.7461069" lon="174.418345"><ele>134.0</ele><time>2026-04-18T21:03:47.887Z</time></trkpt><trkpt lat="-36.7460507" lon="174.4184353"><ele>134.0</ele><time>2026-04-18T21:03:48.888Z</time></trkpt><trkpt lat="-36.7460068" lon="174.4184933"><ele>134.0</ele><time>2026-04-18T21:03:49.888Z</time></trkpt><trkpt lat="-36.7459519" lon="174.4186334"><ele>134.0</ele><time>2026-04-18T21:03:51.887Z</time></trkpt><trkpt lat="-36.7459021" lon="174.4186854"><ele>134.0</ele><time>2026-04-18T21:03:52.889Z</time></trkpt><trkpt lat="-36.7458427" lon="174.4187526"><ele>134.0</ele><time>2026-04-18T21:03:53.887Z</time></trkpt><trkpt lat="-36.7458103" lon="174.4189211"><ele>134.0</ele><time>2026-04-18T21:03:55.888Z</time></trkpt><trkpt lat="-36.7457734" lon="174.418992"><ele>134.0</ele><time>2026-04-18T21:03:56.889Z</time></trkpt><trkpt lat="-36.745707" lon="174.4190592"><ele>134.0</ele><time>2026-04-18T21:03:57.888Z</time></trkpt><trkpt lat="-36.7456279" lon="174.4191383"><ele>134.0</ele><time>2026-04-18T21:03:59.887Z</time></trkpt><trkpt lat="-36.7456661" lon="174.4192332"><ele>134.0</ele><time>2026-04-18T21:04:01.887Z</time></trkpt><trkpt lat="-36.745767" lon="174.4192198"><ele>134.0</ele><time>2026-04-18T21:04:02.888Z</time></trkpt><trkpt lat="-36.7458349" lon="174.4192907"><ele>134.0</ele><time>2026-04-18T21:04:04.887Z</time></trkpt><trkpt lat="-36.7458366" lon="174.419399"><ele>134.0</ele><time>2026-04-18T21:04:06.888Z</time></trkpt><trkpt lat="-36.7458496" lon="174.4195291"><ele>134.0</ele><time>2026-04-18T21:04:08.888Z</time></trkpt><trkpt lat="-36.745946" lon="174.4195539"><ele>134.0</ele><time>2026-04-18T21:04:11.888Z</time></trkpt><trkpt lat="-36.7460088" lon="174.4195989"><ele>134.0</ele><time>2026-04-18T21:04:12.888Z</time></trkpt><trkpt lat="-36.7460606" lon="174.4196476"><ele>134.0</ele><time>2026-04-18T21:04:13.887Z</time></trkpt><trkpt lat="-36.7460716" lon="174.4197564"><ele>134.0</ele><time>2026-04-18T21:04:15.888Z</time></trkpt><trkpt lat="-36.7460578" lon="174.4198552"><ele>134.0</ele><time>2026-04-18T21:04:16.887Z</time></trkpt><trkpt lat="-36.7460436" lon="174.4199435"><ele>132.2</ele><time>2026-04-18T21:04:17.888Z</time></trkpt><trkpt lat="-36.7460488" lon="174.4200433"><ele>130.4</ele><time>2026-04-18T21:04:19.887Z</time></trkpt><trkpt lat="-36.7461158" lon="174.4200766"><ele>128.6</ele><time>2026-04-18T21:04:20.888Z</time></trkpt><trkpt lat="-36.7462498" lon="174.420112"><ele>126.8</ele><time>2026-04-18T21:04:22.888Z</time></trkpt><trkpt lat="-36.7463282" lon="174.4201161"><ele>125.0</ele><time>2026-04-18T21:04:23.888Z</time></trkpt><trkpt lat="-36.7464102" lon="174.4200884"><ele>124.99999999999999</ele><time>2026-04-18T21:04:24.888Z</time></trkpt><trkpt lat="-36.7464989" lon="174.4200667"><ele>125.0</ele><time>2026-04-18T21:04:25.887Z</time></trkpt><trkpt lat="-36.7465462" lon="174.4199931"><ele>125.0</ele><time>2026-04-18T21:04:26.887Z</time></trkpt><trkpt lat="-36.7465965" lon="174.4199315"><ele>125.0</ele><time>2026-04-18T21:04:27.888Z</time></trkpt><trkpt lat="-36.7466139" lon="174.4198468"><ele>124.99999999999999</ele><time>2026-04-18T21:04:28.887Z</time></trkpt><trkpt lat="-36.7466368" lon="174.419762"><ele>125.0</ele><time>2026-04-18T21:04:29.887Z</time></trkpt><trkpt lat="-36.7466133" lon="174.4196551"><ele>125.0</ele><time>2026-04-18T21:04:31.888Z</time></trkpt><trkpt lat="-36.7466881" lon="174.4196252"><ele>125.0</ele><time>2026-04-18T21:04:34.888Z</time></trkpt><trkpt lat="-36.7467488" lon="174.4197222"><ele>125.0</ele><time>2026-04-18T21:04:37.888Z</time></trkpt><trkpt lat="-36.7467956" lon="174.4197958"><ele>125.0</ele><time>2026-04-18T21:04:38.887Z</time></trkpt><trkpt lat="-36.7468365" lon="174.4199159"><ele>125.0</ele><time>2026-04-18T21:04:40.888Z</time></trkpt><trkpt lat="-36.7468347" lon="174.4200442"><ele>123.49999999999999</ele><time>2026-04-18T21:04:42.887Z</time></trkpt><trkpt lat="-36.7469022" lon="174.4201123"><ele>122.0</ele><time>2026-04-18T21:04:45.889Z</time></trkpt><trkpt lat="-36.7469991" lon="174.4201262"><ele>120.5</ele><time>2026-04-18T21:04:47.888Z</time></trkpt><trkpt lat="-36.7470678" lon="174.4200503"><ele>119.0</ele><time>2026-04-18T21:04:49.887Z</time></trkpt><trkpt lat="-36.7471311" lon="174.4200507"><ele>117.49999999999999</ele><time>2026-04-18T21:04:50.889Z</time></trkpt><trkpt lat="-36.7472172" lon="174.4201046"><ele>116.0</ele><time>2026-04-18T21:04:52.888Z</time></trkpt><trkpt lat="-36.7473047" lon="174.4201415"><ele>115.99999999999999</ele><time>2026-04-18T21:04:54.888Z</time></trkpt><trkpt lat="-36.747407" lon="174.4201267"><ele>116.0</ele><time>2026-04-18T21:04:56.889Z</time></trkpt><trkpt lat="-36.7474805" lon="174.4200425"><ele>116.0</ele><time>2026-04-18T21:04:58.887Z</time></trkpt><trkpt lat="-36.7475152" lon="174.4199643"><ele>116.0</ele><time>2026-04-18T21:05:00.888Z</time></trkpt><trkpt lat="-36.7475333" lon="174.4198683"><ele>115.99999999999999</ele><time>2026-04-18T21:05:02.887Z</time></trkpt><trkpt lat="-36.7474923" lon="174.4197628"><ele>116.0</ele><time>2026-04-18T21:05:04.888Z</time></trkpt><trkpt lat="-36.7474194" lon="174.4197072"><ele>116.83333333333333</ele><time>2026-04-18T21:05:06.888Z</time></trkpt><trkpt lat="-36.7473508" lon="174.4196283"><ele>117.66666666666666</ele><time>2026-04-18T21:05:08.888Z</time></trkpt><trkpt lat="-36.7472858" lon="174.4195675"><ele>118.5</ele><time>2026-04-18T21:05:10.888Z</time></trkpt><trkpt lat="-36.7472459" lon="174.4194814"><ele>119.33333333333334</ele><time>2026-04-18T21:05:12.888Z</time></trkpt><trkpt lat="-36.7472548" lon="174.4193886"><ele>120.16666666666667</ele><time>2026-04-18T21:05:14.888Z</time></trkpt><trkpt lat="-36.7472511" lon="174.4192962"><ele>121.0</ele><time>2026-04-18T21:05:16.887Z</time></trkpt><trkpt lat="-36.7472481" lon="174.4191926"><ele>121.00000000000001</ele><time>2026-04-18T21:05:18.887Z</time></trkpt><trkpt lat="-36.7472822" lon="174.4191014"><ele>121.0</ele><time>2026-04-18T21:05:20.887Z</time></trkpt><trkpt lat="-36.7473291" lon="174.4190043"><ele>121.0</ele><time>2026-04-18T21:05:22.888Z</time></trkpt><trkpt lat="-36.7473653" lon="174.4189154"><ele>121.0</ele><time>2026-04-18T21:05:24.888Z</time></trkpt><trkpt lat="-36.7474068" lon="174.4188307"><ele>121.00000000000001</ele><time>2026-04-18T21:05:26.888Z</time></trkpt><trkpt lat="-36.7474108" lon="174.4187425"><ele>121.0</ele><time>2026-04-18T21:05:28.888Z</time></trkpt><trkpt lat="-36.747393" lon="174.4186394"><ele>122.0</ele><time>2026-04-18T21:05:31.888Z</time></trkpt><trkpt lat="-36.7474214" lon="174.4185434"><ele>123.0</ele><time>2026-04-18T21:05:33.887Z</time></trkpt><trkpt lat="-36.747452" lon="174.4184238"><ele>124.0</ele><time>2026-04-18T21:05:35.887Z</time></trkpt><trkpt lat="-36.7474921" lon="174.4183116"><ele>125.0</ele><time>2026-04-18T21:05:37.889Z</time></trkpt><trkpt lat="-36.747536" lon="174.4182034"><ele>126.0</ele><time>2026-04-18T21:05:39.888Z</time></trkpt><trkpt lat="-36.7475427" lon="174.4181033"><ele>126.0</ele><time>2026-04-18T21:05:41.888Z</time></trkpt><trkpt lat="-36.7474883" lon="174.4180266"><ele>126.0</ele><time>2026-04-18T21:05:43.888Z</time></trkpt><trkpt lat="-36.7474088" lon="174.4179585"><ele>126.0</ele><time>2026-04-18T21:05:45.887Z</time></trkpt><trkpt lat="-36.747348" lon="174.4179"><ele>126.0</ele><time>2026-04-18T21:05:47.887Z</time></trkpt><trkpt lat="-36.7472719" lon="174.4178557"><ele>126.0</ele><time>2026-04-18T21:05:49.888Z</time></trkpt><trkpt lat="-36.7471926" lon="174.417815"><ele>126.0</ele><time>2026-04-18T21:05:51.888Z</time></trkpt><trkpt lat="-36.7471118" lon="174.4177726"><ele>126.83333333333333</ele><time>2026-04-18T21:05:53.887Z</time></trkpt><trkpt lat="-36.7470333" lon="174.4177111"><ele>127.66666666666666</ele><time>2026-04-18T21:05:55.889Z</time></trkpt><trkpt lat="-36.7469548" lon="174.417658"><ele>128.5</ele><time>2026-04-18T21:05:57.887Z</time></trkpt><trkpt lat="-36.7468861" lon="174.4176141"><ele>129.33333333333331</ele><time>2026-04-18T21:05:59.888Z</time></trkpt><trkpt lat="-36.7468124" lon="174.4175781"><ele>130.16666666666666</ele><time>2026-04-18T21:06:01.887Z</time></trkpt><trkpt lat="-36.7467376" lon="174.4175321"><ele>131.0</ele><time>2026-04-18T21:06:03.888Z</time></trkpt><trkpt lat="-36.7466718" lon="174.4174793"><ele>131.57142857142858</ele><time>2026-04-18T21:06:05.888Z</time></trkpt><trkpt lat="-36.7466067" lon="174.417444"><ele>132.14285714285717</ele><time>2026-04-18T21:06:07.887Z</time></trkpt><trkpt lat="-36.7465407" lon="174.4174333"><ele>132.71428571428572</ele><time>2026-04-18T21:06:09.888Z</time></trkpt><trkpt lat="-36.7464813" lon="174.4174602"><ele>133.28571428571428</ele><time>2026-04-18T21:06:11.889Z</time></trkpt><trkpt lat="-36.746423" lon="174.4175223"><ele>133.85714285714283</ele><time>2026-04-18T21:06:14.888Z</time></trkpt><trkpt lat="-36.7463682" lon="174.4175726"><ele>134.42857142857142</ele><time>2026-04-18T21:06:17.888Z</time></trkpt><trkpt lat="-36.7463203" lon="174.4176247"><ele>135.0</ele><time>2026-04-18T21:06:19.888Z</time></trkpt><trkpt lat="-36.7462939" lon="174.4177196"><ele>135.0</ele><time>2026-04-18T21:06:22.888Z</time></trkpt><trkpt lat="-36.7462449" lon="174.4177735"><ele>135.0</ele><time>2026-04-18T21:07:19.887Z</time></trkpt><trkpt lat="-36.7461762" lon="174.4177587"><ele>135.0</ele><time>2026-04-18T21:07:21.888Z</time></trkpt><trkpt lat="-36.7461255" lon="174.4176998"><ele>135.0</ele><time>2026-04-18T21:07:25.888Z</time></trkpt><trkpt lat="-36.7460513" lon="174.4176456"><ele>135.0</ele><time>2026-04-18T21:07:29.888Z</time></trkpt><trkpt lat="-36.7459864" lon="174.4175728"><ele>135.0</ele><time>2026-04-18T21:07:33.888Z</time></trkpt><trkpt lat="-36.7459669" lon="174.4174897"><ele>135.0</ele><time>2026-04-18T21:07:35.888Z</time></trkpt><trkpt lat="-36.7459683" lon="174.4173834"><ele>135.16666666666666</ele><time>2026-04-18T21:07:37.888Z</time></trkpt><trkpt lat="-36.7459681" lon="174.4172978"><ele>135.33333333333334</ele><time>2026-04-18T21:07:39.887Z</time></trkpt><trkpt lat="-36.7459519" lon="174.4172124"><ele>135.5</ele><time>2026-04-18T21:07:41.887Z</time></trkpt><trkpt lat="-36.7458783" lon="174.4171609"><ele>135.66666666666669</ele><time>2026-04-18T21:07:43.888Z</time></trkpt><trkpt lat="-36.7458089" lon="174.4171172"><ele>135.83333333333334</ele><time>2026-04-18T21:07:44.888Z</time></trkpt><trkpt lat="-36.7456975" lon="174.4170335"><ele>136.0</ele><time>2026-04-18T21:07:46.888Z</time></trkpt><trkpt lat="-36.7456352" lon="174.4169876"><ele>136.2</ele><time>2026-04-18T21:07:47.887Z</time></trkpt><trkpt lat="-36.7455815" lon="174.4169432"><ele>136.39999999999998</ele><time>2026-04-18T21:07:48.887Z</time></trkpt><trkpt lat="-36.7454572" lon="174.4169071"><ele>136.6</ele><time>2026-04-18T21:07:50.888Z</time></trkpt><trkpt lat="-36.7453487" lon="174.4168399"><ele>136.79999999999998</ele><time>2026-04-18T21:07:52.888Z</time></trkpt><trkpt lat="-36.745244" lon="174.4168072"><ele>137.0</ele><time>2026-04-18T21:07:54.887Z</time></trkpt><trkpt lat="-36.7451816" lon="174.4167798"><ele>136.16666666666666</ele><time>2026-04-18T21:07:55.888Z</time></trkpt><trkpt lat="-36.7451221" lon="174.4167256"><ele>135.33333333333331</ele><time>2026-04-18T21:07:56.888Z</time></trkpt><trkpt lat="-36.7450586" lon="174.4166804"><ele>134.5</ele><time>2026-04-18T21:07:57.887Z</time></trkpt><trkpt lat="-36.7449586" lon="174.416595"><ele>133.66666666666666</ele><time>2026-04-18T21:07:59.887Z</time></trkpt><trkpt lat="-36.7449182" lon="174.4165303"><ele>132.83333333333334</ele><time>2026-04-18T21:08:00.888Z</time></trkpt><trkpt lat="-36.7448627" lon="174.4164441"><ele>132.0</ele><time>2026-04-18T21:08:01.887Z</time></trkpt><trkpt lat="-36.744798" lon="174.4163828"><ele>132.0</ele><time>2026-04-18T21:08:02.887Z</time></trkpt><trkpt lat="-36.7447285" lon="174.4163412"><ele>132.0</ele><time>2026-04-18T21:08:03.889Z</time></trkpt><trkpt lat="-36.7446658" lon="174.4162981"><ele>132.0</ele><time>2026-04-18T21:08:04.888Z</time></trkpt><trkpt lat="-36.7445939" lon="174.4162158"><ele>132.0</ele><time>2026-04-18T21:08:05.887Z</time></trkpt><trkpt lat="-36.7445351" lon="174.4161449"><ele>132.0</ele><time>2026-04-18T21:08:06.889Z</time></trkpt><trkpt lat="-36.7444103" lon="174.4160826"><ele>129.83333333333334</ele><time>2026-04-18T21:08:08.889Z</time></trkpt><trkpt lat="-36.7443484" lon="174.4160366"><ele>127.66666666666666</ele><time>2026-04-18T21:08:09.887Z</time></trkpt><trkpt lat="-36.7443087" lon="174.415971"><ele>125.5</ele><time>2026-04-18T21:08:10.889Z</time></trkpt><trkpt lat="-36.7442467" lon="174.4158874"><ele>123.33333333333333</ele><time>2026-04-18T21:08:11.888Z</time></trkpt><trkpt lat="-36.7441796" lon="174.4158242"><ele>121.16666666666666</ele><time>2026-04-18T21:08:12.887Z</time></trkpt><trkpt lat="-36.7440979" lon="174.4157783"><ele>119.0</ele><time>2026-04-18T21:08:13.887Z</time></trkpt><trkpt lat="-36.7440179" lon="174.4157411"><ele>118.99999999999999</ele><time>2026-04-18T21:08:14.887Z</time></trkpt><trkpt lat="-36.743936" lon="174.4156973"><ele>119.0</ele><time>2026-04-18T21:08:15.888Z</time></trkpt><trkpt lat="-36.7438608" lon="174.4156606"><ele>119.0</ele><time>2026-04-18T21:08:16.888Z</time></trkpt><trkpt lat="-36.7437943" lon="174.4155956"><ele>119.0</ele><time>2026-04-18T21:08:17.888Z</time></trkpt><trkpt lat="-36.7437353" lon="174.4155612"><ele>118.99999999999999</ele><time>2026-04-18T21:08:18.887Z</time></trkpt><trkpt lat="-36.7436597" lon="174.415457"><ele>119.0</ele><time>2026-04-18T21:08:20.887Z</time></trkpt><trkpt lat="-36.7436197" lon="174.4153785"><ele>119.66666666666666</ele><time>2026-04-18T21:08:22.888Z</time></trkpt><trkpt lat="-36.7435594" lon="174.4152972"><ele>120.33333333333333</ele><time>2026-04-18T21:08:25.889Z</time></trkpt><trkpt lat="-36.7435032" lon="174.415255"><ele>121.0</ele><time>2026-04-18T21:08:27.887Z</time></trkpt><trkpt lat="-36.7434316" lon="174.4152039"><ele>121.66666666666666</ele><time>2026-04-18T21:08:29.887Z</time></trkpt><trkpt lat="-36.7433572" lon="174.41514"><ele>122.33333333333333</ele><time>2026-04-18T21:08:31.888Z</time></trkpt><trkpt lat="-36.7432701" lon="174.4150609"><ele>123.0</ele><time>2026-04-18T21:08:33.887Z</time></trkpt><trkpt lat="-36.7432075" lon="174.4150122"><ele>123.5</ele><time>2026-04-18T21:08:35.887Z</time></trkpt><trkpt lat="-36.7431361" lon="174.4149368"><ele>124.0</ele><time>2026-04-18T21:08:37.889Z</time></trkpt><trkpt lat="-36.7430552" lon="174.414897"><ele>124.5</ele><time>2026-04-18T21:08:39.888Z</time></trkpt><trkpt lat="-36.7429984" lon="174.4148455"><ele>125.0</ele><time>2026-04-18T21:08:41.887Z</time></trkpt><trkpt lat="-36.7429263" lon="174.4147786"><ele>125.5</ele><time>2026-04-18T21:08:43.889Z</time></trkpt><trkpt lat="-36.7428595" lon="174.4147296"><ele>126.0</ele><time>2026-04-18T21:08:45.888Z</time></trkpt><trkpt lat="-36.7427916" lon="174.414688"><ele>127.0</ele><time>2026-04-18T21:08:47.888Z</time></trkpt><trkpt lat="-36.7427202" lon="174.4146361"><ele>128.0</ele><time>2026-04-18T21:08:49.887Z</time></trkpt><trkpt lat="-36.7426481" lon="174.4145938"><ele>129.0</ele><time>2026-04-18T21:08:51.887Z</time></trkpt><trkpt lat="-36.7425743" lon="174.414544"><ele>130.0</ele><time>2026-04-18T21:08:53.821Z</time></trkpt><trkpt lat="-36.7424912" lon="174.4144594"><ele>131.0</ele><time>2026-04-18T21:08:55.887Z</time></trkpt><trkpt lat="-36.7424222" lon="174.4144083"><ele>132.0</ele><time>2026-04-18T21:08:57.887Z</time></trkpt><trkpt lat="-36.74236" lon="174.4143578"><ele>132.0</ele><time>2026-04-18T21:08:59.887Z</time></trkpt><trkpt lat="-36.7423036" lon="174.4143056"><ele>132.0</ele><time>2026-04-18T21:09:02.887Z</time></trkpt><trkpt lat="-36.7423885" lon="174.41424"><ele>132.0</ele><time>2026-04-18T21:09:05.888Z</time></trkpt><trkpt lat="-36.7424743" lon="174.4142194"><ele>132.0</ele><time>2026-04-18T21:09:07.887Z</time></trkpt><trkpt lat="-36.7425597" lon="174.4142095"><ele>132.0</ele><time>2026-04-18T21:09:08.888Z</time></trkpt><trkpt lat="-36.7426527" lon="174.4142156"><ele>132.0</ele><time>2026-04-18T21:09:10.887Z</time></trkpt><trkpt lat="-36.7427199" lon="174.4142644"><ele>132.0</ele><time>2026-04-18T21:09:12.887Z</time></trkpt><trkpt lat="-36.7427559" lon="174.4143303"><ele>132.0</ele><time>2026-04-18T21:09:13.887Z</time></trkpt><trkpt lat="-36.7427815" lon="174.4144042"><ele>132.0</ele><time>2026-04-18T21:09:15.889Z</time></trkpt><trkpt lat="-36.7428415" lon="174.4144586"><ele>132.0</ele><time>2026-04-18T21:09:18.887Z</time></trkpt><trkpt lat="-36.742926" lon="174.4144468"><ele>132.0</ele><time>2026-04-18T21:09:20.887Z</time></trkpt><trkpt lat="-36.7430305" lon="174.4144474"><ele>132.0</ele><time>2026-04-18T21:09:22.888Z</time></trkpt><trkpt lat="-36.743091" lon="174.4145013"><ele>132.0</ele><time>2026-04-18T21:09:24.888Z</time></trkpt><trkpt lat="-36.7431113" lon="174.4146163"><ele>132.0</ele><time>2026-04-18T21:09:26.888Z</time></trkpt><trkpt lat="-36.743149" lon="174.4147102"><ele>132.0</ele><time>2026-04-18T21:09:28.887Z</time></trkpt><trkpt lat="-36.7432325" lon="174.4147622"><ele>132.0</ele><time>2026-04-18T21:09:30.887Z</time></trkpt><trkpt lat="-36.7433258" lon="174.4148158"><ele>132.0</ele><time>2026-04-18T21:09:32.887Z</time></trkpt><trkpt lat="-36.7434142" lon="174.4148417"><ele>131.0</ele><time>2026-04-18T21:09:34.887Z</time></trkpt><trkpt lat="-36.7434893" lon="174.4148387"><ele>130.0</ele><time>2026-04-18T21:09:36.888Z</time></trkpt><trkpt lat="-36.7435666" lon="174.4148516"><ele>129.0</ele><time>2026-04-18T21:09:38.889Z</time></trkpt><trkpt lat="-36.7436498" lon="174.414858"><ele>128.0</ele><time>2026-04-18T21:09:40.887Z</time></trkpt><trkpt lat="-36.7437449" lon="174.4148285"><ele>127.0</ele><time>2026-04-18T21:09:42.889Z</time></trkpt><trkpt lat="-36.7438274" lon="174.4147731"><ele>126.0</ele><time>2026-04-18T21:09:44.887Z</time></trkpt><trkpt lat="-36.7439169" lon="174.4147378"><ele>125.5</ele><time>2026-04-18T21:09:46.888Z</time></trkpt><trkpt lat="-36.7439716" lon="174.4148192"><ele>125.0</ele><time>2026-04-18T21:09:49.888Z</time></trkpt><trkpt lat="-36.7440187" lon="174.4148805"><ele>124.5</ele><time>2026-04-18T21:09:51.887Z</time></trkpt><trkpt lat="-36.7440786" lon="174.4149121"><ele>124.0</ele><time>2026-04-18T21:09:53.888Z</time></trkpt><trkpt lat="-36.7441644" lon="174.4149532"><ele>123.5</ele><time>2026-04-18T21:09:55.887Z</time></trkpt><trkpt lat="-36.744279" lon="174.4150216"><ele>123.0</ele><time>2026-04-18T21:09:57.887Z</time></trkpt><trkpt lat="-36.7443448" lon="174.4150707"><ele>123.66666666666667</ele><time>2026-04-18T21:09:58.888Z</time></trkpt><trkpt lat="-36.7443924" lon="174.4151448"><ele>124.33333333333334</ele><time>2026-04-18T21:09:59.887Z</time></trkpt><trkpt lat="-36.7444369" lon="174.4152647"><ele>125.0</ele><time>2026-04-18T21:10:01.887Z</time></trkpt><trkpt lat="-36.7445057" lon="174.4153224"><ele>125.66666666666667</ele><time>2026-04-18T21:10:03.887Z</time></trkpt><trkpt lat="-36.7445396" lon="174.4154008"><ele>126.33333333333334</ele><time>2026-04-18T21:10:05.888Z</time></trkpt><trkpt lat="-36.7445204" lon="174.415499"><ele>127.0</ele><time>2026-04-18T21:10:07.887Z</time></trkpt><trkpt lat="-36.7444971" lon="174.4155994"><ele>127.33333333333334</ele><time>2026-04-18T21:10:10.887Z</time></trkpt><trkpt lat="-36.7445271" lon="174.4156819"><ele>127.66666666666667</ele><time>2026-04-18T21:10:13.887Z</time></trkpt><trkpt lat="-36.7446122" lon="174.4157271"><ele>128.0</ele><time>2026-04-18T21:10:16.888Z</time></trkpt><trkpt lat="-36.7446753" lon="174.4157445"><ele>128.33333333333334</ele><time>2026-04-18T21:10:18.888Z</time></trkpt><trkpt lat="-36.7447522" lon="174.4157373"><ele>128.66666666666666</ele><time>2026-04-18T21:10:20.887Z</time></trkpt><trkpt lat="-36.744816" lon="174.415777"><ele>129.0</ele><time>2026-04-18T21:10:23.887Z</time></trkpt><trkpt lat="-36.7447832" lon="174.4158601"><ele>128.99999999999997</ele><time>2026-04-18T21:10:27.887Z</time></trkpt><trkpt lat="-36.7447197" lon="174.4159261"><ele>129.0</ele><time>2026-04-18T21:10:30.887Z</time></trkpt><trkpt lat="-36.7447815" lon="174.4159516"><ele>129.0</ele><time>2026-04-18T21:10:37.888Z</time></trkpt><trkpt lat="-36.7448456" lon="174.4159999"><ele>129.0</ele><time>2026-04-18T21:10:40.888Z</time></trkpt><trkpt lat="-36.7449177" lon="174.4160376"><ele>129.0</ele><time>2026-04-18T21:10:43.889Z</time></trkpt><trkpt lat="-36.7449602" lon="174.4160994"><ele>128.99999999999997</ele><time>2026-04-18T21:10:47.888Z</time></trkpt><trkpt lat="-36.7450073" lon="174.4160342"><ele>129.0</ele><time>2026-04-18T21:10:49.888Z</time></trkpt><trkpt lat="-36.7450182" lon="174.4159315"><ele>128.99999999999997</ele><time>2026-04-18T21:10:51.887Z</time></trkpt><trkpt lat="-36.745064" lon="174.4158744"><ele>129.0</ele><time>2026-04-18T21:10:55.888Z</time></trkpt><trkpt lat="-36.7451483" lon="174.415893"><ele>129.0</ele><time>2026-04-18T21:10:58.887Z</time></trkpt><trkpt lat="-36.7452179" lon="174.4159129"><ele>129.0</ele><time>2026-04-18T21:11:01.889Z</time></trkpt><trkpt lat="-36.7452639" lon="174.4159811"><ele>129.0</ele><time>2026-04-18T21:11:05.887Z</time></trkpt><trkpt lat="-36.7452308" lon="174.4160542"><ele>128.99999999999997</ele><time>2026-04-18T21:11:09.887Z</time></trkpt><trkpt lat="-36.7452348" lon="174.4161545"><ele>129.0</ele><time>2026-04-18T21:11:13.888Z</time></trkpt><trkpt lat="-36.745299" lon="174.4162066"><ele>130.14285714285714</ele><time>2026-04-18T21:11:17.887Z</time></trkpt><trkpt lat="-36.7453587" lon="174.4162624"><ele>131.28571428571428</ele><time>2026-04-18T21:11:20.889Z</time></trkpt><trkpt lat="-36.7454122" lon="174.4163395"><ele>132.42857142857144</ele><time>2026-04-18T21:11:23.888Z</time></trkpt><trkpt lat="-36.7454647" lon="174.4163831"><ele>133.57142857142856</ele><time>2026-04-18T21:11:26.888Z</time></trkpt><trkpt lat="-36.745542" lon="174.4164003"><ele>134.71428571428572</ele><time>2026-04-18T21:11:29.888Z</time></trkpt><trkpt lat="-36.7455922" lon="174.4164491"><ele>135.85714285714286</ele><time>2026-04-18T21:11:31.888Z</time></trkpt><trkpt lat="-36.7456493" lon="174.416509"><ele>137.0</ele><time>2026-04-18T21:11:34.888Z</time></trkpt><trkpt lat="-36.7457177" lon="174.4164849"><ele>137.0</ele><time>2026-04-18T21:11:39.887Z</time></trkpt><trkpt lat="-36.7457617" lon="174.4164098"><ele>137.0</ele><time>2026-04-18T21:11:44.887Z</time></trkpt><trkpt lat="-36.7457526" lon="174.4163187"><ele>137.0</ele><time>2026-04-18T21:11:47.887Z</time></trkpt><trkpt lat="-36.7457727" lon="174.4162132"><ele>137.0</ele><time>2026-04-18T21:11:50.887Z</time></trkpt><trkpt lat="-36.7458088" lon="174.4161331"><ele>137.0</ele><time>2026-04-18T21:11:52.887Z</time></trkpt><trkpt lat="-36.7458536" lon="174.416045"><ele>137.0</ele><time>2026-04-18T21:11:56.888Z</time></trkpt><trkpt lat="-36.7458435" lon="174.4159431"><ele>137.16666666666666</ele><time>2026-04-18T21:11:59.888Z</time></trkpt><trkpt lat="-36.7457756" lon="174.4159465"><ele>137.33333333333331</ele><time>2026-04-18T21:12:02.887Z</time></trkpt><trkpt lat="-36.7457052" lon="174.4159358"><ele>137.5</ele><time>2026-04-18T21:12:04.888Z</time></trkpt><trkpt lat="-36.7456784" lon="174.4158429"><ele>137.66666666666666</ele><time>2026-04-18T21:12:06.888Z</time></trkpt><trkpt lat="-36.7456559" lon="174.4157571"><ele>137.83333333333334</ele><time>2026-04-18T21:12:07.888Z</time></trkpt><trkpt lat="-36.7455929" lon="174.4156471"><ele>138.0</ele><time>2026-04-18T21:12:09.887Z</time></trkpt><trkpt lat="-36.7455076" lon="174.415566"><ele>136.4</ele><time>2026-04-18T21:12:11.888Z</time></trkpt><trkpt lat="-36.745438" lon="174.4154455"><ele>134.8</ele><time>2026-04-18T21:12:13.887Z</time></trkpt><trkpt lat="-36.7454112" lon="174.4152973"><ele>133.2</ele><time>2026-04-18T21:12:15.888Z</time></trkpt><trkpt lat="-36.7453669" lon="174.4151485"><ele>131.6</ele><time>2026-04-18T21:12:17.887Z</time></trkpt><trkpt lat="-36.7453302" lon="174.4150652"><ele>130.0</ele><time>2026-04-18T21:12:18.888Z</time></trkpt><trkpt lat="-36.7452654" lon="174.4149831"><ele>129.5</ele><time>2026-04-18T21:12:20.889Z</time></trkpt><trkpt lat="-36.7451782" lon="174.4149782"><ele>129.0</ele><time>2026-04-18T21:12:22.887Z</time></trkpt><trkpt lat="-36.745094" lon="174.4150069"><ele>128.5</ele><time>2026-04-18T21:12:24.889Z</time></trkpt><trkpt lat="-36.7450182" lon="174.4150609"><ele>128.0</ele><time>2026-04-18T21:12:26.887Z</time></trkpt><trkpt lat="-36.7449388" lon="174.415093"><ele>127.50000000000001</ele><time>2026-04-18T21:12:29.887Z</time></trkpt><trkpt lat="-36.7448715" lon="174.4151339"><ele>127.0</ele><time>2026-04-18T21:12:31.887Z</time></trkpt><trkpt lat="-36.7447981" lon="174.4151506"><ele>127.0</ele><time>2026-04-18T21:12:33.887Z</time></trkpt><trkpt lat="-36.7447084" lon="174.4151431"><ele>126.99999999999999</ele><time>2026-04-18T21:12:36.887Z</time></trkpt><trkpt lat="-36.7446112" lon="174.415131"><ele>126.99999999999999</ele><time>2026-04-18T21:12:38.887Z</time></trkpt><trkpt lat="-36.7445251" lon="174.4150795"><ele>127.0</ele><time>2026-04-18T21:12:40.887Z</time></trkpt><trkpt lat="-36.7444585" lon="174.4149914"><ele>127.0</ele><time>2026-04-18T21:12:42.889Z</time></trkpt><trkpt lat="-36.7444181" lon="174.4149133"><ele>127.33333333333334</ele><time>2026-04-18T21:12:44.888Z</time></trkpt><trkpt lat="-36.74435" lon="174.4148303"><ele>127.66666666666667</ele><time>2026-04-18T21:12:47.888Z</time></trkpt><trkpt lat="-36.744298" lon="174.4147745"><ele>128.0</ele><time>2026-04-18T21:12:50.888Z</time></trkpt><trkpt lat="-36.7442339" lon="174.4147462"><ele>128.33333333333334</ele><time>2026-04-18T21:12:53.888Z</time></trkpt><trkpt lat="-36.744171" lon="174.4146581"><ele>128.66666666666666</ele><time>2026-04-18T21:12:56.888Z</time></trkpt><trkpt lat="-36.744133" lon="174.414585"><ele>129.0</ele><time>2026-04-18T21:12:58.887Z</time></trkpt><trkpt lat="-36.7440858" lon="174.4145137"><ele>129.0</ele><time>2026-04-18T21:13:00.887Z</time></trkpt><trkpt lat="-36.7440381" lon="174.4144408"><ele>129.0</ele><time>2026-04-18T21:13:02.887Z</time></trkpt><trkpt lat="-36.7440002" lon="174.4143528"><ele>129.0</ele><time>2026-04-18T21:13:04.887Z</time></trkpt><trkpt lat="-36.7439906" lon="174.4142593"><ele>129.0</ele><time>2026-04-18T21:13:06.888Z</time></trkpt><trkpt lat="-36.7439901" lon="174.4141385"><ele>129.0</ele><time>2026-04-18T21:13:09.889Z</time></trkpt><trkpt lat="-36.7439746" lon="174.414032"><ele>129.0</ele><time>2026-04-18T21:13:11.887Z</time></trkpt><trkpt lat="-36.7439486" lon="174.4139337"><ele>129.0</ele><time>2026-04-18T21:13:13.887Z</time></trkpt><trkpt lat="-36.7438886" lon="174.4138593"><ele>129.0</ele><time>2026-04-18T21:13:15.888Z</time></trkpt><trkpt lat="-36.7437815" lon="174.413838"><ele>129.0</ele><time>2026-04-18T21:13:17.889Z</time></trkpt><trkpt lat="-36.7437058" lon="174.4138049"><ele>129.0</ele><time>2026-04-18T21:13:18.889Z</time></trkpt><trkpt lat="-36.7436499" lon="174.4137487"><ele>129.0</ele><time>2026-04-18T21:13:19.887Z</time></trkpt><trkpt lat="-36.7435957" lon="174.4136777"><ele>129.0</ele><time>2026-04-18T21:13:21.887Z</time></trkpt><trkpt lat="-36.7435422" lon="174.4135877"><ele>129.4</ele><time>2026-04-18T21:13:23.888Z</time></trkpt><trkpt lat="-36.7434717" lon="174.4135122"><ele>129.8</ele><time>2026-04-18T21:13:25.887Z</time></trkpt><trkpt lat="-36.7434296" lon="174.4134522"><ele>130.2</ele><time>2026-04-18T21:13:27.887Z</time></trkpt><trkpt lat="-36.7434338" lon="174.4133264"><ele>130.6</ele><time>2026-04-18T21:13:30.887Z</time></trkpt><trkpt lat="-36.7434673" lon="174.4132175"><ele>131.0</ele><time>2026-04-18T21:13:32.889Z</time></trkpt><trkpt lat="-36.7435096" lon="174.4130884"><ele>130.83333333333331</ele><time>2026-04-18T21:13:34.888Z</time></trkpt><trkpt lat="-36.74355" lon="174.4129856"><ele>130.66666666666666</ele><time>2026-04-18T21:13:37.888Z</time></trkpt><trkpt lat="-36.7436116" lon="174.4129203"><ele>130.5</ele><time>2026-04-18T21:13:40.888Z</time></trkpt><trkpt lat="-36.7436986" lon="174.412946"><ele>130.33333333333334</ele><time>2026-04-18T21:13:42.888Z</time></trkpt><trkpt lat="-36.7437442" lon="174.4130011"><ele>130.16666666666669</ele><time>2026-04-18T21:13:43.888Z</time></trkpt><trkpt lat="-36.7437143" lon="174.4130796"><ele>130.0</ele><time>2026-04-18T21:13:47.888Z</time></trkpt><trkpt lat="-36.7436835" lon="174.4131785"><ele>130.0</ele><time>2026-04-18T21:13:50.887Z</time></trkpt><trkpt lat="-36.7436536" lon="174.4132564"><ele>130.0</ele><time>2026-04-18T21:13:52.887Z</time></trkpt><trkpt lat="-36.7437046" lon="174.4133664"><ele>130.0</ele><time>2026-04-18T21:13:56.887Z</time></trkpt><trkpt lat="-36.743741" lon="174.4134652"><ele>130.0</ele><time>2026-04-18T21:13:58.888Z</time></trkpt><trkpt lat="-36.7437682" lon="174.4135861"><ele>130.0</ele><time>2026-04-18T21:14:00.887Z</time></trkpt><trkpt lat="-36.743816" lon="174.4136568"><ele>130.0</ele><time>2026-04-18T21:14:02.891Z</time></trkpt><trkpt lat="-36.743907" lon="174.4136807"><ele>130.0</ele><time>2026-04-18T21:14:05.888Z</time></trkpt><trkpt lat="-36.74399" lon="174.4137145"><ele>130.0</ele><time>2026-04-18T21:14:08.888Z</time></trkpt><trkpt lat="-36.7440488" lon="174.4137701"><ele>130.0</ele><time>2026-04-18T21:14:10.887Z</time></trkpt><trkpt lat="-36.7440947" lon="174.4138425"><ele>130.0</ele><time>2026-04-18T21:14:12.887Z</time></trkpt><trkpt lat="-36.7441927" lon="174.4138569"><ele>130.0</ele><time>2026-04-18T21:14:15.888Z</time></trkpt><trkpt lat="-36.7442631" lon="174.4138971"><ele>130.0</ele><time>2026-04-18T21:14:17.888Z</time></trkpt><trkpt lat="-36.7443032" lon="174.4139649"><ele>129.85714285714286</ele><time>2026-04-18T21:14:19.887Z</time></trkpt><trkpt lat="-36.7442893" lon="174.414046"><ele>129.71428571428572</ele><time>2026-04-18T21:14:21.887Z</time></trkpt><trkpt lat="-36.744256" lon="174.4141328"><ele>129.57142857142856</ele><time>2026-04-18T21:14:23.888Z</time></trkpt><trkpt lat="-36.7442437" lon="174.4142238"><ele>129.42857142857144</ele><time>2026-04-18T21:14:26.888Z</time></trkpt><trkpt lat="-36.7443044" lon="174.4142497"><ele>129.28571428571428</ele><time>2026-04-18T21:14:29.889Z</time></trkpt><trkpt lat="-36.7443899" lon="174.4142422"><ele>129.14285714285714</ele><time>2026-04-18T21:14:32.887Z</time></trkpt><trkpt lat="-36.7444545" lon="174.4142924"><ele>129.0</ele><time>2026-04-18T21:14:34.887Z</time></trkpt><trkpt lat="-36.7445261" lon="174.4143795"><ele>128.6</ele><time>2026-04-18T21:14:36.888Z</time></trkpt><trkpt lat="-36.7445654" lon="174.4145139"><ele>128.2</ele><time>2026-04-18T21:14:38.888Z</time></trkpt><trkpt lat="-36.744584" lon="174.4146202"><ele>127.79999999999998</ele><time>2026-04-18T21:14:40.888Z</time></trkpt><trkpt lat="-36.7446183" lon="174.4147012"><ele>127.39999999999999</ele><time>2026-04-18T21:14:42.887Z</time></trkpt><trkpt lat="-36.744672" lon="174.4147843"><ele>127.0</ele><time>2026-04-18T21:14:43.888Z</time></trkpt><trkpt lat="-36.7447255" lon="174.4148908"><ele>127.00000000000001</ele><time>2026-04-18T21:14:45.888Z</time></trkpt><trkpt lat="-36.7447808" lon="174.4149361"><ele>127.0</ele><time>2026-04-18T21:14:47.887Z</time></trkpt><trkpt lat="-36.7448552" lon="174.4149408"><ele>127.0</ele><time>2026-04-18T21:14:49.887Z</time></trkpt><trkpt lat="-36.744931" lon="174.4148615"><ele>127.0</ele><time>2026-04-18T21:14:52.888Z</time></trkpt><trkpt lat="-36.7449761" lon="174.414786"><ele>127.00000000000001</ele><time>2026-04-18T21:14:54.888Z</time></trkpt><trkpt lat="-36.7450515" lon="174.4147597"><ele>127.0</ele><time>2026-04-18T21:14:57.887Z</time></trkpt><trkpt lat="-36.745117" lon="174.4147703"><ele>127.00000000000001</ele><time>2026-04-18T21:15:00.888Z</time></trkpt><trkpt lat="-36.7451855" lon="174.4147527"><ele>127.0</ele><time>2026-04-18T21:15:02.887Z</time></trkpt><trkpt lat="-36.7452888" lon="174.4147617"><ele>127.0</ele><time>2026-04-18T21:15:05.887Z</time></trkpt><trkpt lat="-36.7453689" lon="174.414799"><ele>127.0</ele><time>2026-04-18T21:15:07.888Z</time></trkpt><trkpt lat="-36.7454395" lon="174.4148015"><ele>127.00000000000001</ele><time>2026-04-18T21:15:09.888Z</time></trkpt><trkpt lat="-36.7455238" lon="174.4147577"><ele>127.0</ele><time>2026-04-18T21:15:12.887Z</time></trkpt><trkpt lat="-36.7456043" lon="174.4147636"><ele>127.42857142857143</ele><time>2026-04-18T21:15:15.887Z</time></trkpt><trkpt lat="-36.745651" lon="174.4148352"><ele>127.85714285714286</ele><time>2026-04-18T21:15:18.888Z</time></trkpt><trkpt lat="-36.7456469" lon="174.4149227"><ele>128.28571428571428</ele><time>2026-04-18T21:15:20.888Z</time></trkpt><trkpt lat="-36.745632" lon="174.4150021"><ele>128.71428571428572</ele><time>2026-04-18T21:15:22.889Z</time></trkpt><trkpt lat="-36.7456713" lon="174.4150827"><ele>129.14285714285714</ele><time>2026-04-18T21:15:25.887Z</time></trkpt><trkpt lat="-36.7457458" lon="174.4150849"><ele>129.57142857142858</ele><time>2026-04-18T21:15:27.888Z</time></trkpt><trkpt lat="-36.7458239" lon="174.4151017"><ele>130.0</ele><time>2026-04-18T21:15:30.888Z</time></trkpt><trkpt lat="-36.7458118" lon="174.4152002"><ele>130.00000000000003</ele><time>2026-04-18T21:15:34.889Z</time></trkpt><trkpt lat="-36.745826" lon="174.4152784"><ele>130.0</ele><time>2026-04-18T21:15:37.887Z</time></trkpt><trkpt lat="-36.7458696" lon="174.4153396"><ele>130.0</ele><time>2026-04-18T21:15:40.888Z</time></trkpt><trkpt lat="-36.7458623" lon="174.415428"><ele>130.0</ele><time>2026-04-18T21:15:43.887Z</time></trkpt><trkpt lat="-36.7458369" lon="174.4155146"><ele>130.0</ele><time>2026-04-18T21:15:45.887Z</time></trkpt><trkpt lat="-36.745798" lon="174.4156006"><ele>130.00000000000003</ele><time>2026-04-18T21:15:48.888Z</time></trkpt><trkpt lat="-36.7457654" lon="174.4156824"><ele>130.0</ele><time>2026-04-18T21:15:51.887Z</time></trkpt><trkpt lat="-36.7458283" lon="174.4156606"><ele>131.33333333333334</ele><time>2026-04-18T21:15:56.887Z</time></trkpt><trkpt lat="-36.7458726" lon="174.4157371"><ele>132.66666666666669</ele><time>2026-04-18T21:16:01.888Z</time></trkpt><trkpt lat="-36.7459377" lon="174.4157432"><ele>134.0</ele><time>2026-04-18T21:16:05.888Z</time></trkpt><trkpt lat="-36.7460092" lon="174.4157511"><ele>135.33333333333334</ele><time>2026-04-18T21:16:08.889Z</time></trkpt><trkpt lat="-36.7460579" lon="174.4156869"><ele>136.66666666666666</ele><time>2026-04-18T21:16:12.888Z</time></trkpt><trkpt lat="-36.7460723" lon="174.4156068"><ele>138.0</ele><time>2026-04-18T21:16:13.888Z</time></trkpt><trkpt lat="-36.746069" lon="174.4154534"><ele>138.5</ele><time>2026-04-18T21:16:15.888Z</time></trkpt><trkpt lat="-36.7460878" lon="174.4153775"><ele>139.0</ele><time>2026-04-18T21:16:16.888Z</time></trkpt><trkpt lat="-36.7461043" lon="174.4152868"><ele>139.5</ele><time>2026-04-18T21:16:17.888Z</time></trkpt><trkpt lat="-36.7461616" lon="174.4151733"><ele>140.0</ele><time>2026-04-18T21:16:19.887Z</time></trkpt><trkpt lat="-36.7462143" lon="174.4150893"><ele>140.5</ele><time>2026-04-18T21:16:22.889Z</time></trkpt><trkpt lat="-36.7462747" lon="174.415039"><ele>141.0</ele><time>2026-04-18T21:16:24.889Z</time></trkpt><trkpt lat="-36.7462761" lon="174.4149318"><ele>141.0</ele><time>2026-04-18T21:16:27.887Z</time></trkpt><trkpt lat="-36.7462591" lon="174.4148429"><ele>141.0</ele><time>2026-04-18T21:16:28.888Z</time></trkpt><trkpt lat="-36.7462853" lon="174.4147042"><ele>141.0</ele><time>2026-04-18T21:16:30.888Z</time></trkpt><trkpt lat="-36.7463207" lon="174.4146074"><ele>141.0</ele><time>2026-04-18T21:16:31.889Z</time></trkpt><trkpt lat="-36.7463518" lon="174.4145387"><ele>141.0</ele><time>2026-04-18T21:16:32.888Z</time></trkpt><trkpt lat="-36.746402" lon="174.4144315"><ele>141.0</ele><time>2026-04-18T21:16:34.887Z</time></trkpt><trkpt lat="-36.7464172" lon="174.4143401"><ele>140.6</ele><time>2026-04-18T21:16:36.888Z</time></trkpt><trkpt lat="-36.7463692" lon="174.4142512"><ele>140.2</ele><time>2026-04-18T21:16:38.888Z</time></trkpt><trkpt lat="-36.7462658" lon="174.4141363"><ele>139.8</ele><time>2026-04-18T21:16:40.887Z</time></trkpt><trkpt lat="-36.7462146" lon="174.4140545"><ele>139.4</ele><time>2026-04-18T21:16:41.887Z</time></trkpt><trkpt lat="-36.746149" lon="174.4139837"><ele>139.0</ele><time>2026-04-18T21:16:42.887Z</time></trkpt><trkpt lat="-36.7461015" lon="174.4139144"><ele>137.16666666666669</ele><time>2026-04-18T21:16:44.888Z</time></trkpt><trkpt lat="-36.7460395" lon="174.4138787"><ele>135.33333333333334</ele><time>2026-04-18T21:16:47.888Z</time></trkpt><trkpt lat="-36.7460248" lon="174.4139601"><ele>133.5</ele><time>2026-04-18T21:16:51.887Z</time></trkpt><trkpt lat="-36.7459782" lon="174.4140609"><ele>131.66666666666666</ele><time>2026-04-18T21:16:54.887Z</time></trkpt><trkpt lat="-36.7459128" lon="174.414114"><ele>129.83333333333331</ele><time>2026-04-18T21:16:57.887Z</time></trkpt><trkpt lat="-36.7458479" lon="174.4141162"><ele>128.0</ele><time>2026-04-18T21:16:59.888Z</time></trkpt><trkpt lat="-36.7457637" lon="174.4140996"><ele>128.0</ele><time>2026-04-18T21:17:01.888Z</time></trkpt><trkpt lat="-36.7456593" lon="174.4141832"><ele>128.0</ele><time>2026-04-18T21:17:03.887Z</time></trkpt><trkpt lat="-36.7456234" lon="174.414262"><ele>128.0</ele><time>2026-04-18T21:17:04.888Z</time></trkpt><trkpt lat="-36.745555" lon="174.4143083"><ele>128.0</ele><time>2026-04-18T21:17:05.887Z</time></trkpt><trkpt lat="-36.7454585" lon="174.4143105"><ele>128.0</ele><time>2026-04-18T21:17:07.887Z</time></trkpt><trkpt lat="-36.7453566" lon="174.4143169"><ele>127.99999999999999</ele><time>2026-04-18T21:17:09.888Z</time></trkpt><trkpt lat="-36.74524" lon="174.4142969"><ele>128.0</ele><time>2026-04-18T21:17:11.888Z</time></trkpt><trkpt lat="-36.7451571" lon="174.414328"><ele>128.0</ele><time>2026-04-18T21:17:13.888Z</time></trkpt><trkpt lat="-36.7450766" lon="174.4143435"><ele>128.0</ele><time>2026-04-18T21:17:15.887Z</time></trkpt><trkpt lat="-36.7449959" lon="174.4143015"><ele>127.99999999999999</ele><time>2026-04-18T21:17:18.888Z</time></trkpt><trkpt lat="-36.7449691" lon="174.4142254"><ele>128.0</ele><time>2026-04-18T21:17:20.888Z</time></trkpt><trkpt lat="-36.7449537" lon="174.4141278"><ele>127.83333333333333</ele><time>2026-04-18T21:17:22.887Z</time></trkpt><trkpt lat="-36.744928" lon="174.4140312"><ele>127.66666666666666</ele><time>2026-04-18T21:17:25.887Z</time></trkpt><trkpt lat="-36.7448572" lon="174.4139476"><ele>127.5</ele><time>2026-04-18T21:17:28.888Z</time></trkpt><trkpt lat="-36.7447944" lon="174.413924"><ele>127.33333333333334</ele><time>2026-04-18T21:17:30.889Z</time></trkpt><trkpt lat="-36.7447282" lon="174.4138927"><ele>127.16666666666667</ele><time>2026-04-18T21:17:32.888Z</time></trkpt><trkpt lat="-36.7446648" lon="174.4138525"><ele>127.0</ele><time>2026-04-18T21:17:34.887Z</time></trkpt><trkpt lat="-36.7446004" lon="174.4138018"><ele>127.00000000000001</ele><time>2026-04-18T21:17:36.887Z</time></trkpt><trkpt lat="-36.744523" lon="174.4137806"><ele>127.0</ele><time>2026-04-18T21:17:38.887Z</time></trkpt><trkpt lat="-36.7444487" lon="174.413771"><ele>127.0</ele><time>2026-04-18T21:17:40.888Z</time></trkpt><trkpt lat="-36.7443976" lon="174.4136935"><ele>127.0</ele><time>2026-04-18T21:17:43.887Z</time></trkpt><trkpt lat="-36.7444074" lon="174.4135988"><ele>127.00000000000001</ele><time>2026-04-18T21:17:45.887Z</time></trkpt><trkpt lat="-36.744382" lon="174.4135216"><ele>127.0</ele><time>2026-04-18T21:17:47.888Z</time></trkpt><trkpt lat="-36.7443113" lon="174.4134656"><ele>127.6</ele><time>2026-04-18T21:17:49.887Z</time></trkpt><trkpt lat="-36.7442285" lon="174.4134411"><ele>128.2</ele><time>2026-04-18T21:17:51.887Z</time></trkpt><trkpt lat="-36.7441476" lon="174.4133705"><ele>128.8</ele><time>2026-04-18T21:17:53.888Z</time></trkpt><trkpt lat="-36.7440725" lon="174.4133001"><ele>129.4</ele><time>2026-04-18T21:17:55.888Z</time></trkpt><trkpt lat="-36.7439964" lon="174.4132708"><ele>130.0</ele><time>2026-04-18T21:17:57.887Z</time></trkpt><trkpt lat="-36.7438922" lon="174.4132386"><ele>130.0</ele><time>2026-04-18T21:17:59.888Z</time></trkpt><trkpt lat="-36.7438648" lon="174.4131562"><ele>130.0</ele><time>2026-04-18T21:18:02.887Z</time></trkpt><trkpt lat="-36.7438837" lon="174.4130648"><ele>130.0</ele><time>2026-04-18T21:18:04.888Z</time></trkpt><trkpt lat="-36.7439154" lon="174.4129575"><ele>130.0</ele><time>2026-04-18T21:18:06.887Z</time></trkpt><trkpt lat="-36.7439364" lon="174.4128555"><ele>130.0</ele><time>2026-04-18T21:18:08.889Z</time></trkpt><trkpt lat="-36.74398" lon="174.4127737"><ele>130.0</ele><time>2026-04-18T21:18:09.888Z</time></trkpt><trkpt lat="-36.7440142" lon="174.4126796"><ele>129.5</ele><time>2026-04-18T21:18:11.888Z</time></trkpt><trkpt lat="-36.7439958" lon="174.412584"><ele>129.0</ele><time>2026-04-18T21:18:14.888Z</time></trkpt><trkpt lat="-36.7439449" lon="174.4125261"><ele>128.5</ele><time>2026-04-18T21:18:16.888Z</time></trkpt><trkpt lat="-36.7439001" lon="174.4124248"><ele>128.0</ele><time>2026-04-18T21:18:18.887Z</time></trkpt><trkpt lat="-36.7438596" lon="174.4123588"><ele>127.50000000000001</ele><time>2026-04-18T21:18:20.887Z</time></trkpt><trkpt lat="-36.7438814" lon="174.4122683"><ele>127.0</ele><time>2026-04-18T21:18:23.887Z</time></trkpt><trkpt lat="-36.7439411" lon="174.4122208"><ele>127.0</ele><time>2026-04-18T21:18:26.887Z</time></trkpt><trkpt lat="-36.744012" lon="174.4122299"><ele>126.99999999999999</ele><time>2026-04-18T21:18:28.887Z</time></trkpt><trkpt lat="-36.7441154" lon="174.4122549"><ele>126.99999999999999</ele><time>2026-04-18T21:18:30.888Z</time></trkpt><trkpt lat="-36.7442117" lon="174.4123039"><ele>127.0</ele><time>2026-04-18T21:18:32.888Z</time></trkpt><trkpt lat="-36.7442845" lon="174.4123688"><ele>127.0</ele><time>2026-04-18T21:18:33.887Z</time></trkpt><trkpt lat="-36.7443563" lon="174.4124211"><ele>127.00000000000001</ele><time>2026-04-18T21:18:35.888Z</time></trkpt><trkpt lat="-36.7443845" lon="174.4125071"><ele>127.0</ele><time>2026-04-18T21:18:37.888Z</time></trkpt><trkpt lat="-36.7443807" lon="174.4125864"><ele>127.0</ele><time>2026-04-18T21:18:39.888Z</time></trkpt><trkpt lat="-36.7443312" lon="174.4126702"><ele>127.0</ele><time>2026-04-18T21:18:41.887Z</time></trkpt><trkpt lat="-36.7442898" lon="174.4127648"><ele>127.00000000000001</ele><time>2026-04-18T21:18:43.888Z</time></trkpt><trkpt lat="-36.7442774" lon="174.4128718"><ele>127.0</ele><time>2026-04-18T21:18:45.887Z</time></trkpt><trkpt lat="-36.744255" lon="174.4129793"><ele>127.0</ele><time>2026-04-18T21:18:47.889Z</time></trkpt><trkpt lat="-36.7442412" lon="174.4130643"><ele>127.0</ele><time>2026-04-18T21:18:49.887Z</time></trkpt><trkpt lat="-36.7442509" lon="174.4131534"><ele>127.0</ele><time>2026-04-18T21:18:51.888Z</time></trkpt><trkpt lat="-36.7442983" lon="174.4132183"><ele>127.0</ele><time>2026-04-18T21:18:53.888Z</time></trkpt><trkpt lat="-36.7443121" lon="174.4132954"><ele>127.0</ele><time>2026-04-18T21:18:55.888Z</time></trkpt><trkpt lat="-36.7443837" lon="174.4133141"><ele>127.0</ele><time>2026-04-18T21:18:57.887Z</time></trkpt><trkpt lat="-36.7444477" lon="174.413307"><ele>127.0</ele><time>2026-04-18T21:18:59.887Z</time></trkpt><trkpt lat="-36.7445186" lon="174.4133256"><ele>127.00000000000001</ele><time>2026-04-18T21:19:01.888Z</time></trkpt><trkpt lat="-36.7445855" lon="174.413361"><ele>127.0</ele><time>2026-04-18T21:19:03.889Z</time></trkpt><trkpt lat="-36.7446486" lon="174.4133209"><ele>127.0</ele><time>2026-04-18T21:19:06.888Z</time></trkpt><trkpt lat="-36.7447221" lon="174.4132593"><ele>127.0</ele><time>2026-04-18T21:19:09.887Z</time></trkpt><trkpt lat="-36.7447836" lon="174.4131682"><ele>127.00000000000001</ele><time>2026-04-18T21:19:12.888Z</time></trkpt><trkpt lat="-36.7448334" lon="174.4131091"><ele>127.0</ele><time>2026-04-18T21:19:14.887Z</time></trkpt><trkpt lat="-36.7448903" lon="174.4130752"><ele>127.00000000000001</ele><time>2026-04-18T21:19:16.889Z</time></trkpt><trkpt lat="-36.7449552" lon="174.413029"><ele>127.0</ele><time>2026-04-18T21:19:18.887Z</time></trkpt><trkpt lat="-36.7450043" lon="174.4129668"><ele>127.0</ele><time>2026-04-18T21:19:20.888Z</time></trkpt><trkpt lat="-36.7450725" lon="174.4129257"><ele>127.0</ele><time>2026-04-18T21:19:22.888Z</time></trkpt><trkpt lat="-36.7451528" lon="174.4128922"><ele>127.00000000000001</ele><time>2026-04-18T21:19:24.887Z</time></trkpt><trkpt lat="-36.7452382" lon="174.4128712"><ele>127.0</ele><time>2026-04-18T21:19:26.887Z</time></trkpt><trkpt lat="-36.7453157" lon="174.4128624"><ele>126.83333333333334</ele><time>2026-04-18T21:19:27.888Z</time></trkpt><trkpt lat="-36.745382" lon="174.4128526"><ele>126.66666666666667</ele><time>2026-04-18T21:19:28.889Z</time></trkpt><trkpt lat="-36.7454848" lon="174.4128605"><ele>126.5</ele><time>2026-04-18T21:19:30.887Z</time></trkpt><trkpt lat="-36.7455552" lon="174.41292"><ele>126.33333333333334</ele><time>2026-04-18T21:19:32.887Z</time></trkpt><trkpt lat="-36.7455895" lon="174.4130331"><ele>126.16666666666667</ele><time>2026-04-18T21:19:34.888Z</time></trkpt><trkpt lat="-36.7455659" lon="174.413117"><ele>126.0</ele><time>2026-04-18T21:19:36.887Z</time></trkpt><trkpt lat="-36.7455508" lon="174.4132085"><ele>126.42857142857143</ele><time>2026-04-18T21:19:39.888Z</time></trkpt><trkpt lat="-36.7456412" lon="174.4132373"><ele>126.85714285714286</ele><time>2026-04-18T21:19:42.888Z</time></trkpt><trkpt lat="-36.7457119" lon="174.4132286"><ele>127.28571428571428</ele><time>2026-04-18T21:19:44.888Z</time></trkpt><trkpt lat="-36.7457732" lon="174.4132085"><ele>127.71428571428571</ele><time>2026-04-18T21:19:46.889Z</time></trkpt><trkpt lat="-36.7458458" lon="174.413213"><ele>128.14285714285714</ele><time>2026-04-18T21:19:48.888Z</time></trkpt><trkpt lat="-36.7459094" lon="174.4132658"><ele>128.57142857142856</ele><time>2026-04-18T21:19:50.887Z</time></trkpt><trkpt lat="-36.745955" lon="174.4133313"><ele>129.0</ele><time>2026-04-18T21:19:52.888Z</time></trkpt><trkpt lat="-36.7460445" lon="174.4133921"><ele>129.0</ele><time>2026-04-18T21:19:55.888Z</time></trkpt><trkpt lat="-36.7461132" lon="174.4133423"><ele>129.0</ele><time>2026-04-18T21:19:58.888Z</time></trkpt><trkpt lat="-36.7461717" lon="174.4132212"><ele>129.0</ele><time>2026-04-18T21:20:00.888Z</time></trkpt><trkpt lat="-36.7462167" lon="174.4131204"><ele>129.0</ele><time>2026-04-18T21:20:02.888Z</time></trkpt><trkpt lat="-36.7462621" lon="174.4130106"><ele>129.0</ele><time>2026-04-18T21:20:04.888Z</time></trkpt><trkpt lat="-36.7462878" lon="174.4129149"><ele>128.99999999999997</ele><time>2026-04-18T21:20:06.887Z</time></trkpt><trkpt lat="-36.7463344" lon="174.4128368"><ele>129.0</ele><time>2026-04-18T21:20:09.887Z</time></trkpt><trkpt lat="-36.746402" lon="174.4128595"><ele>129.0</ele><time>2026-04-18T21:20:12.889Z</time></trkpt><trkpt lat="-36.746455" lon="174.4129147"><ele>129.0</ele><time>2026-04-18T21:20:14.888Z</time></trkpt><trkpt lat="-36.7465034" lon="174.412977"><ele>129.0</ele><time>2026-04-18T21:20:15.888Z</time></trkpt><trkpt lat="-36.7465267" lon="174.4130697"><ele>128.99999999999997</ele><time>2026-04-18T21:20:17.888Z</time></trkpt><trkpt lat="-36.7465484" lon="174.4131582"><ele>129.0</ele><time>2026-04-18T21:20:19.888Z</time></trkpt><trkpt lat="-36.7465733" lon="174.4132493"><ele>129.5</ele><time>2026-04-18T21:20:21.887Z</time></trkpt><trkpt lat="-36.7465845" lon="174.4133615"><ele>130.0</ele><time>2026-04-18T21:20:24.889Z</time></trkpt><trkpt lat="-36.7465674" lon="174.4134752"><ele>130.5</ele><time>2026-04-18T21:20:27.888Z</time></trkpt><trkpt lat="-36.7465461" lon="174.4135645"><ele>131.0</ele><time>2026-04-18T21:20:30.887Z</time></trkpt><trkpt lat="-36.7466079" lon="174.4135821"><ele>131.5</ele><time>2026-04-18T21:20:34.887Z</time></trkpt><trkpt lat="-36.746674" lon="174.4135111"><ele>132.0</ele><time>2026-04-18T21:20:37.888Z</time></trkpt><trkpt lat="-36.746712" lon="174.413447"><ele>132.0</ele><time>2026-04-18T21:20:39.888Z</time></trkpt><trkpt lat="-36.7467643" lon="174.4133562"><ele>132.0</ele><time>2026-04-18T21:20:42.888Z</time></trkpt><trkpt lat="-36.7468175" lon="174.4132945"><ele>132.0</ele><time>2026-04-18T21:20:45.889Z</time></trkpt><trkpt lat="-36.7468512" lon="174.4132162"><ele>132.0</ele><time>2026-04-18T21:20:49.888Z</time></trkpt><trkpt lat="-36.7469154" lon="174.4132563"><ele>132.0</ele><time>2026-04-18T21:20:53.888Z</time></trkpt><trkpt lat="-36.7469383" lon="174.413337"><ele>132.0</ele><time>2026-04-18T21:20:56.887Z</time></trkpt><trkpt lat="-36.7469377" lon="174.4134392"><ele>134.33333333333334</ele><time>2026-04-18T21:20:59.887Z</time></trkpt><trkpt lat="-36.7469618" lon="174.4135544"><ele>136.66666666666666</ele><time>2026-04-18T21:21:02.887Z</time></trkpt><trkpt lat="-36.747011" lon="174.4136242"><ele>139.0</ele><time>2026-04-18T21:21:05.888Z</time></trkpt><trkpt lat="-36.7470611" lon="174.413552"><ele>141.33333333333331</ele><time>2026-04-18T21:21:09.888Z</time></trkpt><trkpt lat="-36.7470192" lon="174.4134599"><ele>143.66666666666666</ele><time>2026-04-18T21:21:12.887Z</time></trkpt><trkpt lat="-36.7470004" lon="174.4133649"><ele>146.0</ele><time>2026-04-18T21:21:14.888Z</time></trkpt><trkpt lat="-36.7469846" lon="174.4132658"><ele>146.0</ele><time>2026-04-18T21:21:15.888Z</time></trkpt><trkpt lat="-36.74696" lon="174.4131891"><ele>146.0</ele><time>2026-04-18T21:21:16.889Z</time></trkpt><trkpt lat="-36.7468997" lon="174.4130283"><ele>146.0</ele><time>2026-04-18T21:21:18.887Z</time></trkpt><trkpt lat="-36.7468573" lon="174.4129414"><ele>146.0</ele><time>2026-04-18T21:21:19.887Z</time></trkpt><trkpt lat="-36.7468316" lon="174.4128673"><ele>146.0</ele><time>2026-04-18T21:21:20.888Z</time></trkpt><trkpt lat="-36.7467928" lon="174.4127969"><ele>146.0</ele><time>2026-04-18T21:21:21.887Z</time></trkpt><trkpt lat="-36.7467597" lon="174.412704"><ele>143.16666666666666</ele><time>2026-04-18T21:21:22.889Z</time></trkpt><trkpt lat="-36.7467197" lon="174.4126253"><ele>140.33333333333331</ele><time>2026-04-18T21:21:23.887Z</time></trkpt><trkpt lat="-36.7466696" lon="174.4125762"><ele>137.5</ele><time>2026-04-18T21:21:24.888Z</time></trkpt><trkpt lat="-36.7466207" lon="174.4125156"><ele>134.66666666666666</ele><time>2026-04-18T21:21:25.888Z</time></trkpt><trkpt lat="-36.7465718" lon="174.412462"><ele>131.83333333333334</ele><time>2026-04-18T21:21:26.888Z</time></trkpt><trkpt lat="-36.7464845" lon="174.4123886"><ele>129.0</ele><time>2026-04-18T21:21:28.888Z</time></trkpt><trkpt lat="-36.7463612" lon="174.4123528"><ele>129.0</ele><time>2026-04-18T21:21:30.888Z</time></trkpt><trkpt lat="-36.7462871" lon="174.4123173"><ele>129.0</ele><time>2026-04-18T21:21:31.887Z</time></trkpt><trkpt lat="-36.7461952" lon="174.4122509"><ele>129.0</ele><time>2026-04-18T21:21:33.887Z</time></trkpt><trkpt lat="-36.746143" lon="174.4121922"><ele>129.0</ele><time>2026-04-18T21:21:35.887Z</time></trkpt><trkpt lat="-36.7461047" lon="174.4121215"><ele>129.0</ele><time>2026-04-18T21:21:37.888Z</time></trkpt><trkpt lat="-36.7460536" lon="174.4120525"><ele>129.0</ele><time>2026-04-18T21:21:39.888Z</time></trkpt><trkpt lat="-36.7459718" lon="174.4120228"><ele>128.7142857142857</ele><time>2026-04-18T21:21:42.888Z</time></trkpt><trkpt lat="-36.7458946" lon="174.4120272"><ele>128.42857142857142</ele><time>2026-04-18T21:21:44.887Z</time></trkpt><trkpt lat="-36.7458329" lon="174.4120553"><ele>128.14285714285714</ele><time>2026-04-18T21:21:46.887Z</time></trkpt><trkpt lat="-36.7457691" lon="174.4120751"><ele>127.85714285714285</ele><time>2026-04-18T21:21:49.889Z</time></trkpt><trkpt lat="-36.7457447" lon="174.4119957"><ele>127.57142857142856</ele><time>2026-04-18T21:21:52.888Z</time></trkpt><trkpt lat="-36.7457552" lon="174.4118976"><ele>127.28571428571429</ele><time>2026-04-18T21:21:55.888Z</time></trkpt><trkpt lat="-36.7456981" lon="174.4118537"><ele>127.0</ele><time>2026-04-18T21:21:58.887Z</time></trkpt><trkpt lat="-36.7456334" lon="174.4119087"><ele>127.00000000000001</ele><time>2026-04-18T21:22:01.888Z</time></trkpt><trkpt lat="-36.7455882" lon="174.4119858"><ele>127.0</ele><time>2026-04-18T21:22:03.887Z</time></trkpt><trkpt lat="-36.7455502" lon="174.4120637"><ele>127.0</ele><time>2026-04-18T21:22:04.887Z</time></trkpt><trkpt lat="-36.7455148" lon="174.4121367"><ele>127.0</ele><time>2026-04-18T21:22:05.887Z</time></trkpt><trkpt lat="-36.7454424" lon="174.4122044"><ele>127.00000000000001</ele><time>2026-04-18T21:22:07.888Z</time></trkpt><trkpt lat="-36.7453272" lon="174.4122044"><ele>127.0</ele><time>2026-04-18T21:22:09.888Z</time></trkpt><trkpt lat="-36.7452643" lon="174.4121811"><ele>126.8</ele><time>2026-04-18T21:22:10.887Z</time></trkpt><trkpt lat="-36.7451504" lon="174.4121617"><ele>126.6</ele><time>2026-04-18T21:22:12.887Z</time></trkpt><trkpt lat="-36.7450847" lon="174.4121602"><ele>126.39999999999999</ele><time>2026-04-18T21:22:13.888Z</time></trkpt><trkpt lat="-36.7449487" lon="174.412117"><ele>126.19999999999999</ele><time>2026-04-18T21:22:15.889Z</time></trkpt><trkpt lat="-36.7448823" lon="174.4121019"><ele>126.0</ele><time>2026-04-18T21:22:16.888Z</time></trkpt><trkpt lat="-36.7447688" lon="174.4120135"><ele>125.6</ele><time>2026-04-18T21:22:18.889Z</time></trkpt><trkpt lat="-36.74473" lon="174.4118885"><ele>125.19999999999999</ele><time>2026-04-18T21:22:20.888Z</time></trkpt><trkpt lat="-36.7447655" lon="174.4117688"><ele>124.80000000000001</ele><time>2026-04-18T21:22:23.887Z</time></trkpt><trkpt lat="-36.7448505" lon="174.4116868"><ele>124.4</ele><time>2026-04-18T21:22:25.888Z</time></trkpt><trkpt lat="-36.7449174" lon="174.4116113"><ele>124.0</ele><time>2026-04-18T21:22:27.888Z</time></trkpt><trkpt lat="-36.7449678" lon="174.4115258"><ele>124.0</ele><time>2026-04-18T21:22:29.887Z</time></trkpt><trkpt lat="-36.7449685" lon="174.4114127"><ele>124.0</ele><time>2026-04-18T21:22:31.887Z</time></trkpt><trkpt lat="-36.7449451" lon="174.4113153"><ele>124.0</ele><time>2026-04-18T21:22:33.888Z</time></trkpt><trkpt lat="-36.7449415" lon="174.4111777"><ele>124.0</ele><time>2026-04-18T21:22:35.887Z</time></trkpt><trkpt lat="-36.744906" lon="174.4110793"><ele>124.0</ele><time>2026-04-18T21:22:37.888Z</time></trkpt><trkpt lat="-36.7448452" lon="174.4110115"><ele>123.16666666666667</ele><time>2026-04-18T21:22:39.887Z</time></trkpt><trkpt lat="-36.7447632" lon="174.4109921"><ele>122.33333333333334</ele><time>2026-04-18T21:22:41.887Z</time></trkpt><trkpt lat="-36.7446974" lon="174.4109978"><ele>121.5</ele><time>2026-04-18T21:22:43.887Z</time></trkpt><trkpt lat="-36.7446319" lon="174.4110151"><ele>120.66666666666666</ele><time>2026-04-18T21:22:45.887Z</time></trkpt><trkpt lat="-36.7445643" lon="174.411092"><ele>119.83333333333333</ele><time>2026-04-18T21:22:48.887Z</time></trkpt><trkpt lat="-36.7445746" lon="174.4111794"><ele>119.0</ele><time>2026-04-18T21:22:55.888Z</time></trkpt><trkpt lat="-36.744566" lon="174.411288"><ele>119.71428571428572</ele><time>2026-04-18T21:22:59.888Z</time></trkpt><trkpt lat="-36.7445233" lon="174.4113505"><ele>120.42857142857143</ele><time>2026-04-18T21:23:01.888Z</time></trkpt><trkpt lat="-36.7445008" lon="174.4114274"><ele>121.14285714285714</ele><time>2026-04-18T21:23:03.888Z</time></trkpt><trkpt lat="-36.7444535" lon="174.4115084"><ele>121.85714285714286</ele><time>2026-04-18T21:23:05.887Z</time></trkpt><trkpt lat="-36.7444046" lon="174.4115831"><ele>122.57142857142858</ele><time>2026-04-18T21:23:07.888Z</time></trkpt><trkpt lat="-36.7443558" lon="174.4116588"><ele>123.28571428571429</ele><time>2026-04-18T21:23:09.888Z</time></trkpt><trkpt lat="-36.7443019" lon="174.4117115"><ele>124.0</ele><time>2026-04-18T21:23:11.887Z</time></trkpt><trkpt lat="-36.7442335" lon="174.4117919"><ele>124.33333333333334</ele><time>2026-04-18T21:23:14.888Z</time></trkpt><trkpt lat="-36.7441884" lon="174.4118685"><ele>124.66666666666667</ele><time>2026-04-18T21:23:16.887Z</time></trkpt><trkpt lat="-36.7441336" lon="174.4119076"><ele>125.0</ele><time>2026-04-18T21:23:18.889Z</time></trkpt><trkpt lat="-36.7440466" lon="174.4119321"><ele>125.33333333333334</ele><time>2026-04-18T21:23:21.887Z</time></trkpt><trkpt lat="-36.7439791" lon="174.4119555"><ele>125.66666666666667</ele><time>2026-04-18T21:23:23.887Z</time></trkpt><trkpt lat="-36.7439019" lon="174.4119786"><ele>126.0</ele><time>2026-04-18T21:23:25.887Z</time></trkpt><trkpt lat="-36.7438226" lon="174.4120018"><ele>126.0</ele><time>2026-04-18T21:23:27.887Z</time></trkpt><trkpt lat="-36.743745" lon="174.4120944"><ele>126.0</ele><time>2026-04-18T21:23:29.889Z</time></trkpt><trkpt lat="-36.7437272" lon="174.4121991"><ele>126.0</ele><time>2026-04-18T21:23:31.887Z</time></trkpt><trkpt lat="-36.7437189" lon="174.4122953"><ele>126.0</ele><time>2026-04-18T21:23:34.888Z</time></trkpt><trkpt lat="-36.743645" lon="174.4123465"><ele>126.0</ele><time>2026-04-18T21:23:37.888Z</time></trkpt><trkpt lat="-36.7435902" lon="174.4123987"><ele>126.0</ele><time>2026-04-18T21:23:38.887Z</time></trkpt><trkpt lat="-36.7435393" lon="174.4124521"><ele>125.83333333333333</ele><time>2026-04-18T21:23:39.887Z</time></trkpt><trkpt lat="-36.743454" lon="174.4124818"><ele>125.66666666666666</ele><time>2026-04-18T21:23:40.887Z</time></trkpt><trkpt lat="-36.7434007" lon="174.4125389"><ele>125.5</ele><time>2026-04-18T21:23:41.887Z</time></trkpt><trkpt lat="-36.7433373" lon="174.4126199"><ele>125.33333333333333</ele><time>2026-04-18T21:23:43.887Z</time></trkpt><trkpt lat="-36.7432856" lon="174.4126689"><ele>125.16666666666666</ele><time>2026-04-18T21:23:44.887Z</time></trkpt><trkpt lat="-36.7432399" lon="174.4127578"><ele>125.0</ele><time>2026-04-18T21:23:46.887Z</time></trkpt><trkpt lat="-36.7432106" lon="174.4128335"><ele>124.99999999999999</ele><time>2026-04-18T21:23:48.889Z</time></trkpt><trkpt lat="-36.7431591" lon="174.4129091"><ele>125.0</ele><time>2026-04-18T21:23:50.887Z</time></trkpt><trkpt lat="-36.743098" lon="174.412989"><ele>125.0</ele><time>2026-04-18T21:23:52.888Z</time></trkpt><trkpt lat="-36.7430492" lon="174.4130526"><ele>125.0</ele><time>2026-04-18T21:23:54.887Z</time></trkpt><trkpt lat="-36.7430042" lon="174.4131504"><ele>124.99999999999999</ele><time>2026-04-18T21:23:56.887Z</time></trkpt><trkpt lat="-36.7429566" lon="174.4132523"><ele>125.0</ele><time>2026-04-18T21:23:58.887Z</time></trkpt><trkpt lat="-36.7429068" lon="174.4133556"><ele>125.66666666666666</ele><time>2026-04-18T21:24:00.887Z</time></trkpt><trkpt lat="-36.7428471" lon="174.4134462"><ele>126.33333333333333</ele><time>2026-04-18T21:24:02.888Z</time></trkpt><trkpt lat="-36.7427846" lon="174.4135318"><ele>127.0</ele><time>2026-04-18T21:24:04.889Z</time></trkpt><trkpt lat="-36.7427422" lon="174.4136045"><ele>127.66666666666666</ele><time>2026-04-18T21:24:06.888Z</time></trkpt><trkpt lat="-36.7426987" lon="174.4136892"><ele>128.33333333333334</ele><time>2026-04-18T21:24:08.888Z</time></trkpt><trkpt lat="-36.7426285" lon="174.4137729"><ele>129.0</ele><time>2026-04-18T21:24:10.887Z</time></trkpt><trkpt lat="-36.7425686" lon="174.4138394"><ele>129.99999999999997</ele><time>2026-04-18T21:24:12.887Z</time></trkpt><trkpt lat="-36.7425371" lon="174.4139174"><ele>131.0</ele><time>2026-04-18T21:24:14.887Z</time></trkpt><trkpt lat="-36.7425016" lon="174.4139854"><ele>132.0</ele><time>2026-04-18T21:24:16.888Z</time></trkpt><trkpt lat="-36.7424321" lon="174.4139697"><ele>133.0</ele><time>2026-04-18T21:24:19.888Z</time></trkpt><trkpt lat="-36.7424027" lon="174.413882"><ele>134.0</ele><time>2026-04-18T21:24:22.887Z</time></trkpt><trkpt lat="-36.7423407" lon="174.4139214"><ele>134.99999999999997</ele><time>2026-04-18T21:24:26.888Z</time></trkpt><trkpt lat="-36.7423383" lon="174.4140272"><ele>136.0</ele><time>2026-04-18T21:24:29.887Z</time></trkpt><trkpt lat="-36.7423078" lon="174.4141138"><ele>136.0</ele><time>2026-04-18T21:24:32.888Z</time></trkpt><trkpt lat="-36.7423379" lon="174.4141942"><ele>136.0</ele><time>2026-04-18T21:24:35.888Z</time></trkpt><trkpt lat="-36.7423174" lon="174.4142746"><ele>136.0</ele><time>2026-04-18T21:24:38.887Z</time></trkpt><trkpt lat="-36.7422263" lon="174.4142529"><ele>136.0</ele><time>2026-04-18T21:24:42.888Z</time></trkpt><trkpt lat="-36.7421656" lon="174.4142044"><ele>136.0</ele><time>2026-04-18T21:24:44.888Z</time></trkpt><trkpt lat="-36.7420896" lon="174.4141506"><ele>136.0</ele><time>2026-04-18T21:24:46.889Z</time></trkpt><trkpt lat="-36.742001" lon="174.4141011"><ele>136.0</ele><time>2026-04-18T21:24:48.887Z</time></trkpt><trkpt lat="-36.7418973" lon="174.414037"><ele>136.0</ele><time>2026-04-18T21:24:50.888Z</time></trkpt><trkpt lat="-36.7418006" lon="174.4139797"><ele>136.0</ele><time>2026-04-18T21:24:52.888Z</time></trkpt><trkpt lat="-36.741708" lon="174.4139339"><ele>136.0</ele><time>2026-04-18T21:24:54.889Z</time></trkpt><trkpt lat="-36.7416029" lon="174.4138796"><ele>136.0</ele><time>2026-04-18T21:24:56.888Z</time></trkpt><trkpt lat="-36.7414975" lon="174.4138333"><ele>133.75</ele><time>2026-04-18T21:24:58.887Z</time></trkpt><trkpt lat="-36.741391" lon="174.413782"><ele>131.5</ele><time>2026-04-18T21:25:00.889Z</time></trkpt><trkpt lat="-36.7412823" lon="174.4137338"><ele>129.25</ele><time>2026-04-18T21:25:02.888Z</time></trkpt><trkpt lat="-36.7411626" lon="174.4136862"><ele>127.0</ele><time>2026-04-18T21:25:04.887Z</time></trkpt><trkpt lat="-36.7410456" lon="174.4136334"><ele>126.83333333333334</ele><time>2026-04-18T21:25:06.887Z</time></trkpt><trkpt lat="-36.7409296" lon="174.4135714"><ele>126.66666666666667</ele><time>2026-04-18T21:25:08.887Z</time></trkpt><trkpt lat="-36.7408656" lon="174.4135459"><ele>126.5</ele><time>2026-04-18T21:25:09.888Z</time></trkpt><trkpt lat="-36.7408015" lon="174.4135182"><ele>126.33333333333334</ele><time>2026-04-18T21:25:10.887Z</time></trkpt><trkpt lat="-36.740738" lon="174.4134919"><ele>126.16666666666667</ele><time>2026-04-18T21:25:11.889Z</time></trkpt><trkpt lat="-36.7406692" lon="174.4134673"><ele>126.0</ele><time>2026-04-18T21:25:12.887Z</time></trkpt><trkpt lat="-36.740598" lon="174.4134446"><ele>126.0</ele><time>2026-04-18T21:25:13.887Z</time></trkpt><trkpt lat="-36.7404696" lon="174.413378"><ele>126.0</ele><time>2026-04-18T21:25:15.887Z</time></trkpt><trkpt lat="-36.7403981" lon="174.413348"><ele>126.0</ele><time>2026-04-18T21:25:16.888Z</time></trkpt><trkpt lat="-36.7403248" lon="174.4133078"><ele>126.0</ele><time>2026-04-18T21:25:17.888Z</time></trkpt><trkpt lat="-36.7402554" lon="174.4132702"><ele>126.0</ele><time>2026-04-18T21:25:18.887Z</time></trkpt><trkpt lat="-36.7401809" lon="174.4132359"><ele>126.33333333333333</ele><time>2026-04-18T21:25:19.888Z</time></trkpt><trkpt lat="-36.7401058" lon="174.4131931"><ele>126.66666666666666</ele><time>2026-04-18T21:25:20.888Z</time></trkpt><trkpt lat="-36.7400345" lon="174.4131471"><ele>127.0</ele><time>2026-04-18T21:25:21.888Z</time></trkpt><trkpt lat="-36.7399642" lon="174.4131068"><ele>127.33333333333333</ele><time>2026-04-18T21:25:22.888Z</time></trkpt><trkpt lat="-36.739896" lon="174.4130711"><ele>127.66666666666666</ele><time>2026-04-18T21:25:23.888Z</time></trkpt><trkpt lat="-36.7398321" lon="174.4130309"><ele>128.0</ele><time>2026-04-18T21:25:24.887Z</time></trkpt><trkpt lat="-36.7397716" lon="174.4129945"><ele>127.42857142857142</ele><time>2026-04-18T21:25:25.888Z</time></trkpt><trkpt lat="-36.7397056" lon="174.4129692"><ele>126.85714285714285</ele><time>2026-04-18T21:25:26.887Z</time></trkpt><trkpt lat="-36.7396393" lon="174.4129406"><ele>126.28571428571428</ele><time>2026-04-18T21:25:27.888Z</time></trkpt><trkpt lat="-36.7395726" lon="174.4129074"><ele>125.71428571428572</ele><time>2026-04-18T21:25:28.887Z</time></trkpt><trkpt lat="-36.7395063" lon="174.4128705"><ele>125.14285714285715</ele><time>2026-04-18T21:25:29.887Z</time></trkpt><trkpt lat="-36.7394407" lon="174.4128351"><ele>124.57142857142858</ele><time>2026-04-18T21:25:30.888Z</time></trkpt><trkpt lat="-36.7393755" lon="174.4128041"><ele>124.0</ele><time>2026-04-18T21:25:31.887Z</time></trkpt><trkpt lat="-36.7393107" lon="174.4127696"><ele>124.0</ele><time>2026-04-18T21:25:32.887Z</time></trkpt><trkpt lat="-36.7392486" lon="174.4127314"><ele>124.00000000000001</ele><time>2026-04-18T21:25:33.887Z</time></trkpt><trkpt lat="-36.7391894" lon="174.4126972"><ele>124.0</ele><time>2026-04-18T21:25:34.888Z</time></trkpt><trkpt lat="-36.7391235" lon="174.4126602"><ele>124.0</ele><time>2026-04-18T21:25:35.887Z</time></trkpt><trkpt lat="-36.7390541" lon="174.4126265"><ele>124.00000000000001</ele><time>2026-04-18T21:25:36.887Z</time></trkpt><trkpt lat="-36.738991" lon="174.4125915"><ele>124.0</ele><time>2026-04-18T21:25:37.888Z</time></trkpt><trkpt lat="-36.7389262" lon="174.4125581"><ele>124.0</ele><time>2026-04-18T21:25:38.887Z</time></trkpt><trkpt lat="-36.7388577" lon="174.4125196"><ele>124.0</ele><time>2026-04-18T21:25:39.888Z</time></trkpt><trkpt lat="-36.7387905" lon="174.4124916"><ele>124.00000000000001</ele><time>2026-04-18T21:25:40.887Z</time></trkpt><trkpt lat="-36.7387247" lon="174.4124614"><ele>124.0</ele><time>2026-04-18T21:25:41.888Z</time></trkpt><trkpt lat="-36.738656" lon="174.4124302"><ele>124.0</ele><time>2026-04-18T21:25:42.889Z</time></trkpt><trkpt lat="-36.7385852" lon="174.4124039"><ele>124.00000000000001</ele><time>2026-04-18T21:25:43.887Z</time></trkpt><trkpt lat="-36.7385171" lon="174.412377"><ele>124.0</ele><time>2026-04-18T21:25:44.887Z</time></trkpt><trkpt lat="-36.738451" lon="174.4123356"><ele>124.0</ele><time>2026-04-18T21:25:45.889Z</time></trkpt><trkpt lat="-36.7383854" lon="174.4122956"><ele>124.0</ele><time>2026-04-18T21:25:46.888Z</time></trkpt><trkpt lat="-36.7383151" lon="174.4122598"><ele>124.00000000000001</ele><time>2026-04-18T21:25:47.887Z</time></trkpt><trkpt lat="-36.7382497" lon="174.4122269"><ele>124.0</ele><time>2026-04-18T21:25:48.887Z</time></trkpt><trkpt lat="-36.7381807" lon="174.412192"><ele>124.0</ele><time>2026-04-18T21:25:49.888Z</time></trkpt><trkpt lat="-36.738112" lon="174.4121548"><ele>124.00000000000001</ele><time>2026-04-18T21:25:50.888Z</time></trkpt><trkpt lat="-36.7380408" lon="174.4121262"><ele>124.0</ele><time>2026-04-18T21:25:51.889Z</time></trkpt><trkpt lat="-36.7379718" lon="174.412097"><ele>124.0</ele><time>2026-04-18T21:25:52.887Z</time></trkpt><trkpt lat="-36.7379059" lon="174.4120705"><ele>124.0</ele><time>2026-04-18T21:25:53.888Z</time></trkpt><trkpt lat="-36.7378429" lon="174.412038"><ele>124.00000000000001</ele><time>2026-04-18T21:25:54.888Z</time></trkpt><trkpt lat="-36.7377751" lon="174.4120048"><ele>124.0</ele><time>2026-04-18T21:25:55.887Z</time></trkpt><trkpt lat="-36.7377056" lon="174.4119703"><ele>124.0</ele><time>2026-04-18T21:25:56.887Z</time></trkpt><trkpt lat="-36.7376434" lon="174.4119321"><ele>124.00000000000001</ele><time>2026-04-18T21:25:57.888Z</time></trkpt><trkpt lat="-36.7375789" lon="174.411899"><ele>124.0</ele><time>2026-04-18T21:25:58.887Z</time></trkpt><trkpt lat="-36.737513" lon="174.4118629"><ele>124.0</ele><time>2026-04-18T21:25:59.889Z</time></trkpt><trkpt lat="-36.7374495" lon="174.4118348"><ele>124.6</ele><time>2026-04-18T21:26:00.887Z</time></trkpt><trkpt lat="-36.7373825" lon="174.4118021"><ele>125.2</ele><time>2026-04-18T21:26:01.887Z</time></trkpt><trkpt lat="-36.7372593" lon="174.4117565"><ele>125.79999999999998</ele><time>2026-04-18T21:26:03.887Z</time></trkpt><trkpt lat="-36.7371977" lon="174.4117203"><ele>126.39999999999999</ele><time>2026-04-18T21:26:04.888Z</time></trkpt><trkpt lat="-36.7370972" lon="174.4116638"><ele>127.0</ele><time>2026-04-18T21:26:06.888Z</time></trkpt><trkpt lat="-36.7369836" lon="174.4116175"><ele>127.39999999999999</ele><time>2026-04-18T21:26:08.888Z</time></trkpt><trkpt lat="-36.7368824" lon="174.4115817"><ele>127.79999999999998</ele><time>2026-04-18T21:26:10.887Z</time></trkpt><trkpt lat="-36.7367853" lon="174.4115426"><ele>128.2</ele><time>2026-04-18T21:26:12.887Z</time></trkpt><trkpt lat="-36.7366896" lon="174.4114951"><ele>128.6</ele><time>2026-04-18T21:26:14.887Z</time></trkpt><trkpt lat="-36.7366104" lon="174.4114463"><ele>129.0</ele><time>2026-04-18T21:26:16.888Z</time></trkpt><trkpt lat="-36.7365237" lon="174.4113999"><ele>129.0</ele><time>2026-04-18T21:26:18.888Z</time></trkpt><trkpt lat="-36.7364397" lon="174.411364"><ele>129.0</ele><time>2026-04-18T21:26:20.887Z</time></trkpt><trkpt lat="-36.7363668" lon="174.411335"><ele>129.0</ele><time>2026-04-18T21:26:22.888Z</time></trkpt><trkpt lat="-36.7362932" lon="174.4113068"><ele>129.0</ele><time>2026-04-18T21:26:24.889Z</time></trkpt><trkpt lat="-36.7362151" lon="174.4112771"><ele>129.0</ele><time>2026-04-18T21:26:26.887Z</time></trkpt><trkpt lat="-36.7361413" lon="174.4112483"><ele>129.0</ele><time>2026-04-18T21:26:28.887Z</time></trkpt><trkpt lat="-36.73607" lon="174.4112312"><ele>129.66666666666666</ele><time>2026-04-18T21:26:30.887Z</time></trkpt><trkpt lat="-36.7360992" lon="174.4111581"><ele>130.33333333333334</ele><time>2026-04-18T21:26:34.888Z</time></trkpt><trkpt lat="-36.7361787" lon="174.4111827"><ele>131.0</ele><time>2026-04-18T21:26:36.889Z</time></trkpt><trkpt lat="-36.7362705" lon="174.4111865"><ele>131.66666666666669</ele><time>2026-04-18T21:26:38.887Z</time></trkpt><trkpt lat="-36.7363471" lon="174.4111696"><ele>132.33333333333334</ele><time>2026-04-18T21:26:40.888Z</time></trkpt><trkpt lat="-36.736441" lon="174.4111679"><ele>133.0</ele><time>2026-04-18T21:26:42.888Z</time></trkpt><trkpt lat="-36.7365189" lon="174.4111322"><ele>133.0</ele><time>2026-04-18T21:26:44.889Z</time></trkpt><trkpt lat="-36.7365046" lon="174.411041"><ele>133.0</ele><time>2026-04-18T21:26:47.887Z</time></trkpt><trkpt lat="-36.7364494" lon="174.4109775"><ele>133.0</ele><time>2026-04-18T21:26:49.887Z</time></trkpt><trkpt lat="-36.7363896" lon="174.4109179"><ele>133.0</ele><time>2026-04-18T21:26:51.888Z</time></trkpt><trkpt lat="-36.7363443" lon="174.4108614"><ele>133.0</ele><time>2026-04-18T21:26:53.887Z</time></trkpt><trkpt lat="-36.7363596" lon="174.4107733"><ele>133.0</ele><time>2026-04-18T21:26:55.888Z</time></trkpt><trkpt lat="-36.7363843" lon="174.4106906"><ele>133.0</ele><time>2026-04-18T21:26:57.889Z</time></trkpt><trkpt lat="-36.736397" lon="174.410605"><ele>133.0</ele><time>2026-04-18T21:26:59.887Z</time></trkpt><trkpt lat="-36.7364247" lon="174.4105154"><ele>133.0</ele><time>2026-04-18T21:27:01.89Z</time></trkpt><trkpt lat="-36.736456" lon="174.4104153"><ele>133.0</ele><time>2026-04-18T21:27:03.888Z</time></trkpt><trkpt lat="-36.7364816" lon="174.410299"><ele>133.0</ele><time>2026-04-18T21:27:05.888Z</time></trkpt><trkpt lat="-36.7365041" lon="174.4101829"><ele>133.0</ele><time>2026-04-18T21:27:07.888Z</time></trkpt><trkpt lat="-36.7365076" lon="174.4100851"><ele>133.0</ele><time>2026-04-18T21:27:08.888Z</time></trkpt><trkpt lat="-36.7365242" lon="174.4099439"><ele>134.0</ele><time>2026-04-18T21:27:10.888Z</time></trkpt><trkpt lat="-36.7365474" lon="174.4098138"><ele>135.0</ele><time>2026-04-18T21:27:12.887Z</time></trkpt><trkpt lat="-36.7365888" lon="174.4096809"><ele>136.0</ele><time>2026-04-18T21:27:14.888Z</time></trkpt><trkpt lat="-36.7366341" lon="174.40954"><ele>137.0</ele><time>2026-04-18T21:27:16.889Z</time></trkpt><trkpt lat="-36.7366493" lon="174.4094528"><ele>138.0</ele><time>2026-04-18T21:27:17.887Z</time></trkpt><trkpt lat="-36.7366942" lon="174.4093251"><ele>138.0</ele><time>2026-04-18T21:27:19.888Z</time></trkpt><trkpt lat="-36.7367112" lon="174.4092436"><ele>138.0</ele><time>2026-04-18T21:27:20.889Z</time></trkpt><trkpt lat="-36.7367329" lon="174.4091684"><ele>138.0</ele><time>2026-04-18T21:27:21.889Z</time></trkpt><trkpt lat="-36.7367784" lon="174.4090154"><ele>138.0</ele><time>2026-04-18T21:27:23.888Z</time></trkpt><trkpt lat="-36.7368028" lon="174.4089417"><ele>138.0</ele><time>2026-04-18T21:27:24.888Z</time></trkpt><trkpt lat="-36.7368251" lon="174.4088601"><ele>138.0</ele><time>2026-04-18T21:27:25.889Z</time></trkpt><trkpt lat="-36.7368646" lon="174.4087322"><ele>137.6</ele><time>2026-04-18T21:27:27.887Z</time></trkpt><trkpt lat="-36.7369042" lon="174.4085909"><ele>137.20000000000002</ele><time>2026-04-18T21:27:29.888Z</time></trkpt><trkpt lat="-36.7369327" lon="174.4084515"><ele>136.8</ele><time>2026-04-18T21:27:31.888Z</time></trkpt><trkpt lat="-36.7369767" lon="174.4083302"><ele>136.4</ele><time>2026-04-18T21:27:33.888Z</time></trkpt><trkpt lat="-36.7370135" lon="174.4082149"><ele>136.0</ele><time>2026-04-18T21:27:35.889Z</time></trkpt><trkpt lat="-36.7370339" lon="174.4080982"><ele>136.0</ele><time>2026-04-18T21:27:37.887Z</time></trkpt><trkpt lat="-36.7370796" lon="174.4080037"><ele>136.0</ele><time>2026-04-18T21:27:39.887Z</time></trkpt><trkpt lat="-36.7371089" lon="174.4079098"><ele>136.0</ele><time>2026-04-18T21:27:41.888Z</time></trkpt><trkpt lat="-36.7371363" lon="174.4078115"><ele>136.0</ele><time>2026-04-18T21:27:43.888Z</time></trkpt><trkpt lat="-36.73716" lon="174.4077192"><ele>136.0</ele><time>2026-04-18T21:27:45.888Z</time></trkpt><trkpt lat="-36.7371905" lon="174.407614"><ele>136.0</ele><time>2026-04-18T21:27:47.887Z</time></trkpt><trkpt lat="-36.737225" lon="174.4075176"><ele>136.85714285714283</ele><time>2026-04-18T21:27:49.887Z</time></trkpt><trkpt lat="-36.7372511" lon="174.4074264"><ele>137.71428571428572</ele><time>2026-04-18T21:27:51.887Z</time></trkpt><trkpt lat="-36.7372779" lon="174.4073438"><ele>138.57142857142856</ele><time>2026-04-18T21:27:53.888Z</time></trkpt><trkpt lat="-36.7372915" lon="174.4072647"><ele>139.42857142857142</ele><time>2026-04-18T21:27:55.887Z</time></trkpt><trkpt lat="-36.7373085" lon="174.4071814"><ele>140.28571428571428</ele><time>2026-04-18T21:27:57.889Z</time></trkpt><trkpt lat="-36.7373413" lon="174.4071064"><ele>141.14285714285714</ele><time>2026-04-18T21:27:59.887Z</time></trkpt><trkpt lat="-36.7373796" lon="174.4070393"><ele>142.0</ele><time>2026-04-18T21:28:01.887Z</time></trkpt><trkpt lat="-36.7374143" lon="174.4069724"><ele>142.0</ele><time>2026-04-18T21:28:03.888Z</time></trkpt><trkpt lat="-36.7374476" lon="174.406904"><ele>142.0</ele><time>2026-04-18T21:28:05.887Z</time></trkpt><trkpt lat="-36.7374825" lon="174.406835"><ele>142.0</ele><time>2026-04-18T21:28:45.887Z</time></trkpt><trkpt lat="-36.7374608" lon="174.4067464"><ele>142.0</ele><time>2026-04-18T21:28:48.888Z</time></trkpt><trkpt lat="-36.7373901" lon="174.4066934"><ele>142.0</ele><time>2026-04-18T21:28:50.887Z</time></trkpt><trkpt lat="-36.7373162" lon="174.4066413"><ele>142.0</ele><time>2026-04-18T21:28:52.887Z</time></trkpt><trkpt lat="-36.737221" lon="174.4066174"><ele>142.0</ele><time>2026-04-18T21:28:54.888Z</time></trkpt><trkpt lat="-36.7371149" lon="174.4066011"><ele>142.0</ele><time>2026-04-18T21:28:56.889Z</time></trkpt><trkpt lat="-36.7370987" lon="174.4065168"><ele>142.0</ele><time>2026-04-18T21:28:58.887Z</time></trkpt><trkpt lat="-36.7370933" lon="174.4064163"><ele>142.0</ele><time>2026-04-18T21:29:00.887Z</time></trkpt><trkpt lat="-36.7369971" lon="174.4063457"><ele>142.0</ele><time>2026-04-18T21:29:02.887Z</time></trkpt><trkpt lat="-36.7368894" lon="174.4062973"><ele>139.83333333333334</ele><time>2026-04-18T21:29:04.888Z</time></trkpt><trkpt lat="-36.7367808" lon="174.4062497"><ele>137.66666666666669</ele><time>2026-04-18T21:29:06.888Z</time></trkpt><trkpt lat="-36.7367205" lon="174.4062168"><ele>135.5</ele><time>2026-04-18T21:29:07.887Z</time></trkpt><trkpt lat="-36.736663" lon="174.4061782"><ele>133.33333333333334</ele><time>2026-04-18T21:29:08.888Z</time></trkpt><trkpt lat="-36.7365954" lon="174.4061445"><ele>131.16666666666666</ele><time>2026-04-18T21:29:09.887Z</time></trkpt><trkpt lat="-36.7365261" lon="174.4061284"><ele>129.0</ele><time>2026-04-18T21:29:10.887Z</time></trkpt><trkpt lat="-36.7364606" lon="174.4060965"><ele>129.0</ele><time>2026-04-18T21:29:11.887Z</time></trkpt><trkpt lat="-36.736399" lon="174.4060736"><ele>129.0</ele><time>2026-04-18T21:29:12.888Z</time></trkpt><trkpt lat="-36.7362592" lon="174.4060952"><ele>129.0</ele><time>2026-04-18T21:29:14.887Z</time></trkpt><trkpt lat="-36.736188" lon="174.4060741"><ele>129.0</ele><time>2026-04-18T21:29:15.889Z</time></trkpt><trkpt lat="-36.7361143" lon="174.4060623"><ele>129.0</ele><time>2026-04-18T21:29:16.888Z</time></trkpt><trkpt lat="-36.7360435" lon="174.4060699"><ele>129.0</ele><time>2026-04-18T21:29:17.887Z</time></trkpt><trkpt lat="-36.735968" lon="174.4061074"><ele>127.5</ele><time>2026-04-18T21:29:18.888Z</time></trkpt><trkpt lat="-36.7358859" lon="174.4061437"><ele>126.0</ele><time>2026-04-18T21:29:19.888Z</time></trkpt><trkpt lat="-36.7358153" lon="174.40621"><ele>124.5</ele><time>2026-04-18T21:29:20.888Z</time></trkpt><trkpt lat="-36.735719" lon="174.4061909"><ele>123.0</ele><time>2026-04-18T21:29:21.888Z</time></trkpt><trkpt lat="-36.7356271" lon="174.4061885"><ele>121.5</ele><time>2026-04-18T21:29:22.888Z</time></trkpt><trkpt lat="-36.7355517" lon="174.4062013"><ele>120.0</ele><time>2026-04-18T21:29:23.888Z</time></trkpt><trkpt lat="-36.7354723" lon="174.4062005"><ele>120.0</ele><time>2026-04-18T21:29:24.887Z</time></trkpt><trkpt lat="-36.7353816" lon="174.4062186"><ele>120.0</ele><time>2026-04-18T21:29:25.887Z</time></trkpt><trkpt lat="-36.7353001" lon="174.4062261"><ele>120.0</ele><time>2026-04-18T21:29:26.888Z</time></trkpt><trkpt lat="-36.7351781" lon="174.4062084"><ele>120.0</ele><time>2026-04-18T21:29:28.887Z</time></trkpt><trkpt lat="-36.7351091" lon="174.4061973"><ele>120.0</ele><time>2026-04-18T21:29:29.889Z</time></trkpt><trkpt lat="-36.7349921" lon="174.4061439"><ele>120.0</ele><time>2026-04-18T21:29:31.888Z</time></trkpt><trkpt lat="-36.7349374" lon="174.4061038"><ele>120.0</ele><time>2026-04-18T21:29:32.887Z</time></trkpt><trkpt lat="-36.7348821" lon="174.4060528"><ele>120.0</ele><time>2026-04-18T21:29:33.889Z</time></trkpt><trkpt lat="-36.7348274" lon="174.4060053"><ele>120.0</ele><time>2026-04-18T21:29:34.888Z</time></trkpt><trkpt lat="-36.7347701" lon="174.4058941"><ele>120.0</ele><time>2026-04-18T21:29:36.89Z</time></trkpt><trkpt lat="-36.7347331" lon="174.4057681"><ele>120.0</ele><time>2026-04-18T21:29:38.887Z</time></trkpt><trkpt lat="-36.7347022" lon="174.4056665"><ele>120.0</ele><time>2026-04-18T21:29:40.887Z</time></trkpt><trkpt lat="-36.7347018" lon="174.4055859"><ele>120.0</ele><time>2026-04-18T21:29:42.888Z</time></trkpt><trkpt lat="-36.7346982" lon="174.4055012"><ele>120.0</ele><time>2026-04-18T21:29:45.89Z</time></trkpt><trkpt lat="-36.7346667" lon="174.4054327"><ele>120.0</ele><time>2026-04-18T21:29:57.888Z</time></trkpt><trkpt lat="-36.7346882" lon="174.4053525"><ele>120.0</ele><time>2026-04-18T21:30:04.889Z</time></trkpt><trkpt lat="-36.7346836" lon="174.405247"><ele>120.0</ele><time>2026-04-18T21:30:08.887Z</time></trkpt><trkpt lat="-36.7346623" lon="174.4051537"><ele>120.0</ele><time>2026-04-18T21:30:11.888Z</time></trkpt><trkpt lat="-36.7346599" lon="174.4050698"><ele>120.16666666666667</ele><time>2026-04-18T21:30:13.888Z</time></trkpt><trkpt lat="-36.7346388" lon="174.4049797"><ele>120.33333333333334</ele><time>2026-04-18T21:30:15.887Z</time></trkpt><trkpt lat="-36.7346122" lon="174.4049049"><ele>120.5</ele><time>2026-04-18T21:30:17.888Z</time></trkpt><trkpt lat="-36.7346232" lon="174.4048272"><ele>120.66666666666667</ele><time>2026-04-18T21:30:19.888Z</time></trkpt><trkpt lat="-36.73466" lon="174.4047443"><ele>120.83333333333334</ele><time>2026-04-18T21:30:21.888Z</time></trkpt><trkpt lat="-36.734715" lon="174.4046519"><ele>121.0</ele><time>2026-04-18T21:30:23.888Z</time></trkpt><trkpt lat="-36.73479" lon="174.4045803"><ele>122.14285714285714</ele><time>2026-04-18T21:30:25.888Z</time></trkpt><trkpt lat="-36.7348333" lon="174.4044921"><ele>123.28571428571428</ele><time>2026-04-18T21:30:27.888Z</time></trkpt><trkpt lat="-36.7348265" lon="174.4044113"><ele>124.42857142857142</ele><time>2026-04-18T21:30:29.889Z</time></trkpt><trkpt lat="-36.7348139" lon="174.4043225"><ele>125.57142857142856</ele><time>2026-04-18T21:30:32.887Z</time></trkpt><trkpt lat="-36.7348387" lon="174.4042309"><ele>126.71428571428571</ele><time>2026-04-18T21:30:35.888Z</time></trkpt><trkpt lat="-36.7348562" lon="174.4041383"><ele>127.85714285714283</ele><time>2026-04-18T21:30:38.888Z</time></trkpt><trkpt lat="-36.7348589" lon="174.4040538"><ele>129.0</ele><time>2026-04-18T21:30:40.887Z</time></trkpt><trkpt lat="-36.7348563" lon="174.4039673"><ele>129.0</ele><time>2026-04-18T21:30:42.888Z</time></trkpt><trkpt lat="-36.7348756" lon="174.4038794"><ele>129.0</ele><time>2026-04-18T21:30:44.888Z</time></trkpt><trkpt lat="-36.7349156" lon="174.4037741"><ele>129.0</ele><time>2026-04-18T21:30:46.888Z</time></trkpt><trkpt lat="-36.7349459" lon="174.4037021"><ele>129.0</ele><time>2026-04-18T21:30:48.887Z</time></trkpt><trkpt lat="-36.7350057" lon="174.4036492"><ele>129.0</ele><time>2026-04-18T21:30:50.889Z</time></trkpt><trkpt lat="-36.7350542" lon="174.4035949"><ele>129.0</ele><time>2026-04-18T21:30:51.888Z</time></trkpt><trkpt lat="-36.7351294" lon="174.4035539"><ele>128.83333333333334</ele><time>2026-04-18T21:30:53.887Z</time></trkpt><trkpt lat="-36.7352086" lon="174.4035372"><ele>128.66666666666666</ele><time>2026-04-18T21:30:55.888Z</time></trkpt><trkpt lat="-36.735284" lon="174.4034955"><ele>128.5</ele><time>2026-04-18T21:30:57.887Z</time></trkpt><trkpt lat="-36.7353513" lon="174.4034386"><ele>128.33333333333331</ele><time>2026-04-18T21:30:59.888Z</time></trkpt><trkpt lat="-36.7354085" lon="174.4033882"><ele>128.16666666666666</ele><time>2026-04-18T21:31:01.887Z</time></trkpt><trkpt lat="-36.7355067" lon="174.4033934"><ele>128.0</ele><time>2026-04-18T21:31:04.888Z</time></trkpt><trkpt lat="-36.735596" lon="174.4034406"><ele>128.0</ele><time>2026-04-18T21:31:06.888Z</time></trkpt><trkpt lat="-36.735674" lon="174.4034534"><ele>128.0</ele><time>2026-04-18T21:31:08.888Z</time></trkpt><trkpt lat="-36.7357575" lon="174.4034228"><ele>128.0</ele><time>2026-04-18T21:31:10.887Z</time></trkpt><trkpt lat="-36.7358133" lon="174.4033056"><ele>128.0</ele><time>2026-04-18T21:31:12.888Z</time></trkpt><trkpt lat="-36.7358551" lon="174.4031698"><ele>128.0</ele><time>2026-04-18T21:31:14.888Z</time></trkpt><trkpt lat="-36.7358927" lon="174.4030924"><ele>128.0</ele><time>2026-04-18T21:31:15.887Z</time></trkpt><trkpt lat="-36.7359307" lon="174.403024"><ele>128.0</ele><time>2026-04-18T21:31:16.888Z</time></trkpt><trkpt lat="-36.7359393" lon="174.4029449"><ele>128.0</ele><time>2026-04-18T21:31:17.887Z</time></trkpt><trkpt lat="-36.7359646" lon="174.4028226"><ele>128.0</ele><time>2026-04-18T21:31:19.888Z</time></trkpt><trkpt lat="-36.7360179" lon="174.4026964"><ele>128.0</ele><time>2026-04-18T21:31:21.888Z</time></trkpt><trkpt lat="-36.7360591" lon="174.4025496"><ele>127.0</ele><time>2026-04-18T21:31:23.887Z</time></trkpt><trkpt lat="-36.7360651" lon="174.4024654"><ele>126.00000000000001</ele><time>2026-04-18T21:31:24.887Z</time></trkpt><trkpt lat="-36.7361016" lon="174.4023235"><ele>125.00000000000001</ele><time>2026-04-18T21:31:26.888Z</time></trkpt><trkpt lat="-36.7361737" lon="174.4022242"><ele>124.0</ele><time>2026-04-18T21:31:28.888Z</time></trkpt><trkpt lat="-36.7362413" lon="174.4021153"><ele>123.0</ele><time>2026-04-18T21:31:30.887Z</time></trkpt><trkpt lat="-36.7362712" lon="174.4020198"><ele>122.66666666666667</ele><time>2026-04-18T21:31:32.887Z</time></trkpt><trkpt lat="-36.7362771" lon="174.4019066"><ele>122.33333333333334</ele><time>2026-04-18T21:31:34.889Z</time></trkpt><trkpt lat="-36.7362829" lon="174.4017981"><ele>122.0</ele><time>2026-04-18T21:31:37.887Z</time></trkpt><trkpt lat="-36.73631" lon="174.4017232"><ele>121.66666666666667</ele><time>2026-04-18T21:31:39.887Z</time></trkpt><trkpt lat="-36.7363304" lon="174.4016472"><ele>121.33333333333334</ele><time>2026-04-18T21:31:41.888Z</time></trkpt><trkpt lat="-36.7363551" lon="174.4015507"><ele>121.0</ele><time>2026-04-18T21:31:43.888Z</time></trkpt><trkpt lat="-36.7363917" lon="174.4014557"><ele>121.0</ele><time>2026-04-18T21:31:45.887Z</time></trkpt><trkpt lat="-36.7364184" lon="174.4013745"><ele>120.99999999999999</ele><time>2026-04-18T21:31:47.889Z</time></trkpt><trkpt lat="-36.7364303" lon="174.4012919"><ele>121.0</ele><time>2026-04-18T21:31:49.888Z</time></trkpt><trkpt lat="-36.7364349" lon="174.4012017"><ele>121.0</ele><time>2026-04-18T21:31:51.889Z</time></trkpt><trkpt lat="-36.7364661" lon="174.4011275"><ele>120.99999999999999</ele><time>2026-04-18T21:31:53.888Z</time></trkpt><trkpt lat="-36.7365053" lon="174.4010379"><ele>121.0</ele><time>2026-04-18T21:31:56.888Z</time></trkpt><trkpt lat="-36.7365565" lon="174.4009917"><ele>121.0</ele><time>2026-04-18T21:31:58.888Z</time></trkpt><trkpt lat="-36.7366196" lon="174.4009493"><ele>121.50000000000001</ele><time>2026-04-18T21:32:00.887Z</time></trkpt><trkpt lat="-36.7366914" lon="174.4009038"><ele>122.0</ele><time>2026-04-18T21:32:02.887Z</time></trkpt><trkpt lat="-36.7367457" lon="174.4008133"><ele>122.5</ele><time>2026-04-18T21:32:04.888Z</time></trkpt><trkpt lat="-36.7368036" lon="174.4007339"><ele>123.0</ele><time>2026-04-18T21:32:06.888Z</time></trkpt><trkpt lat="-36.736853" lon="174.4006492"><ele>123.50000000000001</ele><time>2026-04-18T21:32:08.887Z</time></trkpt><trkpt lat="-36.7368769" lon="174.4005719"><ele>124.0</ele><time>2026-04-18T21:32:10.889Z</time></trkpt><trkpt lat="-36.736931" lon="174.4004893"><ele>125.80000000000001</ele><time>2026-04-18T21:32:12.889Z</time></trkpt><trkpt lat="-36.737005" lon="174.4004449"><ele>127.60000000000001</ele><time>2026-04-18T21:32:14.888Z</time></trkpt><trkpt lat="-36.7370857" lon="174.4003855"><ele>129.4</ele><time>2026-04-18T21:32:16.887Z</time></trkpt><trkpt lat="-36.7371531" lon="174.4002853"><ele>131.20000000000002</ele><time>2026-04-18T21:32:18.887Z</time></trkpt><trkpt lat="-36.7372047" lon="174.4001617"><ele>133.0</ele><time>2026-04-18T21:32:20.887Z</time></trkpt><trkpt lat="-36.737234" lon="174.4000903"><ele>133.0</ele><time>2026-04-18T21:32:21.887Z</time></trkpt><trkpt lat="-36.7372737" lon="174.400021"><ele>133.0</ele><time>2026-04-18T21:32:22.888Z</time></trkpt><trkpt lat="-36.7373406" lon="174.3999048"><ele>133.0</ele><time>2026-04-18T21:32:24.888Z</time></trkpt><trkpt lat="-36.7373583" lon="174.3997726"><ele>133.0</ele><time>2026-04-18T21:32:26.888Z</time></trkpt><trkpt lat="-36.737321" lon="174.3997061"><ele>133.0</ele><time>2026-04-18T21:32:28.889Z</time></trkpt><trkpt lat="-36.7372871" lon="174.3997764"><ele>133.0</ele><time>2026-04-18T21:32:32.888Z</time></trkpt><trkpt lat="-36.7372823" lon="174.399857"><ele>133.0</ele><time>2026-04-18T21:32:34.888Z</time></trkpt><trkpt lat="-36.7372758" lon="174.399953"><ele>133.0</ele><time>2026-04-18T21:32:36.888Z</time></trkpt><trkpt lat="-36.7372183" lon="174.4000211"><ele>133.0</ele><time>2026-04-18T21:32:38.888Z</time></trkpt><trkpt lat="-36.73716" lon="174.4000931"><ele>133.0</ele><time>2026-04-18T21:32:40.888Z</time></trkpt><trkpt lat="-36.7370906" lon="174.4001418"><ele>133.0</ele><time>2026-04-18T21:32:42.887Z</time></trkpt><trkpt lat="-36.736994" lon="174.4001637"><ele>133.0</ele><time>2026-04-18T21:32:44.887Z</time></trkpt><trkpt lat="-36.7369223" lon="174.4001966"><ele>131.20000000000002</ele><time>2026-04-18T21:32:45.889Z</time></trkpt><trkpt lat="-36.7368391" lon="174.4003006"><ele>129.4</ele><time>2026-04-18T21:32:47.887Z</time></trkpt><trkpt lat="-36.7367585" lon="174.4003893"><ele>127.60000000000001</ele><time>2026-04-18T21:32:49.888Z</time></trkpt><trkpt lat="-36.7367005" lon="174.4004591"><ele>125.80000000000001</ele><time>2026-04-18T21:32:51.888Z</time></trkpt><trkpt lat="-36.7366612" lon="174.4005803"><ele>124.0</ele><time>2026-04-18T21:32:53.889Z</time></trkpt><trkpt lat="-36.7366305" lon="174.400689"><ele>124.00000000000001</ele><time>2026-04-18T21:32:55.888Z</time></trkpt><trkpt lat="-36.7365426" lon="174.4007423"><ele>124.0</ele><time>2026-04-18T21:32:58.889Z</time></trkpt><trkpt lat="-36.7364593" lon="174.4007493"><ele>124.0</ele><time>2026-04-18T21:33:00.887Z</time></trkpt><trkpt lat="-36.7363877" lon="174.4007918"><ele>124.0</ele><time>2026-04-18T21:33:02.888Z</time></trkpt><trkpt lat="-36.7363475" lon="174.4008566"><ele>124.00000000000001</ele><time>2026-04-18T21:33:04.887Z</time></trkpt><trkpt lat="-36.7363312" lon="174.4009475"><ele>124.0</ele><time>2026-04-18T21:33:07.888Z</time></trkpt><trkpt lat="-36.7363126" lon="174.4010231"><ele>124.00000000000001</ele><time>2026-04-18T21:33:10.887Z</time></trkpt><trkpt lat="-36.7363165" lon="174.401116"><ele>124.0</ele><time>2026-04-18T21:33:25.888Z</time></trkpt><trkpt lat="-36.7363335" lon="174.4012195"><ele>124.0</ele><time>2026-04-18T21:33:28.887Z</time></trkpt><trkpt lat="-36.7362941" lon="174.4013229"><ele>124.0</ele><time>2026-04-18T21:33:30.888Z</time></trkpt><trkpt lat="-36.7362459" lon="174.4013877"><ele>124.00000000000001</ele><time>2026-04-18T21:33:31.888Z</time></trkpt><trkpt lat="-36.7362028" lon="174.4014539"><ele>124.0</ele><time>2026-04-18T21:33:32.887Z</time></trkpt><trkpt lat="-36.7361674" lon="174.4015474"><ele>123.50000000000001</ele><time>2026-04-18T21:33:33.888Z</time></trkpt><trkpt lat="-36.7361611" lon="174.4016364"><ele>123.0</ele><time>2026-04-18T21:33:34.888Z</time></trkpt><trkpt lat="-36.7361559" lon="174.401721"><ele>122.5</ele><time>2026-04-18T21:33:35.887Z</time></trkpt><trkpt lat="-36.7361576" lon="174.4018505"><ele>122.0</ele><time>2026-04-18T21:33:37.887Z</time></trkpt><trkpt lat="-36.736132" lon="174.4019422"><ele>121.50000000000001</ele><time>2026-04-18T21:33:39.89Z</time></trkpt><trkpt lat="-36.7360383" lon="174.4019175"><ele>121.0</ele><time>2026-04-18T21:33:41.887Z</time></trkpt><trkpt lat="-36.7359853" lon="174.4018493"><ele>119.8</ele><time>2026-04-18T21:33:43.888Z</time></trkpt><trkpt lat="-36.7360141" lon="174.4017291"><ele>118.6</ele><time>2026-04-18T21:33:45.887Z</time></trkpt><trkpt lat="-36.7360079" lon="174.4016129"><ele>117.4</ele><time>2026-04-18T21:33:47.887Z</time></trkpt><trkpt lat="-36.7359203" lon="174.4016779"><ele>116.2</ele><time>2026-04-18T21:33:49.888Z</time></trkpt><trkpt lat="-36.7358344" lon="174.4017609"><ele>115.0</ele><time>2026-04-18T21:33:51.888Z</time></trkpt><trkpt lat="-36.7357257" lon="174.4018101"><ele>115.0</ele><time>2026-04-18T21:33:53.887Z</time></trkpt><trkpt lat="-36.7356595" lon="174.4017597"><ele>115.0</ele><time>2026-04-18T21:33:54.887Z</time></trkpt><trkpt lat="-36.7355806" lon="174.4017534"><ele>115.0</ele><time>2026-04-18T21:33:55.888Z</time></trkpt><trkpt lat="-36.7354656" lon="174.4016492"><ele>115.0</ele><time>2026-04-18T21:33:57.888Z</time></trkpt><trkpt lat="-36.7354041" lon="174.4016018"><ele>115.0</ele><time>2026-04-18T21:33:58.887Z</time></trkpt><trkpt lat="-36.7353198" lon="174.401565"><ele>114.4</ele><time>2026-04-18T21:33:59.888Z</time></trkpt><trkpt lat="-36.7351878" lon="174.4015539"><ele>113.8</ele><time>2026-04-18T21:34:01.889Z</time></trkpt><trkpt lat="-36.735124" lon="174.4015664"><ele>113.19999999999999</ele><time>2026-04-18T21:34:02.888Z</time></trkpt><trkpt lat="-36.7350286" lon="174.4016341"><ele>112.6</ele><time>2026-04-18T21:34:04.888Z</time></trkpt><trkpt lat="-36.7349033" lon="174.4016424"><ele>112.0</ele><time>2026-04-18T21:34:06.888Z</time></trkpt><trkpt lat="-36.7348398" lon="174.4016226"><ele>112.0</ele><time>2026-04-18T21:34:07.888Z</time></trkpt><trkpt lat="-36.7347945" lon="174.4015154"><ele>111.99999999999999</ele><time>2026-04-18T21:34:09.888Z</time></trkpt><trkpt lat="-36.7348311" lon="174.4013803"><ele>111.99999999999999</ele><time>2026-04-18T21:34:11.887Z</time></trkpt><trkpt lat="-36.734913" lon="174.4013368"><ele>112.0</ele><time>2026-04-18T21:34:12.887Z</time></trkpt><trkpt lat="-36.7349769" lon="174.4012812"><ele>112.0</ele><time>2026-04-18T21:34:13.887Z</time></trkpt><trkpt lat="-36.7350469" lon="174.4012375"><ele>111.16666666666667</ele><time>2026-04-18T21:34:14.89Z</time></trkpt><trkpt lat="-36.7351101" lon="174.4012113"><ele>110.33333333333334</ele><time>2026-04-18T21:34:15.887Z</time></trkpt><trkpt lat="-36.7351936" lon="174.4011945"><ele>109.5</ele><time>2026-04-18T21:34:17.888Z</time></trkpt><trkpt lat="-36.7352654" lon="174.4011159"><ele>108.66666666666666</ele><time>2026-04-18T21:34:20.889Z</time></trkpt><trkpt lat="-36.7352174" lon="174.4010555"><ele>107.83333333333333</ele><time>2026-04-18T21:34:23.887Z</time></trkpt><trkpt lat="-36.7351424" lon="174.401075"><ele>107.0</ele><time>2026-04-18T21:34:24.888Z</time></trkpt><trkpt lat="-36.7350254" lon="174.4011003"><ele>106.16666666666666</ele><time>2026-04-18T21:34:26.888Z</time></trkpt><trkpt lat="-36.7349685" lon="174.4010184"><ele>105.33333333333333</ele><time>2026-04-18T21:34:28.887Z</time></trkpt><trkpt lat="-36.7350008" lon="174.4009005"><ele>104.5</ele><time>2026-04-18T21:34:30.887Z</time></trkpt><trkpt lat="-36.7350618" lon="174.4008559"><ele>103.66666666666666</ele><time>2026-04-18T21:34:31.888Z</time></trkpt><trkpt lat="-36.7350882" lon="174.4007722"><ele>102.83333333333333</ele><time>2026-04-18T21:34:33.887Z</time></trkpt><trkpt lat="-36.7350688" lon="174.4006869"><ele>102.0</ele><time>2026-04-18T21:34:35.888Z</time></trkpt><trkpt lat="-36.7350818" lon="174.4005754"><ele>102.0</ele><time>2026-04-18T21:34:36.888Z</time></trkpt><trkpt lat="-36.7351352" lon="174.4004932"><ele>102.0</ele><time>2026-04-18T21:34:38.888Z</time></trkpt><trkpt lat="-36.7352192" lon="174.4005001"><ele>102.0</ele><time>2026-04-18T21:34:40.887Z</time></trkpt><trkpt lat="-36.7353021" lon="174.4005665"><ele>102.0</ele><time>2026-04-18T21:34:43.888Z</time></trkpt><trkpt lat="-36.735371" lon="174.4006065"><ele>102.0</ele><time>2026-04-18T21:34:45.888Z</time></trkpt><trkpt lat="-36.7354445" lon="174.4006482"><ele>102.0</ele><time>2026-04-18T21:34:47.887Z</time></trkpt><trkpt lat="-36.735504" lon="174.4005903"><ele>101.66666666666667</ele><time>2026-04-18T21:34:50.889Z</time></trkpt><trkpt lat="-36.7355543" lon="174.4005412"><ele>101.33333333333334</ele><time>2026-04-18T21:34:53.888Z</time></trkpt><trkpt lat="-36.7356015" lon="174.4004377"><ele>101.0</ele><time>2026-04-18T21:34:56.887Z</time></trkpt><trkpt lat="-36.7356413" lon="174.4003713"><ele>100.66666666666667</ele><time>2026-04-18T21:34:58.888Z</time></trkpt><trkpt lat="-36.7357037" lon="174.4003023"><ele>100.33333333333334</ele><time>2026-04-18T21:35:01.887Z</time></trkpt><trkpt lat="-36.7356764" lon="174.4002217"><ele>100.0</ele><time>2026-04-18T21:35:03.887Z</time></trkpt><trkpt lat="-36.7357153" lon="174.4001297"><ele>100.0</ele><time>2026-04-18T21:35:06.888Z</time></trkpt><trkpt lat="-36.7357966" lon="174.4000922"><ele>100.0</ele><time>2026-04-18T21:35:08.889Z</time></trkpt><trkpt lat="-36.7358688" lon="174.4000262"><ele>100.0</ele><time>2026-04-18T21:35:10.888Z</time></trkpt><trkpt lat="-36.7359352" lon="174.3999398"><ele>100.0</ele><time>2026-04-18T21:35:12.888Z</time></trkpt><trkpt lat="-36.735997" lon="174.3998301"><ele>100.0</ele><time>2026-04-18T21:35:14.888Z</time></trkpt><trkpt lat="-36.7360354" lon="174.39974"><ele>99.6</ele><time>2026-04-18T21:35:16.888Z</time></trkpt><trkpt lat="-36.7360647" lon="174.3996659"><ele>99.2</ele><time>2026-04-18T21:35:17.889Z</time></trkpt><trkpt lat="-36.7361042" lon="174.3996016"><ele>98.80000000000001</ele><time>2026-04-18T21:35:18.888Z</time></trkpt><trkpt lat="-36.7361641" lon="174.3994858"><ele>98.4</ele><time>2026-04-18T21:35:20.887Z</time></trkpt><trkpt lat="-36.7362511" lon="174.3993888"><ele>98.0</ele><time>2026-04-18T21:35:22.887Z</time></trkpt><trkpt lat="-36.7363429" lon="174.3993396"><ele>97.99999999999999</ele><time>2026-04-18T21:35:25.888Z</time></trkpt><trkpt lat="-36.7363548" lon="174.3992307"><ele>98.0</ele><time>2026-04-18T21:35:27.887Z</time></trkpt><trkpt lat="-36.736321" lon="174.3991355"><ele>98.0</ele><time>2026-04-18T21:35:29.889Z</time></trkpt><trkpt lat="-36.7362955" lon="174.3990611"><ele>98.0</ele><time>2026-04-18T21:35:31.888Z</time></trkpt><trkpt lat="-36.7362302" lon="174.3990001"><ele>97.99999999999999</ele><time>2026-04-18T21:35:33.888Z</time></trkpt><trkpt lat="-36.7361418" lon="174.3990351"><ele>98.0</ele><time>2026-04-18T21:35:36.887Z</time></trkpt><trkpt lat="-36.7360637" lon="174.3991191"><ele>98.16666666666666</ele><time>2026-04-18T21:35:39.888Z</time></trkpt><trkpt lat="-36.7360004" lon="174.3991483"><ele>98.33333333333333</ele><time>2026-04-18T21:35:41.888Z</time></trkpt><trkpt lat="-36.7359368" lon="174.3991778"><ele>98.5</ele><time>2026-04-18T21:35:43.887Z</time></trkpt><trkpt lat="-36.7358756" lon="174.3992382"><ele>98.66666666666666</ele><time>2026-04-18T21:35:45.887Z</time></trkpt><trkpt lat="-36.735798" lon="174.3993259"><ele>98.83333333333333</ele><time>2026-04-18T21:35:47.888Z</time></trkpt><trkpt lat="-36.735791" lon="174.3994289"><ele>99.0</ele><time>2026-04-18T21:35:49.887Z</time></trkpt><trkpt lat="-36.7357848" lon="174.3995271"><ele>99.0</ele><time>2026-04-18T21:35:51.887Z</time></trkpt><trkpt lat="-36.7357534" lon="174.3996087"><ele>99.0</ele><time>2026-04-18T21:35:53.887Z</time></trkpt><trkpt lat="-36.7357029" lon="174.3996614"><ele>99.0</ele><time>2026-04-18T21:35:55.888Z</time></trkpt><trkpt lat="-36.7356468" lon="174.3997337"><ele>99.0</ele><time>2026-04-18T21:35:57.887Z</time></trkpt><trkpt lat="-36.7355755" lon="174.3997929"><ele>99.0</ele><time>2026-04-18T21:35:59.887Z</time></trkpt><trkpt lat="-36.7355061" lon="174.3998369"><ele>99.0</ele><time>2026-04-18T21:36:01.888Z</time></trkpt><trkpt lat="-36.7354309" lon="174.3998876"><ele>99.16666666666667</ele><time>2026-04-18T21:36:03.887Z</time></trkpt><trkpt lat="-36.7353642" lon="174.3999166"><ele>99.33333333333334</ele><time>2026-04-18T21:36:05.887Z</time></trkpt><trkpt lat="-36.7352917" lon="174.3999568"><ele>99.5</ele><time>2026-04-18T21:36:07.889Z</time></trkpt><trkpt lat="-36.7352135" lon="174.4000103"><ele>99.66666666666667</ele><time>2026-04-18T21:36:09.887Z</time></trkpt><trkpt lat="-36.7351431" lon="174.4000801"><ele>99.83333333333334</ele><time>2026-04-18T21:36:11.887Z</time></trkpt><trkpt lat="-36.7350575" lon="174.400125"><ele>100.0</ele><time>2026-04-18T21:36:13.888Z</time></trkpt><trkpt lat="-36.7349841" lon="174.4001437"><ele>100.16666666666667</ele><time>2026-04-18T21:36:15.888Z</time></trkpt><trkpt lat="-36.7349018" lon="174.4001558"><ele>100.33333333333334</ele><time>2026-04-18T21:36:17.887Z</time></trkpt><trkpt lat="-36.7348206" lon="174.4001615"><ele>100.5</ele><time>2026-04-18T21:36:19.887Z</time></trkpt><trkpt lat="-36.7347384" lon="174.4001546"><ele>100.66666666666666</ele><time>2026-04-18T21:36:21.888Z</time></trkpt><trkpt lat="-36.7346739" lon="174.4001542"><ele>100.83333333333333</ele><time>2026-04-18T21:36:23.887Z</time></trkpt><trkpt lat="-36.7346048" lon="174.4001436"><ele>101.0</ele><time>2026-04-18T21:36:25.887Z</time></trkpt><trkpt lat="-36.7345267" lon="174.4001233"><ele>101.0</ele><time>2026-04-18T21:36:27.887Z</time></trkpt><trkpt lat="-36.7344577" lon="174.4001068"><ele>101.0</ele><time>2026-04-18T21:36:29.887Z</time></trkpt><trkpt lat="-36.7343902" lon="174.4001113"><ele>101.0</ele><time>2026-04-18T21:36:31.887Z</time></trkpt><trkpt lat="-36.7343153" lon="174.4001291"><ele>101.0</ele><time>2026-04-18T21:36:33.887Z</time></trkpt><trkpt lat="-36.7342531" lon="174.4001493"><ele>101.0</ele><time>2026-04-18T21:36:35.889Z</time></trkpt><trkpt lat="-36.7341857" lon="174.4001483"><ele>101.0</ele><time>2026-04-18T21:36:37.888Z</time></trkpt><trkpt lat="-36.7341038" lon="174.4001401"><ele>101.0</ele><time>2026-04-18T21:36:40.887Z</time></trkpt><trkpt lat="-36.7340162" lon="174.4001593"><ele>102.49999999999999</ele><time>2026-04-18T21:36:43.887Z</time></trkpt><trkpt lat="-36.7339468" lon="174.400185"><ele>104.0</ele><time>2026-04-18T21:36:45.888Z</time></trkpt><trkpt lat="-36.7338774" lon="174.4002011"><ele>105.5</ele><time>2026-04-18T21:36:47.888Z</time></trkpt><trkpt lat="-36.7337886" lon="174.4001614"><ele>107.0</ele><time>2026-04-18T21:36:50.887Z</time></trkpt><trkpt lat="-36.7337279" lon="174.4000976"><ele>108.49999999999999</ele><time>2026-04-18T21:36:52.888Z</time></trkpt><trkpt lat="-36.7336586" lon="174.4000436"><ele>110.0</ele><time>2026-04-18T21:36:54.888Z</time></trkpt><trkpt lat="-36.7335977" lon="174.3999947"><ele>110.14285714285714</ele><time>2026-04-18T21:36:56.889Z</time></trkpt><trkpt lat="-36.7335471" lon="174.3999356"><ele>110.28571428571428</ele><time>2026-04-18T21:36:58.888Z</time></trkpt><trkpt lat="-36.733514" lon="174.3998547"><ele>110.42857142857142</ele><time>2026-04-18T21:37:00.888Z</time></trkpt><trkpt lat="-36.7335362" lon="174.3997706"><ele>110.57142857142857</ele><time>2026-04-18T21:37:03.888Z</time></trkpt><trkpt lat="-36.7335273" lon="174.399688"><ele>110.71428571428572</ele><time>2026-04-18T21:37:06.888Z</time></trkpt><trkpt lat="-36.7334697" lon="174.3996451"><ele>110.85714285714285</ele><time>2026-04-18T21:37:09.887Z</time></trkpt><trkpt lat="-36.7334016" lon="174.3996297"><ele>111.0</ele><time>2026-04-18T21:37:11.888Z</time></trkpt><trkpt lat="-36.7333497" lon="174.3995774"><ele>111.83333333333333</ele><time>2026-04-18T21:37:13.887Z</time></trkpt><trkpt lat="-36.7333455" lon="174.3994723"><ele>112.66666666666666</ele><time>2026-04-18T21:37:16.888Z</time></trkpt><trkpt lat="-36.7333323" lon="174.3993546"><ele>113.5</ele><time>2026-04-18T21:37:19.888Z</time></trkpt><trkpt lat="-36.7333445" lon="174.3992386"><ele>114.33333333333333</ele><time>2026-04-18T21:37:22.888Z</time></trkpt><trkpt lat="-36.7333595" lon="174.3991607"><ele>115.16666666666666</ele><time>2026-04-18T21:37:24.887Z</time></trkpt><trkpt lat="-36.7333583" lon="174.3990441"><ele>116.0</ele><time>2026-04-18T21:37:27.888Z</time></trkpt><trkpt lat="-36.7333405" lon="174.3989628"><ele>116.00000000000001</ele><time>2026-04-18T21:37:29.89Z</time></trkpt><trkpt lat="-36.7333442" lon="174.3988825"><ele>116.0</ele><time>2026-04-18T21:37:31.887Z</time></trkpt><trkpt lat="-36.7333567" lon="174.3988029"><ele>116.00000000000001</ele><time>2026-04-18T21:37:33.888Z</time></trkpt><trkpt lat="-36.7333733" lon="174.3987019"><ele>116.00000000000001</ele><time>2026-04-18T21:37:36.887Z</time></trkpt><trkpt lat="-36.7333838" lon="174.3986168"><ele>116.0</ele><time>2026-04-18T21:37:38.887Z</time></trkpt><trkpt lat="-36.7333967" lon="174.3985285"><ele>116.00000000000001</ele><time>2026-04-18T21:37:40.888Z</time></trkpt><trkpt lat="-36.7333859" lon="174.3984352"><ele>116.00000000000001</ele><time>2026-04-18T21:37:42.888Z</time></trkpt><trkpt lat="-36.7333935" lon="174.398356"><ele>116.00000000000001</ele><time>2026-04-18T21:37:44.887Z</time></trkpt><trkpt lat="-36.7334001" lon="174.3982613"><ele>116.0</ele><time>2026-04-18T21:37:47.888Z</time></trkpt><trkpt lat="-36.7334144" lon="174.3981691"><ele>116.00000000000001</ele><time>2026-04-18T21:37:50.889Z</time></trkpt><trkpt lat="-36.7334288" lon="174.3980926"><ele>116.00000000000001</ele><time>2026-04-18T21:37:53.887Z</time></trkpt><trkpt lat="-36.7334644" lon="174.3980187"><ele>116.0</ele><time>2026-04-18T21:38:59.888Z</time></trkpt><trkpt lat="-36.7335271" lon="174.3979711"><ele>116.00000000000001</ele><time>2026-04-18T21:39:03.888Z</time></trkpt><trkpt lat="-36.733602" lon="174.3979433"><ele>116.00000000000001</ele><time>2026-04-18T21:39:05.887Z</time></trkpt><trkpt lat="-36.7336797" lon="174.3979143"><ele>115.49999999999999</ele><time>2026-04-18T21:39:07.888Z</time></trkpt><trkpt lat="-36.7337485" lon="174.3978883"><ele>115.0</ele><time>2026-04-18T21:39:09.888Z</time></trkpt><trkpt lat="-36.7338214" lon="174.3978716"><ele>114.5</ele><time>2026-04-18T21:39:11.889Z</time></trkpt><trkpt lat="-36.7339002" lon="174.3978787"><ele>114.0</ele><time>2026-04-18T21:39:13.888Z</time></trkpt><trkpt lat="-36.7339686" lon="174.3978458"><ele>113.49999999999999</ele><time>2026-04-18T21:39:16.888Z</time></trkpt><trkpt lat="-36.7339725" lon="174.3977411"><ele>113.0</ele><time>2026-04-18T21:39:18.888Z</time></trkpt><trkpt lat="-36.7339677" lon="174.3976385"><ele>113.0</ele><time>2026-04-18T21:39:20.888Z</time></trkpt><trkpt lat="-36.7339763" lon="174.3974838"><ele>113.00000000000001</ele><time>2026-04-18T21:39:22.888Z</time></trkpt><trkpt lat="-36.7340446" lon="174.3973664"><ele>113.00000000000001</ele><time>2026-04-18T21:39:24.887Z</time></trkpt><trkpt lat="-36.7341538" lon="174.397317"><ele>113.0</ele><time>2026-04-18T21:39:26.888Z</time></trkpt><trkpt lat="-36.7342306" lon="174.3972687"><ele>113.0</ele><time>2026-04-18T21:39:27.888Z</time></trkpt><trkpt lat="-36.7343299" lon="174.3972766"><ele>112.83333333333333</ele><time>2026-04-18T21:39:29.887Z</time></trkpt><trkpt lat="-36.7343932" lon="174.3972199"><ele>112.66666666666666</ele><time>2026-04-18T21:39:31.888Z</time></trkpt><trkpt lat="-36.7344628" lon="174.3971438"><ele>112.5</ele><time>2026-04-18T21:39:33.888Z</time></trkpt><trkpt lat="-36.7345091" lon="174.3970414"><ele>112.33333333333334</ele><time>2026-04-18T21:39:35.887Z</time></trkpt><trkpt lat="-36.7345859" lon="174.3969901"><ele>112.16666666666667</ele><time>2026-04-18T21:39:37.887Z</time></trkpt><trkpt lat="-36.7346492" lon="174.3969858"><ele>112.0</ele><time>2026-04-18T21:39:38.887Z</time></trkpt><trkpt lat="-36.7347111" lon="174.3970122"><ele>112.00000000000001</ele><time>2026-04-18T21:39:39.887Z</time></trkpt><trkpt lat="-36.7347748" lon="174.3970193"><ele>112.0</ele><time>2026-04-18T21:39:40.889Z</time></trkpt><trkpt lat="-36.7348765" lon="174.3970546"><ele>112.0</ele><time>2026-04-18T21:39:42.888Z</time></trkpt><trkpt lat="-36.7349489" lon="174.3970851"><ele>112.0</ele><time>2026-04-18T21:39:44.887Z</time></trkpt><trkpt lat="-36.7349747" lon="174.3971635"><ele>112.00000000000001</ele><time>2026-04-18T21:39:47.887Z</time></trkpt><trkpt lat="-36.7350445" lon="174.3972059"><ele>112.0</ele><time>2026-04-18T21:39:50.888Z</time></trkpt><trkpt lat="-36.7351116" lon="174.3972733"><ele>112.00000000000001</ele><time>2026-04-18T21:39:53.888Z</time></trkpt><trkpt lat="-36.7351779" lon="174.397338"><ele>112.0</ele><time>2026-04-18T21:39:57.887Z</time></trkpt><trkpt lat="-36.7352361" lon="174.3973734"><ele>112.0</ele><time>2026-04-18T21:39:59.888Z</time></trkpt><trkpt lat="-36.735319" lon="174.3973699"><ele>112.0</ele><time>2026-04-18T21:40:02.888Z</time></trkpt><trkpt lat="-36.7353881" lon="174.397404"><ele>112.00000000000001</ele><time>2026-04-18T21:40:05.889Z</time></trkpt><trkpt lat="-36.7354631" lon="174.3974468"><ele>112.0</ele><time>2026-04-18T21:40:08.887Z</time></trkpt><trkpt lat="-36.7355307" lon="174.3975065"><ele>109.33333333333334</ele><time>2026-04-18T21:40:10.888Z</time></trkpt><trkpt lat="-36.7355903" lon="174.3975815"><ele>106.66666666666667</ele><time>2026-04-18T21:40:12.889Z</time></trkpt><trkpt lat="-36.735657" lon="174.3976538"><ele>104.0</ele><time>2026-04-18T21:40:14.888Z</time></trkpt><trkpt lat="-36.7357276" lon="174.3976779"><ele>101.33333333333334</ele><time>2026-04-18T21:40:16.888Z</time></trkpt><trkpt lat="-36.7357993" lon="174.397731"><ele>98.66666666666667</ele><time>2026-04-18T21:40:19.888Z</time></trkpt><trkpt lat="-36.7358303" lon="174.3978058"><ele>96.0</ele><time>2026-04-18T21:40:21.889Z</time></trkpt><trkpt lat="-36.7358535" lon="174.3978835"><ele>96.0</ele><time>2026-04-18T21:40:23.887Z</time></trkpt><trkpt lat="-36.7358209" lon="174.3979936"><ele>96.0</ele><time>2026-04-18T21:40:26.887Z</time></trkpt><trkpt lat="-36.735784" lon="174.3980666"><ele>96.0</ele><time>2026-04-18T21:40:28.887Z</time></trkpt><trkpt lat="-36.735775" lon="174.3981513"><ele>96.0</ele><time>2026-04-18T21:40:32.888Z</time></trkpt><trkpt lat="-36.7358399" lon="174.3982783"><ele>96.0</ele><time>2026-04-18T21:40:34.888Z</time></trkpt><trkpt lat="-36.7358736" lon="174.3983447"><ele>96.0</ele><time>2026-04-18T21:40:36.887Z</time></trkpt><trkpt lat="-36.7359612" lon="174.3983904"><ele>95.5</ele><time>2026-04-18T21:40:38.889Z</time></trkpt><trkpt lat="-36.7360322" lon="174.3984053"><ele>95.0</ele><time>2026-04-18T21:40:39.888Z</time></trkpt><trkpt lat="-36.7361087" lon="174.3983347"><ele>94.5</ele><time>2026-04-18T21:40:41.888Z</time></trkpt><trkpt lat="-36.7361604" lon="174.3982398"><ele>94.0</ele><time>2026-04-18T21:40:43.888Z</time></trkpt><trkpt lat="-36.7362076" lon="174.3981427"><ele>93.5</ele><time>2026-04-18T21:40:45.888Z</time></trkpt><trkpt lat="-36.7362151" lon="174.3980647"><ele>93.0</ele><time>2026-04-18T21:40:47.888Z</time></trkpt><trkpt lat="-36.736264" lon="174.397995"><ele>93.0</ele><time>2026-04-18T21:40:49.888Z</time></trkpt><trkpt lat="-36.7363598" lon="174.3979628"><ele>93.0</ele><time>2026-04-18T21:40:51.887Z</time></trkpt><trkpt lat="-36.7364347" lon="174.3979512"><ele>93.0</ele><time>2026-04-18T21:40:52.887Z</time></trkpt><trkpt lat="-36.7365153" lon="174.397932"><ele>93.0</ele><time>2026-04-18T21:40:53.889Z</time></trkpt><trkpt lat="-36.7365797" lon="174.3978989"><ele>93.0</ele><time>2026-04-18T21:40:54.889Z</time></trkpt><trkpt lat="-36.7366377" lon="174.3979295"><ele>93.0</ele><time>2026-04-18T21:40:55.888Z</time></trkpt><trkpt lat="-36.7367046" lon="174.3980042"><ele>93.0</ele><time>2026-04-18T21:40:57.889Z</time></trkpt><trkpt lat="-36.7367703" lon="174.3980719"><ele>93.0</ele><time>2026-04-18T21:41:00.887Z</time></trkpt><trkpt lat="-36.7367575" lon="174.3979629"><ele>93.0</ele><time>2026-04-18T21:41:03.887Z</time></trkpt><trkpt lat="-36.7366996" lon="174.3979266"><ele>93.0</ele><time>2026-04-18T21:41:04.887Z</time></trkpt><trkpt lat="-36.7366029" lon="174.3978766"><ele>93.0</ele><time>2026-04-18T21:41:06.887Z</time></trkpt><trkpt lat="-36.736529" lon="174.3978304"><ele>93.0</ele><time>2026-04-18T21:41:08.888Z</time></trkpt><trkpt lat="-36.7364639" lon="174.3977746"><ele>90.83333333333333</ele><time>2026-04-18T21:41:10.889Z</time></trkpt><trkpt lat="-36.7365118" lon="174.3976958"><ele>88.66666666666667</ele><time>2026-04-18T21:41:12.887Z</time></trkpt><trkpt lat="-36.7365238" lon="174.3975756"><ele>86.5</ele><time>2026-04-18T21:41:14.887Z</time></trkpt><trkpt lat="-36.7365491" lon="174.3974695"><ele>84.33333333333334</ele><time>2026-04-18T21:41:16.887Z</time></trkpt><trkpt lat="-36.7365756" lon="174.3973818"><ele>82.16666666666667</ele><time>2026-04-18T21:41:18.888Z</time></trkpt><trkpt lat="-36.736544" lon="174.3973111"><ele>80.0</ele><time>2026-04-18T21:41:20.888Z</time></trkpt><trkpt lat="-36.7364769" lon="174.3972192"><ele>76.83333333333334</ele><time>2026-04-18T21:41:23.887Z</time></trkpt><trkpt lat="-36.7364458" lon="174.3971295"><ele>73.66666666666667</ele><time>2026-04-18T21:41:25.887Z</time></trkpt><trkpt lat="-36.7364033" lon="174.397044"><ele>70.5</ele><time>2026-04-18T21:41:27.887Z</time></trkpt><trkpt lat="-36.7363182" lon="174.3970036"><ele>67.33333333333333</ele><time>2026-04-18T21:41:29.888Z</time></trkpt><trkpt lat="-36.7363072" lon="174.3968877"><ele>64.16666666666666</ele><time>2026-04-18T21:41:30.887Z</time></trkpt><trkpt lat="-36.7362526" lon="174.3968089"><ele>61.0</ele><time>2026-04-18T21:41:32.888Z</time></trkpt><trkpt lat="-36.7361875" lon="174.3967544"><ele>61.0</ele><time>2026-04-18T21:41:34.888Z</time></trkpt><trkpt lat="-36.7361235" lon="174.3966465"><ele>60.99999999999999</ele><time>2026-04-18T21:41:36.887Z</time></trkpt><trkpt lat="-36.736055" lon="174.3965556"><ele>60.99999999999999</ele><time>2026-04-18T21:41:38.889Z</time></trkpt><trkpt lat="-36.7359797" lon="174.3965221"><ele>61.0</ele><time>2026-04-18T21:41:40.887Z</time></trkpt><trkpt lat="-36.7359253" lon="174.3964655"><ele>61.0</ele><time>2026-04-18T21:41:42.887Z</time></trkpt><trkpt lat="-36.7358592" lon="174.396338"><ele>60.8</ele><time>2026-04-18T21:41:44.887Z</time></trkpt><trkpt lat="-36.7358247" lon="174.3962157"><ele>60.599999999999994</ele><time>2026-04-18T21:41:46.889Z</time></trkpt><trkpt lat="-36.7357418" lon="174.3961433"><ele>60.4</ele><time>2026-04-18T21:41:48.888Z</time></trkpt><trkpt lat="-36.7356926" lon="174.396089"><ele>60.2</ele><time>2026-04-18T21:41:49.888Z</time></trkpt><trkpt lat="-36.7356395" lon="174.3960437"><ele>60.0</ele><time>2026-04-18T21:41:50.888Z</time></trkpt><trkpt lat="-36.7355205" lon="174.3959778"><ele>60.0</ele><time>2026-04-18T21:41:52.887Z</time></trkpt><trkpt lat="-36.7354873" lon="174.3958994"><ele>60.0</ele><time>2026-04-18T21:41:53.887Z</time></trkpt><trkpt lat="-36.7354076" lon="174.3957963"><ele>60.0</ele><time>2026-04-18T21:41:55.888Z</time></trkpt><trkpt lat="-36.7353194" lon="174.3957615"><ele>60.0</ele><time>2026-04-18T21:41:57.887Z</time></trkpt><trkpt lat="-36.7352363" lon="174.395701"><ele>60.0</ele><time>2026-04-18T21:41:59.889Z</time></trkpt><trkpt lat="-36.7351365" lon="174.3956431"><ele>59.2</ele><time>2026-04-18T21:42:01.887Z</time></trkpt><trkpt lat="-36.735063" lon="174.3955653"><ele>58.4</ele><time>2026-04-18T21:42:03.887Z</time></trkpt><trkpt lat="-36.7350332" lon="174.3954634"><ele>57.599999999999994</ele><time>2026-04-18T21:42:05.888Z</time></trkpt><trkpt lat="-36.7350679" lon="174.3953508"><ele>56.8</ele><time>2026-04-18T21:42:07.888Z</time></trkpt><trkpt lat="-36.735143" lon="174.3952815"><ele>56.0</ele><time>2026-04-18T21:42:09.887Z</time></trkpt><trkpt lat="-36.7352476" lon="174.395324"><ele>54.50000000000001</ele><time>2026-04-18T21:42:10.888Z</time></trkpt><trkpt lat="-36.7353103" lon="174.3953526"><ele>53.0</ele><time>2026-04-18T21:42:11.888Z</time></trkpt><trkpt lat="-36.7353697" lon="174.3953825"><ele>51.5</ele><time>2026-04-18T21:42:12.888Z</time></trkpt><trkpt lat="-36.7354431" lon="174.3954553"><ele>50.0</ele><time>2026-04-18T21:42:14.887Z</time></trkpt><trkpt lat="-36.7355135" lon="174.3953983"><ele>48.5</ele><time>2026-04-18T21:42:18.887Z</time></trkpt><trkpt lat="-36.7354707" lon="174.3952586"><ele>47.0</ele><time>2026-04-18T21:42:20.887Z</time></trkpt><trkpt lat="-36.7354042" lon="174.3951187"><ele>47.0</ele><time>2026-04-18T21:42:22.888Z</time></trkpt><trkpt lat="-36.735325" lon="174.395014"><ele>47.0</ele><time>2026-04-18T21:42:24.888Z</time></trkpt><trkpt lat="-36.7352579" lon="174.3949239"><ele>47.0</ele><time>2026-04-18T21:42:26.888Z</time></trkpt><trkpt lat="-36.7351645" lon="174.3949221"><ele>47.0</ele><time>2026-04-18T21:42:28.888Z</time></trkpt><trkpt lat="-36.7350929" lon="174.3949048"><ele>47.0</ele><time>2026-04-18T21:42:29.888Z</time></trkpt><trkpt lat="-36.7350092" lon="174.3948855"><ele>47.0</ele><time>2026-04-18T21:42:30.888Z</time></trkpt><trkpt lat="-36.7349497" lon="174.3948088"><ele>47.0</ele><time>2026-04-18T21:42:32.887Z</time></trkpt><trkpt lat="-36.7349835" lon="174.3947253"><ele>47.0</ele><time>2026-04-18T21:42:33.888Z</time></trkpt><trkpt lat="-36.7349874" lon="174.3946137"><ele>47.0</ele><time>2026-04-18T21:42:35.888Z</time></trkpt><trkpt lat="-36.7349664" lon="174.3944998"><ele>47.0</ele><time>2026-04-18T21:42:37.888Z</time></trkpt><trkpt lat="-36.7349224" lon="174.3943688"><ele>47.0</ele><time>2026-04-18T21:42:39.888Z</time></trkpt><trkpt lat="-36.7349325" lon="174.3942137"><ele>47.0</ele><time>2026-04-18T21:42:41.887Z</time></trkpt><trkpt lat="-36.7349844" lon="174.3940938"><ele>47.0</ele><time>2026-04-18T21:42:43.888Z</time></trkpt><trkpt lat="-36.7350343" lon="174.393982"><ele>47.0</ele><time>2026-04-18T21:42:45.888Z</time></trkpt><trkpt lat="-36.735073" lon="174.3938467"><ele>45.5</ele><time>2026-04-18T21:42:47.888Z</time></trkpt><trkpt lat="-36.7350798" lon="174.3937651"><ele>44.0</ele><time>2026-04-18T21:42:48.887Z</time></trkpt><trkpt lat="-36.7350348" lon="174.3936372"><ele>42.5</ele><time>2026-04-18T21:42:50.888Z</time></trkpt><trkpt lat="-36.7349396" lon="174.3935614"><ele>41.0</ele><time>2026-04-18T21:42:52.887Z</time></trkpt><trkpt lat="-36.7348783" lon="174.3935435"><ele>39.5</ele><time>2026-04-18T21:42:53.887Z</time></trkpt><trkpt lat="-36.7348316" lon="174.3934816"><ele>38.0</ele><time>2026-04-18T21:42:54.888Z</time></trkpt><trkpt lat="-36.7347447" lon="174.3934137"><ele>38.0</ele><time>2026-04-18T21:42:56.889Z</time></trkpt><trkpt lat="-36.7346778" lon="174.3933084"><ele>38.0</ele><time>2026-04-18T21:42:58.888Z</time></trkpt><trkpt lat="-36.7346163" lon="174.3932556"><ele>38.0</ele><time>2026-04-18T21:43:00.888Z</time></trkpt><trkpt lat="-36.7345412" lon="174.3931822"><ele>38.0</ele><time>2026-04-18T21:43:04.887Z</time></trkpt><trkpt lat="-36.7344476" lon="174.3931157"><ele>38.0</ele><time>2026-04-18T21:43:06.888Z</time></trkpt><trkpt lat="-36.7343352" lon="174.3931288"><ele>38.599999999999994</ele><time>2026-04-18T21:43:08.887Z</time></trkpt><trkpt lat="-36.7342282" lon="174.393102"><ele>39.199999999999996</ele><time>2026-04-18T21:43:10.888Z</time></trkpt><trkpt lat="-36.7341677" lon="174.3929837"><ele>39.8</ele><time>2026-04-18T21:43:13.888Z</time></trkpt><trkpt lat="-36.7341131" lon="174.3928975"><ele>40.4</ele><time>2026-04-18T21:43:15.887Z</time></trkpt><trkpt lat="-36.7341464" lon="174.3927769"><ele>41.0</ele><time>2026-04-18T21:43:17.887Z</time></trkpt><trkpt lat="-36.7341971" lon="174.3927303"><ele>39.166666666666664</ele><time>2026-04-18T21:43:18.887Z</time></trkpt><trkpt lat="-36.734261" lon="174.3926958"><ele>37.33333333333333</ele><time>2026-04-18T21:43:19.887Z</time></trkpt><trkpt lat="-36.734332" lon="174.3925953"><ele>35.5</ele><time>2026-04-18T21:43:21.887Z</time></trkpt><trkpt lat="-36.7343215" lon="174.3924808"><ele>33.666666666666664</ele><time>2026-04-18T21:43:23.887Z</time></trkpt><trkpt lat="-36.7342562" lon="174.3923968"><ele>31.833333333333332</ele><time>2026-04-18T21:43:25.888Z</time></trkpt><trkpt lat="-36.7342173" lon="174.3923169"><ele>30.0</ele><time>2026-04-18T21:43:26.887Z</time></trkpt><trkpt lat="-36.7341676" lon="174.3922454"><ele>30.0</ele><time>2026-04-18T21:43:27.887Z</time></trkpt><trkpt lat="-36.734092" lon="174.3921973"><ele>30.0</ele><time>2026-04-18T21:43:28.887Z</time></trkpt><trkpt lat="-36.7339735" lon="174.392164"><ele>30.0</ele><time>2026-04-18T21:43:30.887Z</time></trkpt><trkpt lat="-36.7339055" lon="174.392153"><ele>30.0</ele><time>2026-04-18T21:43:32.887Z</time></trkpt><trkpt lat="-36.733788" lon="174.3921711"><ele>30.0</ele><time>2026-04-18T21:43:34.887Z</time></trkpt><trkpt lat="-36.7337005" lon="174.39214"><ele>29.166666666666668</ele><time>2026-04-18T21:43:35.888Z</time></trkpt><trkpt lat="-36.7336233" lon="174.3921058"><ele>28.333333333333336</ele><time>2026-04-18T21:43:36.887Z</time></trkpt><trkpt lat="-36.7335597" lon="174.392067"><ele>27.5</ele><time>2026-04-18T21:43:37.888Z</time></trkpt><trkpt lat="-36.7334699" lon="174.3919535"><ele>26.666666666666668</ele><time>2026-04-18T21:43:39.889Z</time></trkpt><trkpt lat="-36.7334177" lon="174.3918878"><ele>25.833333333333336</ele><time>2026-04-18T21:43:40.888Z</time></trkpt><trkpt lat="-36.733362" lon="174.3917934"><ele>25.0</ele><time>2026-04-18T21:43:42.888Z</time></trkpt><trkpt lat="-36.7333523" lon="174.3916541"><ele>24.6</ele><time>2026-04-18T21:43:44.887Z</time></trkpt><trkpt lat="-36.733381" lon="174.3915029"><ele>24.2</ele><time>2026-04-18T21:43:46.888Z</time></trkpt><trkpt lat="-36.7333291" lon="174.3914119"><ele>23.799999999999997</ele><time>2026-04-18T21:43:48.888Z</time></trkpt><trkpt lat="-36.733277" lon="174.3913145"><ele>23.4</ele><time>2026-04-18T21:43:50.887Z</time></trkpt><trkpt lat="-36.7332281" lon="174.3912147"><ele>23.0</ele><time>2026-04-18T21:43:52.888Z</time></trkpt><trkpt lat="-36.7331503" lon="174.391144"><ele>23.666666666666668</ele><time>2026-04-18T21:43:54.887Z</time></trkpt><trkpt lat="-36.7330743" lon="174.3910771"><ele>24.333333333333336</ele><time>2026-04-18T21:43:56.887Z</time></trkpt><trkpt lat="-36.7330196" lon="174.3910062"><ele>25.0</ele><time>2026-04-18T21:43:58.887Z</time></trkpt><trkpt lat="-36.7329538" lon="174.3909363"><ele>25.666666666666668</ele><time>2026-04-18T21:44:00.888Z</time></trkpt><trkpt lat="-36.732872" lon="174.3909056"><ele>26.333333333333332</ele><time>2026-04-18T21:44:02.888Z</time></trkpt><trkpt lat="-36.7328035" lon="174.3908714"><ele>27.0</ele><time>2026-04-18T21:44:04.888Z</time></trkpt><trkpt lat="-36.7327407" lon="174.3908096"><ele>26.57142857142857</ele><time>2026-04-18T21:44:06.887Z</time></trkpt><trkpt lat="-36.7326706" lon="174.3908348"><ele>26.142857142857142</ele><time>2026-04-18T21:44:08.887Z</time></trkpt><trkpt lat="-36.7326223" lon="174.3909168"><ele>25.714285714285715</ele><time>2026-04-18T21:44:10.887Z</time></trkpt><trkpt lat="-36.7325754" lon="174.3909941"><ele>25.285714285714285</ele><time>2026-04-18T21:44:12.888Z</time></trkpt><trkpt lat="-36.7325263" lon="174.3910614"><ele>24.857142857142858</ele><time>2026-04-18T21:44:14.887Z</time></trkpt><trkpt lat="-36.7324923" lon="174.3911372"><ele>24.428571428571427</ele><time>2026-04-18T21:44:16.887Z</time></trkpt><trkpt lat="-36.7324649" lon="174.3912164"><ele>24.0</ele><time>2026-04-18T21:44:18.888Z</time></trkpt><trkpt lat="-36.7324232" lon="174.3912923"><ele>24.428571428571427</ele><time>2026-04-18T21:45:11.887Z</time></trkpt><trkpt lat="-36.7323603" lon="174.3913449"><ele>24.857142857142858</ele><time>2026-04-18T21:45:15.888Z</time></trkpt><trkpt lat="-36.7323014" lon="174.3913788"><ele>25.285714285714285</ele><time>2026-04-18T21:45:17.889Z</time></trkpt><trkpt lat="-36.7322453" lon="174.391422"><ele>25.714285714285715</ele><time>2026-04-18T21:45:19.887Z</time></trkpt><trkpt lat="-36.7321842" lon="174.3914742"><ele>26.142857142857142</ele><time>2026-04-18T21:45:21.887Z</time></trkpt><trkpt lat="-36.7321199" lon="174.3914913"><ele>26.57142857142857</ele><time>2026-04-18T21:45:23.887Z</time></trkpt><trkpt lat="-36.7320543" lon="174.3915026"><ele>27.0</ele><time>2026-04-18T21:45:25.887Z</time></trkpt><trkpt lat="-36.7319599" lon="174.391505"><ele>27.666666666666668</ele><time>2026-04-18T21:45:27.887Z</time></trkpt><trkpt lat="-36.7318657" lon="174.3915154"><ele>28.333333333333336</ele><time>2026-04-18T21:45:29.887Z</time></trkpt><trkpt lat="-36.7317632" lon="174.3915065"><ele>29.0</ele><time>2026-04-18T21:45:31.887Z</time></trkpt><trkpt lat="-36.7316797" lon="174.3915143"><ele>29.666666666666668</ele><time>2026-04-18T21:45:33.887Z</time></trkpt><trkpt lat="-36.7316125" lon="174.3915472"><ele>30.333333333333336</ele><time>2026-04-18T21:45:35.888Z</time></trkpt><trkpt lat="-36.7315569" lon="174.3915874"><ele>31.0</ele><time>2026-04-18T21:45:37.888Z</time></trkpt><trkpt lat="-36.7315203" lon="174.3916571"><ele>31.000000000000004</ele><time>2026-04-18T21:45:39.888Z</time></trkpt><trkpt lat="-36.7315784" lon="174.3917233"><ele>31.0</ele><time>2026-04-18T21:45:43.887Z</time></trkpt><trkpt lat="-36.731558" lon="174.3917988"><ele>31.0</ele><time>2026-04-18T21:45:46.888Z</time></trkpt><trkpt lat="-36.731505" lon="174.3918527"><ele>31.0</ele><time>2026-04-18T21:45:48.888Z</time></trkpt><trkpt lat="-36.7314475" lon="174.3919401"><ele>31.000000000000004</ele><time>2026-04-18T21:45:51.888Z</time></trkpt><trkpt lat="-36.7313611" lon="174.3919669"><ele>31.0</ele><time>2026-04-18T21:45:54.888Z</time></trkpt><trkpt lat="-36.7312896" lon="174.391941"><ele>31.000000000000004</ele><time>2026-04-18T21:45:56.887Z</time></trkpt><trkpt lat="-36.7312288" lon="174.3919023"><ele>31.0</ele><time>2026-04-18T21:45:57.887Z</time></trkpt><trkpt lat="-36.7311405" lon="174.3918417"><ele>31.0</ele><time>2026-04-18T21:45:59.888Z</time></trkpt><trkpt lat="-36.7310649" lon="174.3917928"><ele>31.0</ele><time>2026-04-18T21:46:01.887Z</time></trkpt><trkpt lat="-36.7309842" lon="174.3918253"><ele>31.000000000000004</ele><time>2026-04-18T21:46:04.887Z</time></trkpt><trkpt lat="-36.7309473" lon="174.3919129"><ele>31.0</ele><time>2026-04-18T21:46:07.889Z</time></trkpt><trkpt lat="-36.7309595" lon="174.3920135"><ele>31.500000000000004</ele><time>2026-04-18T21:46:10.888Z</time></trkpt><trkpt lat="-36.7309616" lon="174.3921103"><ele>32.0</ele><time>2026-04-18T21:46:13.887Z</time></trkpt><trkpt lat="-36.7309531" lon="174.3921894"><ele>32.5</ele><time>2026-04-18T21:46:15.888Z</time></trkpt><trkpt lat="-36.7309505" lon="174.3922944"><ele>33.0</ele><time>2026-04-18T21:46:18.888Z</time></trkpt><trkpt lat="-36.7309383" lon="174.3923861"><ele>33.5</ele><time>2026-04-18T21:46:21.888Z</time></trkpt><trkpt lat="-36.7308887" lon="174.3923115"><ele>34.0</ele><time>2026-04-18T21:46:26.888Z</time></trkpt><trkpt lat="-36.730876" lon="174.3922231"><ele>33.99999999999999</ele><time>2026-04-18T21:46:28.888Z</time></trkpt><trkpt lat="-36.7308452" lon="174.3921469"><ele>34.0</ele><time>2026-04-18T21:46:30.888Z</time></trkpt><trkpt lat="-36.7308009" lon="174.3920729"><ele>34.0</ele><time>2026-04-18T21:46:33.889Z</time></trkpt><trkpt lat="-36.730715" lon="174.3920434"><ele>34.0</ele><time>2026-04-18T21:46:36.887Z</time></trkpt><trkpt lat="-36.7306517" lon="174.3920219"><ele>34.0</ele><time>2026-04-18T21:46:38.887Z</time></trkpt><trkpt lat="-36.7305873" lon="174.3920234"><ele>33.99999999999999</ele><time>2026-04-18T21:46:40.888Z</time></trkpt><trkpt lat="-36.7305157" lon="174.3920182"><ele>34.0</ele><time>2026-04-18T21:46:42.889Z</time></trkpt><trkpt lat="-36.7304477" lon="174.3919986"><ele>33.99999999999999</ele><time>2026-04-18T21:46:44.889Z</time></trkpt><trkpt lat="-36.7303844" lon="174.3920006"><ele>34.0</ele><time>2026-04-18T21:46:46.888Z</time></trkpt><trkpt lat="-36.7304289" lon="174.3920653"><ele>34.0</ele><time>2026-04-18T21:46:51.887Z</time></trkpt><trkpt lat="-36.7304958" lon="174.3920705"><ele>34.0</ele><time>2026-04-18T21:46:53.889Z</time></trkpt><trkpt lat="-36.7305689" lon="174.392091"><ele>34.0</ele><time>2026-04-18T21:46:55.887Z</time></trkpt><trkpt lat="-36.7306423" lon="174.3921559"><ele>33.99999999999999</ele><time>2026-04-18T21:46:58.888Z</time></trkpt><trkpt lat="-36.7306777" lon="174.3922285"><ele>34.0</ele><time>2026-04-18T21:47:00.887Z</time></trkpt><trkpt lat="-36.7306192" lon="174.3922957"><ele>33.99999999999999</ele><time>2026-04-18T21:47:04.887Z</time></trkpt><trkpt lat="-36.7305429" lon="174.3923095"><ele>34.0</ele><time>2026-04-18T21:47:07.888Z</time></trkpt><trkpt lat="-36.7304788" lon="174.3922825"><ele>34.0</ele><time>2026-04-18T21:47:09.887Z</time></trkpt><trkpt lat="-36.7304161" lon="174.3922664"><ele>34.0</ele><time>2026-04-18T21:47:11.888Z</time></trkpt><trkpt lat="-36.7303474" lon="174.3922648"><ele>34.0</ele><time>2026-04-18T21:47:13.888Z</time></trkpt><trkpt lat="-36.7302864" lon="174.3922286"><ele>33.99999999999999</ele><time>2026-04-18T21:47:16.887Z</time></trkpt><trkpt lat="-36.7302299" lon="174.3921698"><ele>34.0</ele><time>2026-04-18T21:47:19.888Z</time></trkpt><trkpt lat="-36.7301764" lon="174.3921219"><ele>36.0</ele><time>2026-04-18T21:47:21.887Z</time></trkpt><trkpt lat="-36.7301053" lon="174.3920452"><ele>38.0</ele><time>2026-04-18T21:47:24.887Z</time></trkpt><trkpt lat="-36.7300575" lon="174.3919893"><ele>40.0</ele><time>2026-04-18T21:47:26.887Z</time></trkpt><trkpt lat="-36.7300123" lon="174.3918931"><ele>42.0</ele><time>2026-04-18T21:47:28.887Z</time></trkpt><trkpt lat="-36.7299719" lon="174.3918243"><ele>44.0</ele><time>2026-04-18T21:47:29.887Z</time></trkpt><trkpt lat="-36.7298917" lon="174.3917468"><ele>46.0</ele><time>2026-04-18T21:47:31.887Z</time></trkpt><trkpt lat="-36.729827" lon="174.3916902"><ele>46.0</ele><time>2026-04-18T21:47:33.887Z</time></trkpt><trkpt lat="-36.7297562" lon="174.3916267"><ele>46.0</ele><time>2026-04-18T21:47:35.887Z</time></trkpt><trkpt lat="-36.7296729" lon="174.3915846"><ele>46.0</ele><time>2026-04-18T21:47:37.888Z</time></trkpt><trkpt lat="-36.7295896" lon="174.3915411"><ele>46.0</ele><time>2026-04-18T21:47:39.888Z</time></trkpt><trkpt lat="-36.7295116" lon="174.3915083"><ele>46.0</ele><time>2026-04-18T21:47:41.888Z</time></trkpt><trkpt lat="-36.7294427" lon="174.39147"><ele>46.0</ele><time>2026-04-18T21:47:43.888Z</time></trkpt><trkpt lat="-36.7293739" lon="174.3914035"><ele>45.0</ele><time>2026-04-18T21:47:45.888Z</time></trkpt><trkpt lat="-36.72932" lon="174.3913319"><ele>44.0</ele><time>2026-04-18T21:47:47.887Z</time></trkpt><trkpt lat="-36.7292564" lon="174.391248"><ele>43.0</ele><time>2026-04-18T21:47:49.887Z</time></trkpt><trkpt lat="-36.7292117" lon="174.3911619"><ele>42.0</ele><time>2026-04-18T21:47:51.887Z</time></trkpt><trkpt lat="-36.7291653" lon="174.3910782"><ele>41.0</ele><time>2026-04-18T21:47:53.887Z</time></trkpt><trkpt lat="-36.7290893" lon="174.3910096"><ele>40.0</ele><time>2026-04-18T21:47:55.888Z</time></trkpt><trkpt lat="-36.7290306" lon="174.3909352"><ele>40.0</ele><time>2026-04-18T21:47:57.887Z</time></trkpt><trkpt lat="-36.7289738" lon="174.3908599"><ele>40.0</ele><time>2026-04-18T21:47:59.888Z</time></trkpt><trkpt lat="-36.7289238" lon="174.3907865"><ele>40.0</ele><time>2026-04-18T21:48:01.889Z</time></trkpt><trkpt lat="-36.7288431" lon="174.3907147"><ele>40.0</ele><time>2026-04-18T21:48:03.887Z</time></trkpt><trkpt lat="-36.7287732" lon="174.390721"><ele>40.0</ele><time>2026-04-18T21:48:05.887Z</time></trkpt><trkpt lat="-36.7286942" lon="174.3906989"><ele>40.0</ele><time>2026-04-18T21:48:07.887Z</time></trkpt><trkpt lat="-36.7286279" lon="174.3907022"><ele>42.16666666666667</ele><time>2026-04-18T21:48:09.888Z</time></trkpt><trkpt lat="-36.7285559" lon="174.390779"><ele>44.333333333333336</ele><time>2026-04-18T21:48:12.888Z</time></trkpt><trkpt lat="-36.7285167" lon="174.3908437"><ele>46.5</ele><time>2026-04-18T21:48:14.888Z</time></trkpt><trkpt lat="-36.7285163" lon="174.3909362"><ele>48.66666666666667</ele><time>2026-04-18T21:48:18.887Z</time></trkpt><trkpt lat="-36.7284505" lon="174.3909166"><ele>50.833333333333336</ele><time>2026-04-18T21:48:23.887Z</time></trkpt><trkpt lat="-36.7283974" lon="174.390839"><ele>53.0</ele><time>2026-04-18T21:48:26.887Z</time></trkpt><trkpt lat="-36.7283338" lon="174.3908062"><ele>53.00000000000001</ele><time>2026-04-18T21:48:29.887Z</time></trkpt><trkpt lat="-36.7282634" lon="174.3907684"><ele>53.0</ele><time>2026-04-18T21:48:32.888Z</time></trkpt><trkpt lat="-36.7281759" lon="174.3907486"><ele>53.0</ele><time>2026-04-18T21:48:35.887Z</time></trkpt><trkpt lat="-36.7280897" lon="174.3907383"><ele>53.0</ele><time>2026-04-18T21:48:38.887Z</time></trkpt><trkpt lat="-36.7280132" lon="174.3907438"><ele>53.00000000000001</ele><time>2026-04-18T21:48:41.888Z</time></trkpt><trkpt lat="-36.7279334" lon="174.3907301"><ele>53.0</ele><time>2026-04-18T21:48:44.887Z</time></trkpt><trkpt lat="-36.7278713" lon="174.3906874"><ele>53.0</ele><time>2026-04-18T21:48:47.888Z</time></trkpt><trkpt lat="-36.7278887" lon="174.3907686"><ele>53.0</ele><time>2026-04-18T21:48:55.887Z</time></trkpt><trkpt lat="-36.7279104" lon="174.3908434"><ele>53.0</ele><time>2026-04-18T21:48:58.888Z</time></trkpt><trkpt lat="-36.7278525" lon="174.3908745"><ele>53.0</ele><time>2026-04-18T21:49:02.887Z</time></trkpt><trkpt lat="-36.7277935" lon="174.390823"><ele>53.0</ele><time>2026-04-18T21:49:05.888Z</time></trkpt><trkpt lat="-36.7277428" lon="174.3908743"><ele>53.0</ele><time>2026-04-18T21:49:16.887Z</time></trkpt><trkpt lat="-36.727713" lon="174.3909678"><ele>53.0</ele><time>2026-04-18T21:49:20.887Z</time></trkpt><trkpt lat="-36.7276732" lon="174.3910373"><ele>53.85714285714286</ele><time>2026-04-18T21:49:23.888Z</time></trkpt><trkpt lat="-36.7275992" lon="174.3910777"><ele>54.71428571428571</ele><time>2026-04-18T21:49:27.887Z</time></trkpt><trkpt lat="-36.7275284" lon="174.3911047"><ele>55.57142857142857</ele><time>2026-04-18T21:49:30.887Z</time></trkpt><trkpt lat="-36.7275431" lon="174.3911824"><ele>56.42857142857143</ele><time>2026-04-18T21:49:35.887Z</time></trkpt><trkpt lat="-36.7275963" lon="174.3912405"><ele>57.28571428571429</ele><time>2026-04-18T21:49:39.888Z</time></trkpt><trkpt lat="-36.7276424" lon="174.3913309"><ele>58.14285714285714</ele><time>2026-04-18T21:49:42.888Z</time></trkpt><trkpt lat="-36.727659" lon="174.3914076"><ele>59.0</ele><time>2026-04-18T21:49:44.887Z</time></trkpt><trkpt lat="-36.727666" lon="174.3914912"><ele>60.66666666666667</ele><time>2026-04-18T21:49:46.888Z</time></trkpt><trkpt lat="-36.7276791" lon="174.391569"><ele>62.333333333333336</ele><time>2026-04-18T21:49:48.887Z</time></trkpt><trkpt lat="-36.7276983" lon="174.3916562"><ele>64.0</ele><time>2026-04-18T21:49:50.887Z</time></trkpt><trkpt lat="-36.7277169" lon="174.3917443"><ele>65.66666666666667</ele><time>2026-04-18T21:49:52.887Z</time></trkpt><trkpt lat="-36.72775" lon="174.3918572"><ele>67.33333333333333</ele><time>2026-04-18T21:49:55.887Z</time></trkpt><trkpt lat="-36.7277626" lon="174.3919581"><ele>69.0</ele><time>2026-04-18T21:49:57.888Z</time></trkpt><trkpt lat="-36.7277655" lon="174.3920644"><ele>69.66666666666667</ele><time>2026-04-18T21:49:59.887Z</time></trkpt><trkpt lat="-36.7277538" lon="174.3921699"><ele>70.33333333333333</ele><time>2026-04-18T21:50:01.889Z</time></trkpt><trkpt lat="-36.7277545" lon="174.3922723"><ele>71.0</ele><time>2026-04-18T21:50:03.889Z</time></trkpt><trkpt lat="-36.7277395" lon="174.3923507"><ele>71.66666666666666</ele><time>2026-04-18T21:50:05.887Z</time></trkpt><trkpt lat="-36.7276991" lon="174.392431"><ele>72.33333333333333</ele><time>2026-04-18T21:50:08.889Z</time></trkpt><trkpt lat="-36.7276976" lon="174.3925269"><ele>73.0</ele><time>2026-04-18T21:50:11.889Z</time></trkpt><trkpt lat="-36.7276271" lon="174.3925865"><ele>73.16666666666666</ele><time>2026-04-18T21:50:14.887Z</time></trkpt><trkpt lat="-36.7275369" lon="174.3925882"><ele>73.33333333333333</ele><time>2026-04-18T21:50:17.887Z</time></trkpt><trkpt lat="-36.7274845" lon="174.392675"><ele>73.5</ele><time>2026-04-18T21:50:20.887Z</time></trkpt><trkpt lat="-36.7274335" lon="174.3927481"><ele>73.66666666666667</ele><time>2026-04-18T21:50:23.888Z</time></trkpt><trkpt lat="-36.7274193" lon="174.3928381"><ele>73.83333333333334</ele><time>2026-04-18T21:50:26.888Z</time></trkpt><trkpt lat="-36.727462" lon="174.3929268"><ele>74.0</ele><time>2026-04-18T21:50:30.887Z</time></trkpt><trkpt lat="-36.7274289" lon="174.3929947"><ele>74.66666666666667</ele><time>2026-04-18T21:50:35.887Z</time></trkpt><trkpt lat="-36.7273864" lon="174.3930663"><ele>75.33333333333334</ele><time>2026-04-18T21:50:38.887Z</time></trkpt><trkpt lat="-36.7273802" lon="174.3931755"><ele>76.0</ele><time>2026-04-18T21:50:41.888Z</time></trkpt><trkpt lat="-36.72734" lon="174.3932668"><ele>76.66666666666667</ele><time>2026-04-18T21:50:43.888Z</time></trkpt><trkpt lat="-36.727274" lon="174.3933284"><ele>77.33333333333333</ele><time>2026-04-18T21:50:46.887Z</time></trkpt><trkpt lat="-36.7271975" lon="174.3933335"><ele>78.0</ele><time>2026-04-18T21:50:49.887Z</time></trkpt><trkpt lat="-36.7271915" lon="174.3934171"><ele>78.0</ele><time>2026-04-18T21:50:53.888Z</time></trkpt><trkpt lat="-36.7271535" lon="174.3935074"><ele>78.0</ele><time>2026-04-18T21:50:55.887Z</time></trkpt><trkpt lat="-36.7271723" lon="174.3935907"><ele>78.0</ele><time>2026-04-18T21:50:57.887Z</time></trkpt><trkpt lat="-36.7271788" lon="174.3936901"><ele>78.0</ele><time>2026-04-18T21:50:59.888Z</time></trkpt><trkpt lat="-36.7271485" lon="174.3937597"><ele>78.0</ele><time>2026-04-18T21:51:01.887Z</time></trkpt><trkpt lat="-36.7270907" lon="174.3938188"><ele>78.0</ele><time>2026-04-18T21:51:03.889Z</time></trkpt><trkpt lat="-36.7270992" lon="174.3939101"><ele>78.0</ele><time>2026-04-18T21:51:06.887Z</time></trkpt><trkpt lat="-36.7270965" lon="174.3939953"><ele>78.0</ele><time>2026-04-18T21:51:08.888Z</time></trkpt><trkpt lat="-36.7270912" lon="174.3940814"><ele>78.0</ele><time>2026-04-18T21:51:10.888Z</time></trkpt><trkpt lat="-36.7270533" lon="174.3941587"><ele>78.0</ele><time>2026-04-18T21:51:12.888Z</time></trkpt><trkpt lat="-36.7270251" lon="174.3942457"><ele>78.0</ele><time>2026-04-18T21:51:14.887Z</time></trkpt><trkpt lat="-36.7270465" lon="174.3943532"><ele>78.0</ele><time>2026-04-18T21:51:17.888Z</time></trkpt><trkpt lat="-36.7270333" lon="174.394453"><ele>78.0</ele><time>2026-04-18T21:51:20.888Z</time></trkpt><trkpt lat="-36.7269651" lon="174.3945132"><ele>78.0</ele><time>2026-04-18T21:51:23.887Z</time></trkpt><trkpt lat="-36.7269417" lon="174.3946089"><ele>78.0</ele><time>2026-04-18T21:51:27.888Z</time></trkpt><trkpt lat="-36.7268858" lon="174.3947089"><ele>78.0</ele><time>2026-04-18T21:51:30.887Z</time></trkpt><trkpt lat="-36.7268377" lon="174.3947701"><ele>78.0</ele><time>2026-04-18T21:51:33.888Z</time></trkpt><trkpt lat="-36.7267813" lon="174.3948295"><ele>78.0</ele><time>2026-04-18T21:51:36.888Z</time></trkpt><trkpt lat="-36.7267137" lon="174.394865"><ele>78.0</ele><time>2026-04-18T21:51:38.888Z</time></trkpt><trkpt lat="-36.7266337" lon="174.394923"><ele>80.0</ele><time>2026-04-18T21:51:40.888Z</time></trkpt><trkpt lat="-36.726547" lon="174.3949726"><ele>82.0</ele><time>2026-04-18T21:51:41.888Z</time></trkpt><trkpt lat="-36.7264902" lon="174.3950102"><ele>84.0</ele><time>2026-04-18T21:51:42.887Z</time></trkpt><trkpt lat="-36.7263977" lon="174.3950378"><ele>86.0</ele><time>2026-04-18T21:51:44.888Z</time></trkpt><trkpt lat="-36.7263352" lon="174.3951048"><ele>88.0</ele><time>2026-04-18T21:51:46.889Z</time></trkpt><trkpt lat="-36.726284" lon="174.3951984"><ele>90.0</ele><time>2026-04-18T21:51:49.888Z</time></trkpt><trkpt lat="-36.7262699" lon="174.3953093"><ele>90.0</ele><time>2026-04-18T21:51:52.888Z</time></trkpt><trkpt lat="-36.7262438" lon="174.3953969"><ele>90.0</ele><time>2026-04-18T21:51:55.888Z</time></trkpt><trkpt lat="-36.7261983" lon="174.3954552"><ele>90.0</ele><time>2026-04-18T21:51:57.888Z</time></trkpt><trkpt lat="-36.7261436" lon="174.3955064"><ele>90.0</ele><time>2026-04-18T21:51:59.888Z</time></trkpt><trkpt lat="-36.7260769" lon="174.3955661"><ele>90.0</ele><time>2026-04-18T21:52:02.887Z</time></trkpt><trkpt lat="-36.7260123" lon="174.3956136"><ele>90.0</ele><time>2026-04-18T21:52:04.887Z</time></trkpt><trkpt lat="-36.7259616" lon="174.3956629"><ele>90.0</ele><time>2026-04-18T21:52:06.887Z</time></trkpt><trkpt lat="-36.7258894" lon="174.3957272"><ele>92.0</ele><time>2026-04-18T21:52:09.888Z</time></trkpt><trkpt lat="-36.7258408" lon="174.3958015"><ele>94.0</ele><time>2026-04-18T21:52:11.889Z</time></trkpt><trkpt lat="-36.7258066" lon="174.3958798"><ele>96.0</ele><time>2026-04-18T21:52:13.889Z</time></trkpt><trkpt lat="-36.725787" lon="174.39596"><ele>98.0</ele><time>2026-04-18T21:52:15.888Z</time></trkpt><trkpt lat="-36.7257686" lon="174.3960541"><ele>100.0</ele><time>2026-04-18T21:52:18.887Z</time></trkpt><trkpt lat="-36.7257717" lon="174.3961542"><ele>102.0</ele><time>2026-04-18T21:52:21.887Z</time></trkpt><trkpt lat="-36.7257029" lon="174.3961315"><ele>104.0</ele><time>2026-04-18T21:52:27.889Z</time></trkpt><trkpt lat="-36.7256894" lon="174.3960404"><ele>104.0</ele><time>2026-04-18T21:52:31.888Z</time></trkpt><trkpt lat="-36.7256455" lon="174.3959837"><ele>104.0</ele><time>2026-04-18T21:52:34.887Z</time></trkpt><trkpt lat="-36.7256474" lon="174.3958838"><ele>104.0</ele><time>2026-04-18T21:52:38.887Z</time></trkpt><trkpt lat="-36.7256563" lon="174.3958051"><ele>104.0</ele><time>2026-04-18T21:52:41.888Z</time></trkpt><trkpt lat="-36.7256706" lon="174.3957155"><ele>104.0</ele><time>2026-04-18T21:52:44.887Z</time></trkpt><trkpt lat="-36.7256467" lon="174.3956149"><ele>104.0</ele><time>2026-04-18T21:52:48.888Z</time></trkpt><trkpt lat="-36.7256496" lon="174.3955259"><ele>104.0</ele><time>2026-04-18T21:52:51.887Z</time></trkpt><trkpt lat="-36.7256835" lon="174.3954185"><ele>104.16666666666666</ele><time>2026-04-18T21:52:54.887Z</time></trkpt><trkpt lat="-36.7257315" lon="174.3953316"><ele>104.33333333333333</ele><time>2026-04-18T21:52:56.888Z</time></trkpt><trkpt lat="-36.725773" lon="174.3952602"><ele>104.5</ele><time>2026-04-18T21:52:58.888Z</time></trkpt><trkpt lat="-36.7258288" lon="174.3951666"><ele>104.66666666666666</ele><time>2026-04-18T21:53:01.889Z</time></trkpt><trkpt lat="-36.7258592" lon="174.3950674"><ele>104.83333333333333</ele><time>2026-04-18T21:53:03.888Z</time></trkpt><trkpt lat="-36.7258868" lon="174.3949849"><ele>105.0</ele><time>2026-04-18T21:53:05.887Z</time></trkpt><trkpt lat="-36.7258916" lon="174.3948705"><ele>105.0</ele><time>2026-04-18T21:53:08.888Z</time></trkpt><trkpt lat="-36.7258896" lon="174.3947742"><ele>105.0</ele><time>2026-04-18T21:53:11.887Z</time></trkpt><trkpt lat="-36.7258916" lon="174.3946824"><ele>105.0</ele><time>2026-04-18T21:53:13.887Z</time></trkpt><trkpt lat="-36.7258871" lon="174.3945835"><ele>105.0</ele><time>2026-04-18T21:53:15.887Z</time></trkpt><trkpt lat="-36.7258686" lon="174.3944871"><ele>105.0</ele><time>2026-04-18T21:53:17.887Z</time></trkpt><trkpt lat="-36.7258418" lon="174.3943984"><ele>105.0</ele><time>2026-04-18T21:53:19.887Z</time></trkpt><trkpt lat="-36.7258206" lon="174.3942987"><ele>105.16666666666667</ele><time>2026-04-18T21:53:21.889Z</time></trkpt><trkpt lat="-36.7257795" lon="174.3942263"><ele>105.33333333333334</ele><time>2026-04-18T21:53:23.887Z</time></trkpt><trkpt lat="-36.7257165" lon="174.3941571"><ele>105.5</ele><time>2026-04-18T21:53:26.887Z</time></trkpt><trkpt lat="-36.7256964" lon="174.3940545"><ele>105.66666666666667</ele><time>2026-04-18T21:53:29.888Z</time></trkpt><trkpt lat="-36.7256874" lon="174.3939453"><ele>105.83333333333334</ele><time>2026-04-18T21:53:32.888Z</time></trkpt><trkpt lat="-36.7256486" lon="174.3938811"><ele>106.0</ele><time>2026-04-18T21:53:34.887Z</time></trkpt><trkpt lat="-36.7256" lon="174.3938241"><ele>105.50000000000001</ele><time>2026-04-18T21:53:36.888Z</time></trkpt><trkpt lat="-36.7255827" lon="174.3937143"><ele>105.0</ele><time>2026-04-18T21:53:39.888Z</time></trkpt><trkpt lat="-36.7255908" lon="174.3936204"><ele>104.5</ele><time>2026-04-18T21:53:41.888Z</time></trkpt><trkpt lat="-36.7255952" lon="174.3935267"><ele>104.0</ele><time>2026-04-18T21:53:43.887Z</time></trkpt><trkpt lat="-36.725608" lon="174.3934339"><ele>103.50000000000001</ele><time>2026-04-18T21:53:45.887Z</time></trkpt><trkpt lat="-36.7256123" lon="174.3933508"><ele>103.0</ele><time>2026-04-18T21:53:47.887Z</time></trkpt><trkpt lat="-36.7256002" lon="174.3932423"><ele>103.00000000000001</ele><time>2026-04-18T21:53:50.888Z</time></trkpt><trkpt lat="-36.7256006" lon="174.3931616"><ele>103.0</ele><time>2026-04-18T21:53:53.887Z</time></trkpt><trkpt lat="-36.7255605" lon="174.3930728"><ele>103.0</ele><time>2026-04-18T21:55:45.887Z</time></trkpt><trkpt lat="-36.7255306" lon="174.3929723"><ele>103.0</ele><time>2026-04-18T21:55:49.888Z</time></trkpt><trkpt lat="-36.7254877" lon="174.3929131"><ele>103.00000000000001</ele><time>2026-04-18T21:55:51.888Z</time></trkpt><trkpt lat="-36.7254144" lon="174.3928676"><ele>103.0</ele><time>2026-04-18T21:55:54.888Z</time></trkpt><trkpt lat="-36.7253375" lon="174.3928556"><ele>103.16666666666667</ele><time>2026-04-18T21:55:57.888Z</time></trkpt><trkpt lat="-36.7252498" lon="174.392879"><ele>103.33333333333334</ele><time>2026-04-18T21:56:00.887Z</time></trkpt><trkpt lat="-36.7251782" lon="174.3929325"><ele>103.5</ele><time>2026-04-18T21:56:03.888Z</time></trkpt><trkpt lat="-36.7251222" lon="174.3929761"><ele>103.66666666666666</ele><time>2026-04-18T21:56:05.888Z</time></trkpt><trkpt lat="-36.7250527" lon="174.3930374"><ele>103.83333333333333</ele><time>2026-04-18T21:56:07.887Z</time></trkpt><trkpt lat="-36.7250116" lon="174.3931156"><ele>104.0</ele><time>2026-04-18T21:56:09.889Z</time></trkpt><trkpt lat="-36.7249883" lon="174.3932005"><ele>104.4</ele><time>2026-04-18T21:56:11.888Z</time></trkpt><trkpt lat="-36.7249631" lon="174.3932744"><ele>104.80000000000001</ele><time>2026-04-18T21:56:13.888Z</time></trkpt><trkpt lat="-36.7249336" lon="174.3933645"><ele>105.19999999999999</ele><time>2026-04-18T21:56:16.887Z</time></trkpt><trkpt lat="-36.7248307" lon="174.3935001"><ele>105.6</ele><time>2026-04-18T21:56:18.889Z</time></trkpt><trkpt lat="-36.72478" lon="174.3935522"><ele>106.0</ele><time>2026-04-18T21:56:19.887Z</time></trkpt><trkpt lat="-36.7247376" lon="174.3936606"><ele>106.00000000000001</ele><time>2026-04-18T21:56:21.888Z</time></trkpt><trkpt lat="-36.7246396" lon="174.3937348"><ele>106.0</ele><time>2026-04-18T21:56:23.888Z</time></trkpt><trkpt lat="-36.7245753" lon="174.3937798"><ele>106.0</ele><time>2026-04-18T21:56:25.887Z</time></trkpt><trkpt lat="-36.7245093" lon="174.3938033"><ele>106.0</ele><time>2026-04-18T21:56:27.887Z</time></trkpt><trkpt lat="-36.7244254" lon="174.3937482"><ele>106.00000000000001</ele><time>2026-04-18T21:56:30.888Z</time></trkpt><trkpt lat="-36.7243485" lon="174.3936755"><ele>106.0</ele><time>2026-04-18T21:56:31.888Z</time></trkpt><trkpt lat="-36.7243066" lon="174.3936153"><ele>105.00000000000001</ele><time>2026-04-18T21:56:32.887Z</time></trkpt><trkpt lat="-36.7242665" lon="174.3935431"><ele>104.0</ele><time>2026-04-18T21:56:33.888Z</time></trkpt><trkpt lat="-36.7242235" lon="174.3934833"><ele>103.0</ele><time>2026-04-18T21:56:34.888Z</time></trkpt><trkpt lat="-36.7241608" lon="174.39345"><ele>102.0</ele><time>2026-04-18T21:56:35.888Z</time></trkpt><trkpt lat="-36.7240417" lon="174.3934846"><ele>101.00000000000001</ele><time>2026-04-18T21:56:37.887Z</time></trkpt><trkpt lat="-36.723953" lon="174.3935212"><ele>100.0</ele><time>2026-04-18T21:56:39.888Z</time></trkpt><trkpt lat="-36.7238695" lon="174.3935628"><ele>100.00000000000001</ele><time>2026-04-18T21:56:41.887Z</time></trkpt><trkpt lat="-36.7237892" lon="174.3935688"><ele>100.0</ele><time>2026-04-18T21:56:43.887Z</time></trkpt><trkpt lat="-36.7237348" lon="174.3935151"><ele>100.0</ele><time>2026-04-18T21:56:45.888Z</time></trkpt><trkpt lat="-36.7236705" lon="174.3934719"><ele>100.0</ele><time>2026-04-18T21:56:47.887Z</time></trkpt><trkpt lat="-36.7236092" lon="174.3935015"><ele>100.0</ele><time>2026-04-18T21:56:49.887Z</time></trkpt><trkpt lat="-36.7235659" lon="174.3935701"><ele>100.00000000000001</ele><time>2026-04-18T21:56:51.888Z</time></trkpt><trkpt lat="-36.7235057" lon="174.3936354"><ele>100.0</ele><time>2026-04-18T21:56:54.889Z</time></trkpt><trkpt lat="-36.7234655" lon="174.3936971"><ele>100.00000000000001</ele><time>2026-04-18T21:56:56.887Z</time></trkpt><trkpt lat="-36.7234107" lon="174.3936337"><ele>100.0</ele><time>2026-04-18T21:57:01.887Z</time></trkpt><trkpt lat="-36.7234443" lon="174.3935609"><ele>100.0</ele><time>2026-04-18T21:57:04.887Z</time></trkpt><trkpt lat="-36.7234862" lon="174.3934942"><ele>100.0</ele><time>2026-04-18T21:57:07.888Z</time></trkpt><trkpt lat="-36.7235249" lon="174.3934218"><ele>100.0</ele><time>2026-04-18T21:57:10.888Z</time></trkpt><trkpt lat="-36.7235667" lon="174.3933327"><ele>100.00000000000001</ele><time>2026-04-18T21:57:13.888Z</time></trkpt><trkpt lat="-36.7235642" lon="174.3932413"><ele>100.0</ele><time>2026-04-18T21:57:16.887Z</time></trkpt><trkpt lat="-36.7235824" lon="174.3931532"><ele>100.00000000000001</ele><time>2026-04-18T21:57:19.887Z</time></trkpt><trkpt lat="-36.7236161" lon="174.393055"><ele>100.0</ele><time>2026-04-18T21:57:22.888Z</time></trkpt><trkpt lat="-36.7236774" lon="174.393007"><ele>100.0</ele><time>2026-04-18T21:57:25.888Z</time></trkpt><trkpt lat="-36.7237129" lon="174.3929274"><ele>100.0</ele><time>2026-04-18T21:57:28.889Z</time></trkpt><trkpt lat="-36.7237667" lon="174.3928448"><ele>100.00000000000001</ele><time>2026-04-18T21:57:31.888Z</time></trkpt><trkpt lat="-36.7237964" lon="174.3927449"><ele>100.0</ele><time>2026-04-18T21:57:35.888Z</time></trkpt><trkpt lat="-36.7238286" lon="174.3926555"><ele>101.33333333333334</ele><time>2026-04-18T21:57:38.887Z</time></trkpt><trkpt lat="-36.7237595" lon="174.3926645"><ele>102.66666666666667</ele><time>2026-04-18T21:57:42.888Z</time></trkpt><trkpt lat="-36.7237903" lon="174.3925757"><ele>104.0</ele><time>2026-04-18T21:57:48.888Z</time></trkpt><trkpt lat="-36.7237213" lon="174.3925383"><ele>105.33333333333334</ele><time>2026-04-18T21:57:57.887Z</time></trkpt><trkpt lat="-36.7237507" lon="174.3924661"><ele>106.66666666666667</ele><time>2026-04-18T21:58:01.887Z</time></trkpt><trkpt lat="-36.7238091" lon="174.3923896"><ele>108.0</ele><time>2026-04-18T21:58:04.888Z</time></trkpt><trkpt lat="-36.7238569" lon="174.3923009"><ele>108.0</ele><time>2026-04-18T21:58:07.888Z</time></trkpt><trkpt lat="-36.7239045" lon="174.3922153"><ele>108.0</ele><time>2026-04-18T21:58:10.887Z</time></trkpt><trkpt lat="-36.7239696" lon="174.3921381"><ele>108.0</ele><time>2026-04-18T21:58:13.889Z</time></trkpt><trkpt lat="-36.7240084" lon="174.3920478"><ele>108.0</ele><time>2026-04-18T21:58:16.887Z</time></trkpt><trkpt lat="-36.7239918" lon="174.3919587"><ele>108.0</ele><time>2026-04-18T21:58:20.889Z</time></trkpt><trkpt lat="-36.7239271" lon="174.3919639"><ele>108.0</ele><time>2026-04-18T21:58:23.887Z</time></trkpt><trkpt lat="-36.7238581" lon="174.3919475"><ele>109.42857142857143</ele><time>2026-04-18T21:58:26.888Z</time></trkpt><trkpt lat="-36.7238113" lon="174.3918926"><ele>110.85714285714286</ele><time>2026-04-18T21:58:29.887Z</time></trkpt><trkpt lat="-36.7237601" lon="174.3918463"><ele>112.28571428571428</ele><time>2026-04-18T21:58:32.887Z</time></trkpt><trkpt lat="-36.7237435" lon="174.391768"><ele>113.71428571428572</ele><time>2026-04-18T21:58:35.887Z</time></trkpt><trkpt lat="-36.7237796" lon="174.3916949"><ele>115.14285714285715</ele><time>2026-04-18T21:58:39.887Z</time></trkpt><trkpt lat="-36.7237816" lon="174.3916106"><ele>116.57142857142857</ele><time>2026-04-18T21:58:42.887Z</time></trkpt><trkpt lat="-36.7237791" lon="174.3915214"><ele>118.0</ele><time>2026-04-18T21:58:46.887Z</time></trkpt><trkpt lat="-36.7238062" lon="174.3914295"><ele>118.00000000000001</ele><time>2026-04-18T21:58:50.888Z</time></trkpt><trkpt lat="-36.7238517" lon="174.3913594"><ele>118.0</ele><time>2026-04-18T21:58:54.889Z</time></trkpt><trkpt lat="-36.7238964" lon="174.3912715"><ele>118.0</ele><time>2026-04-18T21:58:58.888Z</time></trkpt><trkpt lat="-36.7239523" lon="174.391227"><ele>118.0</ele><time>2026-04-18T21:59:01.887Z</time></trkpt><trkpt lat="-36.7240227" lon="174.3912097"><ele>118.00000000000001</ele><time>2026-04-18T21:59:05.888Z</time></trkpt><trkpt lat="-36.724095" lon="174.3912064"><ele>118.0</ele><time>2026-04-18T21:59:08.887Z</time></trkpt><trkpt lat="-36.7241799" lon="174.3911769"><ele>117.66666666666667</ele><time>2026-04-18T21:59:11.887Z</time></trkpt><trkpt lat="-36.7242439" lon="174.3911323"><ele>117.33333333333334</ele><time>2026-04-18T21:59:14.887Z</time></trkpt><trkpt lat="-36.724304" lon="174.3910494"><ele>117.0</ele><time>2026-04-18T21:59:18.889Z</time></trkpt><trkpt lat="-36.7243675" lon="174.3909737"><ele>116.66666666666666</ele><time>2026-04-18T21:59:22.887Z</time></trkpt><trkpt lat="-36.7244266" lon="174.3909224"><ele>116.33333333333333</ele><time>2026-04-18T21:59:24.888Z</time></trkpt><trkpt lat="-36.7244778" lon="174.3908628"><ele>116.0</ele><time>2026-04-18T21:59:26.887Z</time></trkpt><trkpt lat="-36.7245299" lon="174.3907987"><ele>115.99999999999999</ele><time>2026-04-18T21:59:28.888Z</time></trkpt><trkpt lat="-36.7245838" lon="174.3907256"><ele>116.0</ele><time>2026-04-18T21:59:30.888Z</time></trkpt><trkpt lat="-36.7246426" lon="174.3906856"><ele>116.0</ele><time>2026-04-18T21:59:32.887Z</time></trkpt><trkpt lat="-36.7247076" lon="174.390679"><ele>116.0</ele><time>2026-04-18T21:59:35.887Z</time></trkpt><trkpt lat="-36.7247915" lon="174.3906568"><ele>115.99999999999999</ele><time>2026-04-18T21:59:38.887Z</time></trkpt><trkpt lat="-36.724835" lon="174.3907477"><ele>116.0</ele><time>2026-04-18T21:59:42.888Z</time></trkpt><trkpt lat="-36.7248324" lon="174.3908417"><ele>115.99999999999999</ele><time>2026-04-18T21:59:45.888Z</time></trkpt><trkpt lat="-36.7248024" lon="174.3909379"><ele>116.0</ele><time>2026-04-18T21:59:48.888Z</time></trkpt><trkpt lat="-36.72473" lon="174.390997"><ele>116.0</ele><time>2026-04-18T21:59:51.887Z</time></trkpt><trkpt lat="-36.7246512" lon="174.3910284"><ele>116.0</ele><time>2026-04-18T21:59:54.888Z</time></trkpt><trkpt lat="-36.7245822" lon="174.3910372"><ele>115.99999999999999</ele><time>2026-04-18T21:59:56.888Z</time></trkpt><trkpt lat="-36.7245218" lon="174.3910598"><ele>116.0</ele><time>2026-04-18T21:59:58.888Z</time></trkpt><trkpt lat="-36.7244457" lon="174.3911059"><ele>115.99999999999999</ele><time>2026-04-18T22:00:01.887Z</time></trkpt><trkpt lat="-36.7244114" lon="174.3911719"><ele>116.0</ele><time>2026-04-18T22:00:04.887Z</time></trkpt><trkpt lat="-36.7243453" lon="174.3912231"><ele>116.0</ele><time>2026-04-18T22:00:07.888Z</time></trkpt><trkpt lat="-36.7242839" lon="174.3912993"><ele>116.0</ele><time>2026-04-18T22:00:11.888Z</time></trkpt><trkpt lat="-36.7242704" lon="174.3913924"><ele>115.99999999999999</ele><time>2026-04-18T22:00:14.887Z</time></trkpt><trkpt lat="-36.7242921" lon="174.3914871"><ele>116.0</ele><time>2026-04-18T22:00:16.888Z</time></trkpt><trkpt lat="-36.7243304" lon="174.3915681"><ele>116.33333333333333</ele><time>2026-04-18T22:00:18.887Z</time></trkpt><trkpt lat="-36.7243456" lon="174.3916728"><ele>116.66666666666666</ele><time>2026-04-18T22:00:20.887Z</time></trkpt><trkpt lat="-36.7243329" lon="174.3917754"><ele>117.0</ele><time>2026-04-18T22:00:22.888Z</time></trkpt><trkpt lat="-36.7242847" lon="174.3918644"><ele>117.33333333333334</ele><time>2026-04-18T22:00:24.889Z</time></trkpt><trkpt lat="-36.7242232" lon="174.3919315"><ele>117.66666666666667</ele><time>2026-04-18T22:00:26.887Z</time></trkpt><trkpt lat="-36.7241588" lon="174.3919849"><ele>118.0</ele><time>2026-04-18T22:00:28.889Z</time></trkpt><trkpt lat="-36.7241198" lon="174.3920502"><ele>118.0</ele><time>2026-04-18T22:00:30.887Z</time></trkpt><trkpt lat="-36.7241759" lon="174.3921121"><ele>118.0</ele><time>2026-04-18T22:00:33.887Z</time></trkpt><trkpt lat="-36.724237" lon="174.3920845"><ele>118.0</ele><time>2026-04-18T22:00:35.889Z</time></trkpt><trkpt lat="-36.7242953" lon="174.3920056"><ele>118.0</ele><time>2026-04-18T22:00:38.888Z</time></trkpt><trkpt lat="-36.7243439" lon="174.3919309"><ele>118.0</ele><time>2026-04-18T22:00:41.888Z</time></trkpt><trkpt lat="-36.7243856" lon="174.3918592"><ele>118.0</ele><time>2026-04-18T22:00:43.887Z</time></trkpt><trkpt lat="-36.7244319" lon="174.3917852"><ele>118.0</ele><time>2026-04-18T22:00:45.888Z</time></trkpt><trkpt lat="-36.7245008" lon="174.3917019"><ele>117.66666666666667</ele><time>2026-04-18T22:00:47.887Z</time></trkpt><trkpt lat="-36.724567" lon="174.3916198"><ele>117.33333333333334</ele><time>2026-04-18T22:00:49.887Z</time></trkpt><trkpt lat="-36.7246143" lon="174.3915536"><ele>117.0</ele><time>2026-04-18T22:00:51.887Z</time></trkpt><trkpt lat="-36.7246246" lon="174.3914517"><ele>116.66666666666666</ele><time>2026-04-18T22:00:54.888Z</time></trkpt><trkpt lat="-36.7246864" lon="174.391376"><ele>116.33333333333333</ele><time>2026-04-18T22:00:57.888Z</time></trkpt><trkpt lat="-36.7247514" lon="174.3913354"><ele>116.0</ele><time>2026-04-18T22:00:59.889Z</time></trkpt><trkpt lat="-36.7248322" lon="174.3912922"><ele>115.99999999999999</ele><time>2026-04-18T22:01:02.887Z</time></trkpt><trkpt lat="-36.7248795" lon="174.3912274"><ele>116.0</ele><time>2026-04-18T22:01:04.888Z</time></trkpt><trkpt lat="-36.724941" lon="174.3911482"><ele>116.0</ele><time>2026-04-18T22:01:07.887Z</time></trkpt><trkpt lat="-36.7250336" lon="174.3911707"><ele>116.0</ele><time>2026-04-18T22:01:10.887Z</time></trkpt><trkpt lat="-36.7251039" lon="174.391145"><ele>115.99999999999999</ele><time>2026-04-18T22:01:12.887Z</time></trkpt><trkpt lat="-36.7251581" lon="174.3910677"><ele>116.0</ele><time>2026-04-18T22:01:13.889Z</time></trkpt><trkpt lat="-36.7252326" lon="174.3909855"><ele>112.4</ele><time>2026-04-18T22:01:15.887Z</time></trkpt><trkpt lat="-36.7253363" lon="174.3909776"><ele>108.8</ele><time>2026-04-18T22:01:17.887Z</time></trkpt><trkpt lat="-36.725441" lon="174.3910198"><ele>105.2</ele><time>2026-04-18T22:01:19.888Z</time></trkpt><trkpt lat="-36.7255223" lon="174.3910602"><ele>101.60000000000001</ele><time>2026-04-18T22:01:21.888Z</time></trkpt><trkpt lat="-36.7255674" lon="174.3911267"><ele>98.0</ele><time>2026-04-18T22:01:24.887Z</time></trkpt><trkpt lat="-36.7255601" lon="174.3912311"><ele>97.99999999999999</ele><time>2026-04-18T22:01:27.889Z</time></trkpt><trkpt lat="-36.7255014" lon="174.3913105"><ele>98.0</ele><time>2026-04-18T22:01:30.887Z</time></trkpt><trkpt lat="-36.7254675" lon="174.391377"><ele>98.0</ele><time>2026-04-18T22:01:32.887Z</time></trkpt><trkpt lat="-36.7254367" lon="174.3914503"><ele>98.0</ele><time>2026-04-18T22:01:34.887Z</time></trkpt><trkpt lat="-36.7253242" lon="174.3915322"><ele>97.99999999999999</ele><time>2026-04-18T22:01:37.887Z</time></trkpt><trkpt lat="-36.7252442" lon="174.3915947"><ele>98.0</ele><time>2026-04-18T22:01:38.887Z</time></trkpt><trkpt lat="-36.7251823" lon="174.3916425"><ele>99.2</ele><time>2026-04-18T22:01:39.889Z</time></trkpt><trkpt lat="-36.7251407" lon="174.3917267"><ele>100.4</ele><time>2026-04-18T22:01:41.887Z</time></trkpt><trkpt lat="-36.7251496" lon="174.3918782"><ele>101.60000000000001</ele><time>2026-04-18T22:01:43.887Z</time></trkpt><trkpt lat="-36.7251622" lon="174.3919583"><ele>102.80000000000001</ele><time>2026-04-18T22:01:44.888Z</time></trkpt><trkpt lat="-36.725186" lon="174.3921086"><ele>104.0</ele><time>2026-04-18T22:01:46.887Z</time></trkpt><trkpt lat="-36.7251939" lon="174.3922109"><ele>103.99999999999999</ele><time>2026-04-18T22:01:49.887Z</time></trkpt><trkpt lat="-36.7251576" lon="174.3923052"><ele>104.0</ele><time>2026-04-18T22:01:52.887Z</time></trkpt><trkpt lat="-36.7251225" lon="174.3923844"><ele>104.0</ele><time>2026-04-18T22:01:54.888Z</time></trkpt><trkpt lat="-36.7250945" lon="174.3924556"><ele>104.0</ele><time>2026-04-18T22:01:56.891Z</time></trkpt><trkpt lat="-36.7250634" lon="174.3925296"><ele>103.99999999999999</ele><time>2026-04-18T22:01:58.888Z</time></trkpt><trkpt lat="-36.7250086" lon="174.3925932"><ele>104.0</ele><time>2026-04-18T22:02:00.889Z</time></trkpt><trkpt lat="-36.7249267" lon="174.3926472"><ele>103.99999999999999</ele><time>2026-04-18T22:02:01.9Z</time></trkpt><trkpt lat="-36.7248554" lon="174.3926658"><ele>104.0</ele><time>2026-04-18T22:02:02.888Z</time></trkpt><trkpt lat="-36.7247622" lon="174.3927115"><ele>104.0</ele><time>2026-04-18T22:02:04.889Z</time></trkpt><trkpt lat="-36.724681" lon="174.3927481"><ele>104.0</ele><time>2026-04-18T22:02:06.887Z</time></trkpt><trkpt lat="-36.724707" lon="174.3928329"><ele>103.99999999999999</ele><time>2026-04-18T22:02:12.888Z</time></trkpt><trkpt lat="-36.7247835" lon="174.3928177"><ele>104.0</ele><time>2026-04-18T22:02:16.888Z</time></trkpt><trkpt lat="-36.7248775" lon="174.3927818"><ele>103.99999999999999</ele><time>2026-04-18T22:02:19.887Z</time></trkpt><trkpt lat="-36.7249431" lon="174.3927532"><ele>104.0</ele><time>2026-04-18T22:02:21.887Z</time></trkpt><trkpt lat="-36.7250229" lon="174.3927197"><ele>104.0</ele><time>2026-04-18T22:02:24.888Z</time></trkpt><trkpt lat="-36.7250835" lon="174.392693"><ele>104.0</ele><time>2026-04-18T22:02:27.887Z</time></trkpt><trkpt lat="-36.7251746" lon="174.3926736"><ele>103.99999999999999</ele><time>2026-04-18T22:02:30.887Z</time></trkpt><trkpt lat="-36.7252563" lon="174.3926822"><ele>104.0</ele><time>2026-04-18T22:02:32.887Z</time></trkpt><trkpt lat="-36.7253289" lon="174.3927087"><ele>103.83333333333333</ele><time>2026-04-18T22:02:34.889Z</time></trkpt><trkpt lat="-36.7253969" lon="174.3927821"><ele>103.66666666666666</ele><time>2026-04-18T22:02:37.888Z</time></trkpt><trkpt lat="-36.7254436" lon="174.3928793"><ele>103.5</ele><time>2026-04-18T22:02:40.888Z</time></trkpt><trkpt lat="-36.7254839" lon="174.3929712"><ele>103.33333333333334</ele><time>2026-04-18T22:02:43.888Z</time></trkpt><trkpt lat="-36.7254949" lon="174.3930684"><ele>103.16666666666667</ele><time>2026-04-18T22:02:46.887Z</time></trkpt><trkpt lat="-36.7255664" lon="174.3931247"><ele>103.0</ele><time>2026-04-18T22:03:10.888Z</time></trkpt><trkpt lat="-36.7255026" lon="174.3930771"><ele>102.99999999999999</ele><time>2026-04-18T22:03:17.887Z</time></trkpt><trkpt lat="-36.7254415" lon="174.3930515"><ele>103.0</ele><time>2026-04-18T22:03:21.887Z</time></trkpt><trkpt lat="-36.7253717" lon="174.3930941"><ele>103.0</ele><time>2026-04-18T22:03:27.888Z</time></trkpt><trkpt lat="-36.7252971" lon="174.3930948"><ele>103.0</ele><time>2026-04-18T22:03:33.887Z</time></trkpt><trkpt lat="-36.7252298" lon="174.3931525"><ele>103.0</ele><time>2026-04-18T22:03:36.888Z</time></trkpt><trkpt lat="-36.7251935" lon="174.3932307"><ele>102.99999999999999</ele><time>2026-04-18T22:03:39.887Z</time></trkpt><trkpt lat="-36.7251869" lon="174.3933165"><ele>103.0</ele><time>2026-04-18T22:03:42.888Z</time></trkpt><trkpt lat="-36.7252037" lon="174.3933967"><ele>103.00000000000001</ele><time>2026-04-18T22:03:45.887Z</time></trkpt><trkpt lat="-36.7252675" lon="174.393431"><ele>103.0</ele><time>2026-04-18T22:03:48.887Z</time></trkpt><trkpt lat="-36.7253397" lon="174.3934691"><ele>103.0</ele><time>2026-04-18T22:03:51.888Z</time></trkpt><trkpt lat="-36.7253956" lon="174.3935289"><ele>103.0</ele><time>2026-04-18T22:03:54.888Z</time></trkpt><trkpt lat="-36.7253715" lon="174.3936183"><ele>103.00000000000001</ele><time>2026-04-18T22:03:57.887Z</time></trkpt><trkpt lat="-36.725376" lon="174.3937133"><ele>103.0</ele><time>2026-04-18T22:04:00.888Z</time></trkpt><trkpt lat="-36.7254227" lon="174.3937892"><ele>103.50000000000001</ele><time>2026-04-18T22:04:03.888Z</time></trkpt><trkpt lat="-36.725444" lon="174.3938927"><ele>104.0</ele><time>2026-04-18T22:04:06.887Z</time></trkpt><trkpt lat="-36.7254772" lon="174.3939919"><ele>104.5</ele><time>2026-04-18T22:04:09.887Z</time></trkpt><trkpt lat="-36.7255237" lon="174.3940686"><ele>105.0</ele><time>2026-04-18T22:04:12.888Z</time></trkpt><trkpt lat="-36.7255461" lon="174.3941729"><ele>105.50000000000001</ele><time>2026-04-18T22:04:15.887Z</time></trkpt><trkpt lat="-36.7255524" lon="174.394273"><ele>106.0</ele><time>2026-04-18T22:04:18.887Z</time></trkpt><trkpt lat="-36.7255637" lon="174.3943849"><ele>106.0</ele><time>2026-04-18T22:04:21.887Z</time></trkpt><trkpt lat="-36.7255897" lon="174.3944794"><ele>106.0</ele><time>2026-04-18T22:04:23.887Z</time></trkpt><trkpt lat="-36.7256029" lon="174.3945886"><ele>106.0</ele><time>2026-04-18T22:04:25.888Z</time></trkpt><trkpt lat="-36.7255702" lon="174.3946986"><ele>106.0</ele><time>2026-04-18T22:04:27.887Z</time></trkpt><trkpt lat="-36.7255313" lon="174.3948057"><ele>106.0</ele><time>2026-04-18T22:04:29.887Z</time></trkpt><trkpt lat="-36.7254972" lon="174.394949"><ele>105.8</ele><time>2026-04-18T22:04:31.887Z</time></trkpt><trkpt lat="-36.7254666" lon="174.3950583"><ele>105.6</ele><time>2026-04-18T22:04:33.889Z</time></trkpt><trkpt lat="-36.7253906" lon="174.3951551"><ele>105.4</ele><time>2026-04-18T22:04:35.888Z</time></trkpt><trkpt lat="-36.7253356" lon="174.395281"><ele>105.2</ele><time>2026-04-18T22:04:37.887Z</time></trkpt><trkpt lat="-36.725334" lon="174.3954162"><ele>105.0</ele><time>2026-04-18T22:04:39.888Z</time></trkpt><trkpt lat="-36.7253606" lon="174.3955239"><ele>104.8</ele><time>2026-04-18T22:04:41.887Z</time></trkpt><trkpt lat="-36.7253866" lon="174.3956297"><ele>104.6</ele><time>2026-04-18T22:04:43.888Z</time></trkpt><trkpt lat="-36.7254105" lon="174.3957481"><ele>104.4</ele><time>2026-04-18T22:04:45.888Z</time></trkpt><trkpt lat="-36.7254304" lon="174.3958916"><ele>104.2</ele><time>2026-04-18T22:04:47.889Z</time></trkpt><trkpt lat="-36.7254479" lon="174.39606"><ele>104.0</ele><time>2026-04-18T22:04:49.888Z</time></trkpt><trkpt lat="-36.7254588" lon="174.3961417"><ele>104.0</ele><time>2026-04-18T22:04:50.887Z</time></trkpt><trkpt lat="-36.7254965" lon="174.3962889"><ele>104.0</ele><time>2026-04-18T22:04:52.889Z</time></trkpt><trkpt lat="-36.725515" lon="174.3963712"><ele>104.0</ele><time>2026-04-18T22:04:53.888Z</time></trkpt><trkpt lat="-36.7255797" lon="174.3964941"><ele>104.0</ele><time>2026-04-18T22:04:55.887Z</time></trkpt><trkpt lat="-36.7256636" lon="174.3965439"><ele>104.0</ele><time>2026-04-18T22:04:57.887Z</time></trkpt><trkpt lat="-36.7257656" lon="174.3964763"><ele>104.0</ele><time>2026-04-18T22:04:59.887Z</time></trkpt><trkpt lat="-36.7258429" lon="174.3963677"><ele>104.0</ele><time>2026-04-18T22:05:01.89Z</time></trkpt><trkpt lat="-36.7259011" lon="174.3962353"><ele>104.0</ele><time>2026-04-18T22:05:03.889Z</time></trkpt><trkpt lat="-36.7259704" lon="174.396108"><ele>104.0</ele><time>2026-04-18T22:05:05.888Z</time></trkpt><trkpt lat="-36.7259982" lon="174.3960374"><ele>104.0</ele><time>2026-04-18T22:05:06.888Z</time></trkpt><trkpt lat="-36.7260641" lon="174.3959146"><ele>102.33333333333333</ele><time>2026-04-18T22:05:08.888Z</time></trkpt><trkpt lat="-36.7261114" lon="174.3958614"><ele>100.66666666666666</ele><time>2026-04-18T22:05:09.888Z</time></trkpt><trkpt lat="-36.7261856" lon="174.3958085"><ele>99.0</ele><time>2026-04-18T22:05:11.888Z</time></trkpt><trkpt lat="-36.7262583" lon="174.3957437"><ele>97.33333333333333</ele><time>2026-04-18T22:05:14.887Z</time></trkpt><trkpt lat="-36.7263204" lon="174.3956715"><ele>95.66666666666666</ele><time>2026-04-18T22:05:17.888Z</time></trkpt><trkpt lat="-36.7263819" lon="174.395641"><ele>94.0</ele><time>2026-04-18T22:05:19.887Z</time></trkpt><trkpt lat="-36.726458" lon="174.3955987"><ele>94.0</ele><time>2026-04-18T22:05:21.887Z</time></trkpt><trkpt lat="-36.726518" lon="174.3955526"><ele>94.0</ele><time>2026-04-18T22:05:23.889Z</time></trkpt><trkpt lat="-36.7265676" lon="174.3955001"><ele>94.0</ele><time>2026-04-18T22:05:25.887Z</time></trkpt><trkpt lat="-36.72667" lon="174.3954325"><ele>94.0</ele><time>2026-04-18T22:05:28.887Z</time></trkpt><trkpt lat="-36.7267661" lon="174.3953606"><ele>94.0</ele><time>2026-04-18T22:05:30.887Z</time></trkpt><trkpt lat="-36.7268231" lon="174.395295"><ele>94.0</ele><time>2026-04-18T22:05:32.888Z</time></trkpt><trkpt lat="-36.7268757" lon="174.3952442"><ele>91.33333333333333</ele><time>2026-04-18T22:05:34.887Z</time></trkpt><trkpt lat="-36.7269313" lon="174.3951585"><ele>88.66666666666666</ele><time>2026-04-18T22:05:37.888Z</time></trkpt><trkpt lat="-36.7269671" lon="174.3950888"><ele>86.0</ele><time>2026-04-18T22:05:39.887Z</time></trkpt><trkpt lat="-36.7270155" lon="174.3950237"><ele>83.33333333333333</ele><time>2026-04-18T22:05:41.887Z</time></trkpt><trkpt lat="-36.7270677" lon="174.394969"><ele>80.66666666666667</ele><time>2026-04-18T22:05:43.887Z</time></trkpt><trkpt lat="-36.7271505" lon="174.3949095"><ele>78.0</ele><time>2026-04-18T22:05:46.887Z</time></trkpt><trkpt lat="-36.72723" lon="174.3948897"><ele>78.0</ele><time>2026-04-18T22:05:48.888Z</time></trkpt><trkpt lat="-36.7273206" lon="174.3949157"><ele>78.0</ele><time>2026-04-18T22:05:50.887Z</time></trkpt><trkpt lat="-36.7274317" lon="174.3948529"><ele>78.0</ele><time>2026-04-18T22:05:52.887Z</time></trkpt><trkpt lat="-36.7274993" lon="174.3949029"><ele>78.0</ele><time>2026-04-18T22:05:54.889Z</time></trkpt><trkpt lat="-36.7277051" lon="174.3952978"><ele>77.6</ele><time>2026-04-18T22:05:55.887Z</time></trkpt><trkpt lat="-36.7277955" lon="174.3954025"><ele>77.19999999999999</ele><time>2026-04-18T22:05:57.888Z</time></trkpt><trkpt lat="-36.727886" lon="174.3954909"><ele>76.8</ele><time>2026-04-18T22:05:59.888Z</time></trkpt><trkpt lat="-36.727968" lon="174.3955881"><ele>76.39999999999999</ele><time>2026-04-18T22:06:01.887Z</time></trkpt><trkpt lat="-36.7280237" lon="174.3956344"><ele>76.0</ele><time>2026-04-18T22:06:03.887Z</time></trkpt><trkpt lat="-36.7281039" lon="174.3956918"><ele>76.0</ele><time>2026-04-18T22:06:06.888Z</time></trkpt><trkpt lat="-36.7281859" lon="174.3957195"><ele>76.0</ele><time>2026-04-18T22:06:09.887Z</time></trkpt><trkpt lat="-36.7282571" lon="174.3957173"><ele>76.0</ele><time>2026-04-18T22:06:11.887Z</time></trkpt><trkpt lat="-36.7283411" lon="174.3957571"><ele>76.0</ele><time>2026-04-18T22:06:13.888Z</time></trkpt><trkpt lat="-36.728413" lon="174.3957844"><ele>76.0</ele><time>2026-04-18T22:06:15.887Z</time></trkpt><trkpt lat="-36.7284717" lon="174.3958285"><ele>76.0</ele><time>2026-04-18T22:06:17.887Z</time></trkpt><trkpt lat="-36.7285346" lon="174.3958715"><ele>75.0</ele><time>2026-04-18T22:06:19.887Z</time></trkpt><trkpt lat="-36.7286184" lon="174.3958837"><ele>74.0</ele><time>2026-04-18T22:06:22.887Z</time></trkpt><trkpt lat="-36.7287052" lon="174.3958619"><ele>73.0</ele><time>2026-04-18T22:06:25.887Z</time></trkpt><trkpt lat="-36.7287832" lon="174.3957976"><ele>72.0</ele><time>2026-04-18T22:06:28.887Z</time></trkpt><trkpt lat="-36.7288593" lon="174.3957781"><ele>71.0</ele><time>2026-04-18T22:06:31.888Z</time></trkpt><trkpt lat="-36.7289331" lon="174.3957816"><ele>70.0</ele><time>2026-04-18T22:06:34.888Z</time></trkpt><trkpt lat="-36.7290065" lon="174.3958163"><ele>70.0</ele><time>2026-04-18T22:06:37.887Z</time></trkpt><trkpt lat="-36.7290612" lon="174.3958688"><ele>70.0</ele><time>2026-04-18T22:06:39.887Z</time></trkpt><trkpt lat="-36.7291016" lon="174.3959495"><ele>70.0</ele><time>2026-04-18T22:06:41.887Z</time></trkpt><trkpt lat="-36.7291153" lon="174.3960379"><ele>70.0</ele><time>2026-04-18T22:06:43.887Z</time></trkpt><trkpt lat="-36.7291386" lon="174.3961205"><ele>70.0</ele><time>2026-04-18T22:06:45.887Z</time></trkpt><trkpt lat="-36.7291492" lon="174.3962277"><ele>70.0</ele><time>2026-04-18T22:06:48.888Z</time></trkpt><trkpt lat="-36.7290946" lon="174.3963098"><ele>72.8</ele><time>2026-04-18T22:06:51.887Z</time></trkpt><trkpt lat="-36.7290275" lon="174.3963853"><ele>75.6</ele><time>2026-04-18T22:06:54.887Z</time></trkpt><trkpt lat="-36.7289626" lon="174.3964657"><ele>78.4</ele><time>2026-04-18T22:06:57.888Z</time></trkpt><trkpt lat="-36.7289009" lon="174.3965472"><ele>81.2</ele><time>2026-04-18T22:07:00.888Z</time></trkpt><trkpt lat="-36.7288241" lon="174.3966118"><ele>84.0</ele><time>2026-04-18T22:07:03.889Z</time></trkpt><trkpt lat="-36.7287463" lon="174.3966692"><ele>84.0</ele><time>2026-04-18T22:07:06.888Z</time></trkpt><trkpt lat="-36.7286809" lon="174.3966961"><ele>84.0</ele><time>2026-04-18T22:07:09.887Z</time></trkpt><trkpt lat="-36.7287388" lon="174.3967614"><ele>84.0</ele><time>2026-04-18T22:07:14.888Z</time></trkpt><trkpt lat="-36.7287969" lon="174.3967923"><ele>84.0</ele><time>2026-04-18T22:07:16.887Z</time></trkpt><trkpt lat="-36.7288569" lon="174.3968284"><ele>84.0</ele><time>2026-04-18T22:07:18.888Z</time></trkpt><trkpt lat="-36.7289211" lon="174.3968722"><ele>84.0</ele><time>2026-04-18T22:07:20.888Z</time></trkpt><trkpt lat="-36.7289821" lon="174.3969113"><ele>84.0</ele><time>2026-04-18T22:07:22.888Z</time></trkpt><trkpt lat="-36.7290184" lon="174.3969852"><ele>84.0</ele><time>2026-04-18T22:07:25.887Z</time></trkpt><trkpt lat="-36.7290108" lon="174.3970639"><ele>84.0</ele><time>2026-04-18T22:07:30.887Z</time></trkpt><trkpt lat="-36.7289623" lon="174.3971574"><ele>84.0</ele><time>2026-04-18T22:07:34.888Z</time></trkpt><trkpt lat="-36.7289081" lon="174.3972301"><ele>84.0</ele><time>2026-04-18T22:07:36.887Z</time></trkpt><trkpt lat="-36.7288381" lon="174.3972681"><ele>84.0</ele><time>2026-04-18T22:07:38.887Z</time></trkpt><trkpt lat="-36.7288053" lon="174.3973553"><ele>84.0</ele><time>2026-04-18T22:07:40.888Z</time></trkpt><trkpt lat="-36.7288234" lon="174.3974347"><ele>85.66666666666667</ele><time>2026-04-18T22:07:42.887Z</time></trkpt><trkpt lat="-36.7288085" lon="174.3975295"><ele>87.33333333333333</ele><time>2026-04-18T22:07:45.887Z</time></trkpt><trkpt lat="-36.7287933" lon="174.3976166"><ele>89.0</ele><time>2026-04-18T22:07:49.887Z</time></trkpt><trkpt lat="-36.7288642" lon="174.3976707"><ele>90.66666666666666</ele><time>2026-04-18T22:07:52.888Z</time></trkpt><trkpt lat="-36.7289257" lon="174.3977033"><ele>92.33333333333333</ele><time>2026-04-18T22:07:54.888Z</time></trkpt><trkpt lat="-36.7290075" lon="174.3977523"><ele>94.0</ele><time>2026-04-18T22:07:56.888Z</time></trkpt><trkpt lat="-36.7290799" lon="174.3977904"><ele>94.0</ele><time>2026-04-18T22:07:58.888Z</time></trkpt><trkpt lat="-36.7291478" lon="174.3978502"><ele>94.0</ele><time>2026-04-18T22:08:00.888Z</time></trkpt><trkpt lat="-36.7292106" lon="174.3979125"><ele>94.0</ele><time>2026-04-18T22:08:02.888Z</time></trkpt><trkpt lat="-36.7292807" lon="174.397961"><ele>94.0</ele><time>2026-04-18T22:08:04.887Z</time></trkpt><trkpt lat="-36.7293579" lon="174.3980112"><ele>94.0</ele><time>2026-04-18T22:08:06.888Z</time></trkpt><trkpt lat="-36.7294232" lon="174.3980712"><ele>94.0</ele><time>2026-04-18T22:08:08.888Z</time></trkpt><trkpt lat="-36.7294813" lon="174.3981144"><ele>95.16666666666666</ele><time>2026-04-18T22:08:10.887Z</time></trkpt><trkpt lat="-36.7295792" lon="174.3981317"><ele>96.33333333333333</ele><time>2026-04-18T22:08:13.888Z</time></trkpt><trkpt lat="-36.7296521" lon="174.3981688"><ele>97.5</ele><time>2026-04-18T22:08:15.887Z</time></trkpt><trkpt lat="-36.7297268" lon="174.3981939"><ele>98.66666666666666</ele><time>2026-04-18T22:08:17.888Z</time></trkpt><trkpt lat="-36.7297997" lon="174.398244"><ele>99.83333333333333</ele><time>2026-04-18T22:08:19.888Z</time></trkpt><trkpt lat="-36.7298758" lon="174.39829"><ele>101.0</ele><time>2026-04-18T22:08:21.887Z</time></trkpt><trkpt lat="-36.7299572" lon="174.3983167"><ele>100.99999999999999</ele><time>2026-04-18T22:08:23.888Z</time></trkpt><trkpt lat="-36.730033" lon="174.3983522"><ele>101.0</ele><time>2026-04-18T22:08:25.888Z</time></trkpt><trkpt lat="-36.7300872" lon="174.3984005"><ele>101.0</ele><time>2026-04-18T22:08:27.888Z</time></trkpt><trkpt lat="-36.7301338" lon="174.3984553"><ele>101.0</ele><time>2026-04-18T22:08:29.889Z</time></trkpt><trkpt lat="-36.7302242" lon="174.3984592"><ele>100.99999999999999</ele><time>2026-04-18T22:08:32.888Z</time></trkpt><trkpt lat="-36.7302884" lon="174.3985017"><ele>101.0</ele><time>2026-04-18T22:08:34.887Z</time></trkpt><trkpt lat="-36.7303376" lon="174.3985788"><ele>101.99999999999999</ele><time>2026-04-18T22:08:36.888Z</time></trkpt><trkpt lat="-36.7303879" lon="174.3986542"><ele>103.0</ele><time>2026-04-18T22:08:38.887Z</time></trkpt><trkpt lat="-36.7304598" lon="174.3986766"><ele>104.0</ele><time>2026-04-18T22:08:40.889Z</time></trkpt><trkpt lat="-36.730522" lon="174.3987696"><ele>105.0</ele><time>2026-04-18T22:08:43.887Z</time></trkpt><trkpt lat="-36.7305795" lon="174.3988525"><ele>105.99999999999999</ele><time>2026-04-18T22:08:46.889Z</time></trkpt><trkpt lat="-36.7306438" lon="174.3988603"><ele>107.0</ele><time>2026-04-18T22:08:49.887Z</time></trkpt><trkpt lat="-36.7306506" lon="174.3987737"><ele>107.00000000000001</ele><time>2026-04-18T22:08:52.888Z</time></trkpt><trkpt lat="-36.7306715" lon="174.3986628"><ele>107.0</ele><time>2026-04-18T22:08:55.887Z</time></trkpt><trkpt lat="-36.7307382" lon="174.3986289"><ele>107.0</ele><time>2026-04-18T22:08:58.887Z</time></trkpt><trkpt lat="-36.7307816" lon="174.3986972"><ele>107.0</ele><time>2026-04-18T22:09:01.888Z</time></trkpt><trkpt lat="-36.7308145" lon="174.3987746"><ele>107.0</ele><time>2026-04-18T22:09:04.888Z</time></trkpt><trkpt lat="-36.7308873" lon="174.398749"><ele>107.00000000000001</ele><time>2026-04-18T22:09:07.887Z</time></trkpt><trkpt lat="-36.7309482" lon="174.3987908"><ele>107.0</ele><time>2026-04-18T22:09:11.887Z</time></trkpt><trkpt lat="-36.7310128" lon="174.3987846"><ele>107.49999999999999</ele><time>2026-04-18T22:09:13.887Z</time></trkpt><trkpt lat="-36.7310637" lon="174.3987268"><ele>108.0</ele><time>2026-04-18T22:09:15.888Z</time></trkpt><trkpt lat="-36.7311084" lon="174.3986382"><ele>108.5</ele><time>2026-04-18T22:09:18.887Z</time></trkpt><trkpt lat="-36.7311749" lon="174.3985931"><ele>109.0</ele><time>2026-04-18T22:09:21.888Z</time></trkpt><trkpt lat="-36.7312484" lon="174.3985978"><ele>109.49999999999999</ele><time>2026-04-18T22:09:23.888Z</time></trkpt><trkpt lat="-36.7313195" lon="174.3985864"><ele>110.0</ele><time>2026-04-18T22:09:25.888Z</time></trkpt><trkpt lat="-36.7313943" lon="174.3985653"><ele>109.99999999999999</ele><time>2026-04-18T22:09:27.888Z</time></trkpt><trkpt lat="-36.7314553" lon="174.3985179"><ele>110.0</ele><time>2026-04-18T22:09:29.888Z</time></trkpt><trkpt lat="-36.7315185" lon="174.3984819"><ele>110.0</ele><time>2026-04-18T22:09:31.887Z</time></trkpt><trkpt lat="-36.7315955" lon="174.398464"><ele>110.0</ele><time>2026-04-18T22:09:33.888Z</time></trkpt><trkpt lat="-36.7316957" lon="174.3984921"><ele>109.99999999999999</ele><time>2026-04-18T22:09:35.887Z</time></trkpt><trkpt lat="-36.7317826" lon="174.3985123"><ele>110.0</ele><time>2026-04-18T22:09:37.888Z</time></trkpt><trkpt lat="-36.7318674" lon="174.3985188"><ele>111.33333333333333</ele><time>2026-04-18T22:09:39.889Z</time></trkpt><trkpt lat="-36.7319594" lon="174.3985145"><ele>112.66666666666666</ele><time>2026-04-18T22:09:41.887Z</time></trkpt><trkpt lat="-36.7320432" lon="174.398515"><ele>114.0</ele><time>2026-04-18T22:09:43.888Z</time></trkpt><trkpt lat="-36.7321145" lon="174.3985339"><ele>115.33333333333334</ele><time>2026-04-18T22:09:45.887Z</time></trkpt><trkpt lat="-36.7321835" lon="174.3985596"><ele>116.66666666666667</ele><time>2026-04-18T22:09:47.888Z</time></trkpt><trkpt lat="-36.73225" lon="174.3985816"><ele>118.0</ele><time>2026-04-18T22:09:49.888Z</time></trkpt><trkpt lat="-36.7323348" lon="174.3985995"><ele>118.00000000000001</ele><time>2026-04-18T22:09:51.888Z</time></trkpt><trkpt lat="-36.7324125" lon="174.3986282"><ele>118.0</ele><time>2026-04-18T22:09:53.887Z</time></trkpt><trkpt lat="-36.7324735" lon="174.398657"><ele>118.0</ele><time>2026-04-18T22:09:55.887Z</time></trkpt><trkpt lat="-36.7325511" lon="174.3986781"><ele>118.0</ele><time>2026-04-18T22:09:57.888Z</time></trkpt><trkpt lat="-36.732641" lon="174.398717"><ele>118.00000000000001</ele><time>2026-04-18T22:09:59.887Z</time></trkpt><trkpt lat="-36.7327381" lon="174.3987848"><ele>118.0</ele><time>2026-04-18T22:10:01.887Z</time></trkpt><trkpt lat="-36.7328208" lon="174.3988443"><ele>117.60000000000001</ele><time>2026-04-18T22:10:03.887Z</time></trkpt><trkpt lat="-36.7328976" lon="174.3989411"><ele>117.20000000000002</ele><time>2026-04-18T22:10:05.888Z</time></trkpt><trkpt lat="-36.732977" lon="174.3990119"><ele>116.8</ele><time>2026-04-18T22:10:07.887Z</time></trkpt><trkpt lat="-36.7330501" lon="174.3990795"><ele>116.4</ele><time>2026-04-18T22:10:09.887Z</time></trkpt><trkpt lat="-36.7331288" lon="174.39918"><ele>116.0</ele><time>2026-04-18T22:10:11.888Z</time></trkpt><trkpt lat="-36.7331546" lon="174.3993141"><ele>116.0</ele><time>2026-04-18T22:10:13.888Z</time></trkpt><trkpt lat="-36.733153" lon="174.3994822"><ele>116.0</ele><time>2026-04-18T22:10:15.888Z</time></trkpt><trkpt lat="-36.7331818" lon="174.3996287"><ele>116.0</ele><time>2026-04-18T22:10:17.888Z</time></trkpt><trkpt lat="-36.7331939" lon="174.3997065"><ele>116.0</ele><time>2026-04-18T22:10:18.887Z</time></trkpt><trkpt lat="-36.7332077" lon="174.3998515"><ele>116.0</ele><time>2026-04-18T22:10:20.887Z</time></trkpt><trkpt lat="-36.7332296" lon="174.3999305"><ele>115.0</ele><time>2026-04-18T22:10:21.887Z</time></trkpt><trkpt lat="-36.7333245" lon="174.3999958"><ele>114.0</ele><time>2026-04-18T22:10:23.887Z</time></trkpt><trkpt lat="-36.7333883" lon="174.4000205"><ele>113.0</ele><time>2026-04-18T22:10:24.888Z</time></trkpt><trkpt lat="-36.7334823" lon="174.4000873"><ele>112.0</ele><time>2026-04-18T22:10:26.887Z</time></trkpt><trkpt lat="-36.7335791" lon="174.4001576"><ele>111.0</ele><time>2026-04-18T22:10:28.887Z</time></trkpt><trkpt lat="-36.7336573" lon="174.4002032"><ele>110.83333333333333</ele><time>2026-04-18T22:10:30.889Z</time></trkpt><trkpt lat="-36.7337332" lon="174.4002274"><ele>110.66666666666666</ele><time>2026-04-18T22:10:32.888Z</time></trkpt><trkpt lat="-36.7338051" lon="174.4002265"><ele>110.5</ele><time>2026-04-18T22:10:34.888Z</time></trkpt><trkpt lat="-36.7338919" lon="174.4002351"><ele>110.33333333333333</ele><time>2026-04-18T22:10:36.888Z</time></trkpt><trkpt lat="-36.7339588" lon="174.4002623"><ele>110.16666666666666</ele><time>2026-04-18T22:10:38.888Z</time></trkpt><trkpt lat="-36.7340224" lon="174.4002931"><ele>110.0</ele><time>2026-04-18T22:10:40.887Z</time></trkpt><trkpt lat="-36.7340969" lon="174.4003661"><ele>109.99999999999999</ele><time>2026-04-18T22:10:43.887Z</time></trkpt><trkpt lat="-36.7341535" lon="174.4004328"><ele>110.0</ele><time>2026-04-18T22:10:45.888Z</time></trkpt><trkpt lat="-36.7341957" lon="174.4004977"><ele>110.0</ele><time>2026-04-18T22:10:47.889Z</time></trkpt><trkpt lat="-36.7342339" lon="174.4005986"><ele>110.0</ele><time>2026-04-18T22:10:49.887Z</time></trkpt><trkpt lat="-36.7342408" lon="174.4007007"><ele>109.99999999999999</ele><time>2026-04-18T22:10:50.887Z</time></trkpt><trkpt lat="-36.734234" lon="174.4007869"><ele>110.0</ele><time>2026-04-18T22:10:51.887Z</time></trkpt><trkpt lat="-36.7342119" lon="174.4009259"><ele>109.8</ele><time>2026-04-18T22:10:53.888Z</time></trkpt><trkpt lat="-36.7341882" lon="174.4010126"><ele>109.6</ele><time>2026-04-18T22:10:54.888Z</time></trkpt><trkpt lat="-36.7341513" lon="174.4010921"><ele>109.4</ele><time>2026-04-18T22:10:55.889Z</time></trkpt><trkpt lat="-36.7341158" lon="174.4012412"><ele>109.2</ele><time>2026-04-18T22:10:57.887Z</time></trkpt><trkpt lat="-36.7340739" lon="174.4013744"><ele>109.0</ele><time>2026-04-18T22:10:59.887Z</time></trkpt><trkpt lat="-36.7340542" lon="174.4014528"><ele>109.4</ele><time>2026-04-18T22:11:00.888Z</time></trkpt><trkpt lat="-36.7340124" lon="174.4015935"><ele>109.80000000000001</ele><time>2026-04-18T22:11:02.888Z</time></trkpt><trkpt lat="-36.7339725" lon="174.4017405"><ele>110.19999999999999</ele><time>2026-04-18T22:11:04.888Z</time></trkpt><trkpt lat="-36.7339724" lon="174.4018212"><ele>110.6</ele><time>2026-04-18T22:11:05.887Z</time></trkpt><trkpt lat="-36.7339452" lon="174.4019526"><ele>111.0</ele><time>2026-04-18T22:11:07.889Z</time></trkpt><trkpt lat="-36.7339709" lon="174.4020643"><ele>112.19999999999999</ele><time>2026-04-18T22:11:09.888Z</time></trkpt><trkpt lat="-36.7340078" lon="174.4021915"><ele>113.39999999999999</ele><time>2026-04-18T22:11:11.888Z</time></trkpt><trkpt lat="-36.7340534" lon="174.4022941"><ele>114.6</ele><time>2026-04-18T22:11:13.888Z</time></trkpt><trkpt lat="-36.7341117" lon="174.4024076"><ele>115.8</ele><time>2026-04-18T22:11:15.888Z</time></trkpt><trkpt lat="-36.7341394" lon="174.4024801"><ele>117.0</ele><time>2026-04-18T22:11:16.888Z</time></trkpt><trkpt lat="-36.7341558" lon="174.4026026"><ele>117.0</ele><time>2026-04-18T22:11:18.888Z</time></trkpt><trkpt lat="-36.7341295" lon="174.402735"><ele>116.99999999999999</ele><time>2026-04-18T22:11:20.887Z</time></trkpt><trkpt lat="-36.7340986" lon="174.40281"><ele>116.99999999999999</ele><time>2026-04-18T22:11:21.887Z</time></trkpt><trkpt lat="-36.7340866" lon="174.4029528"><ele>117.0</ele><time>2026-04-18T22:11:23.887Z</time></trkpt><trkpt lat="-36.734125" lon="174.4030822"><ele>117.0</ele><time>2026-04-18T22:11:25.888Z</time></trkpt><trkpt lat="-36.7341761" lon="174.4031915"><ele>118.19999999999999</ele><time>2026-04-18T22:11:27.888Z</time></trkpt><trkpt lat="-36.7342415" lon="174.4032959"><ele>119.39999999999999</ele><time>2026-04-18T22:11:29.888Z</time></trkpt><trkpt lat="-36.7342723" lon="174.4034127"><ele>120.60000000000001</ele><time>2026-04-18T22:11:31.887Z</time></trkpt><trkpt lat="-36.7342758" lon="174.4035361"><ele>121.80000000000001</ele><time>2026-04-18T22:11:33.887Z</time></trkpt><trkpt lat="-36.7342301" lon="174.4036592"><ele>123.0</ele><time>2026-04-18T22:11:36.888Z</time></trkpt><trkpt lat="-36.7341438" lon="174.403791"><ele>123.5</ele><time>2026-04-18T22:11:38.888Z</time></trkpt><trkpt lat="-36.7341036" lon="174.4038988"><ele>124.0</ele><time>2026-04-18T22:11:40.887Z</time></trkpt><trkpt lat="-36.7341102" lon="174.4040245"><ele>124.5</ele><time>2026-04-18T22:11:42.889Z</time></trkpt><trkpt lat="-36.7341244" lon="174.4041292"><ele>125.0</ele><time>2026-04-18T22:11:44.888Z</time></trkpt><trkpt lat="-36.7341643" lon="174.4042229"><ele>125.5</ele><time>2026-04-18T22:11:46.888Z</time></trkpt><trkpt lat="-36.7342198" lon="174.4042773"><ele>126.0</ele><time>2026-04-18T22:11:48.887Z</time></trkpt><trkpt lat="-36.7342825" lon="174.4043479"><ele>126.0</ele><time>2026-04-18T22:11:50.889Z</time></trkpt><trkpt lat="-36.7343195" lon="174.4044267"><ele>126.0</ele><time>2026-04-18T22:11:52.887Z</time></trkpt><trkpt lat="-36.7343193" lon="174.4045169"><ele>126.0</ele><time>2026-04-18T22:11:55.888Z</time></trkpt><trkpt lat="-36.7343415" lon="174.4045912"><ele>126.0</ele><time>2026-04-18T22:11:58.888Z</time></trkpt><trkpt lat="-36.7344289" lon="174.4046279"><ele>126.0</ele><time>2026-04-18T22:12:01.887Z</time></trkpt><trkpt lat="-36.7344883" lon="174.4046651"><ele>126.0</ele><time>2026-04-18T22:12:03.887Z</time></trkpt><trkpt lat="-36.7345734" lon="174.4046993"><ele>125.28571428571428</ele><time>2026-04-18T22:12:06.889Z</time></trkpt><trkpt lat="-36.7346273" lon="174.4047405"><ele>124.57142857142857</ele><time>2026-04-18T22:12:08.889Z</time></trkpt><trkpt lat="-36.7346392" lon="174.4048266"><ele>123.85714285714286</ele><time>2026-04-18T22:12:10.887Z</time></trkpt><trkpt lat="-36.734623" lon="174.4049139"><ele>123.14285714285714</ele><time>2026-04-18T22:12:12.888Z</time></trkpt><trkpt lat="-36.7346337" lon="174.4049994"><ele>122.42857142857142</ele><time>2026-04-18T22:12:14.887Z</time></trkpt><trkpt lat="-36.7346668" lon="174.4051071"><ele>121.71428571428571</ele><time>2026-04-18T22:12:16.889Z</time></trkpt><trkpt lat="-36.734672" lon="174.4051978"><ele>121.0</ele><time>2026-04-18T22:12:18.887Z</time></trkpt><trkpt lat="-36.7346955" lon="174.4052889"><ele>121.00000000000001</ele><time>2026-04-18T22:12:22.887Z</time></trkpt><trkpt lat="-36.7346863" lon="174.4053671"><ele>121.0</ele><time>2026-04-18T22:12:26.887Z</time></trkpt><trkpt lat="-36.7346263" lon="174.4054294"><ele>121.0</ele><time>2026-04-18T22:12:30.887Z</time></trkpt><trkpt lat="-36.7346314" lon="174.4055236"><ele>121.0</ele><time>2026-04-18T22:12:32.888Z</time></trkpt><trkpt lat="-36.7346684" lon="174.405634"><ele>121.00000000000001</ele><time>2026-04-18T22:12:34.887Z</time></trkpt><trkpt lat="-36.7347122" lon="174.4057568"><ele>121.0</ele><time>2026-04-18T22:12:36.888Z</time></trkpt><trkpt lat="-36.7347844" lon="174.405888"><ele>120.83333333333334</ele><time>2026-04-18T22:12:38.887Z</time></trkpt><trkpt lat="-36.7348059" lon="174.4059849"><ele>120.66666666666667</ele><time>2026-04-18T22:12:39.887Z</time></trkpt><trkpt lat="-36.734894" lon="174.4061059"><ele>120.5</ele><time>2026-04-18T22:12:41.889Z</time></trkpt><trkpt lat="-36.7349661" lon="174.4061574"><ele>120.33333333333334</ele><time>2026-04-18T22:12:42.889Z</time></trkpt><trkpt lat="-36.7350423" lon="174.406177"><ele>120.16666666666667</ele><time>2026-04-18T22:12:43.887Z</time></trkpt><trkpt lat="-36.7351052" lon="174.4062062"><ele>120.0</ele><time>2026-04-18T22:12:44.888Z</time></trkpt><trkpt lat="-36.7351652" lon="174.4062318"><ele>120.0</ele><time>2026-04-18T22:12:45.887Z</time></trkpt><trkpt lat="-36.7352308" lon="174.4062366"><ele>120.0</ele><time>2026-04-18T22:12:46.888Z</time></trkpt><trkpt lat="-36.7353006" lon="174.4062239"><ele>120.0</ele><time>2026-04-18T22:12:47.888Z</time></trkpt><trkpt lat="-36.7353683" lon="174.4062264"><ele>120.0</ele><time>2026-04-18T22:12:48.888Z</time></trkpt><trkpt lat="-36.7354667" lon="174.406305"><ele>120.0</ele><time>2026-04-18T22:12:50.888Z</time></trkpt><trkpt lat="-36.7355194" lon="174.4064193"><ele>120.0</ele><time>2026-04-18T22:12:52.887Z</time></trkpt><trkpt lat="-36.7355306" lon="174.4065665"><ele>121.0</ele><time>2026-04-18T22:12:54.887Z</time></trkpt><trkpt lat="-36.735545" lon="174.4067109"><ele>122.0</ele><time>2026-04-18T22:12:56.888Z</time></trkpt><trkpt lat="-36.7355644" lon="174.4067865"><ele>123.0</ele><time>2026-04-18T22:12:57.887Z</time></trkpt><trkpt lat="-36.7355701" lon="174.4068699"><ele>124.0</ele><time>2026-04-18T22:12:58.888Z</time></trkpt><trkpt lat="-36.7355799" lon="174.4070183"><ele>125.0</ele><time>2026-04-18T22:13:00.887Z</time></trkpt><trkpt lat="-36.7355959" lon="174.4071601"><ele>125.2</ele><time>2026-04-18T22:13:02.887Z</time></trkpt><trkpt lat="-36.7356189" lon="174.407304"><ele>125.4</ele><time>2026-04-18T22:13:04.888Z</time></trkpt><trkpt lat="-36.7356212" lon="174.407387"><ele>125.6</ele><time>2026-04-18T22:13:05.887Z</time></trkpt><trkpt lat="-36.7356318" lon="174.4075279"><ele>125.8</ele><time>2026-04-18T22:13:07.888Z</time></trkpt><trkpt lat="-36.7356367" lon="174.4076788"><ele>126.0</ele><time>2026-04-18T22:13:09.887Z</time></trkpt><trkpt lat="-36.7356248" lon="174.4078198"><ele>126.0</ele><time>2026-04-18T22:13:11.887Z</time></trkpt><trkpt lat="-36.7356133" lon="174.4079112"><ele>126.0</ele><time>2026-04-18T22:13:12.887Z</time></trkpt><trkpt lat="-36.7355934" lon="174.4080654"><ele>126.0</ele><time>2026-04-18T22:13:14.887Z</time></trkpt><trkpt lat="-36.7356069" lon="174.4082007"><ele>126.0</ele><time>2026-04-18T22:13:16.887Z</time></trkpt><trkpt lat="-36.7356026" lon="174.4083549"><ele>126.0</ele><time>2026-04-18T22:13:18.888Z</time></trkpt><trkpt lat="-36.735602" lon="174.4084514"><ele>125.4</ele><time>2026-04-18T22:13:19.888Z</time></trkpt><trkpt lat="-36.7355798" lon="174.4085282"><ele>124.8</ele><time>2026-04-18T22:13:20.888Z</time></trkpt><trkpt lat="-36.7355328" lon="174.4086428"><ele>124.20000000000002</ele><time>2026-04-18T22:13:22.887Z</time></trkpt><trkpt lat="-36.7354526" lon="174.408747"><ele>123.60000000000001</ele><time>2026-04-18T22:13:24.887Z</time></trkpt><trkpt lat="-36.735396" lon="174.4088505"><ele>123.0</ele><time>2026-04-18T22:13:26.887Z</time></trkpt><trkpt lat="-36.7353918" lon="174.4089392"><ele>123.85714285714288</ele><time>2026-04-18T22:13:28.887Z</time></trkpt><trkpt lat="-36.7353879" lon="174.4090375"><ele>124.71428571428572</ele><time>2026-04-18T22:13:30.888Z</time></trkpt><trkpt lat="-36.7353909" lon="174.4091222"><ele>125.57142857142857</ele><time>2026-04-18T22:13:32.888Z</time></trkpt><trkpt lat="-36.7353851" lon="174.4092291"><ele>126.42857142857143</ele><time>2026-04-18T22:13:35.887Z</time></trkpt><trkpt lat="-36.7353719" lon="174.4093208"><ele>127.28571428571428</ele><time>2026-04-18T22:13:38.889Z</time></trkpt><trkpt lat="-36.7353584" lon="174.4094132"><ele>128.14285714285714</ele><time>2026-04-18T22:13:40.887Z</time></trkpt><trkpt lat="-36.7353424" lon="174.4094904"><ele>129.0</ele><time>2026-04-18T22:13:42.887Z</time></trkpt><trkpt lat="-36.7353396" lon="174.4096018"><ele>129.28571428571428</ele><time>2026-04-18T22:13:45.887Z</time></trkpt><trkpt lat="-36.7353208" lon="174.4096773"><ele>129.57142857142856</ele><time>2026-04-18T22:13:47.887Z</time></trkpt><trkpt lat="-36.735305" lon="174.4097756"><ele>129.85714285714286</ele><time>2026-04-18T22:13:50.887Z</time></trkpt><trkpt lat="-36.7352934" lon="174.4098572"><ele>130.14285714285714</ele><time>2026-04-18T22:13:52.887Z</time></trkpt><trkpt lat="-36.7352856" lon="174.4099412"><ele>130.42857142857144</ele><time>2026-04-18T22:13:54.887Z</time></trkpt><trkpt lat="-36.7352742" lon="174.4100225"><ele>130.71428571428572</ele><time>2026-04-18T22:13:56.888Z</time></trkpt><trkpt lat="-36.7352495" lon="174.410097"><ele>131.0</ele><time>2026-04-18T22:13:58.887Z</time></trkpt><trkpt lat="-36.7352048" lon="174.410157"><ele>129.83333333333331</ele><time>2026-04-18T22:14:00.887Z</time></trkpt><trkpt lat="-36.7351347" lon="174.4102306"><ele>128.66666666666666</ele><time>2026-04-18T22:14:03.889Z</time></trkpt><trkpt lat="-36.7350666" lon="174.4102656"><ele>127.5</ele><time>2026-04-18T22:14:05.888Z</time></trkpt><trkpt lat="-36.7349917" lon="174.4102884"><ele>126.33333333333334</ele><time>2026-04-18T22:14:07.888Z</time></trkpt><trkpt lat="-36.7349059" lon="174.4102933"><ele>125.16666666666667</ele><time>2026-04-18T22:14:09.887Z</time></trkpt><trkpt lat="-36.7348198" lon="174.4103002"><ele>124.0</ele><time>2026-04-18T22:14:11.887Z</time></trkpt><trkpt lat="-36.7347339" lon="174.4103186"><ele>124.00000000000001</ele><time>2026-04-18T22:14:13.888Z</time></trkpt><trkpt lat="-36.7346342" lon="174.4103591"><ele>124.0</ele><time>2026-04-18T22:14:15.887Z</time></trkpt><trkpt lat="-36.7345565" lon="174.4103661"><ele>124.0</ele><time>2026-04-18T22:14:17.888Z</time></trkpt><trkpt lat="-36.7344752" lon="174.4103622"><ele>124.0</ele><time>2026-04-18T22:14:19.888Z</time></trkpt><trkpt lat="-36.7344114" lon="174.4103624"><ele>124.00000000000001</ele><time>2026-04-18T22:14:21.887Z</time></trkpt><trkpt lat="-36.7343407" lon="174.4103874"><ele>124.0</ele><time>2026-04-18T22:14:24.887Z</time></trkpt><trkpt lat="-36.7342846" lon="174.4104485"><ele>124.00000000000001</ele><time>2026-04-18T22:14:28.887Z</time></trkpt><trkpt lat="-36.7342742" lon="174.4105451"><ele>124.0</ele><time>2026-04-18T22:14:31.888Z</time></trkpt><trkpt lat="-36.7342508" lon="174.410635"><ele>124.0</ele><time>2026-04-18T22:14:34.887Z</time></trkpt><trkpt lat="-36.7342528" lon="174.4107153"><ele>124.0</ele><time>2026-04-18T22:14:37.888Z</time></trkpt><trkpt lat="-36.734175" lon="174.4107024"><ele>124.00000000000001</ele><time>2026-04-18T22:14:41.887Z</time></trkpt><trkpt lat="-36.7341149" lon="174.4106374"><ele>124.0</ele><time>2026-04-18T22:14:43.887Z</time></trkpt><trkpt lat="-36.7340674" lon="174.4105541"><ele>124.00000000000001</ele><time>2026-04-18T22:14:44.888Z</time></trkpt><trkpt lat="-36.7339801" lon="174.4105471"><ele>124.0</ele><time>2026-04-18T22:14:46.887Z</time></trkpt><trkpt lat="-36.7338896" lon="174.4105927"><ele>124.0</ele><time>2026-04-18T22:14:48.888Z</time></trkpt><trkpt lat="-36.733812" lon="174.4106011"><ele>124.0</ele><time>2026-04-18T22:14:51.888Z</time></trkpt><trkpt lat="-36.7337368" lon="174.4105437"><ele>124.00000000000001</ele><time>2026-04-18T22:14:53.889Z</time></trkpt><trkpt lat="-36.7336565" lon="174.4105147"><ele>124.0</ele><time>2026-04-18T22:14:55.888Z</time></trkpt><trkpt lat="-36.7335861" lon="174.4105486"><ele>124.33333333333334</ele><time>2026-04-18T22:14:57.887Z</time></trkpt><trkpt lat="-36.7335553" lon="174.4106194"><ele>124.66666666666667</ele><time>2026-04-18T22:14:59.887Z</time></trkpt><trkpt lat="-36.7335173" lon="174.4107029"><ele>125.0</ele><time>2026-04-18T22:15:02.887Z</time></trkpt><trkpt lat="-36.7334437" lon="174.4107516"><ele>125.33333333333334</ele><time>2026-04-18T22:15:05.888Z</time></trkpt><trkpt lat="-36.733356" lon="174.4107679"><ele>125.66666666666667</ele><time>2026-04-18T22:15:08.889Z</time></trkpt><trkpt lat="-36.7332996" lon="174.4106926"><ele>126.0</ele><time>2026-04-18T22:15:11.889Z</time></trkpt><trkpt lat="-36.73326" lon="174.4106307"><ele>126.0</ele><time>2026-04-18T22:15:14.888Z</time></trkpt><trkpt lat="-36.733206" lon="174.4107036"><ele>126.0</ele><time>2026-04-18T22:15:18.887Z</time></trkpt><trkpt lat="-36.7331231" lon="174.410728"><ele>126.0</ele><time>2026-04-18T22:15:21.887Z</time></trkpt><trkpt lat="-36.733051" lon="174.4107152"><ele>126.0</ele><time>2026-04-18T22:15:24.887Z</time></trkpt><trkpt lat="-36.7330903" lon="174.410637"><ele>126.0</ele><time>2026-04-18T22:15:29.887Z</time></trkpt><trkpt lat="-36.7331344" lon="174.4105504"><ele>126.0</ele><time>2026-04-18T22:15:32.887Z</time></trkpt><trkpt lat="-36.7331449" lon="174.4104589"><ele>126.0</ele><time>2026-04-18T22:15:35.888Z</time></trkpt><trkpt lat="-36.7331806" lon="174.4103854"><ele>126.0</ele><time>2026-04-18T22:15:37.887Z</time></trkpt><trkpt lat="-36.7331796" lon="174.4102997"><ele>126.0</ele><time>2026-04-18T22:15:40.887Z</time></trkpt><trkpt lat="-36.7331026" lon="174.4102858"><ele>126.0</ele><time>2026-04-18T22:15:43.888Z</time></trkpt><trkpt lat="-36.7330357" lon="174.4102894"><ele>126.0</ele><time>2026-04-18T22:15:45.887Z</time></trkpt><trkpt lat="-36.7329408" lon="174.4103108"><ele>126.0</ele><time>2026-04-18T22:15:48.887Z</time></trkpt><trkpt lat="-36.7328742" lon="174.4103536"><ele>126.0</ele><time>2026-04-18T22:15:50.888Z</time></trkpt><trkpt lat="-36.7327999" lon="174.410353"><ele>126.0</ele><time>2026-04-18T22:15:52.887Z</time></trkpt><trkpt lat="-36.7327325" lon="174.4103265"><ele>126.0</ele><time>2026-04-18T22:15:54.887Z</time></trkpt><trkpt lat="-36.7326715" lon="174.4102992"><ele>126.0</ele><time>2026-04-18T22:15:56.888Z</time></trkpt><trkpt lat="-36.7326045" lon="174.4102886"><ele>126.0</ele><time>2026-04-18T22:15:58.888Z</time></trkpt><trkpt lat="-36.7325172" lon="174.4102634"><ele>126.0</ele><time>2026-04-18T22:16:01.887Z</time></trkpt><trkpt lat="-36.7324276" lon="174.4102253"><ele>127.33333333333333</ele><time>2026-04-18T22:16:03.887Z</time></trkpt><trkpt lat="-36.7323387" lon="174.410174"><ele>128.66666666666666</ele><time>2026-04-18T22:16:05.887Z</time></trkpt><trkpt lat="-36.7322588" lon="174.4101467"><ele>130.0</ele><time>2026-04-18T22:16:07.888Z</time></trkpt><trkpt lat="-36.7321839" lon="174.410092"><ele>131.33333333333331</ele><time>2026-04-18T22:16:09.887Z</time></trkpt><trkpt lat="-36.732107" lon="174.4100527"><ele>132.66666666666666</ele><time>2026-04-18T22:16:11.887Z</time></trkpt><trkpt lat="-36.7320371" lon="174.4100163"><ele>134.0</ele><time>2026-04-18T22:16:13.888Z</time></trkpt><trkpt lat="-36.7319623" lon="174.4099831"><ele>134.33333333333331</ele><time>2026-04-18T22:16:15.887Z</time></trkpt><trkpt lat="-36.7318891" lon="174.4099606"><ele>134.66666666666666</ele><time>2026-04-18T22:16:17.888Z</time></trkpt><trkpt lat="-36.7317885" lon="174.4099581"><ele>135.0</ele><time>2026-04-18T22:16:20.887Z</time></trkpt><trkpt lat="-36.7317062" lon="174.4100097"><ele>135.33333333333334</ele><time>2026-04-18T22:16:22.887Z</time></trkpt><trkpt lat="-36.7316345" lon="174.4100823"><ele>135.66666666666669</ele><time>2026-04-18T22:16:24.888Z</time></trkpt><trkpt lat="-36.7315928" lon="174.4101532"><ele>136.0</ele><time>2026-04-18T22:16:25.888Z</time></trkpt><trkpt lat="-36.731523" lon="174.4101513"><ele>136.0</ele><time>2026-04-18T22:16:28.887Z</time></trkpt><trkpt lat="-36.7314519" lon="174.4101611"><ele>136.0</ele><time>2026-04-18T22:16:30.888Z</time></trkpt><trkpt lat="-36.7313888" lon="174.4102047"><ele>136.0</ele><time>2026-04-18T22:16:32.887Z</time></trkpt><trkpt lat="-36.7313465" lon="174.4102754"><ele>136.0</ele><time>2026-04-18T22:16:34.887Z</time></trkpt><trkpt lat="-36.7312859" lon="174.4103566"><ele>136.0</ele><time>2026-04-18T22:16:36.887Z</time></trkpt><trkpt lat="-36.7312118" lon="174.4104109"><ele>136.0</ele><time>2026-04-18T22:16:38.888Z</time></trkpt><trkpt lat="-36.7311292" lon="174.4104284"><ele>136.33333333333334</ele><time>2026-04-18T22:16:40.887Z</time></trkpt><trkpt lat="-36.7310497" lon="174.4104221"><ele>136.66666666666669</ele><time>2026-04-18T22:16:42.887Z</time></trkpt><trkpt lat="-36.7309755" lon="174.4104086"><ele>137.0</ele><time>2026-04-18T22:16:44.887Z</time></trkpt><trkpt lat="-36.730903" lon="174.4103464"><ele>137.33333333333334</ele><time>2026-04-18T22:16:46.888Z</time></trkpt><trkpt lat="-36.730882" lon="174.4102723"><ele>137.66666666666666</ele><time>2026-04-18T22:16:48.888Z</time></trkpt><trkpt lat="-36.7308225" lon="174.410213"><ele>138.0</ele><time>2026-04-18T22:16:51.889Z</time></trkpt><trkpt lat="-36.7307523" lon="174.4102221"><ele>138.0</ele><time>2026-04-18T22:16:54.888Z</time></trkpt><trkpt lat="-36.7307022" lon="174.410272"><ele>138.0</ele><time>2026-04-18T22:16:57.888Z</time></trkpt><trkpt lat="-36.7307033" lon="174.4101798"><ele>138.0</ele><time>2026-04-18T22:17:01.889Z</time></trkpt><trkpt lat="-36.730698" lon="174.4100679"><ele>138.0</ele><time>2026-04-18T22:17:04.887Z</time></trkpt><trkpt lat="-36.7306697" lon="174.4099951"><ele>138.0</ele><time>2026-04-18T22:17:06.889Z</time></trkpt><trkpt lat="-36.7306012" lon="174.409951"><ele>138.0</ele><time>2026-04-18T22:17:09.888Z</time></trkpt><trkpt lat="-36.7305481" lon="174.4098784"><ele>138.0</ele><time>2026-04-18T22:17:12.887Z</time></trkpt><trkpt lat="-36.7305681" lon="174.4098039"><ele>138.0</ele><time>2026-04-18T22:17:14.888Z</time></trkpt><trkpt lat="-36.7306094" lon="174.4097209"><ele>138.0</ele><time>2026-04-18T22:17:16.887Z</time></trkpt><trkpt lat="-36.7306535" lon="174.4096326"><ele>138.0</ele><time>2026-04-18T22:17:18.888Z</time></trkpt><trkpt lat="-36.7306973" lon="174.4095319"><ele>138.0</ele><time>2026-04-18T22:17:20.887Z</time></trkpt><trkpt lat="-36.7307358" lon="174.4094324"><ele>138.0</ele><time>2026-04-18T22:17:22.888Z</time></trkpt><trkpt lat="-36.7307824" lon="174.4093187"><ele>138.0</ele><time>2026-04-18T22:17:24.888Z</time></trkpt><trkpt lat="-36.7308202" lon="174.4092273"><ele>137.33333333333334</ele><time>2026-04-18T22:17:26.888Z</time></trkpt><trkpt lat="-36.7308127" lon="174.4091284"><ele>136.66666666666666</ele><time>2026-04-18T22:17:29.888Z</time></trkpt><trkpt lat="-36.7307595" lon="174.4090769"><ele>136.0</ele><time>2026-04-18T22:18:11.887Z</time></trkpt><trkpt lat="-36.7306973" lon="174.4090439"><ele>135.33333333333331</ele><time>2026-04-18T22:18:14.888Z</time></trkpt><trkpt lat="-36.7306362" lon="174.4090205"><ele>134.66666666666666</ele><time>2026-04-18T22:18:16.887Z</time></trkpt><trkpt lat="-36.7305599" lon="174.4090187"><ele>134.0</ele><time>2026-04-18T22:18:18.888Z</time></trkpt><trkpt lat="-36.7304696" lon="174.4090697"><ele>134.0</ele><time>2026-04-18T22:18:20.888Z</time></trkpt><trkpt lat="-36.7303719" lon="174.4091348"><ele>134.0</ele><time>2026-04-18T22:18:22.887Z</time></trkpt><trkpt lat="-36.730272" lon="174.4091419"><ele>134.0</ele><time>2026-04-18T22:18:24.888Z</time></trkpt><trkpt lat="-36.7301828" lon="174.4091043"><ele>134.0</ele><time>2026-04-18T22:18:26.888Z</time></trkpt><trkpt lat="-36.7300974" lon="174.409122"><ele>134.0</ele><time>2026-04-18T22:18:28.888Z</time></trkpt><trkpt lat="-36.7300425" lon="174.409169"><ele>132.8</ele><time>2026-04-18T22:18:29.887Z</time></trkpt><trkpt lat="-36.7299845" lon="174.4092267"><ele>131.60000000000002</ele><time>2026-04-18T22:18:30.887Z</time></trkpt><trkpt lat="-36.7299391" lon="174.4093814"><ele>130.4</ele><time>2026-04-18T22:18:32.888Z</time></trkpt><trkpt lat="-36.7298579" lon="174.409444"><ele>129.20000000000002</ele><time>2026-04-18T22:18:34.887Z</time></trkpt><trkpt lat="-36.7297472" lon="174.4094102"><ele>128.0</ele><time>2026-04-18T22:18:36.888Z</time></trkpt><trkpt lat="-36.7297175" lon="174.4093197"><ele>127.99999999999999</ele><time>2026-04-18T22:18:37.887Z</time></trkpt><trkpt lat="-36.7296863" lon="174.4092442"><ele>128.0</ele><time>2026-04-18T22:18:38.888Z</time></trkpt><trkpt lat="-36.7296874" lon="174.4091474"><ele>128.0</ele><time>2026-04-18T22:18:39.887Z</time></trkpt><trkpt lat="-36.7297107" lon="174.4090575"><ele>128.0</ele><time>2026-04-18T22:18:40.888Z</time></trkpt><trkpt lat="-36.7297304" lon="174.4089754"><ele>127.99999999999999</ele><time>2026-04-18T22:18:41.887Z</time></trkpt><trkpt lat="-36.7296951" lon="174.4088727"><ele>128.0</ele><time>2026-04-18T22:18:43.888Z</time></trkpt><trkpt lat="-36.7295927" lon="174.4088479"><ele>127.99999999999999</ele><time>2026-04-18T22:18:45.887Z</time></trkpt><trkpt lat="-36.7295242" lon="174.4088436"><ele>128.0</ele><time>2026-04-18T22:18:46.887Z</time></trkpt><trkpt lat="-36.7294581" lon="174.4088496"><ele>128.0</ele><time>2026-04-18T22:18:47.887Z</time></trkpt><trkpt lat="-36.7293783" lon="174.4088622"><ele>128.0</ele><time>2026-04-18T22:18:48.889Z</time></trkpt><trkpt lat="-36.7293074" lon="174.4088823"><ele>127.99999999999999</ele><time>2026-04-18T22:18:49.887Z</time></trkpt><trkpt lat="-36.7292235" lon="174.4089639"><ele>128.0</ele><time>2026-04-18T22:18:51.887Z</time></trkpt><trkpt lat="-36.729129" lon="174.4090062"><ele>127.16666666666666</ele><time>2026-04-18T22:18:53.887Z</time></trkpt><trkpt lat="-36.729074" lon="174.4089608"><ele>126.33333333333333</ele><time>2026-04-18T22:18:54.887Z</time></trkpt><trkpt lat="-36.7290144" lon="174.4089004"><ele>125.5</ele><time>2026-04-18T22:18:56.887Z</time></trkpt><trkpt lat="-36.7289516" lon="174.4088471"><ele>124.66666666666666</ele><time>2026-04-18T22:18:58.888Z</time></trkpt><trkpt lat="-36.7288558" lon="174.4088037"><ele>123.83333333333333</ele><time>2026-04-18T22:19:00.888Z</time></trkpt><trkpt lat="-36.7287814" lon="174.4087593"><ele>123.0</ele><time>2026-04-18T22:19:01.888Z</time></trkpt><trkpt lat="-36.7287303" lon="174.4086251"><ele>122.16666666666667</ele><time>2026-04-18T22:19:03.888Z</time></trkpt><trkpt lat="-36.728688" lon="174.408546"><ele>121.33333333333334</ele><time>2026-04-18T22:19:05.888Z</time></trkpt><trkpt lat="-36.7286323" lon="174.4085008"><ele>120.5</ele><time>2026-04-18T22:19:07.888Z</time></trkpt><trkpt lat="-36.7285657" lon="174.4085193"><ele>119.66666666666667</ele><time>2026-04-18T22:19:10.888Z</time></trkpt><trkpt lat="-36.7284899" lon="174.4085082"><ele>118.83333333333334</ele><time>2026-04-18T22:19:12.887Z</time></trkpt><trkpt lat="-36.7283708" lon="174.4084821"><ele>118.0</ele><time>2026-04-18T22:19:14.887Z</time></trkpt><trkpt lat="-36.7282798" lon="174.4084869"><ele>118.00000000000001</ele><time>2026-04-18T22:19:16.887Z</time></trkpt><trkpt lat="-36.7282299" lon="174.4085351"><ele>118.0</ele><time>2026-04-18T22:19:18.888Z</time></trkpt><trkpt lat="-36.7282049" lon="174.4086207"><ele>118.0</ele><time>2026-04-18T22:19:21.888Z</time></trkpt><trkpt lat="-36.7281607" lon="174.408701"><ele>118.0</ele><time>2026-04-18T22:19:24.887Z</time></trkpt><trkpt lat="-36.728084" lon="174.4086768"><ele>118.00000000000001</ele><time>2026-04-18T22:19:27.889Z</time></trkpt><trkpt lat="-36.7280108" lon="174.408719"><ele>118.0</ele><time>2026-04-18T22:19:30.887Z</time></trkpt><trkpt lat="-36.7279412" lon="174.4087626"><ele>118.0</ele><time>2026-04-18T22:19:32.887Z</time></trkpt><trkpt lat="-36.7278477" lon="174.4087733"><ele>118.00000000000001</ele><time>2026-04-18T22:19:34.887Z</time></trkpt><trkpt lat="-36.7277807" lon="174.4087232"><ele>118.00000000000001</ele><time>2026-04-18T22:19:36.887Z</time></trkpt><trkpt lat="-36.7277309" lon="174.4086247"><ele>118.0</ele><time>2026-04-18T22:19:38.888Z</time></trkpt><trkpt lat="-36.7276751" lon="174.4085135"><ele>118.0</ele><time>2026-04-18T22:19:40.888Z</time></trkpt><trkpt lat="-36.7276225" lon="174.4084063"><ele>118.4</ele><time>2026-04-18T22:19:42.888Z</time></trkpt><trkpt lat="-36.7275567" lon="174.4083291"><ele>118.80000000000001</ele><time>2026-04-18T22:19:43.887Z</time></trkpt><trkpt lat="-36.7274462" lon="174.4083121"><ele>119.2</ele><time>2026-04-18T22:19:45.887Z</time></trkpt><trkpt lat="-36.7273456" lon="174.4083607"><ele>119.6</ele><time>2026-04-18T22:19:47.887Z</time></trkpt><trkpt lat="-36.7272522" lon="174.4083346"><ele>120.0</ele><time>2026-04-18T22:19:49.889Z</time></trkpt><trkpt lat="-36.7271597" lon="174.4082863"><ele>120.0</ele><time>2026-04-18T22:19:51.888Z</time></trkpt><trkpt lat="-36.7270974" lon="174.4081568"><ele>120.0</ele><time>2026-04-18T22:19:53.887Z</time></trkpt><trkpt lat="-36.7270666" lon="174.4080156"><ele>120.0</ele><time>2026-04-18T22:19:55.887Z</time></trkpt><trkpt lat="-36.727032" lon="174.4079307"><ele>120.0</ele><time>2026-04-18T22:19:56.888Z</time></trkpt><trkpt lat="-36.7270062" lon="174.4078583"><ele>120.0</ele><time>2026-04-18T22:19:57.887Z</time></trkpt><trkpt lat="-36.7269503" lon="174.4077781"><ele>119.0</ele><time>2026-04-18T22:19:58.887Z</time></trkpt><trkpt lat="-36.7269447" lon="174.4076543"><ele>118.0</ele><time>2026-04-18T22:20:00.888Z</time></trkpt><trkpt lat="-36.7269059" lon="174.407554"><ele>117.0</ele><time>2026-04-18T22:20:02.888Z</time></trkpt><trkpt lat="-36.7268458" lon="174.407634"><ele>116.0</ele><time>2026-04-18T22:20:04.889Z</time></trkpt><trkpt lat="-36.7267569" lon="174.4077202"><ele>115.0</ele><time>2026-04-18T22:20:06.887Z</time></trkpt><trkpt lat="-36.7266927" lon="174.4076402"><ele>113.4</ele><time>2026-04-18T22:20:08.887Z</time></trkpt><trkpt lat="-36.7267076" lon="174.4075208"><ele>111.8</ele><time>2026-04-18T22:20:10.889Z</time></trkpt><trkpt lat="-36.7267076" lon="174.4074047"><ele>110.19999999999999</ele><time>2026-04-18T22:20:12.889Z</time></trkpt><trkpt lat="-36.7266434" lon="174.4073124"><ele>108.6</ele><time>2026-04-18T22:20:14.888Z</time></trkpt><trkpt lat="-36.7265604" lon="174.4072178"><ele>107.0</ele><time>2026-04-18T22:20:16.887Z</time></trkpt><trkpt lat="-36.7265036" lon="174.4070965"><ele>106.83333333333333</ele><time>2026-04-18T22:20:18.887Z</time></trkpt><trkpt lat="-36.7264395" lon="174.4069915"><ele>106.66666666666666</ele><time>2026-04-18T22:20:20.888Z</time></trkpt><trkpt lat="-36.7263323" lon="174.4070157"><ele>106.5</ele><time>2026-04-18T22:20:22.888Z</time></trkpt><trkpt lat="-36.7262529" lon="174.4069771"><ele>106.33333333333334</ele><time>2026-04-18T22:20:24.889Z</time></trkpt><trkpt lat="-36.7262043" lon="174.4069151"><ele>106.16666666666667</ele><time>2026-04-18T22:20:25.888Z</time></trkpt><trkpt lat="-36.7261522" lon="174.4068566"><ele>106.0</ele><time>2026-04-18T22:20:26.888Z</time></trkpt><trkpt lat="-36.7260841" lon="174.4067875"><ele>105.00000000000001</ele><time>2026-04-18T22:20:27.887Z</time></trkpt><trkpt lat="-36.7260433" lon="174.4067081"><ele>104.0</ele><time>2026-04-18T22:20:28.888Z</time></trkpt><trkpt lat="-36.7259948" lon="174.4066352"><ele>103.0</ele><time>2026-04-18T22:20:30.887Z</time></trkpt><trkpt lat="-36.7259076" lon="174.4066253"><ele>102.0</ele><time>2026-04-18T22:20:33.888Z</time></trkpt><trkpt lat="-36.7258385" lon="174.4066382"><ele>101.00000000000001</ele><time>2026-04-18T22:20:35.889Z</time></trkpt><trkpt lat="-36.72575" lon="174.4066578"><ele>100.0</ele><time>2026-04-18T22:20:37.888Z</time></trkpt><trkpt lat="-36.7256687" lon="174.406685"><ele>100.00000000000001</ele><time>2026-04-18T22:20:39.888Z</time></trkpt><trkpt lat="-36.7256147" lon="174.4067415"><ele>100.0</ele><time>2026-04-18T22:20:41.888Z</time></trkpt><trkpt lat="-36.7255744" lon="174.4068021"><ele>100.0</ele><time>2026-04-18T22:20:43.888Z</time></trkpt><trkpt lat="-36.725528" lon="174.4068694"><ele>100.0</ele><time>2026-04-18T22:20:45.887Z</time></trkpt><trkpt lat="-36.725492" lon="174.4069349"><ele>100.0</ele><time>2026-04-18T22:20:47.887Z</time></trkpt><trkpt lat="-36.7254305" lon="174.4069996"><ele>100.00000000000001</ele><time>2026-04-18T22:20:49.887Z</time></trkpt><trkpt lat="-36.7253753" lon="174.4070934"><ele>100.0</ele><time>2026-04-18T22:20:51.887Z</time></trkpt><trkpt lat="-36.7253382" lon="174.4071986"><ele>99.66666666666667</ele><time>2026-04-18T22:20:53.887Z</time></trkpt><trkpt lat="-36.7252959" lon="174.4073011"><ele>99.33333333333334</ele><time>2026-04-18T22:20:55.888Z</time></trkpt><trkpt lat="-36.7252526" lon="174.4073946"><ele>99.0</ele><time>2026-04-18T22:20:57.887Z</time></trkpt><trkpt lat="-36.7251985" lon="174.4074614"><ele>98.66666666666666</ele><time>2026-04-18T22:20:59.888Z</time></trkpt><trkpt lat="-36.7251434" lon="174.4075088"><ele>98.33333333333333</ele><time>2026-04-18T22:21:01.887Z</time></trkpt><trkpt lat="-36.7250764" lon="174.4075722"><ele>98.0</ele><time>2026-04-18T22:21:04.887Z</time></trkpt><trkpt lat="-36.7250288" lon="174.4075069"><ele>97.99999999999999</ele><time>2026-04-18T22:21:09.887Z</time></trkpt><trkpt lat="-36.7249708" lon="174.4074492"><ele>98.0</ele><time>2026-04-18T22:21:12.887Z</time></trkpt><trkpt lat="-36.7249028" lon="174.4073908"><ele>98.0</ele><time>2026-04-18T22:21:15.887Z</time></trkpt><trkpt lat="-36.7248778" lon="174.4072994"><ele>98.0</ele><time>2026-04-18T22:21:18.887Z</time></trkpt><trkpt lat="-36.7248697" lon="174.4071773"><ele>97.99999999999999</ele><time>2026-04-18T22:21:21.888Z</time></trkpt><trkpt lat="-36.724851" lon="174.407091"><ele>98.0</ele><time>2026-04-18T22:21:23.888Z</time></trkpt><trkpt lat="-36.7247769" lon="174.4070277"><ele>98.99999999999999</ele><time>2026-04-18T22:21:26.887Z</time></trkpt><trkpt lat="-36.7246838" lon="174.4070268"><ele>100.0</ele><time>2026-04-18T22:21:29.887Z</time></trkpt><trkpt lat="-36.7246124" lon="174.4070166"><ele>101.0</ele><time>2026-04-18T22:21:31.888Z</time></trkpt><trkpt lat="-36.7245358" lon="174.4069751"><ele>102.0</ele><time>2026-04-18T22:21:33.888Z</time></trkpt><trkpt lat="-36.7244945" lon="174.406895"><ele>102.99999999999999</ele><time>2026-04-18T22:21:35.888Z</time></trkpt><trkpt lat="-36.724474" lon="174.406793"><ele>104.0</ele><time>2026-04-18T22:21:37.887Z</time></trkpt><trkpt lat="-36.7244173" lon="174.4067137"><ele>104.4</ele><time>2026-04-18T22:21:39.887Z</time></trkpt><trkpt lat="-36.7243314" lon="174.4066132"><ele>104.80000000000001</ele><time>2026-04-18T22:21:41.888Z</time></trkpt><trkpt lat="-36.7242305" lon="174.4065903"><ele>105.19999999999999</ele><time>2026-04-18T22:21:44.888Z</time></trkpt><trkpt lat="-36.72413" lon="174.4066061"><ele>105.6</ele><time>2026-04-18T22:21:46.888Z</time></trkpt><trkpt lat="-36.7240602" lon="174.4066021"><ele>106.0</ele><time>2026-04-18T22:21:48.889Z</time></trkpt><trkpt lat="-36.7239949" lon="174.4065954"><ele>106.00000000000001</ele><time>2026-04-18T22:21:50.887Z</time></trkpt><trkpt lat="-36.7239277" lon="174.4065619"><ele>106.0</ele><time>2026-04-18T22:21:52.888Z</time></trkpt><trkpt lat="-36.7238645" lon="174.4065164"><ele>106.0</ele><time>2026-04-18T22:21:54.888Z</time></trkpt><trkpt lat="-36.7237837" lon="174.406489"><ele>106.0</ele><time>2026-04-18T22:21:57.888Z</time></trkpt><trkpt lat="-36.7237046" lon="174.4064297"><ele>106.00000000000001</ele><time>2026-04-18T22:22:00.888Z</time></trkpt><trkpt lat="-36.7236474" lon="174.4063792"><ele>106.0</ele><time>2026-04-18T22:22:02.887Z</time></trkpt><trkpt lat="-36.7235666" lon="174.4063447"><ele>104.8</ele><time>2026-04-18T22:22:04.887Z</time></trkpt><trkpt lat="-36.7234863" lon="174.4062771"><ele>103.6</ele><time>2026-04-18T22:22:06.888Z</time></trkpt><trkpt lat="-36.7234102" lon="174.4062155"><ele>102.4</ele><time>2026-04-18T22:22:08.887Z</time></trkpt><trkpt lat="-36.7233157" lon="174.4061725"><ele>101.2</ele><time>2026-04-18T22:22:10.887Z</time></trkpt><trkpt lat="-36.7231779" lon="174.4061175"><ele>100.0</ele><time>2026-04-18T22:22:12.889Z</time></trkpt><trkpt lat="-36.7230519" lon="174.4060948"><ele>100.0</ele><time>2026-04-18T22:22:14.887Z</time></trkpt><trkpt lat="-36.7229917" lon="174.4060414"><ele>100.0</ele><time>2026-04-18T22:22:15.887Z</time></trkpt><trkpt lat="-36.7228962" lon="174.4059992"><ele>100.0</ele><time>2026-04-18T22:22:17.888Z</time></trkpt><trkpt lat="-36.7227993" lon="174.4060592"><ele>100.0</ele><time>2026-04-18T22:22:19.887Z</time></trkpt><trkpt lat="-36.7227096" lon="174.4061461"><ele>100.0</ele><time>2026-04-18T22:22:21.887Z</time></trkpt><trkpt lat="-36.7226732" lon="174.4062339"><ele>99.50000000000001</ele><time>2026-04-18T22:22:23.887Z</time></trkpt><trkpt lat="-36.7226211" lon="174.4063076"><ele>99.0</ele><time>2026-04-18T22:22:24.887Z</time></trkpt><trkpt lat="-36.7225775" lon="174.4064284"><ele>98.5</ele><time>2026-04-18T22:22:26.887Z</time></trkpt><trkpt lat="-36.7225184" lon="174.4065076"><ele>98.0</ele><time>2026-04-18T22:22:28.887Z</time></trkpt><trkpt lat="-36.7224509" lon="174.4065218"><ele>97.50000000000001</ele><time>2026-04-18T22:22:30.887Z</time></trkpt><trkpt lat="-36.7223455" lon="174.4064883"><ele>97.0</ele><time>2026-04-18T22:22:33.887Z</time></trkpt><trkpt lat="-36.7222664" lon="174.4064322"><ele>97.0</ele><time>2026-04-18T22:22:34.888Z</time></trkpt><trkpt lat="-36.7222107" lon="174.4063861"><ele>97.0</ele><time>2026-04-18T22:22:35.888Z</time></trkpt><trkpt lat="-36.7221267" lon="174.4062949"><ele>97.0</ele><time>2026-04-18T22:22:37.887Z</time></trkpt><trkpt lat="-36.7220247" lon="174.4062559"><ele>97.0</ele><time>2026-04-18T22:22:39.888Z</time></trkpt><trkpt lat="-36.7219431" lon="174.4062138"><ele>97.0</ele><time>2026-04-18T22:22:41.888Z</time></trkpt><trkpt lat="-36.7218605" lon="174.4061304"><ele>95.5</ele><time>2026-04-18T22:22:44.887Z</time></trkpt><trkpt lat="-36.7218011" lon="174.4060312"><ele>94.0</ele><time>2026-04-18T22:22:46.889Z</time></trkpt><trkpt lat="-36.7217283" lon="174.4059286"><ele>92.5</ele><time>2026-04-18T22:22:48.887Z</time></trkpt><trkpt lat="-36.7216574" lon="174.4058419"><ele>91.0</ele><time>2026-04-18T22:22:50.887Z</time></trkpt><trkpt lat="-36.7215376" lon="174.4057357"><ele>91.0</ele><time>2026-04-18T22:22:52.888Z</time></trkpt><trkpt lat="-36.7214674" lon="174.4056273"><ele>91.0</ele><time>2026-04-18T22:22:54.887Z</time></trkpt><trkpt lat="-36.7214219" lon="174.4055587"><ele>91.0</ele><time>2026-04-18T22:22:55.887Z</time></trkpt><trkpt lat="-36.7213751" lon="174.4054927"><ele>91.0</ele><time>2026-04-18T22:22:56.887Z</time></trkpt><trkpt lat="-36.7213077" lon="174.405443"><ele>91.0</ele><time>2026-04-18T22:22:57.887Z</time></trkpt><trkpt lat="-36.7212301" lon="174.4054006"><ele>91.0</ele><time>2026-04-18T22:22:59.887Z</time></trkpt><trkpt lat="-36.7211647" lon="174.4053914"><ele>90.66666666666666</ele><time>2026-04-18T22:23:01.888Z</time></trkpt><trkpt lat="-36.7211013" lon="174.4053988"><ele>90.33333333333333</ele><time>2026-04-18T22:23:03.887Z</time></trkpt><trkpt lat="-36.721037" lon="174.4054013"><ele>90.0</ele><time>2026-04-18T22:23:05.888Z</time></trkpt><trkpt lat="-36.7209572" lon="174.4054042"><ele>89.66666666666667</ele><time>2026-04-18T22:23:07.888Z</time></trkpt><trkpt lat="-36.7208726" lon="174.4053797"><ele>89.33333333333334</ele><time>2026-04-18T22:23:09.887Z</time></trkpt><trkpt lat="-36.7208406" lon="174.4052872"><ele>89.0</ele><time>2026-04-18T22:23:11.888Z</time></trkpt><trkpt lat="-36.7208254" lon="174.4051923"><ele>88.57142857142857</ele><time>2026-04-18T22:23:13.888Z</time></trkpt><trkpt lat="-36.7208307" lon="174.4050904"><ele>88.14285714285714</ele><time>2026-04-18T22:23:16.888Z</time></trkpt><trkpt lat="-36.7208215" lon="174.4050057"><ele>87.71428571428572</ele><time>2026-04-18T22:23:19.887Z</time></trkpt><trkpt lat="-36.7207868" lon="174.4049305"><ele>87.28571428571428</ele><time>2026-04-18T22:23:22.887Z</time></trkpt><trkpt lat="-36.7208223" lon="174.4048641"><ele>86.85714285714286</ele><time>2026-04-18T22:23:25.887Z</time></trkpt><trkpt lat="-36.7208953" lon="174.4047981"><ele>86.42857142857143</ele><time>2026-04-18T22:23:28.887Z</time></trkpt><trkpt lat="-36.7209357" lon="174.404729"><ele>86.0</ele><time>2026-04-18T22:23:30.888Z</time></trkpt><trkpt lat="-36.7209673" lon="174.4046579"><ele>87.66666666666667</ele><time>2026-04-18T22:23:32.886Z</time></trkpt><trkpt lat="-36.7210391" lon="174.4045854"><ele>89.33333333333334</ele><time>2026-04-18T22:23:35.888Z</time></trkpt><trkpt lat="-36.7210994" lon="174.4045044"><ele>91.0</ele><time>2026-04-18T22:23:38.888Z</time></trkpt><trkpt lat="-36.7211856" lon="174.4044564"><ele>92.66666666666667</ele><time>2026-04-18T22:23:41.888Z</time></trkpt><trkpt lat="-36.7212436" lon="174.4044244"><ele>94.33333333333333</ele><time>2026-04-18T22:23:43.888Z</time></trkpt><trkpt lat="-36.7213177" lon="174.4043767"><ele>96.0</ele><time>2026-04-18T22:23:45.888Z</time></trkpt><trkpt lat="-36.7213995" lon="174.4043402"><ele>96.0</ele><time>2026-04-18T22:23:47.888Z</time></trkpt><trkpt lat="-36.7214717" lon="174.4043578"><ele>96.0</ele><time>2026-04-18T22:23:49.887Z</time></trkpt><trkpt lat="-36.7215388" lon="174.4043693"><ele>96.0</ele><time>2026-04-18T22:23:51.888Z</time></trkpt><trkpt lat="-36.7216042" lon="174.4043684"><ele>96.0</ele><time>2026-04-18T22:23:53.887Z</time></trkpt><trkpt lat="-36.7216827" lon="174.4043684"><ele>96.0</ele><time>2026-04-18T22:23:56.888Z</time></trkpt><trkpt lat="-36.7217732" lon="174.4043696"><ele>96.0</ele><time>2026-04-18T22:23:59.886Z</time></trkpt><trkpt lat="-36.7218476" lon="174.4043884"><ele>96.99999999999999</ele><time>2026-04-18T22:24:01.888Z</time></trkpt><trkpt lat="-36.7219125" lon="174.4044246"><ele>98.0</ele><time>2026-04-18T22:24:03.888Z</time></trkpt><trkpt lat="-36.7219766" lon="174.4044636"><ele>99.0</ele><time>2026-04-18T22:24:05.888Z</time></trkpt><trkpt lat="-36.722035" lon="174.4045003"><ele>100.0</ele><time>2026-04-18T22:24:07.888Z</time></trkpt><trkpt lat="-36.7221033" lon="174.4045454"><ele>101.0</ele><time>2026-04-18T22:24:10.888Z</time></trkpt><trkpt lat="-36.7221934" lon="174.4045781"><ele>101.99999999999999</ele><time>2026-04-18T22:24:13.888Z</time></trkpt><trkpt lat="-36.7222554" lon="174.4045606"><ele>103.0</ele><time>2026-04-18T22:24:18.887Z</time></trkpt><trkpt lat="-36.7222942" lon="174.4044976"><ele>103.00000000000001</ele><time>2026-04-18T22:24:20.888Z</time></trkpt><trkpt lat="-36.7223118" lon="174.4044054"><ele>103.0</ele><time>2026-04-18T22:24:23.887Z</time></trkpt><trkpt lat="-36.7223608" lon="174.404342"><ele>103.0</ele><time>2026-04-18T22:24:27.888Z</time></trkpt><trkpt lat="-36.7224048" lon="174.4044057"><ele>103.0</ele><time>2026-04-18T22:24:30.888Z</time></trkpt><trkpt lat="-36.7224451" lon="174.4044984"><ele>103.00000000000001</ele><time>2026-04-18T22:24:33.888Z</time></trkpt><trkpt lat="-36.7224883" lon="174.4045909"><ele>103.0</ele><time>2026-04-18T22:24:36.887Z</time></trkpt><trkpt lat="-36.7225198" lon="174.4046648"><ele>102.50000000000001</ele><time>2026-04-18T22:24:38.888Z</time></trkpt><trkpt lat="-36.7225786" lon="174.4047421"><ele>102.0</ele><time>2026-04-18T22:24:41.886Z</time></trkpt><trkpt lat="-36.7226496" lon="174.4047629"><ele>101.5</ele><time>2026-04-18T22:24:44.887Z</time></trkpt><trkpt lat="-36.7227197" lon="174.4047735"><ele>101.0</ele><time>2026-04-18T22:24:47.888Z</time></trkpt><trkpt lat="-36.7227932" lon="174.4048031"><ele>100.50000000000001</ele><time>2026-04-18T22:24:50.889Z</time></trkpt><trkpt lat="-36.7228626" lon="174.404822"><ele>100.0</ele><time>2026-04-18T22:24:52.888Z</time></trkpt><trkpt lat="-36.7229447" lon="174.4048337"><ele>101.00000000000001</ele><time>2026-04-18T22:24:55.887Z</time></trkpt><trkpt lat="-36.7230113" lon="174.4048982"><ele>102.0</ele><time>2026-04-18T22:24:58.887Z</time></trkpt><trkpt lat="-36.7230799" lon="174.4049296"><ele>103.0</ele><time>2026-04-18T22:25:01.888Z</time></trkpt><trkpt lat="-36.7231542" lon="174.4049806"><ele>104.0</ele><time>2026-04-18T22:25:04.888Z</time></trkpt><trkpt lat="-36.7232128" lon="174.4050113"><ele>105.00000000000001</ele><time>2026-04-18T22:25:06.887Z</time></trkpt><trkpt lat="-36.7232973" lon="174.4050388"><ele>106.0</ele><time>2026-04-18T22:25:08.887Z</time></trkpt><trkpt lat="-36.7233745" lon="174.4050584"><ele>106.00000000000001</ele><time>2026-04-18T22:25:10.887Z</time></trkpt><trkpt lat="-36.7234515" lon="174.4050935"><ele>106.0</ele><time>2026-04-18T22:25:12.887Z</time></trkpt><trkpt lat="-36.7235227" lon="174.405138"><ele>106.0</ele><time>2026-04-18T22:25:14.888Z</time></trkpt><trkpt lat="-36.7235846" lon="174.405164"><ele>106.0</ele><time>2026-04-18T22:25:16.888Z</time></trkpt><trkpt lat="-36.7236489" lon="174.4051693"><ele>106.00000000000001</ele><time>2026-04-18T22:25:18.888Z</time></trkpt><trkpt lat="-36.7237236" lon="174.4051487"><ele>106.0</ele><time>2026-04-18T22:25:20.887Z</time></trkpt><trkpt lat="-36.7238151" lon="174.4051442"><ele>106.16666666666667</ele><time>2026-04-18T22:25:23.888Z</time></trkpt><trkpt lat="-36.7238846" lon="174.4051393"><ele>106.33333333333334</ele><time>2026-04-18T22:25:25.887Z</time></trkpt><trkpt lat="-36.7239661" lon="174.4051333"><ele>106.5</ele><time>2026-04-18T22:25:27.887Z</time></trkpt><trkpt lat="-36.7240529" lon="174.4051604"><ele>106.66666666666666</ele><time>2026-04-18T22:25:29.887Z</time></trkpt><trkpt lat="-36.7241217" lon="174.4052067"><ele>106.83333333333333</ele><time>2026-04-18T22:25:31.886Z</time></trkpt><trkpt lat="-36.7241768" lon="174.4052583"><ele>107.0</ele><time>2026-04-18T22:25:33.887Z</time></trkpt><trkpt lat="-36.7242258" lon="174.4053413"><ele>106.99999999999999</ele><time>2026-04-18T22:25:35.889Z</time></trkpt><trkpt lat="-36.7242895" lon="174.4054097"><ele>107.0</ele><time>2026-04-18T22:25:37.888Z</time></trkpt><trkpt lat="-36.7244012" lon="174.4054383"><ele>107.0</ele><time>2026-04-18T22:25:39.888Z</time></trkpt><trkpt lat="-36.7244914" lon="174.4054617"><ele>107.0</ele><time>2026-04-18T22:25:41.889Z</time></trkpt><trkpt lat="-36.7245571" lon="174.4054788"><ele>106.99999999999999</ele><time>2026-04-18T22:25:43.887Z</time></trkpt><trkpt lat="-36.7246354" lon="174.4055044"><ele>107.0</ele><time>2026-04-18T22:25:45.887Z</time></trkpt><trkpt lat="-36.7247077" lon="174.4055238"><ele>106.99999999999999</ele><time>2026-04-18T22:25:47.888Z</time></trkpt><trkpt lat="-36.7247764" lon="174.4055686"><ele>107.0</ele><time>2026-04-18T22:25:49.887Z</time></trkpt><trkpt lat="-36.7248506" lon="174.4056044"><ele>107.0</ele><time>2026-04-18T22:25:51.887Z</time></trkpt><trkpt lat="-36.7249456" lon="174.4056191"><ele>107.0</ele><time>2026-04-18T22:25:54.888Z</time></trkpt><trkpt lat="-36.7250128" lon="174.4056468"><ele>106.99999999999999</ele><time>2026-04-18T22:25:56.889Z</time></trkpt><trkpt lat="-36.7250897" lon="174.4057041"><ele>107.0</ele><time>2026-04-18T22:25:59.888Z</time></trkpt><trkpt lat="-36.7251828" lon="174.4057129"><ele>106.66666666666666</ele><time>2026-04-18T22:26:02.888Z</time></trkpt><trkpt lat="-36.7252584" lon="174.4056914"><ele>106.33333333333333</ele><time>2026-04-18T22:26:04.887Z</time></trkpt><trkpt lat="-36.7253445" lon="174.4056431"><ele>106.0</ele><time>2026-04-18T22:26:06.887Z</time></trkpt><trkpt lat="-36.7254269" lon="174.4056167"><ele>105.66666666666666</ele><time>2026-04-18T22:26:08.888Z</time></trkpt><trkpt lat="-36.7254982" lon="174.4056445"><ele>105.33333333333333</ele><time>2026-04-18T22:26:10.888Z</time></trkpt><trkpt lat="-36.7255955" lon="174.4056439"><ele>105.0</ele><time>2026-04-18T22:26:13.887Z</time></trkpt><trkpt lat="-36.7256988" lon="174.4056096"><ele>105.0</ele><time>2026-04-18T22:26:15.888Z</time></trkpt><trkpt lat="-36.7257636" lon="174.4055644"><ele>105.0</ele><time>2026-04-18T22:26:17.887Z</time></trkpt><trkpt lat="-36.725829" lon="174.4055364"><ele>105.0</ele><time>2026-04-18T22:26:20.888Z</time></trkpt><trkpt lat="-36.7258955" lon="174.4055395"><ele>105.0</ele><time>2026-04-18T22:26:22.889Z</time></trkpt><trkpt lat="-36.7259468" lon="174.4055879"><ele>105.0</ele><time>2026-04-18T22:26:24.887Z</time></trkpt><trkpt lat="-36.7260155" lon="174.4056519"><ele>105.0</ele><time>2026-04-18T22:26:27.887Z</time></trkpt><trkpt lat="-36.7260716" lon="174.4057262"><ele>105.0</ele><time>2026-04-18T22:26:30.888Z</time></trkpt><trkpt lat="-36.7261384" lon="174.4057647"><ele>105.57142857142857</ele><time>2026-04-18T22:26:32.887Z</time></trkpt><trkpt lat="-36.7262042" lon="174.4057923"><ele>106.14285714285714</ele><time>2026-04-18T22:26:34.887Z</time></trkpt><trkpt lat="-36.72627" lon="174.405802"><ele>106.71428571428572</ele><time>2026-04-18T22:26:36.889Z</time></trkpt><trkpt lat="-36.726333" lon="174.4057978"><ele>107.28571428571428</ele><time>2026-04-18T22:26:38.888Z</time></trkpt><trkpt lat="-36.7263951" lon="174.4057552"><ele>107.85714285714286</ele><time>2026-04-18T22:26:40.887Z</time></trkpt><trkpt lat="-36.7264661" lon="174.4057392"><ele>108.42857142857143</ele><time>2026-04-18T22:26:42.888Z</time></trkpt><trkpt lat="-36.7265493" lon="174.4057601"><ele>109.0</ele><time>2026-04-18T22:26:44.887Z</time></trkpt><trkpt lat="-36.7266138" lon="174.4058453"><ele>109.0</ele><time>2026-04-18T22:26:46.887Z</time></trkpt><trkpt lat="-36.7266754" lon="174.4059314"><ele>109.0</ele><time>2026-04-18T22:26:48.888Z</time></trkpt><trkpt lat="-36.7267223" lon="174.4060267"><ele>109.0</ele><time>2026-04-18T22:26:50.887Z</time></trkpt><trkpt lat="-36.7267772" lon="174.4061167"><ele>109.0</ele><time>2026-04-18T22:26:52.887Z</time></trkpt><trkpt lat="-36.7268055" lon="174.4062328"><ele>109.0</ele><time>2026-04-18T22:26:54.887Z</time></trkpt><trkpt lat="-36.7268029" lon="174.406376"><ele>108.50000000000001</ele><time>2026-04-18T22:26:56.888Z</time></trkpt><trkpt lat="-36.7267543" lon="174.4064782"><ele>108.0</ele><time>2026-04-18T22:26:57.888Z</time></trkpt><trkpt lat="-36.7267131" lon="174.4065706"><ele>107.5</ele><time>2026-04-18T22:26:59.888Z</time></trkpt><trkpt lat="-36.7267156" lon="174.4066731"><ele>107.0</ele><time>2026-04-18T22:27:02.887Z</time></trkpt><trkpt lat="-36.7267878" lon="174.4067186"><ele>106.50000000000001</ele><time>2026-04-18T22:27:05.887Z</time></trkpt><trkpt lat="-36.7268502" lon="174.4067395"><ele>106.0</ele><time>2026-04-18T22:27:07.888Z</time></trkpt><trkpt lat="-36.72691" lon="174.406783"><ele>107.0</ele><time>2026-04-18T22:27:09.888Z</time></trkpt><trkpt lat="-36.7269751" lon="174.4067904"><ele>108.0</ele><time>2026-04-18T22:27:11.888Z</time></trkpt><trkpt lat="-36.727039" lon="174.4068084"><ele>109.0</ele><time>2026-04-18T22:27:13.888Z</time></trkpt><trkpt lat="-36.7271226" lon="174.4068476"><ele>110.0</ele><time>2026-04-18T22:27:16.888Z</time></trkpt><trkpt lat="-36.7271934" lon="174.4068184"><ele>111.0</ele><time>2026-04-18T22:27:19.887Z</time></trkpt><trkpt lat="-36.7272146" lon="174.4067442"><ele>112.0</ele><time>2026-04-18T22:27:21.888Z</time></trkpt><trkpt lat="-36.7272474" lon="174.406657"><ele>113.0</ele><time>2026-04-18T22:27:24.888Z</time></trkpt><trkpt lat="-36.7273231" lon="174.4066709"><ele>112.99999999999999</ele><time>2026-04-18T22:27:27.888Z</time></trkpt><trkpt lat="-36.7273873" lon="174.4067199"><ele>113.0</ele><time>2026-04-18T22:27:30.887Z</time></trkpt><trkpt lat="-36.7274543" lon="174.4066843"><ele>113.0</ele><time>2026-04-18T22:27:32.888Z</time></trkpt><trkpt lat="-36.7275181" lon="174.4066481"><ele>113.0</ele><time>2026-04-18T22:27:34.889Z</time></trkpt><trkpt lat="-36.7276046" lon="174.4066591"><ele>112.99999999999999</ele><time>2026-04-18T22:27:37.889Z</time></trkpt><trkpt lat="-36.7276646" lon="174.4067039"><ele>113.0</ele><time>2026-04-18T22:27:39.889Z</time></trkpt><trkpt lat="-36.7277366" lon="174.4067432"><ele>113.49999999999999</ele><time>2026-04-18T22:27:41.888Z</time></trkpt><trkpt lat="-36.7278306" lon="174.4067258"><ele>114.0</ele><time>2026-04-18T22:27:44.888Z</time></trkpt><trkpt lat="-36.727903" lon="174.4066881"><ele>114.5</ele><time>2026-04-18T22:27:46.886Z</time></trkpt><trkpt lat="-36.7279724" lon="174.4066478"><ele>115.0</ele><time>2026-04-18T22:27:48.888Z</time></trkpt><trkpt lat="-36.7280601" lon="174.4066364"><ele>115.49999999999999</ele><time>2026-04-18T22:27:51.887Z</time></trkpt><trkpt lat="-36.7281304" lon="174.4066302"><ele>116.0</ele><time>2026-04-18T22:27:53.888Z</time></trkpt><trkpt lat="-36.7281869" lon="174.4065871"><ele>115.99999999999999</ele><time>2026-04-18T22:27:55.887Z</time></trkpt><trkpt lat="-36.7282411" lon="174.4065331"><ele>116.0</ele><time>2026-04-18T22:27:57.887Z</time></trkpt><trkpt lat="-36.7283024" lon="174.4065142"><ele>116.0</ele><time>2026-04-18T22:27:59.888Z</time></trkpt><trkpt lat="-36.7283769" lon="174.4065831"><ele>116.0</ele><time>2026-04-18T22:28:02.888Z</time></trkpt><trkpt lat="-36.7284219" lon="174.4066601"><ele>115.99999999999999</ele><time>2026-04-18T22:28:04.888Z</time></trkpt><trkpt lat="-36.728496" lon="174.406729"><ele>116.0</ele><time>2026-04-18T22:28:07.887Z</time></trkpt><trkpt lat="-36.7285798" lon="174.4067903"><ele>115.83333333333333</ele><time>2026-04-18T22:28:09.887Z</time></trkpt><trkpt lat="-36.728649" lon="174.4068565"><ele>115.66666666666666</ele><time>2026-04-18T22:28:11.887Z</time></trkpt><trkpt lat="-36.7287093" lon="174.4069242"><ele>115.5</ele><time>2026-04-18T22:28:13.888Z</time></trkpt><trkpt lat="-36.7287423" lon="174.4070069"><ele>115.33333333333334</ele><time>2026-04-18T22:28:15.887Z</time></trkpt><trkpt lat="-36.7287613" lon="174.4071064"><ele>115.16666666666667</ele><time>2026-04-18T22:28:17.888Z</time></trkpt><trkpt lat="-36.7288088" lon="174.4071877"><ele>115.0</ele><time>2026-04-18T22:28:19.887Z</time></trkpt><trkpt lat="-36.7288465" lon="174.407259"><ele>115.33333333333334</ele><time>2026-04-18T22:28:21.888Z</time></trkpt><trkpt lat="-36.7288807" lon="174.4073486"><ele>115.66666666666667</ele><time>2026-04-18T22:28:23.888Z</time></trkpt><trkpt lat="-36.7289083" lon="174.4074346"><ele>116.0</ele><time>2026-04-18T22:28:26.887Z</time></trkpt><trkpt lat="-36.7288896" lon="174.4075344"><ele>116.33333333333334</ele><time>2026-04-18T22:28:29.887Z</time></trkpt><trkpt lat="-36.7289359" lon="174.4075984"><ele>116.66666666666667</ele><time>2026-04-18T22:28:32.887Z</time></trkpt><trkpt lat="-36.7290218" lon="174.4076205"><ele>117.0</ele><time>2026-04-18T22:28:35.888Z</time></trkpt><trkpt lat="-36.7291172" lon="174.4076166"><ele>117.0</ele><time>2026-04-18T22:28:38.888Z</time></trkpt><trkpt lat="-36.7292029" lon="174.4076"><ele>116.99999999999999</ele><time>2026-04-18T22:28:40.887Z</time></trkpt><trkpt lat="-36.729345" lon="174.4076001"><ele>116.99999999999999</ele><time>2026-04-18T22:28:42.888Z</time></trkpt><trkpt lat="-36.7294176" lon="174.4076065"><ele>117.0</ele><time>2026-04-18T22:28:44.888Z</time></trkpt><trkpt lat="-36.7294875" lon="174.407666"><ele>117.0</ele><time>2026-04-18T22:28:46.886Z</time></trkpt><trkpt lat="-36.7295623" lon="174.407691"><ele>117.33333333333333</ele><time>2026-04-18T22:28:48.888Z</time></trkpt><trkpt lat="-36.7296363" lon="174.4076816"><ele>117.66666666666666</ele><time>2026-04-18T22:28:50.888Z</time></trkpt><trkpt lat="-36.7297068" lon="174.407651"><ele>118.0</ele><time>2026-04-18T22:28:54.887Z</time></trkpt><trkpt lat="-36.7297919" lon="174.4076829"><ele>118.33333333333333</ele><time>2026-04-18T22:28:57.888Z</time></trkpt><trkpt lat="-36.7298478" lon="174.4077479"><ele>118.66666666666666</ele><time>2026-04-18T22:28:59.888Z</time></trkpt><trkpt lat="-36.7298903" lon="174.4078315"><ele>119.0</ele><time>2026-04-18T22:29:02.888Z</time></trkpt><trkpt lat="-36.7299181" lon="174.4079114"><ele>118.99999999999999</ele><time>2026-04-18T22:29:06.888Z</time></trkpt><trkpt lat="-36.7299791" lon="174.4078505"><ele>119.0</ele><time>2026-04-18T22:29:10.887Z</time></trkpt><trkpt lat="-36.7300221" lon="174.4077696"><ele>119.0</ele><time>2026-04-18T22:29:12.887Z</time></trkpt><trkpt lat="-36.7300755" lon="174.4076903"><ele>119.0</ele><time>2026-04-18T22:29:14.888Z</time></trkpt><trkpt lat="-36.7301451" lon="174.4076923"><ele>118.99999999999999</ele><time>2026-04-18T22:29:17.888Z</time></trkpt><trkpt lat="-36.7301057" lon="174.4077741"><ele>119.0</ele><time>2026-04-18T22:29:20.887Z</time></trkpt><trkpt lat="-36.7301153" lon="174.4078681"><ele>119.0</ele><time>2026-04-18T22:29:23.889Z</time></trkpt><trkpt lat="-36.7302032" lon="174.4078757"><ele>119.0</ele><time>2026-04-18T22:29:26.888Z</time></trkpt><trkpt lat="-36.7302655" lon="174.4079011"><ele>119.0</ele><time>2026-04-18T22:29:28.887Z</time></trkpt><trkpt lat="-36.7303281" lon="174.4079513"><ele>119.0</ele><time>2026-04-18T22:29:30.888Z</time></trkpt><trkpt lat="-36.7303943" lon="174.4079779"><ele>119.0</ele><time>2026-04-18T22:29:32.888Z</time></trkpt><trkpt lat="-36.7304575" lon="174.4079856"><ele>119.0</ele><time>2026-04-18T22:29:34.888Z</time></trkpt><trkpt lat="-36.7305372" lon="174.4080012"><ele>119.0</ele><time>2026-04-18T22:29:36.887Z</time></trkpt><trkpt lat="-36.7306141" lon="174.4080197"><ele>120.16666666666666</ele><time>2026-04-18T22:29:38.888Z</time></trkpt><trkpt lat="-36.7307001" lon="174.4079816"><ele>121.33333333333333</ele><time>2026-04-18T22:29:40.888Z</time></trkpt><trkpt lat="-36.730787" lon="174.4079627"><ele>122.5</ele><time>2026-04-18T22:29:43.889Z</time></trkpt><trkpt lat="-36.7308321" lon="174.4080567"><ele>123.66666666666666</ele><time>2026-04-18T22:29:46.887Z</time></trkpt><trkpt lat="-36.7308356" lon="174.4081767"><ele>124.83333333333333</ele><time>2026-04-18T22:29:49.888Z</time></trkpt><trkpt lat="-36.7308233" lon="174.4082772"><ele>126.0</ele><time>2026-04-18T22:29:51.888Z</time></trkpt><trkpt lat="-36.7308522" lon="174.4083823"><ele>126.33333333333333</ele><time>2026-04-18T22:29:54.888Z</time></trkpt><trkpt lat="-36.730902" lon="174.4084373"><ele>126.66666666666666</ele><time>2026-04-18T22:29:56.889Z</time></trkpt><trkpt lat="-36.7309441" lon="174.4085092"><ele>127.0</ele><time>2026-04-18T22:29:58.888Z</time></trkpt><trkpt lat="-36.7309556" lon="174.4086207"><ele>127.33333333333333</ele><time>2026-04-18T22:30:01.888Z</time></trkpt><trkpt lat="-36.7309458" lon="174.4087229"><ele>127.66666666666666</ele><time>2026-04-18T22:30:03.887Z</time></trkpt><trkpt lat="-36.7309249" lon="174.4088334"><ele>128.0</ele><time>2026-04-18T22:30:05.887Z</time></trkpt><trkpt lat="-36.730892" lon="174.4089415"><ele>129.0</ele><time>2026-04-18T22:30:07.888Z</time></trkpt><trkpt lat="-36.7308632" lon="174.4090438"><ele>130.0</ele><time>2026-04-18T22:30:09.888Z</time></trkpt><trkpt lat="-36.730829" lon="174.4091406"><ele>131.0</ele><time>2026-04-18T22:30:11.888Z</time></trkpt><trkpt lat="-36.7307933" lon="174.4092315"><ele>132.0</ele><time>2026-04-18T22:30:13.887Z</time></trkpt><trkpt lat="-36.7307504" lon="174.4093295"><ele>133.0</ele><time>2026-04-18T22:30:15.888Z</time></trkpt><trkpt lat="-36.7307176" lon="174.4094244"><ele>134.0</ele><time>2026-04-18T22:30:17.888Z</time></trkpt><trkpt lat="-36.7306784" lon="174.4095227"><ele>134.0</ele><time>2026-04-18T22:30:19.888Z</time></trkpt><trkpt lat="-36.730646" lon="174.4096209"><ele>134.0</ele><time>2026-04-18T22:30:21.889Z</time></trkpt><trkpt lat="-36.7306098" lon="174.4097202"><ele>134.0</ele><time>2026-04-18T22:30:23.887Z</time></trkpt><trkpt lat="-36.7305707" lon="174.4098112"><ele>134.0</ele><time>2026-04-18T22:30:25.886Z</time></trkpt><trkpt lat="-36.7305554" lon="174.409889"><ele>134.0</ele><time>2026-04-18T22:30:27.887Z</time></trkpt><trkpt lat="-36.7306024" lon="174.4099483"><ele>134.0</ele><time>2026-04-18T22:30:30.888Z</time></trkpt><trkpt lat="-36.730603" lon="174.4100372"><ele>134.14285714285714</ele><time>2026-04-18T22:30:35.887Z</time></trkpt><trkpt lat="-36.7305767" lon="174.4101315"><ele>134.28571428571428</ele><time>2026-04-18T22:31:23.886Z</time></trkpt><trkpt lat="-36.7305452" lon="174.4102255"><ele>134.42857142857142</ele><time>2026-04-18T22:31:26.887Z</time></trkpt><trkpt lat="-36.7305013" lon="174.4102847"><ele>134.57142857142856</ele><time>2026-04-18T22:31:28.887Z</time></trkpt><trkpt lat="-36.7304476" lon="174.4103608"><ele>134.7142857142857</ele><time>2026-04-18T22:31:31.888Z</time></trkpt><trkpt lat="-36.7303958" lon="174.4104151"><ele>134.85714285714286</ele><time>2026-04-18T22:31:33.887Z</time></trkpt><trkpt lat="-36.7303853" lon="174.4104969"><ele>135.0</ele><time>2026-04-18T22:31:35.888Z</time></trkpt><trkpt lat="-36.7304172" lon="174.4105712"><ele>135.0</ele><time>2026-04-18T22:31:38.887Z</time></trkpt><trkpt lat="-36.7304137" lon="174.4106527"><ele>135.0</ele><time>2026-04-18T22:31:40.887Z</time></trkpt><trkpt lat="-36.7304112" lon="174.4107421"><ele>135.0</ele><time>2026-04-18T22:31:42.887Z</time></trkpt><trkpt lat="-36.7304053" lon="174.4108445"><ele>135.0</ele><time>2026-04-18T22:31:44.888Z</time></trkpt><trkpt lat="-36.7303694" lon="174.4109465"><ele>135.0</ele><time>2026-04-18T22:31:46.887Z</time></trkpt><trkpt lat="-36.7303312" lon="174.4110294"><ele>135.0</ele><time>2026-04-18T22:31:48.887Z</time></trkpt><trkpt lat="-36.7302879" lon="174.4111437"><ele>135.0</ele><time>2026-04-18T22:31:50.888Z</time></trkpt><trkpt lat="-36.7302505" lon="174.4112444"><ele>135.0</ele><time>2026-04-18T22:31:52.887Z</time></trkpt><trkpt lat="-36.7302139" lon="174.4113302"><ele>135.0</ele><time>2026-04-18T22:31:54.888Z</time></trkpt><trkpt lat="-36.7302015" lon="174.4114089"><ele>135.0</ele><time>2026-04-18T22:31:56.888Z</time></trkpt><trkpt lat="-36.730156" lon="174.4114903"><ele>135.0</ele><time>2026-04-18T22:31:58.887Z</time></trkpt><trkpt lat="-36.7301242" lon="174.4115589"><ele>135.0</ele><time>2026-04-18T22:32:00.888Z</time></trkpt><trkpt lat="-36.7301021" lon="174.4116618"><ele>134.33333333333334</ele><time>2026-04-18T22:32:02.888Z</time></trkpt><trkpt lat="-36.7300801" lon="174.4117503"><ele>133.66666666666666</ele><time>2026-04-18T22:32:04.888Z</time></trkpt><trkpt lat="-36.7300315" lon="174.4118741"><ele>133.0</ele><time>2026-04-18T22:32:06.888Z</time></trkpt><trkpt lat="-36.7300074" lon="174.4119474"><ele>132.33333333333331</ele><time>2026-04-18T22:32:07.887Z</time></trkpt><trkpt lat="-36.7299724" lon="174.4120253"><ele>131.66666666666666</ele><time>2026-04-18T22:32:08.888Z</time></trkpt><trkpt lat="-36.7299446" lon="174.4121021"><ele>131.0</ele><time>2026-04-18T22:32:09.888Z</time></trkpt><trkpt lat="-36.729872" lon="174.4122203"><ele>129.6</ele><time>2026-04-18T22:32:11.887Z</time></trkpt><trkpt lat="-36.7298398" lon="174.4122991"><ele>128.2</ele><time>2026-04-18T22:32:12.887Z</time></trkpt><trkpt lat="-36.7298805" lon="174.4124284"><ele>126.80000000000001</ele><time>2026-04-18T22:32:14.889Z</time></trkpt><trkpt lat="-36.7299837" lon="174.412422"><ele>125.4</ele><time>2026-04-18T22:32:16.888Z</time></trkpt><trkpt lat="-36.7300689" lon="174.4123459"><ele>124.0</ele><time>2026-04-18T22:32:18.888Z</time></trkpt><trkpt lat="-36.7301917" lon="174.4123595"><ele>124.16666666666667</ele><time>2026-04-18T22:32:20.888Z</time></trkpt><trkpt lat="-36.7302511" lon="174.412398"><ele>124.33333333333334</ele><time>2026-04-18T22:32:21.888Z</time></trkpt><trkpt lat="-36.7303099" lon="174.4124785"><ele>124.5</ele><time>2026-04-18T22:32:22.888Z</time></trkpt><trkpt lat="-36.7303628" lon="174.4125926"><ele>124.66666666666666</ele><time>2026-04-18T22:32:23.888Z</time></trkpt><trkpt lat="-36.7303669" lon="174.4126795"><ele>124.83333333333333</ele><time>2026-04-18T22:32:24.888Z</time></trkpt><trkpt lat="-36.7303733" lon="174.4127923"><ele>125.0</ele><time>2026-04-18T22:32:26.887Z</time></trkpt><trkpt lat="-36.7303547" lon="174.4128706"><ele>124.99999999999999</ele><time>2026-04-18T22:32:28.887Z</time></trkpt><trkpt lat="-36.7303512" lon="174.4129569"><ele>125.0</ele><time>2026-04-18T22:32:30.887Z</time></trkpt><trkpt lat="-36.7304118" lon="174.4129959"><ele>125.0</ele><time>2026-04-18T22:32:34.887Z</time></trkpt><trkpt lat="-36.7304266" lon="174.4129099"><ele>125.0</ele><time>2026-04-18T22:32:37.887Z</time></trkpt><trkpt lat="-36.7304397" lon="174.412826"><ele>124.99999999999999</ele><time>2026-04-18T22:32:39.887Z</time></trkpt><trkpt lat="-36.7304909" lon="174.4127445"><ele>125.0</ele><time>2026-04-18T22:32:42.887Z</time></trkpt><trkpt lat="-36.7305363" lon="174.4126448"><ele>125.0</ele><time>2026-04-18T22:32:45.887Z</time></trkpt><trkpt lat="-36.7305441" lon="174.4125593"><ele>125.0</ele><time>2026-04-18T22:32:47.887Z</time></trkpt><trkpt lat="-36.7305751" lon="174.4124833"><ele>125.0</ele><time>2026-04-18T22:32:49.887Z</time></trkpt><trkpt lat="-36.7306294" lon="174.4124431"><ele>125.0</ele><time>2026-04-18T22:32:51.887Z</time></trkpt><trkpt lat="-36.7307041" lon="174.4124357"><ele>125.0</ele><time>2026-04-18T22:32:53.887Z</time></trkpt><trkpt lat="-36.7307718" lon="174.412437"><ele>125.0</ele><time>2026-04-18T22:32:55.887Z</time></trkpt><trkpt lat="-36.7308403" lon="174.4124101"><ele>125.0</ele><time>2026-04-18T22:32:57.888Z</time></trkpt><trkpt lat="-36.7309098" lon="174.4123578"><ele>124.99999999999999</ele><time>2026-04-18T22:33:00.887Z</time></trkpt><trkpt lat="-36.7309989" lon="174.4123596"><ele>125.0</ele><time>2026-04-18T22:33:04.888Z</time></trkpt><trkpt lat="-36.7310895" lon="174.4124068"><ele>125.0</ele><time>2026-04-18T22:33:07.888Z</time></trkpt><trkpt lat="-36.7311603" lon="174.4124353"><ele>125.0</ele><time>2026-04-18T22:33:09.888Z</time></trkpt><trkpt lat="-36.7312259" lon="174.4124228"><ele>124.99999999999999</ele><time>2026-04-18T22:33:11.888Z</time></trkpt><trkpt lat="-36.7313066" lon="174.4124193"><ele>125.0</ele><time>2026-04-18T22:33:13.887Z</time></trkpt><trkpt lat="-36.7314066" lon="174.412415"><ele>124.99999999999999</ele><time>2026-04-18T22:33:15.887Z</time></trkpt><trkpt lat="-36.7314973" lon="174.4124157"><ele>125.0</ele><time>2026-04-18T22:33:17.887Z</time></trkpt><trkpt lat="-36.7315689" lon="174.4124407"><ele>125.0</ele><time>2026-04-18T22:33:19.888Z</time></trkpt><trkpt lat="-36.7316584" lon="174.4124759"><ele>125.0</ele><time>2026-04-18T22:33:22.887Z</time></trkpt><trkpt lat="-36.7317534" lon="174.4124537"><ele>124.99999999999999</ele><time>2026-04-18T22:33:24.888Z</time></trkpt><trkpt lat="-36.7318301" lon="174.4124455"><ele>125.0</ele><time>2026-04-18T22:33:26.887Z</time></trkpt><trkpt lat="-36.7319116" lon="174.4124565"><ele>124.99999999999999</ele><time>2026-04-18T22:33:28.887Z</time></trkpt><trkpt lat="-36.7319771" lon="174.4124844"><ele>125.0</ele><time>2026-04-18T22:33:30.888Z</time></trkpt><trkpt lat="-36.732062" lon="174.4125132"><ele>125.0</ele><time>2026-04-18T22:33:32.887Z</time></trkpt><trkpt lat="-36.7321459" lon="174.4124838"><ele>125.0</ele><time>2026-04-18T22:33:35.887Z</time></trkpt><trkpt lat="-36.7322158" lon="174.4124286"><ele>124.99999999999999</ele><time>2026-04-18T22:33:38.887Z</time></trkpt><trkpt lat="-36.7322837" lon="174.4124338"><ele>125.0</ele><time>2026-04-18T22:33:41.888Z</time></trkpt><trkpt lat="-36.7323512" lon="174.4123521"><ele>124.99999999999999</ele><time>2026-04-18T22:33:44.888Z</time></trkpt><trkpt lat="-36.7324032" lon="174.4122995"><ele>125.0</ele><time>2026-04-18T22:33:46.887Z</time></trkpt><trkpt lat="-36.7324601" lon="174.4122415"><ele>125.0</ele><time>2026-04-18T22:33:48.887Z</time></trkpt><trkpt lat="-36.7325361" lon="174.4121686"><ele>125.0</ele><time>2026-04-18T22:33:50.887Z</time></trkpt><trkpt lat="-36.732627" lon="174.4121161"><ele>124.99999999999999</ele><time>2026-04-18T22:33:52.888Z</time></trkpt><trkpt lat="-36.7327139" lon="174.4121094"><ele>125.0</ele><time>2026-04-18T22:33:54.888Z</time></trkpt><trkpt lat="-36.7328189" lon="174.4121275"><ele>124.83333333333333</ele><time>2026-04-18T22:33:56.888Z</time></trkpt><trkpt lat="-36.7329071" lon="174.4121363"><ele>124.66666666666666</ele><time>2026-04-18T22:33:58.887Z</time></trkpt><trkpt lat="-36.7329728" lon="174.4121334"><ele>124.5</ele><time>2026-04-18T22:34:00.888Z</time></trkpt><trkpt lat="-36.7330609" lon="174.4121364"><ele>124.33333333333334</ele><time>2026-04-18T22:34:03.887Z</time></trkpt><trkpt lat="-36.7331222" lon="174.4121064"><ele>124.16666666666667</ele><time>2026-04-18T22:34:05.887Z</time></trkpt><trkpt lat="-36.7331873" lon="174.4120454"><ele>124.0</ele><time>2026-04-18T22:34:07.888Z</time></trkpt><trkpt lat="-36.7332568" lon="174.4120699"><ele>124.0</ele><time>2026-04-18T22:34:10.887Z</time></trkpt><trkpt lat="-36.7332989" lon="174.4121342"><ele>124.00000000000001</ele><time>2026-04-18T22:34:12.887Z</time></trkpt><trkpt lat="-36.7333223" lon="174.4122157"><ele>124.0</ele><time>2026-04-18T22:34:14.888Z</time></trkpt><trkpt lat="-36.7333381" lon="174.4122919"><ele>124.0</ele><time>2026-04-18T22:34:16.887Z</time></trkpt><trkpt lat="-36.73336" lon="174.4123829"><ele>124.00000000000001</ele><time>2026-04-18T22:34:18.887Z</time></trkpt><trkpt lat="-36.7334281" lon="174.4124419"><ele>124.0</ele><time>2026-04-18T22:34:21.887Z</time></trkpt><trkpt lat="-36.7335016" lon="174.4125039"><ele>124.0</ele><time>2026-04-18T22:34:24.888Z</time></trkpt><trkpt lat="-36.7335605" lon="174.4125712"><ele>124.50000000000001</ele><time>2026-04-18T22:34:26.887Z</time></trkpt><trkpt lat="-36.7335939" lon="174.4126474"><ele>125.0</ele><time>2026-04-18T22:34:28.887Z</time></trkpt><trkpt lat="-36.7335887" lon="174.4127391"><ele>125.5</ele><time>2026-04-18T22:34:30.888Z</time></trkpt><trkpt lat="-36.7336076" lon="174.412834"><ele>126.0</ele><time>2026-04-18T22:34:32.887Z</time></trkpt><trkpt lat="-36.7336356" lon="174.4129274"><ele>126.50000000000001</ele><time>2026-04-18T22:34:34.887Z</time></trkpt><trkpt lat="-36.7336676" lon="174.4130487"><ele>127.0</ele><time>2026-04-18T22:34:36.887Z</time></trkpt><trkpt lat="-36.7336682" lon="174.4131437"><ele>127.00000000000001</ele><time>2026-04-18T22:34:38.888Z</time></trkpt><trkpt lat="-36.7336535" lon="174.4132284"><ele>127.0</ele><time>2026-04-18T22:34:40.887Z</time></trkpt><trkpt lat="-36.7337249" lon="174.4133107"><ele>127.0</ele><time>2026-04-18T22:34:43.889Z</time></trkpt><trkpt lat="-36.7337806" lon="174.413364"><ele>127.0</ele><time>2026-04-18T22:34:45.888Z</time></trkpt><trkpt lat="-36.733855" lon="174.4134084"><ele>127.00000000000001</ele><time>2026-04-18T22:34:47.887Z</time></trkpt><trkpt lat="-36.733917" lon="174.4134728"><ele>127.0</ele><time>2026-04-18T22:34:49.888Z</time></trkpt><trkpt lat="-36.7339852" lon="174.4135249"><ele>127.0</ele><time>2026-04-18T22:34:51.886Z</time></trkpt><trkpt lat="-36.7340487" lon="174.4136057"><ele>127.0</ele><time>2026-04-18T22:34:54.886Z</time></trkpt><trkpt lat="-36.7341051" lon="174.4136492"><ele>127.0</ele><time>2026-04-18T22:34:56.887Z</time></trkpt><trkpt lat="-36.7341647" lon="174.4137198"><ele>127.0</ele><time>2026-04-18T22:34:58.888Z</time></trkpt><trkpt lat="-36.7342129" lon="174.4137745"><ele>127.0</ele><time>2026-04-18T22:35:00.888Z</time></trkpt><trkpt lat="-36.7342777" lon="174.4138059"><ele>127.0</ele><time>2026-04-18T22:35:02.887Z</time></trkpt><trkpt lat="-36.7343371" lon="174.4138369"><ele>127.0</ele><time>2026-04-18T22:35:04.888Z</time></trkpt><trkpt lat="-36.7344196" lon="174.4138336"><ele>127.83333333333334</ele><time>2026-04-18T22:35:07.888Z</time></trkpt><trkpt lat="-36.7344666" lon="174.4138891"><ele>128.66666666666669</ele><time>2026-04-18T22:35:09.888Z</time></trkpt><trkpt lat="-36.7345109" lon="174.4139802"><ele>129.5</ele><time>2026-04-18T22:35:11.888Z</time></trkpt><trkpt lat="-36.7345756" lon="174.4140652"><ele>130.33333333333334</ele><time>2026-04-18T22:35:13.888Z</time></trkpt><trkpt lat="-36.7346457" lon="174.4141069"><ele>131.16666666666666</ele><time>2026-04-18T22:35:15.888Z</time></trkpt><trkpt lat="-36.734714" lon="174.4141709"><ele>132.0</ele><time>2026-04-18T22:35:17.887Z</time></trkpt><trkpt lat="-36.7347933" lon="174.4142112"><ele>132.0</ele><time>2026-04-18T22:35:19.887Z</time></trkpt><trkpt lat="-36.7348615" lon="174.4142222"><ele>132.0</ele><time>2026-04-18T22:35:21.887Z</time></trkpt><trkpt lat="-36.7349134" lon="174.4141767"><ele>132.0</ele><time>2026-04-18T22:35:23.887Z</time></trkpt><trkpt lat="-36.73496" lon="174.4141197"><ele>132.0</ele><time>2026-04-18T22:35:25.888Z</time></trkpt><trkpt lat="-36.7350198" lon="174.4140931"><ele>132.0</ele><time>2026-04-18T22:35:27.887Z</time></trkpt><trkpt lat="-36.7350977" lon="174.4140984"><ele>132.0</ele><time>2026-04-18T22:35:29.887Z</time></trkpt><trkpt lat="-36.7351844" lon="174.414097"><ele>132.0</ele><time>2026-04-18T22:35:31.888Z</time></trkpt><trkpt lat="-36.7352599" lon="174.4141096"><ele>131.83333333333334</ele><time>2026-04-18T22:35:33.887Z</time></trkpt><trkpt lat="-36.7353415" lon="174.4141503"><ele>131.66666666666666</ele><time>2026-04-18T22:35:35.887Z</time></trkpt><trkpt lat="-36.7354061" lon="174.4141323"><ele>131.5</ele><time>2026-04-18T22:35:37.888Z</time></trkpt><trkpt lat="-36.7354769" lon="174.4141164"><ele>131.33333333333331</ele><time>2026-04-18T22:35:40.888Z</time></trkpt><trkpt lat="-36.7355342" lon="174.4141791"><ele>131.16666666666666</ele><time>2026-04-18T22:35:43.887Z</time></trkpt><trkpt lat="-36.7356066" lon="174.414135"><ele>131.0</ele><time>2026-04-18T22:35:47.887Z</time></trkpt><trkpt lat="-36.7356252" lon="174.4140518"><ele>131.0</ele><time>2026-04-18T22:35:49.886Z</time></trkpt><trkpt lat="-36.7356368" lon="174.4139624"><ele>131.0</ele><time>2026-04-18T22:35:51.888Z</time></trkpt><trkpt lat="-36.7356678" lon="174.4138681"><ele>131.0</ele><time>2026-04-18T22:35:53.888Z</time></trkpt><trkpt lat="-36.735705" lon="174.4137702"><ele>131.0</ele><time>2026-04-18T22:35:55.888Z</time></trkpt><trkpt lat="-36.7357352" lon="174.4136486"><ele>131.0</ele><time>2026-04-18T22:35:57.889Z</time></trkpt><trkpt lat="-36.7357704" lon="174.4135322"><ele>131.0</ele><time>2026-04-18T22:35:59.888Z</time></trkpt><trkpt lat="-36.7358062" lon="174.4134173"><ele>131.0</ele><time>2026-04-18T22:36:01.887Z</time></trkpt><trkpt lat="-36.7358279" lon="174.4132765"><ele>131.0</ele><time>2026-04-18T22:36:03.887Z</time></trkpt><trkpt lat="-36.7358558" lon="174.4131992"><ele>131.0</ele><time>2026-04-18T22:36:04.887Z</time></trkpt><trkpt lat="-36.7358639" lon="174.4130539"><ele>131.0</ele><time>2026-04-18T22:36:06.887Z</time></trkpt><trkpt lat="-36.7358842" lon="174.4129089"><ele>131.0</ele><time>2026-04-18T22:36:08.888Z</time></trkpt><trkpt lat="-36.7359079" lon="174.4128292"><ele>131.33333333333331</ele><time>2026-04-18T22:36:09.888Z</time></trkpt><trkpt lat="-36.7359366" lon="174.4127568"><ele>131.66666666666666</ele><time>2026-04-18T22:36:10.888Z</time></trkpt><trkpt lat="-36.7359693" lon="174.4126737"><ele>132.0</ele><time>2026-04-18T22:36:11.887Z</time></trkpt><trkpt lat="-36.7359932" lon="174.412592"><ele>132.33333333333334</ele><time>2026-04-18T22:36:12.889Z</time></trkpt><trkpt lat="-36.7360106" lon="174.412514"><ele>132.66666666666669</ele><time>2026-04-18T22:36:13.888Z</time></trkpt><trkpt lat="-36.7360417" lon="174.4123593"><ele>133.0</ele><time>2026-04-18T22:36:15.886Z</time></trkpt><trkpt lat="-36.7360647" lon="174.412279"><ele>132.20000000000002</ele><time>2026-04-18T22:36:16.888Z</time></trkpt><trkpt lat="-36.7361102" lon="174.4121451"><ele>131.4</ele><time>2026-04-18T22:36:18.888Z</time></trkpt><trkpt lat="-36.73614" lon="174.4120697"><ele>130.60000000000002</ele><time>2026-04-18T22:36:19.887Z</time></trkpt><trkpt lat="-36.7361456" lon="174.4119373"><ele>129.8</ele><time>2026-04-18T22:36:21.887Z</time></trkpt><trkpt lat="-36.7361522" lon="174.4118088"><ele>129.0</ele><time>2026-04-18T22:36:23.886Z</time></trkpt><trkpt lat="-36.7361661" lon="174.411681"><ele>129.0</ele><time>2026-04-18T22:36:25.887Z</time></trkpt><trkpt lat="-36.7361639" lon="174.4115615"><ele>129.0</ele><time>2026-04-18T22:36:27.888Z</time></trkpt><trkpt lat="-36.7361682" lon="174.4114736"><ele>129.0</ele><time>2026-04-18T22:36:29.888Z</time></trkpt><trkpt lat="-36.7362112" lon="174.4114095"><ele>129.0</ele><time>2026-04-18T22:36:31.888Z</time></trkpt><trkpt lat="-36.7362651" lon="174.4113629"><ele>129.0</ele><time>2026-04-18T22:36:33.887Z</time></trkpt><trkpt lat="-36.7363413" lon="174.4113699"><ele>129.0</ele><time>2026-04-18T22:36:35.887Z</time></trkpt><trkpt lat="-36.7364173" lon="174.411418"><ele>129.0</ele><time>2026-04-18T22:36:37.889Z</time></trkpt><trkpt lat="-36.7364987" lon="174.4114496"><ele>129.0</ele><time>2026-04-18T22:36:39.889Z</time></trkpt><trkpt lat="-36.7366149" lon="174.4114673"><ele>129.0</ele><time>2026-04-18T22:36:41.887Z</time></trkpt><trkpt lat="-36.7367181" lon="174.4115099"><ele>129.0</ele><time>2026-04-18T22:36:43.888Z</time></trkpt><trkpt lat="-36.7368113" lon="174.4115608"><ele>129.0</ele><time>2026-04-18T22:36:45.886Z</time></trkpt><trkpt lat="-36.7368875" lon="174.411584"><ele>128.66666666666666</ele><time>2026-04-18T22:36:46.886Z</time></trkpt><trkpt lat="-36.7369503" lon="174.41161"><ele>128.33333333333334</ele><time>2026-04-18T22:36:47.888Z</time></trkpt><trkpt lat="-36.7370116" lon="174.4116279"><ele>128.0</ele><time>2026-04-18T22:36:48.887Z</time></trkpt><trkpt lat="-36.7370691" lon="174.4116651"><ele>127.66666666666667</ele><time>2026-04-18T22:36:49.888Z</time></trkpt><trkpt lat="-36.7371289" lon="174.4116918"><ele>127.33333333333334</ele><time>2026-04-18T22:36:50.886Z</time></trkpt><trkpt lat="-36.7372497" lon="174.4117448"><ele>127.0</ele><time>2026-04-18T22:36:52.888Z</time></trkpt><trkpt lat="-36.7373271" lon="174.4117785"><ele>127.00000000000001</ele><time>2026-04-18T22:36:53.887Z</time></trkpt><trkpt lat="-36.7373906" lon="174.4118008"><ele>127.0</ele><time>2026-04-18T22:36:54.888Z</time></trkpt><trkpt lat="-36.7374595" lon="174.4118271"><ele>127.0</ele><time>2026-04-18T22:36:55.887Z</time></trkpt><trkpt lat="-36.7375225" lon="174.4118573"><ele>127.0</ele><time>2026-04-18T22:36:56.887Z</time></trkpt><trkpt lat="-36.7375914" lon="174.4118966"><ele>127.00000000000001</ele><time>2026-04-18T22:36:57.887Z</time></trkpt><trkpt lat="-36.7377215" lon="174.4119472"><ele>127.0</ele><time>2026-04-18T22:36:59.887Z</time></trkpt><trkpt lat="-36.7377884" lon="174.4119837"><ele>126.83333333333334</ele><time>2026-04-18T22:37:00.888Z</time></trkpt><trkpt lat="-36.7378556" lon="174.4119972"><ele>126.66666666666667</ele><time>2026-04-18T22:37:01.887Z</time></trkpt><trkpt lat="-36.7379376" lon="174.4120671"><ele>126.5</ele><time>2026-04-18T22:37:03.889Z</time></trkpt><trkpt lat="-36.7380092" lon="174.4121482"><ele>126.33333333333334</ele><time>2026-04-18T22:37:05.887Z</time></trkpt><trkpt lat="-36.7380303" lon="174.4122357"><ele>126.16666666666667</ele><time>2026-04-18T22:37:08.888Z</time></trkpt><trkpt lat="-36.7380321" lon="174.4123421"><ele>126.0</ele><time>2026-04-18T22:37:11.887Z</time></trkpt><trkpt lat="-36.7380959" lon="174.4124021"><ele>126.0</ele><time>2026-04-18T22:37:13.888Z</time></trkpt><trkpt lat="-36.7381517" lon="174.4124579"><ele>126.0</ele><time>2026-04-18T22:37:15.886Z</time></trkpt><trkpt lat="-36.7382134" lon="174.4125126"><ele>126.0</ele><time>2026-04-18T22:37:17.888Z</time></trkpt><trkpt lat="-36.7382766" lon="174.4125326"><ele>126.0</ele><time>2026-04-18T22:37:19.888Z</time></trkpt><trkpt lat="-36.7383144" lon="174.4126152"><ele>126.0</ele><time>2026-04-18T22:37:22.887Z</time></trkpt><trkpt lat="-36.7382587" lon="174.4126686"><ele>126.0</ele><time>2026-04-18T22:37:24.888Z</time></trkpt><trkpt lat="-36.738193" lon="174.412736"><ele>126.0</ele><time>2026-04-18T22:37:26.886Z</time></trkpt><trkpt lat="-36.73814" lon="174.4128119"><ele>126.0</ele><time>2026-04-18T22:37:28.887Z</time></trkpt><trkpt lat="-36.738151" lon="174.4129099"><ele>126.0</ele><time>2026-04-18T22:37:31.887Z</time></trkpt><trkpt lat="-36.7382198" lon="174.4129045"><ele>126.0</ele><time>2026-04-18T22:37:33.886Z</time></trkpt><trkpt lat="-36.738314" lon="174.4128915"><ele>126.0</ele><time>2026-04-18T22:37:35.888Z</time></trkpt><trkpt lat="-36.7383836" lon="174.4129054"><ele>126.0</ele><time>2026-04-18T22:37:37.888Z</time></trkpt><trkpt lat="-36.7384147" lon="174.4129815"><ele>126.0</ele><time>2026-04-18T22:37:39.889Z</time></trkpt><trkpt lat="-36.7383965" lon="174.4130914"><ele>125.71428571428572</ele><time>2026-04-18T22:37:42.886Z</time></trkpt><trkpt lat="-36.7384632" lon="174.4130703"><ele>125.42857142857143</ele><time>2026-04-18T22:37:45.888Z</time></trkpt><trkpt lat="-36.7385168" lon="174.4130136"><ele>125.14285714285714</ele><time>2026-04-18T22:37:47.888Z</time></trkpt><trkpt lat="-36.7385833" lon="174.4129847"><ele>124.85714285714286</ele><time>2026-04-18T22:37:50.888Z</time></trkpt><trkpt lat="-36.738579" lon="174.4130888"><ele>124.57142857142858</ele><time>2026-04-18T22:37:54.886Z</time></trkpt><trkpt lat="-36.7385806" lon="174.4131755"><ele>124.28571428571429</ele><time>2026-04-18T22:37:56.887Z</time></trkpt><trkpt lat="-36.7385766" lon="174.4132835"><ele>124.0</ele><time>2026-04-18T22:37:58.887Z</time></trkpt><trkpt lat="-36.7386327" lon="174.4133307"><ele>126.33333333333334</ele><time>2026-04-18T22:38:03.888Z</time></trkpt><trkpt lat="-36.7387053" lon="174.4132922"><ele>128.66666666666669</ele><time>2026-04-18T22:38:06.888Z</time></trkpt><trkpt lat="-36.7387662" lon="174.4132472"><ele>131.0</ele><time>2026-04-18T22:38:08.886Z</time></trkpt><trkpt lat="-36.7388578" lon="174.4132514"><ele>133.33333333333334</ele><time>2026-04-18T22:38:10.886Z</time></trkpt><trkpt lat="-36.7389388" lon="174.4132949"><ele>135.66666666666666</ele><time>2026-04-18T22:38:12.887Z</time></trkpt><trkpt lat="-36.7390439" lon="174.4133242"><ele>138.0</ele><time>2026-04-18T22:38:14.887Z</time></trkpt><trkpt lat="-36.7391197" lon="174.4133923"><ele>138.0</ele><time>2026-04-18T22:38:15.887Z</time></trkpt><trkpt lat="-36.7391593" lon="174.413463"><ele>138.0</ele><time>2026-04-18T22:38:17.887Z</time></trkpt><trkpt lat="-36.7391821" lon="174.4135723"><ele>138.0</ele><time>2026-04-18T22:38:19.887Z</time></trkpt><trkpt lat="-36.7392492" lon="174.4136248"><ele>138.0</ele><time>2026-04-18T22:38:22.887Z</time></trkpt><trkpt lat="-36.7392977" lon="174.4135641"><ele>138.0</ele><time>2026-04-18T22:38:25.887Z</time></trkpt><trkpt lat="-36.7393238" lon="174.4134639"><ele>138.0</ele><time>2026-04-18T22:38:27.888Z</time></trkpt><trkpt lat="-36.7392489" lon="174.4133506"><ele>138.0</ele><time>2026-04-18T22:38:29.888Z</time></trkpt><trkpt lat="-36.7391805" lon="174.4132292"><ele>138.0</ele><time>2026-04-18T22:38:31.887Z</time></trkpt><trkpt lat="-36.739127" lon="174.4131166"><ele>138.0</ele><time>2026-04-18T22:38:33.888Z</time></trkpt><trkpt lat="-36.7391375" lon="174.4130063"><ele>138.0</ele><time>2026-04-18T22:38:35.888Z</time></trkpt><trkpt lat="-36.7391947" lon="174.4129545"><ele>138.0</ele><time>2026-04-18T22:38:37.887Z</time></trkpt><trkpt lat="-36.7392982" lon="174.4129627"><ele>136.0</ele><time>2026-04-18T22:38:39.888Z</time></trkpt><trkpt lat="-36.7393905" lon="174.4130074"><ele>134.0</ele><time>2026-04-18T22:38:41.887Z</time></trkpt><trkpt lat="-36.7394534" lon="174.4130835"><ele>132.0</ele><time>2026-04-18T22:38:43.888Z</time></trkpt><trkpt lat="-36.7394991" lon="174.4131842"><ele>130.0</ele><time>2026-04-18T22:38:45.887Z</time></trkpt><trkpt lat="-36.7395527" lon="174.4132709"><ele>128.0</ele><time>2026-04-18T22:38:47.887Z</time></trkpt><trkpt lat="-36.7396348" lon="174.4133231"><ele>127.99999999999999</ele><time>2026-04-18T22:38:49.887Z</time></trkpt><trkpt lat="-36.7396877" lon="174.4134026"><ele>128.0</ele><time>2026-04-18T22:38:52.887Z</time></trkpt><trkpt lat="-36.7396248" lon="174.4134725"><ele>128.0</ele><time>2026-04-18T22:38:55.887Z</time></trkpt><trkpt lat="-36.7395477" lon="174.4134756"><ele>128.0</ele><time>2026-04-18T22:38:57.887Z</time></trkpt><trkpt lat="-36.7394702" lon="174.4134672"><ele>127.99999999999999</ele><time>2026-04-18T22:38:59.887Z</time></trkpt><trkpt lat="-36.7394249" lon="174.413546"><ele>128.0</ele><time>2026-04-18T22:39:02.888Z</time></trkpt><trkpt lat="-36.7394047" lon="174.4136308"><ele>127.99999999999999</ele><time>2026-04-18T22:39:04.888Z</time></trkpt><trkpt lat="-36.7393887" lon="174.4137198"><ele>128.0</ele><time>2026-04-18T22:39:06.888Z</time></trkpt><trkpt lat="-36.7393937" lon="174.4138225"><ele>128.0</ele><time>2026-04-18T22:39:09.887Z</time></trkpt><trkpt lat="-36.7394798" lon="174.4138386"><ele>128.0</ele><time>2026-04-18T22:39:12.889Z</time></trkpt><trkpt lat="-36.7395467" lon="174.4138133"><ele>127.99999999999999</ele><time>2026-04-18T22:39:14.887Z</time></trkpt><trkpt lat="-36.7396297" lon="174.4138076"><ele>128.0</ele><time>2026-04-18T22:39:15.886Z</time></trkpt><trkpt lat="-36.7396991" lon="174.413767"><ele>127.99999999999999</ele><time>2026-04-18T22:39:16.887Z</time></trkpt><trkpt lat="-36.7397644" lon="174.4136784"><ele>128.0</ele><time>2026-04-18T22:39:18.887Z</time></trkpt><trkpt lat="-36.7398493" lon="174.4135933"><ele>128.0</ele><time>2026-04-18T22:39:20.888Z</time></trkpt><trkpt lat="-36.7399072" lon="174.413559"><ele>128.0</ele><time>2026-04-18T22:39:21.887Z</time></trkpt><trkpt lat="-36.7399697" lon="174.413538"><ele>127.99999999999999</ele><time>2026-04-18T22:39:22.887Z</time></trkpt><trkpt lat="-36.7400444" lon="174.4136034"><ele>128.0</ele><time>2026-04-18T22:39:24.888Z</time></trkpt><trkpt lat="-36.7401038" lon="174.413639"><ele>127.99999999999999</ele><time>2026-04-18T22:39:26.888Z</time></trkpt><trkpt lat="-36.7401753" lon="174.4135984"><ele>128.0</ele><time>2026-04-18T22:39:28.888Z</time></trkpt><trkpt lat="-36.740241" lon="174.4135651"><ele>128.0</ele><time>2026-04-18T22:39:30.888Z</time></trkpt><trkpt lat="-36.7403136" lon="174.4135835"><ele>128.0</ele><time>2026-04-18T22:39:32.888Z</time></trkpt><trkpt lat="-36.7403829" lon="174.4136222"><ele>127.99999999999999</ele><time>2026-04-18T22:39:35.887Z</time></trkpt><trkpt lat="-36.7404729" lon="174.4137232"><ele>128.0</ele><time>2026-04-18T22:39:37.887Z</time></trkpt><trkpt lat="-36.7405748" lon="174.4137894"><ele>129.0</ele><time>2026-04-18T22:39:39.887Z</time></trkpt><trkpt lat="-36.7405941" lon="174.4138767"><ele>130.0</ele><time>2026-04-18T22:39:41.886Z</time></trkpt><trkpt lat="-36.7405655" lon="174.4139502"><ele>131.0</ele><time>2026-04-18T22:39:44.888Z</time></trkpt><trkpt lat="-36.7405225" lon="174.41402"><ele>132.0</ele><time>2026-04-18T22:39:46.888Z</time></trkpt><trkpt lat="-36.7404721" lon="174.4140956"><ele>133.0</ele><time>2026-04-18T22:39:49.887Z</time></trkpt><trkpt lat="-36.7403892" lon="174.4140949"><ele>134.0</ele><time>2026-04-18T22:39:52.887Z</time></trkpt><trkpt lat="-36.7403242" lon="174.4140877"><ele>135.0</ele><time>2026-04-18T22:39:54.888Z</time></trkpt><trkpt lat="-36.7402667" lon="174.4141239"><ele>135.83333333333334</ele><time>2026-04-18T22:39:56.887Z</time></trkpt><trkpt lat="-36.7401905" lon="174.4141683"><ele>136.66666666666666</ele><time>2026-04-18T22:39:59.887Z</time></trkpt><trkpt lat="-36.7401068" lon="174.4141885"><ele>137.5</ele><time>2026-04-18T22:40:01.888Z</time></trkpt><trkpt lat="-36.7400262" lon="174.4141972"><ele>138.33333333333331</ele><time>2026-04-18T22:40:03.888Z</time></trkpt><trkpt lat="-36.7399495" lon="174.41417"><ele>139.16666666666666</ele><time>2026-04-18T22:40:05.887Z</time></trkpt><trkpt lat="-36.7398742" lon="174.4141436"><ele>140.0</ele><time>2026-04-18T22:40:07.887Z</time></trkpt><trkpt lat="-36.7397999" lon="174.4141237"><ele>140.0</ele><time>2026-04-18T22:40:09.888Z</time></trkpt><trkpt lat="-36.7397346" lon="174.4141242"><ele>140.0</ele><time>2026-04-18T22:40:11.887Z</time></trkpt><trkpt lat="-36.739684" lon="174.4141745"><ele>140.0</ele><time>2026-04-18T22:40:13.888Z</time></trkpt><trkpt lat="-36.7397295" lon="174.414233"><ele>140.0</ele><time>2026-04-18T22:40:18.886Z</time></trkpt><trkpt lat="-36.7398148" lon="174.4142432"><ele>140.0</ele><time>2026-04-18T22:40:21.886Z</time></trkpt><trkpt lat="-36.739888" lon="174.4142625"><ele>140.0</ele><time>2026-04-18T22:40:23.887Z</time></trkpt><trkpt lat="-36.7399637" lon="174.4143173"><ele>140.0</ele><time>2026-04-18T22:40:25.889Z</time></trkpt><trkpt lat="-36.7400247" lon="174.4143399"><ele>140.0</ele><time>2026-04-18T22:40:27.886Z</time></trkpt><trkpt lat="-36.7400987" lon="174.4143331"><ele>140.0</ele><time>2026-04-18T22:40:29.887Z</time></trkpt><trkpt lat="-36.740184" lon="174.4143141"><ele>140.0</ele><time>2026-04-18T22:40:31.887Z</time></trkpt><trkpt lat="-36.7402824" lon="174.4143341"><ele>140.0</ele><time>2026-04-18T22:40:33.888Z</time></trkpt><trkpt lat="-36.7403811" lon="174.4143182"><ele>140.0</ele><time>2026-04-18T22:40:35.887Z</time></trkpt><trkpt lat="-36.740465" lon="174.4143008"><ele>140.0</ele><time>2026-04-18T22:40:37.887Z</time></trkpt><trkpt lat="-36.7405533" lon="174.4142639"><ele>139.0</ele><time>2026-04-18T22:40:39.888Z</time></trkpt><trkpt lat="-36.7406418" lon="174.414196"><ele>138.0</ele><time>2026-04-18T22:40:41.886Z</time></trkpt><trkpt lat="-36.7407353" lon="174.4141573"><ele>137.0</ele><time>2026-04-18T22:40:43.887Z</time></trkpt><trkpt lat="-36.740824" lon="174.4141059"><ele>136.0</ele><time>2026-04-18T22:40:45.887Z</time></trkpt><trkpt lat="-36.7408837" lon="174.4140627"><ele>135.0</ele><time>2026-04-18T22:40:47.887Z</time></trkpt><trkpt lat="-36.7409793" lon="174.4140613"><ele>135.0</ele><time>2026-04-18T22:40:50.888Z</time></trkpt><trkpt lat="-36.7410712" lon="174.4141519"><ele>135.0</ele><time>2026-04-18T22:40:52.887Z</time></trkpt><trkpt lat="-36.7411223" lon="174.4142366"><ele>135.0</ele><time>2026-04-18T22:40:54.888Z</time></trkpt><trkpt lat="-36.741149" lon="174.4143101"><ele>135.0</ele><time>2026-04-18T22:40:56.887Z</time></trkpt><trkpt lat="-36.7411712" lon="174.4144142"><ele>135.0</ele><time>2026-04-18T22:40:59.889Z</time></trkpt><trkpt lat="-36.7411913" lon="174.4144966"><ele>135.0</ele><time>2026-04-18T22:41:01.887Z</time></trkpt><trkpt lat="-36.7411985" lon="174.4146127"><ele>135.33333333333334</ele><time>2026-04-18T22:41:04.887Z</time></trkpt><trkpt lat="-36.7412315" lon="174.4147129"><ele>135.66666666666666</ele><time>2026-04-18T22:41:06.887Z</time></trkpt><trkpt lat="-36.7412996" lon="174.4147609"><ele>136.0</ele><time>2026-04-18T22:41:08.887Z</time></trkpt><trkpt lat="-36.7413584" lon="174.4148078"><ele>136.33333333333331</ele><time>2026-04-18T22:41:10.888Z</time></trkpt><trkpt lat="-36.7414218" lon="174.4148794"><ele>136.66666666666666</ele><time>2026-04-18T22:41:12.886Z</time></trkpt><trkpt lat="-36.741503" lon="174.4149026"><ele>137.0</ele><time>2026-04-18T22:41:14.888Z</time></trkpt><trkpt lat="-36.7415751" lon="174.4149073"><ele>137.0</ele><time>2026-04-18T22:41:16.886Z</time></trkpt><trkpt lat="-36.7416755" lon="174.4148969"><ele>137.0</ele><time>2026-04-18T22:41:18.886Z</time></trkpt><trkpt lat="-36.7417452" lon="174.4148581"><ele>137.0</ele><time>2026-04-18T22:41:20.888Z</time></trkpt><trkpt lat="-36.7418183" lon="174.4148027"><ele>137.0</ele><time>2026-04-18T22:41:23.886Z</time></trkpt><trkpt lat="-36.7418852" lon="174.4148121"><ele>137.0</ele><time>2026-04-18T22:41:26.887Z</time></trkpt><trkpt lat="-36.7419038" lon="174.4149023"><ele>137.0</ele><time>2026-04-18T22:41:29.888Z</time></trkpt><trkpt lat="-36.7418832" lon="174.4149769"><ele>137.0</ele><time>2026-04-18T22:41:31.887Z</time></trkpt><trkpt lat="-36.7417557" lon="174.4150738"><ele>137.0</ele><time>2026-04-18T22:41:33.889Z</time></trkpt><trkpt lat="-36.7416786" lon="174.4151238"><ele>137.0</ele><time>2026-04-18T22:41:35.887Z</time></trkpt><trkpt lat="-36.7415935" lon="174.415186"><ele>137.0</ele><time>2026-04-18T22:41:37.887Z</time></trkpt><trkpt lat="-36.7415675" lon="174.4152688"><ele>137.0</ele><time>2026-04-18T22:41:39.887Z</time></trkpt><trkpt lat="-36.7415623" lon="174.4153852"><ele>137.0</ele><time>2026-04-18T22:41:41.887Z</time></trkpt><trkpt lat="-36.7415917" lon="174.4154562"><ele>137.0</ele><time>2026-04-18T22:41:43.887Z</time></trkpt><trkpt lat="-36.7416623" lon="174.4154638"><ele>137.0</ele><time>2026-04-18T22:41:45.887Z</time></trkpt><trkpt lat="-36.7417358" lon="174.4154796"><ele>137.0</ele><time>2026-04-18T22:41:47.887Z</time></trkpt><trkpt lat="-36.741748" lon="174.4155802"><ele>137.0</ele><time>2026-04-18T22:41:50.887Z</time></trkpt><trkpt lat="-36.7417421" lon="174.4156813"><ele>137.0</ele><time>2026-04-18T22:41:52.887Z</time></trkpt><trkpt lat="-36.7416805" lon="174.4157661"><ele>136.16666666666666</ele><time>2026-04-18T22:41:54.887Z</time></trkpt><trkpt lat="-36.7415936" lon="174.4158034"><ele>135.33333333333331</ele><time>2026-04-18T22:41:55.886Z</time></trkpt><trkpt lat="-36.7415069" lon="174.4158397"><ele>134.5</ele><time>2026-04-18T22:41:57.887Z</time></trkpt><trkpt lat="-36.7414471" lon="174.4158969"><ele>133.66666666666666</ele><time>2026-04-18T22:41:59.888Z</time></trkpt><trkpt lat="-36.7414105" lon="174.4159961"><ele>132.83333333333334</ele><time>2026-04-18T22:42:01.889Z</time></trkpt><trkpt lat="-36.7414459" lon="174.4160889"><ele>132.0</ele><time>2026-04-18T22:42:03.888Z</time></trkpt><trkpt lat="-36.7415509" lon="174.4161437"><ele>132.0</ele><time>2026-04-18T22:42:05.886Z</time></trkpt><trkpt lat="-36.7416298" lon="174.4162469"><ele>132.0</ele><time>2026-04-18T22:42:07.886Z</time></trkpt><trkpt lat="-36.7416117" lon="174.4163495"><ele>132.0</ele><time>2026-04-18T22:42:09.888Z</time></trkpt><trkpt lat="-36.7415761" lon="174.4164322"><ele>132.0</ele><time>2026-04-18T22:42:10.888Z</time></trkpt><trkpt lat="-36.741492" lon="174.4165293"><ele>132.0</ele><time>2026-04-18T22:42:12.887Z</time></trkpt><trkpt lat="-36.7414623" lon="174.4166447"><ele>131.83333333333334</ele><time>2026-04-18T22:42:14.888Z</time></trkpt><trkpt lat="-36.7414489" lon="174.4167256"><ele>131.66666666666666</ele><time>2026-04-18T22:42:16.888Z</time></trkpt><trkpt lat="-36.7414064" lon="174.4168112"><ele>131.5</ele><time>2026-04-18T22:42:18.888Z</time></trkpt><trkpt lat="-36.7413616" lon="174.4168927"><ele>131.33333333333331</ele><time>2026-04-18T22:42:20.887Z</time></trkpt><trkpt lat="-36.7413595" lon="174.4169996"><ele>131.16666666666666</ele><time>2026-04-18T22:42:22.887Z</time></trkpt><trkpt lat="-36.741355" lon="174.4171071"><ele>131.0</ele><time>2026-04-18T22:42:24.887Z</time></trkpt><trkpt lat="-36.7413775" lon="174.4171978"><ele>131.0</ele><time>2026-04-18T22:42:26.888Z</time></trkpt><trkpt lat="-36.7413415" lon="174.4172821"><ele>131.0</ele><time>2026-04-18T22:42:28.887Z</time></trkpt><trkpt lat="-36.7412879" lon="174.4173721"><ele>131.0</ele><time>2026-04-18T22:42:30.887Z</time></trkpt><trkpt lat="-36.7412291" lon="174.4174462"><ele>131.0</ele><time>2026-04-18T22:42:32.887Z</time></trkpt><trkpt lat="-36.741209" lon="174.4175422"><ele>131.0</ele><time>2026-04-18T22:42:34.888Z</time></trkpt><trkpt lat="-36.7412653" lon="174.4175847"><ele>131.0</ele><time>2026-04-18T22:42:37.886Z</time></trkpt><trkpt lat="-36.7412984" lon="174.4175081"><ele>131.0</ele><time>2026-04-18T22:42:39.888Z</time></trkpt><trkpt lat="-36.7413686" lon="174.4173803"><ele>131.0</ele><time>2026-04-18T22:42:41.887Z</time></trkpt><trkpt lat="-36.7414216" lon="174.4172782"><ele>131.0</ele><time>2026-04-18T22:42:43.887Z</time></trkpt><trkpt lat="-36.7414565" lon="174.4171753"><ele>131.0</ele><time>2026-04-18T22:42:45.888Z</time></trkpt><trkpt lat="-36.7415134" lon="174.4170919"><ele>131.0</ele><time>2026-04-18T22:42:47.887Z</time></trkpt><trkpt lat="-36.741557" lon="174.4169784"><ele>131.0</ele><time>2026-04-18T22:42:49.887Z</time></trkpt><trkpt lat="-36.7415747" lon="174.4168681"><ele>131.0</ele><time>2026-04-18T22:42:51.887Z</time></trkpt><trkpt lat="-36.7416049" lon="174.4167328"><ele>131.0</ele><time>2026-04-18T22:42:53.887Z</time></trkpt><trkpt lat="-36.7416178" lon="174.4166544"><ele>131.0</ele><time>2026-04-18T22:42:54.888Z</time></trkpt><trkpt lat="-36.7416463" lon="174.416581"><ele>131.0</ele><time>2026-04-18T22:42:55.887Z</time></trkpt><trkpt lat="-36.7416806" lon="174.4165058"><ele>131.0</ele><time>2026-04-18T22:42:56.887Z</time></trkpt><trkpt lat="-36.7417095" lon="174.4163633"><ele>131.2</ele><time>2026-04-18T22:42:58.886Z</time></trkpt><trkpt lat="-36.7417582" lon="174.416219"><ele>131.39999999999998</ele><time>2026-04-18T22:43:00.887Z</time></trkpt><trkpt lat="-36.7417571" lon="174.4160872"><ele>131.6</ele><time>2026-04-18T22:43:02.888Z</time></trkpt><trkpt lat="-36.7417609" lon="174.4159663"><ele>131.79999999999998</ele><time>2026-04-18T22:43:04.888Z</time></trkpt><trkpt lat="-36.7417573" lon="174.4158672"><ele>132.0</ele><time>2026-04-18T22:43:06.888Z</time></trkpt><trkpt lat="-36.7417977" lon="174.4157488"><ele>132.0</ele><time>2026-04-18T22:43:08.887Z</time></trkpt><trkpt lat="-36.74184" lon="174.4156394"><ele>132.0</ele><time>2026-04-18T22:43:10.887Z</time></trkpt><trkpt lat="-36.741867" lon="174.4155565"><ele>132.0</ele><time>2026-04-18T22:43:11.887Z</time></trkpt><trkpt lat="-36.741889" lon="174.4154582"><ele>132.0</ele><time>2026-04-18T22:43:13.887Z</time></trkpt><trkpt lat="-36.7419125" lon="174.4153372"><ele>132.0</ele><time>2026-04-18T22:43:15.887Z</time></trkpt><trkpt lat="-36.7419143" lon="174.4152247"><ele>132.0</ele><time>2026-04-18T22:43:17.887Z</time></trkpt><trkpt lat="-36.7419194" lon="174.4150815"><ele>132.16666666666666</ele><time>2026-04-18T22:43:19.888Z</time></trkpt><trkpt lat="-36.7419458" lon="174.4149657"><ele>132.33333333333334</ele><time>2026-04-18T22:43:22.887Z</time></trkpt><trkpt lat="-36.7419918" lon="174.4148975"><ele>132.5</ele><time>2026-04-18T22:43:24.887Z</time></trkpt><trkpt lat="-36.7420805" lon="174.414858"><ele>132.66666666666669</ele><time>2026-04-18T22:43:25.886Z</time></trkpt><trkpt lat="-36.7421451" lon="174.4147865"><ele>132.83333333333334</ele><time>2026-04-18T22:43:27.888Z</time></trkpt><trkpt lat="-36.7421671" lon="174.4146797"><ele>133.0</ele><time>2026-04-18T22:43:29.887Z</time></trkpt><trkpt lat="-36.7421731" lon="174.4145843"><ele>133.0</ele><time>2026-04-18T22:43:32.886Z</time></trkpt><trkpt lat="-36.7422145" lon="174.4144875"><ele>133.0</ele><time>2026-04-18T22:43:35.887Z</time></trkpt><trkpt lat="-36.7422995" lon="174.4144851"><ele>133.0</ele><time>2026-04-18T22:43:38.887Z</time></trkpt><trkpt lat="-36.7423714" lon="174.4145503"><ele>133.0</ele><time>2026-04-18T22:43:40.888Z</time></trkpt><trkpt lat="-36.742418" lon="174.4146531"><ele>133.0</ele><time>2026-04-18T22:43:42.888Z</time></trkpt><trkpt lat="-36.7424583" lon="174.414766"><ele>133.0</ele><time>2026-04-18T22:43:44.889Z</time></trkpt><trkpt lat="-36.7424568" lon="174.414858"><ele>133.0</ele><time>2026-04-18T22:43:45.887Z</time></trkpt><trkpt lat="-36.7423929" lon="174.4149613"><ele>133.0</ele><time>2026-04-18T22:43:47.887Z</time></trkpt><trkpt lat="-36.7423438" lon="174.4150416"><ele>133.0</ele><time>2026-04-18T22:43:49.888Z</time></trkpt><trkpt lat="-36.7423483" lon="174.4151398"><ele>133.0</ele><time>2026-04-18T22:43:51.887Z</time></trkpt><trkpt lat="-36.742375" lon="174.4152219"><ele>133.0</ele><time>2026-04-18T22:43:53.888Z</time></trkpt><trkpt lat="-36.7424601" lon="174.4152444"><ele>133.0</ele><time>2026-04-18T22:43:55.887Z</time></trkpt><trkpt lat="-36.7425556" lon="174.415205"><ele>133.0</ele><time>2026-04-18T22:43:57.887Z</time></trkpt><trkpt lat="-36.7426417" lon="174.415177"><ele>133.0</ele><time>2026-04-18T22:43:59.887Z</time></trkpt><trkpt lat="-36.7427473" lon="174.4152228"><ele>133.0</ele><time>2026-04-18T22:44:01.888Z</time></trkpt><trkpt lat="-36.7428368" lon="174.4153266"><ele>133.0</ele><time>2026-04-18T22:44:03.887Z</time></trkpt><trkpt lat="-36.7428033" lon="174.4154444"><ele>131.4</ele><time>2026-04-18T22:44:05.887Z</time></trkpt><trkpt lat="-36.7427561" lon="174.4154976"><ele>129.8</ele><time>2026-04-18T22:44:06.889Z</time></trkpt><trkpt lat="-36.7426641" lon="174.4155625"><ele>128.2</ele><time>2026-04-18T22:44:08.888Z</time></trkpt><trkpt lat="-36.7425606" lon="174.4156103"><ele>126.6</ele><time>2026-04-18T22:44:10.887Z</time></trkpt><trkpt lat="-36.7424717" lon="174.4156556"><ele>125.0</ele><time>2026-04-18T22:44:12.886Z</time></trkpt><trkpt lat="-36.7424058" lon="174.4157383"><ele>124.99999999999999</ele><time>2026-04-18T22:44:13.887Z</time></trkpt><trkpt lat="-36.7424091" lon="174.4158619"><ele>125.0</ele><time>2026-04-18T22:44:15.888Z</time></trkpt><trkpt lat="-36.7424519" lon="174.4159477"><ele>125.0</ele><time>2026-04-18T22:44:17.887Z</time></trkpt><trkpt lat="-36.742515" lon="174.4160055"><ele>125.0</ele><time>2026-04-18T22:44:19.886Z</time></trkpt><trkpt lat="-36.742605" lon="174.4159898"><ele>124.99999999999999</ele><time>2026-04-18T22:44:22.887Z</time></trkpt><trkpt lat="-36.7426893" lon="174.4159916"><ele>125.0</ele><time>2026-04-18T22:44:25.887Z</time></trkpt><trkpt lat="-36.7427497" lon="174.416021"><ele>125.16666666666666</ele><time>2026-04-18T22:44:27.888Z</time></trkpt><trkpt lat="-36.742798" lon="174.4160837"><ele>125.33333333333333</ele><time>2026-04-18T22:44:29.888Z</time></trkpt><trkpt lat="-36.7428455" lon="174.4161426"><ele>125.5</ele><time>2026-04-18T22:44:31.887Z</time></trkpt><trkpt lat="-36.7428996" lon="174.416204"><ele>125.66666666666666</ele><time>2026-04-18T22:44:33.887Z</time></trkpt><trkpt lat="-36.7429669" lon="174.4162848"><ele>125.83333333333333</ele><time>2026-04-18T22:44:35.888Z</time></trkpt><trkpt lat="-36.7430323" lon="174.4163401"><ele>126.0</ele><time>2026-04-18T22:44:37.887Z</time></trkpt><trkpt lat="-36.7431172" lon="174.4163485"><ele>126.0</ele><time>2026-04-18T22:44:40.888Z</time></trkpt><trkpt lat="-36.7431991" lon="174.4163959"><ele>126.0</ele><time>2026-04-18T22:44:43.887Z</time></trkpt><trkpt lat="-36.7432578" lon="174.4164304"><ele>126.0</ele><time>2026-04-18T22:44:45.887Z</time></trkpt><trkpt lat="-36.7433179" lon="174.4164881"><ele>126.0</ele><time>2026-04-18T22:44:48.887Z</time></trkpt><trkpt lat="-36.743312" lon="174.4165666"><ele>126.0</ele><time>2026-04-18T22:44:50.888Z</time></trkpt><trkpt lat="-36.7432742" lon="174.4166314"><ele>126.0</ele><time>2026-04-18T22:44:52.888Z</time></trkpt><trkpt lat="-36.7432129" lon="174.4166871"><ele>126.0</ele><time>2026-04-18T22:44:54.887Z</time></trkpt><trkpt lat="-36.7431696" lon="174.416765"><ele>126.0</ele><time>2026-04-18T22:44:56.888Z</time></trkpt><trkpt lat="-36.7431327" lon="174.416835"><ele>126.0</ele><time>2026-04-18T22:44:58.887Z</time></trkpt><trkpt lat="-36.7430637" lon="174.4168836"><ele>126.0</ele><time>2026-04-18T22:45:00.888Z</time></trkpt><trkpt lat="-36.7430158" lon="174.4169602"><ele>126.0</ele><time>2026-04-18T22:45:03.888Z</time></trkpt><trkpt lat="-36.7430374" lon="174.4170359"><ele>126.0</ele><time>2026-04-18T22:45:05.887Z</time></trkpt><trkpt lat="-36.7431088" lon="174.4170927"><ele>126.0</ele><time>2026-04-18T22:45:08.888Z</time></trkpt><trkpt lat="-36.7431678" lon="174.4171705"><ele>126.28571428571428</ele><time>2026-04-18T22:45:11.888Z</time></trkpt><trkpt lat="-36.7431522" lon="174.4172816"><ele>126.57142857142857</ele><time>2026-04-18T22:45:13.888Z</time></trkpt><trkpt lat="-36.7431528" lon="174.4173785"><ele>126.85714285714286</ele><time>2026-04-18T22:45:15.888Z</time></trkpt><trkpt lat="-36.7432048" lon="174.4174341"><ele>127.14285714285714</ele><time>2026-04-18T22:45:17.888Z</time></trkpt><trkpt lat="-36.7432652" lon="174.4174653"><ele>127.42857142857142</ele><time>2026-04-18T22:45:19.887Z</time></trkpt><trkpt lat="-36.7433284" lon="174.4174133"><ele>127.71428571428571</ele><time>2026-04-18T22:45:22.889Z</time></trkpt><trkpt lat="-36.7433824" lon="174.4173653"><ele>128.0</ele><time>2026-04-18T22:45:24.888Z</time></trkpt><trkpt lat="-36.7434628" lon="174.4174016"><ele>128.0</ele><time>2026-04-18T22:45:27.888Z</time></trkpt><trkpt lat="-36.7435116" lon="174.4174704"><ele>127.99999999999999</ele><time>2026-04-18T22:45:29.887Z</time></trkpt><trkpt lat="-36.7435485" lon="174.4175471"><ele>128.0</ele><time>2026-04-18T22:45:31.888Z</time></trkpt><trkpt lat="-36.7435945" lon="174.4176035"><ele>128.0</ele><time>2026-04-18T22:45:33.888Z</time></trkpt><trkpt lat="-36.7436634" lon="174.4176141"><ele>127.99999999999999</ele><time>2026-04-18T22:45:35.888Z</time></trkpt><trkpt lat="-36.7437225" lon="174.4175786"><ele>128.0</ele><time>2026-04-18T22:45:37.887Z</time></trkpt><trkpt lat="-36.7437195" lon="174.4174789"><ele>128.0</ele><time>2026-04-18T22:45:40.888Z</time></trkpt><trkpt lat="-36.7437159" lon="174.4173776"><ele>127.83333333333333</ele><time>2026-04-18T22:45:43.886Z</time></trkpt><trkpt lat="-36.7437701" lon="174.4173235"><ele>127.66666666666666</ele><time>2026-04-18T22:45:46.889Z</time></trkpt><trkpt lat="-36.7438313" lon="174.417262"><ele>127.5</ele><time>2026-04-18T22:45:49.888Z</time></trkpt><trkpt lat="-36.7438757" lon="174.4172042"><ele>127.33333333333334</ele><time>2026-04-18T22:45:51.887Z</time></trkpt><trkpt lat="-36.7439298" lon="174.4171305"><ele>127.16666666666667</ele><time>2026-04-18T22:45:53.887Z</time></trkpt><trkpt lat="-36.7439846" lon="174.417069"><ele>127.0</ele><time>2026-04-18T22:45:55.887Z</time></trkpt><trkpt lat="-36.7440819" lon="174.4170577"><ele>127.0</ele><time>2026-04-18T22:45:58.888Z</time></trkpt><trkpt lat="-36.7441724" lon="174.4170608"><ele>126.99999999999999</ele><time>2026-04-18T22:46:00.887Z</time></trkpt><trkpt lat="-36.7442759" lon="174.4170379"><ele>126.99999999999999</ele><time>2026-04-18T22:46:01.886Z</time></trkpt><trkpt lat="-36.7443717" lon="174.4169733"><ele>127.0</ele><time>2026-04-18T22:46:03.887Z</time></trkpt><trkpt lat="-36.7443689" lon="174.4168894"><ele>127.0</ele><time>2026-04-18T22:46:05.887Z</time></trkpt><trkpt lat="-36.7442909" lon="174.4168397"><ele>127.0</ele><time>2026-04-18T22:46:08.886Z</time></trkpt><trkpt lat="-36.7441679" lon="174.4168133"><ele>126.99999999999999</ele><time>2026-04-18T22:46:10.888Z</time></trkpt><trkpt lat="-36.7440722" lon="174.4167795"><ele>126.99999999999999</ele><time>2026-04-18T22:46:12.887Z</time></trkpt><trkpt lat="-36.7439859" lon="174.4166994"><ele>127.0</ele><time>2026-04-18T22:46:14.888Z</time></trkpt><trkpt lat="-36.7439669" lon="174.4165744"><ele>127.0</ele><time>2026-04-18T22:46:16.887Z</time></trkpt><trkpt lat="-36.7439655" lon="174.4164816"><ele>127.00000000000001</ele><time>2026-04-18T22:46:17.889Z</time></trkpt><trkpt lat="-36.7439415" lon="174.4163978"><ele>127.0</ele><time>2026-04-18T22:46:19.888Z</time></trkpt><trkpt lat="-36.7438602" lon="174.4163063"><ele>127.0</ele><time>2026-04-18T22:46:21.887Z</time></trkpt><trkpt lat="-36.7438111" lon="174.4162457"><ele>127.0</ele><time>2026-04-18T22:46:22.887Z</time></trkpt><trkpt lat="-36.7437627" lon="174.4161943"><ele>127.00000000000001</ele><time>2026-04-18T22:46:23.887Z</time></trkpt><trkpt lat="-36.7437318" lon="174.4161202"><ele>127.0</ele><time>2026-04-18T22:46:24.887Z</time></trkpt><trkpt lat="-36.7436686" lon="174.4160077"><ele>125.85714285714286</ele><time>2026-04-18T22:46:26.887Z</time></trkpt><trkpt lat="-36.7436673" lon="174.4159256"><ele>124.71428571428571</ele><time>2026-04-18T22:46:27.887Z</time></trkpt><trkpt lat="-36.7436862" lon="174.4158492"><ele>123.57142857142857</ele><time>2026-04-18T22:46:28.888Z</time></trkpt><trkpt lat="-36.743743" lon="174.4157839"><ele>122.42857142857143</ele><time>2026-04-18T22:46:31.887Z</time></trkpt><trkpt lat="-36.7438" lon="174.4158373"><ele>121.28571428571428</ele><time>2026-04-18T22:46:34.888Z</time></trkpt><trkpt lat="-36.7438296" lon="174.4159137"><ele>120.14285714285714</ele><time>2026-04-18T22:46:36.887Z</time></trkpt><trkpt lat="-36.7438739" lon="174.4159707"><ele>119.0</ele><time>2026-04-18T22:46:38.886Z</time></trkpt><trkpt lat="-36.7439443" lon="174.4159863"><ele>118.99999999999999</ele><time>2026-04-18T22:46:41.886Z</time></trkpt><trkpt lat="-36.7440091" lon="174.4160346"><ele>119.0</ele><time>2026-04-18T22:46:43.887Z</time></trkpt><trkpt lat="-36.7440684" lon="174.4161188"><ele>119.0</ele><time>2026-04-18T22:46:46.888Z</time></trkpt><trkpt lat="-36.744089" lon="174.4162179"><ele>119.0</ele><time>2026-04-18T22:46:48.886Z</time></trkpt><trkpt lat="-36.7440924" lon="174.4163259"><ele>118.99999999999999</ele><time>2026-04-18T22:46:50.887Z</time></trkpt><trkpt lat="-36.744106" lon="174.4164172"><ele>119.0</ele><time>2026-04-18T22:46:52.887Z</time></trkpt><trkpt lat="-36.744119" lon="174.4165347"><ele>119.0</ele><time>2026-04-18T22:46:55.886Z</time></trkpt><trkpt lat="-36.7441658" lon="174.4166115"><ele>119.0</ele><time>2026-04-18T22:46:58.888Z</time></trkpt><trkpt lat="-36.744233" lon="174.4166079"><ele>119.0</ele><time>2026-04-18T22:47:00.887Z</time></trkpt><trkpt lat="-36.7442698" lon="174.4165185"><ele>119.0</ele><time>2026-04-18T22:47:04.887Z</time></trkpt><trkpt lat="-36.7442575" lon="174.4164395"><ele>119.0</ele><time>2026-04-18T22:47:06.887Z</time></trkpt><trkpt lat="-36.7442656" lon="174.4163488"><ele>119.0</ele><time>2026-04-18T22:47:08.889Z</time></trkpt><trkpt lat="-36.7443003" lon="174.4162789"><ele>119.0</ele><time>2026-04-18T22:47:10.887Z</time></trkpt><trkpt lat="-36.744355" lon="174.4162364"><ele>120.66666666666666</ele><time>2026-04-18T22:47:12.886Z</time></trkpt><trkpt lat="-36.7444415" lon="174.4162571"><ele>122.33333333333333</ele><time>2026-04-18T22:47:15.887Z</time></trkpt><trkpt lat="-36.7444909" lon="174.4163214"><ele>124.0</ele><time>2026-04-18T22:47:18.886Z</time></trkpt><trkpt lat="-36.7445222" lon="174.4163903"><ele>125.66666666666666</ele><time>2026-04-18T22:47:21.886Z</time></trkpt><trkpt lat="-36.7445154" lon="174.4164817"><ele>127.33333333333333</ele><time>2026-04-18T22:47:23.888Z</time></trkpt><trkpt lat="-36.7445039" lon="174.4165786"><ele>129.0</ele><time>2026-04-18T22:47:25.887Z</time></trkpt><trkpt lat="-36.7444983" lon="174.4166779"><ele>129.5</ele><time>2026-04-18T22:47:27.888Z</time></trkpt><trkpt lat="-36.7445293" lon="174.416764"><ele>130.0</ele><time>2026-04-18T22:47:29.887Z</time></trkpt><trkpt lat="-36.7445673" lon="174.4168273"><ele>130.5</ele><time>2026-04-18T22:47:31.887Z</time></trkpt><trkpt lat="-36.7445887" lon="174.4169481"><ele>131.0</ele><time>2026-04-18T22:47:34.888Z</time></trkpt><trkpt lat="-36.744651" lon="174.417006"><ele>131.5</ele><time>2026-04-18T22:47:37.887Z</time></trkpt><trkpt lat="-36.744717" lon="174.4169759"><ele>132.0</ele><time>2026-04-18T22:47:40.886Z</time></trkpt><trkpt lat="-36.7447884" lon="174.4169247"><ele>132.0</ele><time>2026-04-18T22:47:43.889Z</time></trkpt><trkpt lat="-36.7448509" lon="174.4168798"><ele>132.0</ele><time>2026-04-18T22:47:45.886Z</time></trkpt><trkpt lat="-36.7449267" lon="174.4168515"><ele>132.0</ele><time>2026-04-18T22:47:47.886Z</time></trkpt><trkpt lat="-36.7450039" lon="174.4168571"><ele>132.0</ele><time>2026-04-18T22:47:49.887Z</time></trkpt><trkpt lat="-36.7450527" lon="174.4169288"><ele>132.0</ele><time>2026-04-18T22:47:51.888Z</time></trkpt><trkpt lat="-36.7450889" lon="174.417008"><ele>132.0</ele><time>2026-04-18T22:47:53.887Z</time></trkpt><trkpt lat="-36.7451385" lon="174.4170846"><ele>132.0</ele><time>2026-04-18T22:47:56.888Z</time></trkpt><trkpt lat="-36.7451997" lon="174.4171437"><ele>132.0</ele><time>2026-04-18T22:47:59.886Z</time></trkpt><trkpt lat="-36.7452743" lon="174.4171064"><ele>132.0</ele><time>2026-04-18T22:48:03.886Z</time></trkpt><trkpt lat="-36.7453562" lon="174.417051"><ele>132.0</ele><time>2026-04-18T22:48:06.888Z</time></trkpt><trkpt lat="-36.7454295" lon="174.4170739"><ele>132.0</ele><time>2026-04-18T22:48:09.887Z</time></trkpt><trkpt lat="-36.7455053" lon="174.4171392"><ele>132.0</ele><time>2026-04-18T22:48:12.889Z</time></trkpt><trkpt lat="-36.7455692" lon="174.4171511"><ele>132.57142857142856</ele><time>2026-04-18T22:48:15.886Z</time></trkpt><trkpt lat="-36.7456327" lon="174.4171226"><ele>133.14285714285714</ele><time>2026-04-18T22:48:18.888Z</time></trkpt><trkpt lat="-36.7457013" lon="174.4171963"><ele>133.71428571428572</ele><time>2026-04-18T22:48:21.887Z</time></trkpt><trkpt lat="-36.7457401" lon="174.4172606"><ele>134.28571428571428</ele><time>2026-04-18T22:48:23.887Z</time></trkpt><trkpt lat="-36.745776" lon="174.4173605"><ele>134.85714285714286</ele><time>2026-04-18T22:48:27.887Z</time></trkpt><trkpt lat="-36.7457943" lon="174.4174363"><ele>135.42857142857142</ele><time>2026-04-18T22:48:29.888Z</time></trkpt><trkpt lat="-36.7458181" lon="174.4175207"><ele>136.0</ele><time>2026-04-18T22:48:31.889Z</time></trkpt><trkpt lat="-36.7458399" lon="174.4176446"><ele>135.99999999999997</ele><time>2026-04-18T22:48:34.886Z</time></trkpt><trkpt lat="-36.7458539" lon="174.4177343"><ele>136.0</ele><time>2026-04-18T22:48:36.887Z</time></trkpt><trkpt lat="-36.7458861" lon="174.417807"><ele>136.0</ele><time>2026-04-18T22:48:38.887Z</time></trkpt><trkpt lat="-36.7459575" lon="174.4178356"><ele>136.0</ele><time>2026-04-18T22:48:42.888Z</time></trkpt><trkpt lat="-36.7460471" lon="174.4178519"><ele>136.0</ele><time>2026-04-18T22:48:46.888Z</time></trkpt><trkpt lat="-36.7460695" lon="174.4179276"><ele>135.99999999999997</ele><time>2026-04-18T22:48:49.887Z</time></trkpt><trkpt lat="-36.7460372" lon="174.4180129"><ele>136.0</ele><time>2026-04-18T22:48:53.889Z</time></trkpt><trkpt lat="-36.7459727" lon="174.4180537"><ele>136.0</ele><time>2026-04-18T22:48:56.886Z</time></trkpt><trkpt lat="-36.7458985" lon="174.4180206"><ele>136.0</ele><time>2026-04-18T22:49:28.887Z</time></trkpt><trkpt lat="-36.7458303" lon="174.4179796"><ele>136.0</ele><time>2026-04-18T22:49:32.887Z</time></trkpt><trkpt lat="-36.7457661" lon="174.4179448"><ele>136.0</ele><time>2026-04-18T22:49:33.886Z</time></trkpt><trkpt lat="-36.745631" lon="174.4178193"><ele>136.0</ele><time>2026-04-18T22:49:35.886Z</time></trkpt><trkpt lat="-36.7455039" lon="174.417719"><ele>136.0</ele><time>2026-04-18T22:49:37.888Z</time></trkpt><trkpt lat="-36.7454484" lon="174.4176602"><ele>136.0</ele><time>2026-04-18T22:49:38.886Z</time></trkpt><trkpt lat="-36.7453959" lon="174.4175818"><ele>136.0</ele><time>2026-04-18T22:49:39.888Z</time></trkpt><trkpt lat="-36.7453304" lon="174.41746"><ele>136.0</ele><time>2026-04-18T22:49:41.889Z</time></trkpt><trkpt lat="-36.7452696" lon="174.4174074"><ele>136.0</ele><time>2026-04-18T22:49:42.887Z</time></trkpt><trkpt lat="-36.7451802" lon="174.417348"><ele>136.0</ele><time>2026-04-18T22:49:44.888Z</time></trkpt><trkpt lat="-36.7450902" lon="174.4172694"><ele>135.2</ele><time>2026-04-18T22:49:46.888Z</time></trkpt><trkpt lat="-36.7450346" lon="174.4172207"><ele>134.39999999999998</ele><time>2026-04-18T22:49:47.887Z</time></trkpt><trkpt lat="-36.744936" lon="174.4171544"><ele>133.6</ele><time>2026-04-18T22:49:49.887Z</time></trkpt><trkpt lat="-36.7448363" lon="174.41714"><ele>132.79999999999998</ele><time>2026-04-18T22:49:51.887Z</time></trkpt><trkpt lat="-36.7447358" lon="174.4171627"><ele>132.0</ele><time>2026-04-18T22:49:53.888Z</time></trkpt><trkpt lat="-36.7447358" lon="174.417266"><ele>132.0</ele><time>2026-04-18T22:49:55.889Z</time></trkpt><trkpt lat="-36.7447608" lon="174.4173821"><ele>132.0</ele><time>2026-04-18T22:49:57.887Z</time></trkpt><trkpt lat="-36.7447349" lon="174.417482"><ele>132.0</ele><time>2026-04-18T22:49:59.888Z</time></trkpt><trkpt lat="-36.7446927" lon="174.4176083"><ele>132.0</ele><time>2026-04-18T22:50:02.888Z</time></trkpt><trkpt lat="-36.7446322" lon="174.4177433"><ele>132.0</ele><time>2026-04-18T22:50:04.888Z</time></trkpt><trkpt lat="-36.7445606" lon="174.4177789"><ele>132.0</ele><time>2026-04-18T22:50:05.887Z</time></trkpt><trkpt lat="-36.7444376" lon="174.4178538"><ele>132.0</ele><time>2026-04-18T22:50:07.887Z</time></trkpt><trkpt lat="-36.7442876" lon="174.4178439"><ele>132.0</ele><time>2026-04-18T22:50:09.887Z</time></trkpt><trkpt lat="-36.7442176" lon="174.4178988"><ele>132.0</ele><time>2026-04-18T22:50:10.889Z</time></trkpt><trkpt lat="-36.7441696" lon="174.4179608"><ele>132.0</ele><time>2026-04-18T22:50:11.887Z</time></trkpt><trkpt lat="-36.7441035" lon="174.4180346"><ele>129.83333333333334</ele><time>2026-04-18T22:50:12.887Z</time></trkpt><trkpt lat="-36.7440435" lon="174.4180713"><ele>127.66666666666666</ele><time>2026-04-18T22:50:13.887Z</time></trkpt><trkpt lat="-36.743953" lon="174.4181208"><ele>125.5</ele><time>2026-04-18T22:50:14.886Z</time></trkpt><trkpt lat="-36.7438864" lon="174.4181423"><ele>123.33333333333333</ele><time>2026-04-18T22:50:15.887Z</time></trkpt><trkpt lat="-36.74381" lon="174.4181413"><ele>121.16666666666666</ele><time>2026-04-18T22:50:16.887Z</time></trkpt><trkpt lat="-36.7437086" lon="174.4181783"><ele>119.0</ele><time>2026-04-18T22:50:18.888Z</time></trkpt><trkpt lat="-36.7436102" lon="174.41821"><ele>119.0</ele><time>2026-04-18T22:50:20.888Z</time></trkpt><trkpt lat="-36.7435561" lon="174.4182882"><ele>119.0</ele><time>2026-04-18T22:50:23.888Z</time></trkpt><trkpt lat="-36.7434507" lon="174.4183884"><ele>119.0</ele><time>2026-04-18T22:50:25.887Z</time></trkpt><trkpt lat="-36.7433985" lon="174.4184373"><ele>119.0</ele><time>2026-04-18T22:50:26.887Z</time></trkpt><trkpt lat="-36.7433309" lon="174.4185858"><ele>119.0</ele><time>2026-04-18T22:50:28.887Z</time></trkpt><trkpt lat="-36.7432401" lon="174.418671"><ele>118.2</ele><time>2026-04-18T22:50:30.887Z</time></trkpt><trkpt lat="-36.7431705" lon="174.4187027"><ele>117.4</ele><time>2026-04-18T22:50:31.887Z</time></trkpt><trkpt lat="-36.7430643" lon="174.4186933"><ele>116.6</ele><time>2026-04-18T22:50:33.887Z</time></trkpt><trkpt lat="-36.7429323" lon="174.4186708"><ele>115.8</ele><time>2026-04-18T22:50:35.887Z</time></trkpt><trkpt lat="-36.742868" lon="174.4186602"><ele>115.0</ele><time>2026-04-18T22:50:36.887Z</time></trkpt><trkpt lat="-36.7427635" lon="174.4186494"><ele>115.85714285714283</ele><time>2026-04-18T22:50:38.888Z</time></trkpt><trkpt lat="-36.742696" lon="174.418633"><ele>116.71428571428571</ele><time>2026-04-18T22:50:39.887Z</time></trkpt><trkpt lat="-36.7426274" lon="174.4186321"><ele>117.57142857142856</ele><time>2026-04-18T22:50:40.888Z</time></trkpt><trkpt lat="-36.7425618" lon="174.4186402"><ele>118.42857142857142</ele><time>2026-04-18T22:50:41.887Z</time></trkpt><trkpt lat="-36.7425012" lon="174.4186732"><ele>119.28571428571428</ele><time>2026-04-18T22:50:42.886Z</time></trkpt><trkpt lat="-36.7424358" lon="174.4187198"><ele>120.14285714285714</ele><time>2026-04-18T22:50:43.887Z</time></trkpt><trkpt lat="-36.7423752" lon="174.4187696"><ele>121.0</ele><time>2026-04-18T22:50:44.887Z</time></trkpt><trkpt lat="-36.7423114" lon="174.4188134"><ele>119.71428571428571</ele><time>2026-04-18T22:50:45.886Z</time></trkpt><trkpt lat="-36.7422441" lon="174.4188572"><ele>118.42857142857142</ele><time>2026-04-18T22:50:46.887Z</time></trkpt><trkpt lat="-36.7421708" lon="174.4188983"><ele>117.14285714285714</ele><time>2026-04-18T22:50:47.887Z</time></trkpt><trkpt lat="-36.7421002" lon="174.4189285"><ele>115.85714285714286</ele><time>2026-04-18T22:50:48.887Z</time></trkpt><trkpt lat="-36.7420319" lon="174.4189432"><ele>114.57142857142857</ele><time>2026-04-18T22:50:49.888Z</time></trkpt><trkpt lat="-36.7419597" lon="174.418967"><ele>113.28571428571428</ele><time>2026-04-18T22:50:50.888Z</time></trkpt><trkpt lat="-36.7418977" lon="174.4189878"><ele>112.0</ele><time>2026-04-18T22:50:51.888Z</time></trkpt><trkpt lat="-36.741834" lon="174.4190039"><ele>111.39999999999999</ele><time>2026-04-18T22:50:52.887Z</time></trkpt><trkpt lat="-36.7417048" lon="174.4190074"><ele>110.79999999999998</ele><time>2026-04-18T22:50:54.888Z</time></trkpt><trkpt lat="-36.7416281" lon="174.4190162"><ele>110.2</ele><time>2026-04-18T22:50:55.887Z</time></trkpt><trkpt lat="-36.7415577" lon="174.4190147"><ele>109.6</ele><time>2026-04-18T22:50:56.888Z</time></trkpt><trkpt lat="-36.7414924" lon="174.4190166"><ele>109.0</ele><time>2026-04-18T22:50:57.888Z</time></trkpt><trkpt lat="-36.7413707" lon="174.419021"><ele>109.00000000000001</ele><time>2026-04-18T22:50:59.887Z</time></trkpt><trkpt lat="-36.7412964" lon="174.4190749"><ele>109.0</ele><time>2026-04-18T22:51:01.887Z</time></trkpt><trkpt lat="-36.7412277" lon="174.4191653"><ele>109.0</ele><time>2026-04-18T22:51:03.886Z</time></trkpt><trkpt lat="-36.7411905" lon="174.4192296"><ele>109.0</ele><time>2026-04-18T22:51:04.887Z</time></trkpt><trkpt lat="-36.7411488" lon="174.4192892"><ele>109.00000000000001</ele><time>2026-04-18T22:51:05.887Z</time></trkpt><trkpt lat="-36.7410903" lon="174.4193362"><ele>109.0</ele><time>2026-04-18T22:51:06.886Z</time></trkpt><trkpt lat="-36.7410058" lon="174.4193551"><ele>109.00000000000001</ele><time>2026-04-18T22:51:08.887Z</time></trkpt><trkpt lat="-36.7410365" lon="174.4192622"><ele>109.0</ele><time>2026-04-18T22:51:13.887Z</time></trkpt><trkpt lat="-36.7410641" lon="174.4191844"><ele>109.0</ele><time>2026-04-18T22:51:16.887Z</time></trkpt><trkpt lat="-36.7409868" lon="174.419237"><ele>109.0</ele><time>2026-04-18T22:51:19.887Z</time></trkpt><trkpt lat="-36.7409237" lon="174.4192676"><ele>109.00000000000001</ele><time>2026-04-18T22:51:21.888Z</time></trkpt><trkpt lat="-36.7408424" lon="174.4192942"><ele>109.0</ele><time>2026-04-18T22:51:23.887Z</time></trkpt><trkpt lat="-36.7407593" lon="174.4193103"><ele>109.6</ele><time>2026-04-18T22:51:25.888Z</time></trkpt><trkpt lat="-36.7406812" lon="174.4193907"><ele>110.2</ele><time>2026-04-18T22:51:27.888Z</time></trkpt><trkpt lat="-36.7405854" lon="174.4194554"><ele>110.79999999999998</ele><time>2026-04-18T22:51:29.887Z</time></trkpt><trkpt lat="-36.7404729" lon="174.41949"><ele>111.39999999999999</ele><time>2026-04-18T22:51:31.888Z</time></trkpt><trkpt lat="-36.740361" lon="174.4195251"><ele>112.0</ele><time>2026-04-18T22:51:33.886Z</time></trkpt><trkpt lat="-36.7402919" lon="174.4195259"><ele>112.0</ele><time>2026-04-18T22:51:34.887Z</time></trkpt><trkpt lat="-36.7402293" lon="174.4195499"><ele>112.0</ele><time>2026-04-18T22:51:35.887Z</time></trkpt><trkpt lat="-36.7401542" lon="174.4195656"><ele>112.0</ele><time>2026-04-18T22:51:36.887Z</time></trkpt><trkpt lat="-36.7400905" lon="174.4195607"><ele>112.0</ele><time>2026-04-18T22:51:37.887Z</time></trkpt><trkpt lat="-36.7400145" lon="174.4195533"><ele>112.0</ele><time>2026-04-18T22:51:38.887Z</time></trkpt><trkpt lat="-36.7399473" lon="174.4195522"><ele>112.0</ele><time>2026-04-18T22:51:39.888Z</time></trkpt><trkpt lat="-36.7398758" lon="174.4195606"><ele>112.0</ele><time>2026-04-18T22:51:40.887Z</time></trkpt><trkpt lat="-36.7398027" lon="174.4195627"><ele>111.66666666666667</ele><time>2026-04-18T22:51:41.889Z</time></trkpt><trkpt lat="-36.7397316" lon="174.4195558"><ele>111.33333333333334</ele><time>2026-04-18T22:51:42.886Z</time></trkpt><trkpt lat="-36.739654" lon="174.4195683"><ele>111.0</ele><time>2026-04-18T22:51:43.886Z</time></trkpt><trkpt lat="-36.7395706" lon="174.4195783"><ele>110.66666666666666</ele><time>2026-04-18T22:51:44.887Z</time></trkpt><trkpt lat="-36.7395032" lon="174.4195915"><ele>110.33333333333333</ele><time>2026-04-18T22:51:45.886Z</time></trkpt><trkpt lat="-36.7394381" lon="174.4196132"><ele>110.0</ele><time>2026-04-18T22:51:46.886Z</time></trkpt><trkpt lat="-36.7393131" lon="174.4196371"><ele>107.6</ele><time>2026-04-18T22:51:48.887Z</time></trkpt><trkpt lat="-36.7392027" lon="174.4196273"><ele>105.2</ele><time>2026-04-18T22:51:50.888Z</time></trkpt><trkpt lat="-36.7391427" lon="174.4195223"><ele>102.80000000000001</ele><time>2026-04-18T22:51:52.888Z</time></trkpt><trkpt lat="-36.7390941" lon="174.419411"><ele>100.4</ele><time>2026-04-18T22:51:54.888Z</time></trkpt><trkpt lat="-36.7390457" lon="174.4193345"><ele>98.0</ele><time>2026-04-18T22:51:56.887Z</time></trkpt><trkpt lat="-36.7389769" lon="174.4192969"><ele>98.0</ele><time>2026-04-18T22:51:59.887Z</time></trkpt><trkpt lat="-36.7390012" lon="174.4193913"><ele>98.0</ele><time>2026-04-18T22:52:02.888Z</time></trkpt><trkpt lat="-36.7390872" lon="174.4194793"><ele>98.0</ele><time>2026-04-18T22:52:04.887Z</time></trkpt><trkpt lat="-36.7391165" lon="174.4195492"><ele>98.0</ele><time>2026-04-18T22:52:05.887Z</time></trkpt><trkpt lat="-36.7391751" lon="174.4196727"><ele>98.0</ele><time>2026-04-18T22:52:07.887Z</time></trkpt><trkpt lat="-36.7391859" lon="174.4197781"><ele>96.16666666666666</ele><time>2026-04-18T22:52:08.888Z</time></trkpt><trkpt lat="-36.7392004" lon="174.4198753"><ele>94.33333333333333</ele><time>2026-04-18T22:52:09.887Z</time></trkpt><trkpt lat="-36.7392135" lon="174.4199547"><ele>92.5</ele><time>2026-04-18T22:52:10.887Z</time></trkpt><trkpt lat="-36.7392645" lon="174.4201159"><ele>90.66666666666666</ele><time>2026-04-18T22:52:12.887Z</time></trkpt><trkpt lat="-36.7392851" lon="174.420202"><ele>88.83333333333333</ele><time>2026-04-18T22:52:13.889Z</time></trkpt><trkpt lat="-36.7393103" lon="174.4202979"><ele>87.0</ele><time>2026-04-18T22:52:14.887Z</time></trkpt><trkpt lat="-36.7393394" lon="174.4203815"><ele>87.8</ele><time>2026-04-18T22:52:15.886Z</time></trkpt><trkpt lat="-36.7394324" lon="174.420482"><ele>88.6</ele><time>2026-04-18T22:52:17.889Z</time></trkpt><trkpt lat="-36.7394607" lon="174.4206063"><ele>89.39999999999999</ele><time>2026-04-18T22:52:19.889Z</time></trkpt><trkpt lat="-36.7394871" lon="174.4207198"><ele>90.19999999999999</ele><time>2026-04-18T22:52:21.886Z</time></trkpt><trkpt lat="-36.7395002" lon="174.4208021"><ele>91.0</ele><time>2026-04-18T22:52:22.887Z</time></trkpt><trkpt lat="-36.7394338" lon="174.42094"><ele>91.0</ele><time>2026-04-18T22:52:24.887Z</time></trkpt><trkpt lat="-36.7394069" lon="174.4210765"><ele>91.0</ele><time>2026-04-18T22:52:26.888Z</time></trkpt><trkpt lat="-36.7393999" lon="174.4212198"><ele>91.0</ele><time>2026-04-18T22:52:28.886Z</time></trkpt><trkpt lat="-36.7394036" lon="174.4213512"><ele>91.0</ele><time>2026-04-18T22:52:30.889Z</time></trkpt><trkpt lat="-36.7394064" lon="174.421441"><ele>91.0</ele><time>2026-04-18T22:52:31.886Z</time></trkpt><trkpt lat="-36.7394033" lon="174.4215341"><ele>90.0</ele><time>2026-04-18T22:52:32.887Z</time></trkpt><trkpt lat="-36.7394137" lon="174.4216206"><ele>89.0</ele><time>2026-04-18T22:52:33.887Z</time></trkpt><trkpt lat="-36.739413" lon="174.4217026"><ele>88.0</ele><time>2026-04-18T22:52:34.888Z</time></trkpt><trkpt lat="-36.7394315" lon="174.4217938"><ele>87.0</ele><time>2026-04-18T22:52:35.888Z</time></trkpt><trkpt lat="-36.7394599" lon="174.4218887"><ele>86.0</ele><time>2026-04-18T22:52:36.886Z</time></trkpt><trkpt lat="-36.7395389" lon="174.4219861"><ele>85.0</ele><time>2026-04-18T22:52:38.888Z</time></trkpt><trkpt lat="-36.7396139" lon="174.4220697"><ele>85.0</ele><time>2026-04-18T22:52:40.887Z</time></trkpt><trkpt lat="-36.7396854" lon="174.4221231"><ele>85.0</ele><time>2026-04-18T22:52:42.887Z</time></trkpt><trkpt lat="-36.7397522" lon="174.422147"><ele>85.0</ele><time>2026-04-18T22:52:44.887Z</time></trkpt><trkpt lat="-36.7398496" lon="174.4221753"><ele>85.0</ele><time>2026-04-18T22:52:46.887Z</time></trkpt><trkpt lat="-36.7399395" lon="174.4221853"><ele>85.0</ele><time>2026-04-18T22:52:48.888Z</time></trkpt><trkpt lat="-36.7400085" lon="174.4222295"><ele>85.0</ele><time>2026-04-18T22:52:50.888Z</time></trkpt><trkpt lat="-36.7400506" lon="174.4223058"><ele>85.0</ele><time>2026-04-18T22:52:54.888Z</time></trkpt><trkpt lat="-36.7400266" lon="174.4223872"><ele>85.0</ele><time>2026-04-18T22:52:58.888Z</time></trkpt><trkpt lat="-36.740008" lon="174.422464"><ele>85.0</ele><time>2026-04-18T22:53:02.888Z</time></trkpt><trkpt lat="-36.7399619" lon="174.4225342"><ele>85.0</ele><time>2026-04-18T22:53:08.887Z</time></trkpt><trkpt lat="-36.7399612" lon="174.4226197"><ele>85.0</ele><time>2026-04-18T22:53:12.887Z</time></trkpt><trkpt lat="-36.7399339" lon="174.4227058"><ele>85.0</ele><time>2026-04-18T22:53:15.886Z</time></trkpt><trkpt lat="-36.7399063" lon="174.422785"><ele>85.0</ele><time>2026-04-18T22:53:17.889Z</time></trkpt><trkpt lat="-36.7398845" lon="174.4228789"><ele>85.0</ele><time>2026-04-18T22:53:19.886Z</time></trkpt><trkpt lat="-36.7398707" lon="174.4229719"><ele>85.0</ele><time>2026-04-18T22:53:21.887Z</time></trkpt><trkpt lat="-36.7398568" lon="174.423063"><ele>85.0</ele><time>2026-04-18T22:53:23.887Z</time></trkpt><trkpt lat="-36.7398492" lon="174.4231582"><ele>85.0</ele><time>2026-04-18T22:53:25.888Z</time></trkpt><trkpt lat="-36.7398564" lon="174.4232468"><ele>85.0</ele><time>2026-04-18T22:53:27.888Z</time></trkpt><trkpt lat="-36.7398919" lon="174.4233228"><ele>85.0</ele><time>2026-04-18T22:53:29.888Z</time></trkpt><trkpt lat="-36.7399511" lon="174.4233692"><ele>85.0</ele><time>2026-04-18T22:53:31.887Z</time></trkpt><trkpt lat="-36.7400267" lon="174.4233877"><ele>81.0</ele><time>2026-04-18T22:53:33.888Z</time></trkpt><trkpt lat="-36.7400927" lon="174.4233794"><ele>81.0</ele><time>2026-04-18T22:53:35.886Z</time></trkpt><trkpt lat="-36.7401545" lon="174.4234397"><ele>81.0</ele><time>2026-04-18T22:53:38.887Z</time></trkpt><trkpt lat="-36.7402112" lon="174.4234827"><ele>81.0</ele><time>2026-04-18T22:57:00.887Z</time></trkpt><trkpt lat="-36.7402784" lon="174.4234653"><ele>86.0</ele><time>2026-04-18T22:57:05.887Z</time></trkpt><trkpt lat="-36.7402444" lon="174.4235393"><ele>86.0</ele><time>2026-04-18T22:58:36.887Z</time></trkpt><trkpt lat="-36.7401742" lon="174.4235176"><ele>81.0</ele><time>2026-04-18T22:58:44.887Z</time></trkpt></trkseg></trk></gpx>